GFSSE_prec_precacc24_018.txt.gz
Total_Precipitation_Accumulation
0.18 0.03 0.02 0.09 0.08 0.00 0.00 0.00 0.00 0.00 0.00 0.00 0.00 0.00 0.00 0.00 0.00 0.00 0.00 0.00 0.00 0.00 0.00 0.00 0.00 0.00 0.00 0.00 0.00 0.00 0.00 0.00 0.00 0.00 0.00 0.01 0.06 0.02 0.01 0.00 0.00 0.00 0.01
0.19 0.05 0.03 0.07 0.11 0.01 0.00 0.00 0.00 0.00 0.00 0.00 0.00 0.00 0.00 0.00 0.00 0.00 0.00 0.00 0.00 0.00 0.00 0.00 0.00 0.00 0.00 0.00 0.00 0.00 0.00 0.00 0.00 0.00 0.00 0.03 0.09 0.01 0.05 0.02 0.00 0.01 0.02
0.25 0.08 0.02 0.12 0.11 0.03 0.00 0.02 0.03 0.01 0.00 0.00 0.00 0.00 0.00 0.00 0.00 0.00 0.00 0.00 0.00 0.00 0.00 0.00 0.00 0.00 0.00 0.00 0.00 0.00 0.00 0.00 0.00 0.00 0.00 0.06 0.02 0.01 0.05 0.04 0.01 0.01 0.01
0.13 0.07 0.01 0.11 0.19 0.14 0.07 0.11 0.13 0.13 0.02 0.00 0.00 0.00 0.00 0.00 0.00 0.00 0.00 0.00 0.00 0.00 0.00 0.00 0.00 0.00 0.00 0.00 0.00 0.00 0.00 0.00 0.00 0.00 0.00 0.00 0.00 0.01 0.06 0.08 0.05 0.01 0.00
0.42 0.24 0.06 0.11 0.20 0.28 0.23 0.22 0.20 0.12 0.03 0.00 0.00 0.00 0.00 0.00 0.00 0.00 0.00 0.00 0.00 0.00 0.00 0.00 0.00 0.00 0.00 0.00 0.00 0.00 0.00 0.00 0.00 0.00 0.00 0.00 0.00 0.02 0.08 0.08 0.01 0.01 0.01
0.76 0.61 0.27 0.20 0.38 0.44 0.42 0.35 0.15 0.05 0.00 0.00 0.00 0.00 0.00 0.00 0.00 0.00 0.00 0.00 0.00 0.00 0.00 0.00 0.00 0.00 0.00 0.00 0.00 0.00 0.00 0.00 0.00 0.00 0.00 0.00 0.00 0.01 0.05 0.06 0.05 0.02 0.01
1.45 0.84 0.37 0.60 0.79 0.65 0.79 0.32 0.10 0.02 0.00 0.00 0.00 0.00 0.00 0.00 0.00 0.00 0.00 0.00 0.00 0.00 0.00 0.00 0.00 0.00 0.00 0.00 0.00 0.00 0.00 0.00 0.00 0.00 0.00 0.00 0.00 0.00 0.00 0.02 0.02 0.00 0.00
2.50 1.23 0.97 0.97 0.97 1.66 0.88 0.17 0.02 0.01 0.00 0.00 0.00 0.00 0.00 0.00 0.00 0.00 0.00 0.00 0.00 0.00 0.00 0.00 0.00 0.00 0.00 0.00 0.00 0.00 0.00 0.00 0.00 0.00 0.00 0.00 0.00 0.00 0.00 0.00 0.01 0.00 0.00
2.55 2.04 2.83 2.01 1.42 1.34 0.55 0.07 0.00 0.00 0.00 0.00 0.00 0.00 0.00 0.00 0.00 0.00 0.00 0.00 0.00 0.00 0.00 0.00 0.00 0.00 0.00 0.00 0.00 0.00 0.00 0.00 0.00 0.00 0.00 0.00 0.00 0.00 0.00 0.00 0.02 0.02 0.01
2.52 2.69 2.13 1.63 2.16 0.94 0.19 0.02 0.00 0.00 0.00 0.00 0.00 0.00 0.00 0.00 0.00 0.00 0.00 0.00 0.00 0.00 0.00 0.00 0.00 0.00 0.00 0.00 0.00 0.00 0.00 0.00 0.00 0.00 0.00 0.00 0.00 0.00 0.00 0.00 0.00 0.00 0.01
1.16 1.22 1.54 0.77 0.75 0.55 0.15 0.02 0.00 0.00 0.00 0.00 0.00 0.00 0.00 0.00 0.00 0.00 0.00 0.00 0.00 0.00 0.00 0.00 0.00 0.00 0.00 0.00 0.00 0.00 0.00 0.00 0.00 0.00 0.00 0.00 0.00 0.00 0.00 0.00 0.00 0.00 0.00
0.40 0.55 0.31 0.17 0.20 0.09 0.02 0.01 0.00 0.00 0.00 0.00 0.00 0.00 0.00 0.00 0.00 0.00 0.00 0.00 0.00 0.00 0.00 0.00 0.00 0.00 0.00 0.00 0.00 0.00 0.00 0.00 0.00 0.00 0.00 0.00 0.00 0.00 0.00 0.00 0.00 0.00 0.01
0.11 0.13 0.14 0.12 0.03 0.01 0.00 0.00 0.00 0.00 0.00 0.00 0.00 0.00 0.00 0.01 0.00 0.00 0.00 0.01 0.02 0.00 0.00 0.00 0.00 0.00 0.00 0.00 0.00 0.00 0.00 0.00 0.00 0.00 0.00 0.00 0.00 0.00 0.00 0.00 0.00 0.00 0.00
0.02 0.03 0.04 0.04 0.01 0.00 0.00 0.00 0.00 0.00 0.00 0.00 0.00 0.00 0.04 0.04 0.03 0.00 0.00 0.01 0.00 0.00 0.00 0.00 0.00 0.00 0.00 0.00 0.00 0.00 0.00 0.00 0.00 0.00 0.00 0.00 0.00 0.00 0.00 0.00 0.00 0.00 0.00
0.01 0.01 0.01 0.01 0.00 0.00 0.00 0.00 0.00 0.02 0.07 0.10 0.12 0.16 0.10 0.05 0.04 0.00 0.00 0.00 0.00 0.00 0.00 0.00 0.00 0.00 0.00 0.00 0.00 0.00 0.00 0.00 0.00 0.00 0.00 0.00 0.00 0.00 0.00 0.00 0.00 0.00 0.00
0.00 0.00 0.00 0.00 0.00 0.00 0.00 0.00 0.01 0.09 0.17 0.24 0.26 0.33 0.24 0.16 0.10 0.04 0.01 0.00 0.00 0.00 0.00 0.00 0.00 0.00 0.00 0.00 0.00 0.00 0.00 0.00 0.00 0.00 0.00 0.00 0.00 0.00 0.00 0.00 0.00 0.00 0.00
0.00 0.00 0.00 0.00 0.00 0.00 0.00 0.00 0.05 0.07 0.06 0.10 0.16 0.25 0.25 0.20 0.10 0.01 0.00 0.00 0.00 0.00 0.00 0.00 0.00 0.00 0.00 0.00 0.00 0.00 0.00 0.00 0.00 0.00 0.00 0.00 0.00 0.00 0.00 0.00 0.00 0.00 0.00
0.00 0.00 0.00 0.00 0.00 0.01 0.02 0.03 0.11 0.08 0.03 0.04 0.12 0.09 0.05 0.04 0.01 0.00 0.00 0.00 0.00 0.00 0.00 0.00 0.00 0.00 0.00 0.00 0.00 0.00 0.00 0.00 0.00 0.00 0.00 0.00 0.00 0.00 0.00 0.00 0.00 0.00 0.00
0.00 0.00 0.01 0.05 0.03 0.03 0.09 0.09 0.03 0.01 0.01 0.01 0.01 0.01 0.00 0.00 0.00 0.00 0.00 0.00 0.00 0.00 0.00 0.00 0.00 0.00 0.00 0.00 0.00 0.00 0.00 0.00 0.00 0.00 0.00 0.00 0.00 0.00 0.00 0.00 0.00 0.00 0.00
0.02 0.00 0.03 0.08 0.05 0.06 0.02 0.01 0.00 0.00 0.00 0.00 0.00 0.00 0.00 0.00 0.00 0.00 0.00 0.00 0.00 0.00 0.00 0.00 0.00 0.00 0.00 0.00 0.00 0.00 0.00 0.00 0.00 0.00 0.00 0.00 0.00 0.00 0.00 0.00 0.00 0.00 0.00
0.06 0.02 0.05 0.03 0.01 0.00 0.00 0.00 0.00 0.00 0.00 0.00 0.00 0.00 0.00 0.00 0.00 0.00 0.00 0.00 0.00 0.00 0.00 0.00 0.00 0.00 0.00 0.00 0.00 0.00 0.00 0.00 0.00 0.00 0.00 0.00 0.00 0.00 0.00 0.00 0.00 0.00 0.00
0.04 0.03 0.00 0.00 0.00 0.01 0.01 0.00 0.00 0.00 0.00 0.00 0.00 0.00 0.00 0.00 0.00 0.00 0.00 0.00 0.00 0.00 0.00 0.00 0.00 0.00 0.00 0.00 0.00 0.00 0.00 0.00 0.00 0.00 0.00 0.00 0.00 0.00 0.00 0.00 0.00 0.00 0.00
0.01 0.01 0.01 0.01 0.00 0.00 0.00 0.00 0.00 0.00 0.00 0.00 0.00 0.00 0.00 0.00 0.00 0.00 0.00 0.00 0.00 0.00 0.00 0.00 0.00 0.00 0.00 0.00 0.00 0.00 0.00 0.00 0.00 0.00 0.00 0.00 0.00 0.00 0.00 0.00 0.00 0.00 0.00
0.03 0.03 0.04 0.03 0.02 0.00 0.00 0.00 0.00 0.00 0.00 0.00 0.00 0.00 0.00 0.00 0.00 0.00 0.00 0.00 0.00 0.00 0.00 0.00 0.00 0.00 0.00 0.00 0.00 0.00 0.00 0.00 0.00 0.00 0.00 0.00 0.00 0.00 0.00 0.00 0.00 0.00 0.00
0.04 0.03 0.01 0.01 0.02 0.00 0.00 0.00 0.00 0.00 0.00 0.00 0.00 0.00 0.00 0.00 0.00 0.00 0.00 0.00 0.00 0.00 0.00 0.00 0.00 0.00 0.00 0.00 0.00 0.00 0.00 0.00 0.00 0.00 0.00 0.00 0.00 0.00 0.00 0.00 0.00 0.00 0.00
0.05 0.03 0.03 0.00 0.00 0.00 0.00 0.00 0.00 0.00 0.00 0.00 0.00 0.00 0.00 0.00 0.00 0.00 0.00 0.00 0.00 0.00 0.00 0.00 0.00 0.00 0.00 0.00 0.00 0.00 0.00 0.00 0.00 0.00 0.00 0.00 0.00 0.00 0.00 0.00 0.00 0.00 0.00

GFSSE_prec_precacc24_021.txt.gz
Total_Precipitation_Accumulation
0.18 0.03 0.02 0.10 0.08 0.00 0.00 0.00 0.00 0.00 0.00 0.00 0.00 0.00 0.00 0.00 0.00 0.00 0.00 0.00 0.00 0.00 0.00 0.00 0.00 0.00 0.00 0.00 0.00 0.00 0.00 0.00 0.00 0.02 0.01 0.02 0.06 0.02 0.01 0.00 0.00 0.00 0.01
0.19 0.05 0.03 0.07 0.11 0.01 0.00 0.00 0.00 0.00 0.00 0.00 0.00 0.00 0.00 0.00 0.00 0.00 0.00 0.00 0.00 0.00 0.00 0.00 0.00 0.00 0.00 0.00 0.00 0.00 0.00 0.00 0.00 0.01 0.00 0.03 0.09 0.01 0.05 0.02 0.01 0.01 0.02
0.25 0.08 0.02 0.12 0.11 0.03 0.00 0.02 0.03 0.01 0.00 0.00 0.00 0.00 0.00 0.00 0.00 0.00 0.00 0.00 0.00 0.00 0.00 0.00 0.00 0.00 0.00 0.00 0.00 0.00 0.00 0.00 0.00 0.00 0.00 0.06 0.02 0.01 0.05 0.04 0.01 0.01 0.01
0.14 0.07 0.01 0.11 0.19 0.14 0.07 0.11 0.13 0.13 0.02 0.00 0.00 0.00 0.00 0.00 0.00 0.00 0.00 0.00 0.00 0.00 0.00 0.00 0.00 0.00 0.00 0.00 0.00 0.00 0.00 0.00 0.00 0.00 0.00 0.00 0.00 0.01 0.06 0.08 0.05 0.01 0.00
0.48 0.25 0.09 0.13 0.20 0.28 0.23 0.22 0.20 0.12 0.03 0.00 0.00 0.00 0.00 0.00 0.00 0.00 0.00 0.00 0.00 0.00 0.00 0.00 0.00 0.00 0.00 0.00 0.00 0.00 0.00 0.00 0.00 0.00 0.00 0.00 0.00 0.02 0.08 0.08 0.01 0.01 0.01
0.79 0.68 0.37 0.29 0.40 0.45 0.44 0.35 0.15 0.05 0.00 0.00 0.00 0.00 0.00 0.00 0.00 0.00 0.00 0.00 0.00 0.00 0.00 0.00 0.00 0.00 0.00 0.00 0.00 0.00 0.00 0.00 0.00 0.00 0.00 0.00 0.00 0.01 0.05 0.06 0.05 0.02 0.01
1.56 1.01 0.50 0.74 0.96 0.81 0.89 0.33 0.10 0.02 0.00 0.00 0.00 0.00 0.00 0.00 0.00 0.00 0.00 0.00 0.00 0.00 0.00 0.00 0.00 0.00 0.00 0.00 0.00 0.00 0.00 0.00 0.00 0.00 0.00 0.00 0.00 0.00 0.00 0.02 0.02 0.00 0.00
2.72 1.45 1.27 1.28 1.20 1.89 1.00 0.18 0.02 0.01 0.00 0.00 0.00 0.00 0.00 0.00 0.00 0.00 0.00 0.00 0.00 0.00 0.00 0.00 0.00 0.00 0.00 0.00 0.00 0.00 0.00 0.00 0.00 0.00 0.00 0.00 0.00 0.00 0.00 0.00 0.01 0.00 0.00
3.61 3.51 3.98 2.99 2.22 1.81 0.65 0.09 0.00 0.00 0.00 0.00 0.00 0.00 0.00 0.00 0.00 0.00 0.00 0.00 0.00 0.00 0.00 0.00 0.00 0.00 0.00 0.00 0.00 0.00 0.00 0.00 0.00 0.00 0.00 0.00 0.00 0.00 0.00 0.00 0.02 0.02 0.01
2.79 3.48 2.99 2.43 2.72 1.16 0.23 0.02 0.00 0.00 0.00 0.00 0.00 0.00 0.00 0.00 0.00 0.00 0.00 0.00 0.00 0.00 0.00 0.00 0.00 0.00 0.00 0.00 0.00 0.00 0.00 0.00 0.00 0.00 0.00 0.00 0.00 0.00 0.00 0.00 0.00 0.00 0.01
1.27 1.47 1.73 1.00 1.02 0.70 0.16 0.02 0.00 0.00 0.00 0.00 0.00 0.00 0.00 0.00 0.00 0.00 0.00 0.00 0.00 0.00 0.00 0.00 0.00 0.00 0.00 0.00 0.00 0.00 0.00 0.00 0.00 0.00 0.00 0.00 0.00 0.00 0.00 0.00 0.00 0.00 0.00
0.44 0.61 0.37 0.19 0.26 0.12 0.02 0.01 0.00 0.00 0.00 0.00 0.00 0.00 0.00 0.00 0.00 0.00 0.00 0.00 0.00 0.00 0.00 0.00 0.00 0.00 0.00 0.00 0.00 0.00 0.00 0.00 0.00 0.00 0.00 0.00 0.00 0.00 0.00 0.00 0.00 0.00 0.01
0.13 0.14 0.14 0.12 0.03 0.02 0.00 0.00 0.00 0.00 0.00 0.00 0.00 0.00 0.00 0.01 0.00 0.00 0.00 0.01 0.02 0.00 0.00 0.00 0.00 0.00 0.00 0.00 0.00 0.00 0.00 0.00 0.00 0.00 0.00 0.00 0.00 0.00 0.00 0.00 0.00 0.00 0.00
0.02 0.03 0.04 0.04 0.01 0.00 0.00 0.00 0.00 0.00 0.00 0.00 0.00 0.00 0.04 0.04 0.03 0.00 0.00 0.01 0.00 0.00 0.00 0.00 0.00 0.00 0.00 0.00 0.00 0.00 0.00 0.00 0.00 0.00 0.00 0.00 0.00 0.00 0.00 0.00 0.00 0.00 0.00
0.01 0.01 0.01 0.01 0.00 0.00 0.00 0.00 0.00 0.02 0.07 0.10 0.12 0.16 0.10 0.05 0.04 0.00 0.00 0.00 0.00 0.00 0.00 0.00 0.00 0.00 0.00 0.00 0.00 0.00 0.00 0.00 0.00 0.00 0.00 0.00 0.00 0.00 0.00 0.00 0.00 0.00 0.00
0.00 0.00 0.00 0.00 0.00 0.00 0.00 0.00 0.01 0.09 0.17 0.24 0.26 0.33 0.24 0.16 0.10 0.04 0.01 0.00 0.00 0.00 0.00 0.00 0.00 0.00 0.00 0.00 0.00 0.00 0.00 0.00 0.00 0.00 0.00 0.00 0.00 0.00 0.00 0.00 0.00 0.00 0.00
0.00 0.00 0.00 0.00 0.00 0.00 0.00 0.00 0.05 0.07 0.06 0.10 0.16 0.25 0.25 0.20 0.10 0.01 0.00 0.00 0.00 0.00 0.00 0.00 0.00 0.00 0.00 0.00 0.00 0.00 0.00 0.00 0.00 0.00 0.00 0.00 0.00 0.00 0.00 0.00 0.00 0.00 0.00
0.00 0.00 0.00 0.00 0.00 0.01 0.02 0.03 0.12 0.08 0.03 0.04 0.12 0.09 0.05 0.04 0.01 0.00 0.00 0.00 0.00 0.00 0.00 0.00 0.00 0.00 0.00 0.00 0.00 0.00 0.00 0.00 0.00 0.00 0.00 0.00 0.00 0.00 0.00 0.00 0.00 0.00 0.00
0.00 0.00 0.01 0.05 0.03 0.03 0.09 0.09 0.04 0.04 0.01 0.01 0.01 0.01 0.00 0.00 0.00 0.00 0.00 0.00 0.00 0.00 0.00 0.00 0.00 0.00 0.00 0.00 0.00 0.00 0.00 0.00 0.00 0.00 0.00 0.00 0.00 0.00 0.00 0.00 0.00 0.00 0.00
0.02 0.00 0.03 0.08 0.05 0.06 0.02 0.01 0.02 0.00 0.00 0.00 0.00 0.00 0.00 0.00 0.00 0.00 0.00 0.00 0.00 0.00 0.00 0.00 0.00 0.00 0.00 0.00 0.00 0.00 0.00 0.00 0.00 0.00 0.00 0.00 0.00 0.00 0.00 0.00 0.00 0.00 0.00
0.06 0.02 0.05 0.03 0.01 0.00 0.00 0.00 0.00 0.00 0.00 0.00 0.00 0.00 0.00 0.00 0.00 0.00 0.00 0.00 0.00 0.00 0.00 0.00 0.00 0.00 0.00 0.00 0.00 0.00 0.00 0.00 0.00 0.00 0.00 0.00 0.00 0.00 0.00 0.00 0.00 0.00 0.00
0.04 0.03 0.00 0.00 0.00 0.01 0.01 0.00 0.00 0.00 0.00 0.00 0.00 0.00 0.00 0.00 0.00 0.00 0.00 0.00 0.00 0.00 0.00 0.00 0.00 0.00 0.00 0.00 0.00 0.00 0.00 0.00 0.00 0.00 0.00 0.00 0.00 0.00 0.00 0.00 0.00 0.00 0.00
0.01 0.01 0.01 0.01 0.01 0.00 0.00 0.00 0.00 0.00 0.00 0.00 0.00 0.00 0.00 0.00 0.00 0.00 0.00 0.00 0.00 0.00 0.00 0.00 0.00 0.00 0.00 0.00 0.00 0.00 0.00 0.00 0.00 0.00 0.00 0.00 0.00 0.00 0.00 0.00 0.00 0.00 0.00
0.03 0.03 0.05 0.03 0.03 0.00 0.00 0.00 0.00 0.03 0.00 0.00 0.00 0.00 0.00 0.00 0.00 0.00 0.00 0.00 0.00 0.00 0.00 0.00 0.00 0.00 0.00 0.00 0.00 0.00 0.00 0.00 0.00 0.00 0.00 0.00 0.00 0.00 0.00 0.00 0.00 0.00 0.00
0.04 0.03 0.02 0.02 0.04 0.02 0.00 0.00 0.02 0.03 0.01 0.00 0.00 0.00 0.00 0.00 0.00 0.00 0.00 0.00 0.00 0.00 0.00 0.00 0.00 0.00 0.00 0.00 0.00 0.00 0.00 0.00 0.00 0.00 0.00 0.00 0.00 0.00 0.00 0.00 0.00 0.00 0.00
0.05 0.05 0.05 0.02 0.03 0.02 0.01 0.01 0.01 0.03 0.01 0.00 0.00 0.00 0.00 0.00 0.00 0.00 0.00 0.00 0.00 0.00 0.00 0.00 0.00 0.00 0.00 0.00 0.00 0.00 0.00 0.00 0.00 0.00 0.00 0.00 0.00 0.00 0.00 0.00 0.00 0.00 0.00

GFSSE_prec_precacc24_024.txt.gz
Total_Precipitation_Accumulation
0.18 0.03 0.02 0.10 0.08 0.00 0.00 0.00 0.00 0.00 0.00 0.00 0.00 0.00 0.00 0.00 0.00 0.00 0.00 0.00 0.00 0.00 0.00 0.00 0.00 0.00 0.00 0.00 0.00 0.00 0.00 0.00 0.00 0.03 0.01 0.02 0.06 0.02 0.01 0.00 0.00 0.00 0.01
0.19 0.05 0.03 0.07 0.11 0.01 0.00 0.00 0.00 0.00 0.00 0.00 0.00 0.00 0.00 0.00 0.00 0.00 0.00 0.00 0.00 0.00 0.00 0.00 0.00 0.00 0.00 0.00 0.00 0.00 0.00 0.00 0.00 0.01 0.00 0.03 0.09 0.01 0.05 0.02 0.01 0.01 0.02
0.25 0.08 0.02 0.12 0.11 0.03 0.00 0.02 0.03 0.01 0.00 0.00 0.00 0.00 0.00 0.00 0.00 0.00 0.00 0.00 0.00 0.00 0.00 0.00 0.00 0.00 0.00 0.00 0.00 0.00 0.00 0.00 0.00 0.00 0.00 0.06 0.02 0.01 0.05 0.04 0.01 0.01 0.01
0.15 0.08 0.01 0.11 0.19 0.14 0.07 0.11 0.13 0.13 0.02 0.00 0.00 0.00 0.00 0.00 0.00 0.00 0.00 0.00 0.00 0.00 0.00 0.00 0.00 0.00 0.00 0.00 0.00 0.00 0.00 0.00 0.00 0.00 0.00 0.00 0.00 0.01 0.06 0.08 0.05 0.01 0.00
0.49 0.25 0.12 0.14 0.20 0.28 0.23 0.22 0.20 0.12 0.03 0.00 0.00 0.00 0.00 0.00 0.00 0.00 0.00 0.00 0.00 0.00 0.00 0.00 0.00 0.00 0.00 0.00 0.00 0.00 0.00 0.00 0.00 0.00 0.00 0.00 0.00 0.02 0.08 0.08 0.01 0.01 0.01
0.89 0.83 0.54 0.41 0.46 0.46 0.44 0.35 0.15 0.05 0.00 0.00 0.00 0.00 0.00 0.00 0.00 0.00 0.00 0.00 0.00 0.00 0.00 0.00 0.00 0.00 0.00 0.00 0.00 0.00 0.00 0.00 0.00 0.00 0.00 0.00 0.00 0.01 0.05 0.06 0.05 0.02 0.01
1.74 1.29 0.74 0.97 1.18 0.94 0.94 0.33 0.10 0.02 0.00 0.00 0.00 0.00 0.00 0.00 0.00 0.00 0.00 0.00 0.00 0.00 0.00 0.00 0.00 0.00 0.00 0.00 0.00 0.00 0.00 0.00 0.00 0.00 0.00 0.00 0.00 0.00 0.00 0.02 0.02 0.00 0.00
2.86 1.69 1.75 1.63 1.41 2.04 1.08 0.18 0.02 0.01 0.00 0.00 0.00 0.00 0.00 0.00 0.00 0.00 0.00 0.00 0.00 0.00 0.00 0.00 0.00 0.00 0.00 0.00 0.00 0.00 0.00 0.00 0.00 0.00 0.00 0.00 0.00 0.00 0.00 0.00 0.01 0.00 0.00
3.92 4.12 4.66 3.85 2.79 2.01 0.69 0.09 0.00 0.00 0.00 0.00 0.00 0.00 0.00 0.00 0.00 0.00 0.00 0.00 0.00 0.00 0.00 0.00 0.00 0.00 0.00 0.00 0.00 0.00 0.00 0.00 0.00 0.00 0.00 0.00 0.00 0.00 0.00 0.00 0.02 0.02 0.01
2.86 3.67 3.49 3.45 3.83 1.46 0.27 0.02 0.00 0.00 0.00 0.00 0.00 0.00 0.00 0.00 0.00 0.00 0.00 0.00 0.00 0.00 0.00 0.00 0.00 0.00 0.00 0.00 0.00 0.00 0.00 0.00 0.00 0.00 0.00 0.00 0.00 0.00 0.00 0.00 0.00 0.00 0.01
1.28 1.62 1.96 1.39 1.49 0.95 0.23 0.02 0.00 0.00 0.00 0.00 0.00 0.00 0.00 0.00 0.00 0.00 0.00 0.00 0.00 0.00 0.00 0.00 0.00 0.00 0.00 0.00 0.00 0.00 0.00 0.00 0.00 0.00 0.00 0.00 0.00 0.00 0.00 0.00 0.00 0.00 0.00
0.45 0.65 0.57 0.45 0.41 0.28 0.09 0.01 0.00 0.00 0.00 0.00 0.00 0.00 0.00 0.00 0.00 0.00 0.00 0.00 0.00 0.00 0.00 0.00 0.00 0.00 0.00 0.00 0.00 0.00 0.00 0.00 0.00 0.00 0.00 0.00 0.00 0.00 0.00 0.00 0.00 0.00 0.01
0.26 0.16 0.15 0.17 0.07 0.04 0.02 0.00 0.00 0.00 0.00 0.00 0.00 0.00 0.00 0.01 0.00 0.00 0.00 0.01 0.02 0.00 0.00 0.00 0.00 0.00 0.00 0.00 0.00 0.00 0.00 0.00 0.00 0.00 0.00 0.00 0.00 0.00 0.00 0.00 0.00 0.00 0.00
0.03 0.03 0.04 0.04 0.01 0.01 0.00 0.00 0.00 0.00 0.00 0.00 0.00 0.00 0.04 0.04 0.03 0.00 0.00 0.01 0.00 0.00 0.00 0.00 0.00 0.00 0.00 0.00 0.00 0.00 0.00 0.00 0.00 0.00 0.00 0.00 0.00 0.00 0.00 0.00 0.01 0.00 0.00
0.01 0.01 0.01 0.01 0.00 0.00 0.00 0.00 0.00 0.02 0.07 0.10 0.12 0.16 0.10 0.05 0.04 0.00 0.00 0.00 0.00 0.00 0.00 0.00 0.00 0.00 0.00 0.00 0.00 0.00 0.00 0.00 0.00 0.00 0.00 0.00 0.00 0.00 0.00 0.01 0.00 0.00 0.00
0.00 0.00 0.00 0.00 0.00 0.00 0.00 0.00 0.01 0.09 0.17 0.24 0.26 0.33 0.24 0.16 0.10 0.04 0.01 0.00 0.00 0.00 0.00 0.00 0.00 0.00 0.00 0.00 0.00 0.00 0.00 0.00 0.00 0.00 0.00 0.00 0.00 0.00 0.00 0.00 0.00 0.00 0.00
0.00 0.00 0.00 0.00 0.00 0.00 0.00 0.00 0.05 0.07 0.06 0.10 0.16 0.25 0.25 0.20 0.10 0.01 0.00 0.00 0.00 0.00 0.00 0.00 0.00 0.00 0.00 0.00 0.00 0.00 0.00 0.00 0.00 0.00 0.00 0.00 0.00 0.00 0.00 0.00 0.00 0.00 0.00
0.00 0.00 0.00 0.00 0.00 0.01 0.02 0.03 0.13 0.09 0.04 0.04 0.12 0.09 0.05 0.04 0.01 0.00 0.00 0.00 0.00 0.00 0.00 0.00 0.00 0.00 0.00 0.00 0.00 0.00 0.00 0.00 0.00 0.00 0.00 0.00 0.00 0.00 0.00 0.00 0.00 0.00 0.00
0.00 0.00 0.01 0.05 0.03 0.03 0.09 0.09 0.05 0.07 0.02 0.01 0.01 0.01 0.00 0.00 0.00 0.00 0.00 0.00 0.00 0.00 0.00 0.00 0.00 0.00 0.00 0.00 0.00 0.00 0.00 0.00 0.00 0.00 0.00 0.00 0.00 0.00 0.00 0.00 0.00 0.00 0.00
0.02 0.00 0.03 0.08 0.05 0.06 0.02 0.01 0.03 0.01 0.00 0.00 0.00 0.00 0.00 0.00 0.00 0.00 0.00 0.00 0.00 0.00 0.00 0.00 0.00 0.00 0.00 0.00 0.00 0.00 0.00 0.00 0.00 0.00 0.00 0.00 0.00 0.00 0.00 0.00 0.00 0.00 0.00
0.06 0.02 0.05 0.03 0.01 0.00 0.00 0.01 0.04 0.03 0.01 0.00 0.00 0.00 0.00 0.00 0.00 0.00 0.00 0.00 0.00 0.00 0.00 0.00 0.00 0.00 0.00 0.00 0.00 0.00 0.00 0.00 0.00 0.00 0.00 0.00 0.00 0.00 0.00 0.00 0.00 0.00 0.00
0.04 0.03 0.00 0.00 0.00 0.01 0.01 0.00 0.01 0.01 0.00 0.00 0.00 0.00 0.00 0.00 0.00 0.00 0.00 0.00 0.00 0.00 0.00 0.00 0.00 0.00 0.00 0.00 0.00 0.00 0.00 0.00 0.00 0.00 0.00 0.00 0.00 0.00 0.00 0.00 0.00 0.00 0.00
0.01 0.01 0.01 0.01 0.01 0.00 0.00 0.00 0.00 0.00 0.00 0.00 0.00 0.00 0.00 0.00 0.00 0.00 0.00 0.00 0.00 0.00 0.00 0.00 0.00 0.00 0.00 0.00 0.00 0.00 0.00 0.00 0.00 0.00 0.00 0.00 0.00 0.00 0.00 0.00 0.00 0.00 0.00
0.03 0.03 0.05 0.03 0.03 0.00 0.00 0.00 0.00 0.03 0.00 0.00 0.00 0.00 0.00 0.00 0.00 0.00 0.00 0.00 0.00 0.00 0.00 0.00 0.00 0.00 0.00 0.00 0.00 0.00 0.00 0.00 0.00 0.00 0.00 0.00 0.00 0.00 0.00 0.00 0.00 0.00 0.00
0.04 0.04 0.02 0.02 0.04 0.02 0.01 0.01 0.02 0.04 0.02 0.00 0.00 0.00 0.00 0.00 0.00 0.00 0.00 0.00 0.00 0.00 0.00 0.00 0.00 0.00 0.00 0.00 0.00 0.00 0.00 0.00 0.00 0.00 0.00 0.00 0.00 0.00 0.00 0.00 0.00 0.00 0.00
0.05 0.05 0.06 0.04 0.04 0.07 0.07 0.05 0.02 0.05 0.03 0.01 0.01 0.00 0.00 0.00 0.00 0.00 0.00 0.00 0.00 0.00 0.00 0.00 0.00 0.00 0.00 0.00 0.00 0.00 0.00 0.00 0.00 0.00 0.00 0.00 0.00 0.00 0.00 0.00 0.00 0.00 0.00

GFSSE_prec_precacc24_027.txt.gz
Total_Precipitation_Accumulation
0.18 0.03 0.02 0.05 0.05 0.00 0.00 0.00 0.00 0.00 0.00 0.00 0.00 0.00 0.00 0.00 0.00 0.00 0.00 0.00 0.00 0.00 0.00 0.00 0.00 0.00 0.00 0.00 0.00 0.00 0.00 0.00 0.00 0.03 0.01 0.02 0.06 0.02 0.01 0.00 0.00 0.00 0.01
0.20 0.05 0.02 0.03 0.06 0.00 0.00 0.00 0.00 0.00 0.00 0.00 0.00 0.00 0.00 0.00 0.00 0.00 0.00 0.00 0.00 0.00 0.00 0.00 0.00 0.00 0.00 0.00 0.00 0.00 0.00 0.00 0.00 0.01 0.00 0.03 0.09 0.01 0.01 0.00 0.01 0.00 0.00
0.26 0.08 0.01 0.03 0.04 0.01 0.00 0.02 0.03 0.01 0.00 0.00 0.00 0.00 0.00 0.00 0.00 0.00 0.00 0.00 0.00 0.00 0.00 0.00 0.00 0.00 0.00 0.00 0.00 0.00 0.00 0.00 0.00 0.00 0.00 0.06 0.02 0.01 0.01 0.02 0.00 0.00 0.00
0.14 0.04 0.00 0.03 0.09 0.10 0.07 0.11 0.13 0.13 0.02 0.00 0.00 0.00 0.00 0.00 0.00 0.00 0.00 0.00 0.00 0.00 0.00 0.00 0.00 0.00 0.00 0.00 0.00 0.00 0.00 0.00 0.00 0.00 0.00 0.00 0.00 0.00 0.01 0.01 0.02 0.00 0.00
0.45 0.14 0.12 0.10 0.13 0.24 0.21 0.20 0.19 0.12 0.03 0.00 0.00 0.00 0.00 0.00 0.00 0.00 0.00 0.00 0.00 0.00 0.00 0.00 0.00 0.00 0.00 0.00 0.00 0.00 0.00 0.00 0.00 0.00 0.00 0.00 0.00 0.01 0.01 0.02 0.00 0.00 0.00
0.81 0.74 0.54 0.46 0.52 0.42 0.41 0.34 0.15 0.05 0.00 0.00 0.00 0.00 0.00 0.00 0.00 0.00 0.00 0.00 0.00 0.00 0.00 0.00 0.00 0.00 0.00 0.00 0.00 0.00 0.00 0.00 0.00 0.00 0.00 0.00 0.00 0.01 0.01 0.00 0.00 0.00 0.00
1.77 1.37 0.88 0.99 1.31 1.04 0.97 0.32 0.10 0.02 0.00 0.00 0.00 0.00 0.00 0.00 0.00 0.00 0.00 0.00 0.00 0.00 0.00 0.00 0.00 0.00 0.00 0.00 0.00 0.00 0.00 0.00 0.00 0.00 0.00 0.00 0.00 0.00 0.00 0.00 0.00 0.00 0.00
3.01 1.86 1.93 1.85 1.71 2.31 1.18 0.18 0.02 0.01 0.00 0.00 0.00 0.00 0.00 0.00 0.00 0.00 0.00 0.00 0.00 0.00 0.00 0.00 0.00 0.00 0.00 0.00 0.00 0.00 0.00 0.00 0.00 0.00 0.00 0.00 0.00 0.00 0.00 0.00 0.00 0.00 0.00
4.00 4.32 4.75 4.11 3.35 2.32 0.78 0.08 0.00 0.00 0.00 0.00 0.00 0.00 0.00 0.00 0.00 0.00 0.00 0.00 0.00 0.00 0.00 0.00 0.00 0.00 0.00 0.00 0.00 0.00 0.00 0.00 0.00 0.00 0.00 0.00 0.00 0.00 0.00 0.00 0.01 0.00 0.00
3.11 3.96 3.70 3.69 4.35 1.86 0.33 0.02 0.00 0.00 0.00 0.00 0.00 0.00 0.00 0.00 0.00 0.00 0.00 0.00 0.00 0.00 0.00 0.00 0.00 0.00 0.00 0.00 0.00 0.00 0.00 0.00 0.00 0.00 0.00 0.00 0.00 0.00 0.00 0.00 0.00 0.00 0.00
1.36 1.77 2.43 1.57 1.72 1.15 0.27 0.02 0.00 0.00 0.00 0.00 0.00 0.00 0.00 0.00 0.00 0.00 0.00 0.00 0.00 0.00 0.00 0.00 0.00 0.00 0.00 0.00 0.00 0.00 0.00 0.00 0.00 0.00 0.00 0.00 0.00 0.00 0.00 0.00 0.00 0.00 0.00
0.45 0.65 0.58 0.50 0.50 0.39 0.15 0.03 0.00 0.00 0.00 0.00 0.00 0.00 0.00 0.00 0.00 0.00 0.00 0.00 0.00 0.00 0.00 0.00 0.00 0.00 0.00 0.00 0.00 0.00 0.00 0.00 0.00 0.00 0.00 0.00 0.00 0.00 0.00 0.00 0.00 0.00 0.01
0.32 0.20 0.16 0.22 0.19 0.13 0.12 0.05 0.00 0.00 0.00 0.00 0.00 0.00 0.00 0.01 0.00 0.00 0.00 0.01 0.02 0.00 0.00 0.00 0.00 0.00 0.00 0.00 0.00 0.00 0.00 0.00 0.00 0.00 0.00 0.00 0.00 0.00 0.00 0.01 0.00 0.00 0.00
0.04 0.04 0.04 0.05 0.05 0.04 0.06 0.02 0.00 0.00 0.00 0.00 0.00 0.00 0.04 0.04 0.03 0.00 0.00 0.01 0.00 0.00 0.00 0.00 0.00 0.00 0.00 0.00 0.00 0.00 0.00 0.00 0.00 0.00 0.00 0.00 0.00 0.00 0.00 0.01 0.01 0.00 0.00
0.01 0.01 0.01 0.01 0.00 0.03 0.02 0.00 0.00 0.00 0.00 0.01 0.08 0.14 0.07 0.04 0.04 0.00 0.00 0.00 0.00 0.00 0.00 0.00 0.00 0.00 0.00 0.00 0.00 0.00 0.00 0.00 0.00 0.00 0.00 0.00 0.00 0.00 0.00 0.01 0.00 0.00 0.00
0.00 0.00 0.00 0.00 0.00 0.02 0.00 0.00 0.00 0.01 0.01 0.01 0.02 0.10 0.09 0.10 0.09 0.04 0.01 0.00 0.00 0.00 0.00 0.00 0.00 0.00 0.00 0.00 0.00 0.00 0.00 0.00 0.00 0.00 0.00 0.00 0.00 0.00 0.00 0.00 0.00 0.00 0.00
0.00 0.00 0.00 0.00 0.00 0.00 0.00 0.00 0.01 0.02 0.01 0.00 0.00 0.06 0.13 0.15 0.09 0.01 0.00 0.00 0.00 0.00 0.00 0.00 0.00 0.00 0.00 0.00 0.00 0.00 0.00 0.00 0.00 0.00 0.00 0.00 0.00 0.00 0.00 0.00 0.00 0.00 0.00
0.00 0.00 0.00 0.00 0.00 0.00 0.01 0.01 0.02 0.01 0.00 0.01 0.01 0.01 0.02 0.02 0.00 0.00 0.00 0.00 0.00 0.00 0.00 0.00 0.00 0.00 0.00 0.00 0.00 0.00 0.00 0.00 0.00 0.00 0.00 0.00 0.00 0.00 0.00 0.00 0.00 0.00 0.00
0.00 0.00 0.00 0.01 0.01 0.01 0.05 0.01 0.02 0.06 0.02 0.01 0.01 0.00 0.00 0.00 0.00 0.00 0.00 0.00 0.00 0.00 0.00 0.00 0.00 0.00 0.00 0.00 0.00 0.00 0.00 0.00 0.00 0.00 0.00 0.00 0.00 0.00 0.00 0.00 0.00 0.00 0.00
0.02 0.00 0.00 0.01 0.01 0.01 0.01 0.01 0.02 0.01 0.00 0.03 0.02 0.00 0.00 0.00 0.00 0.00 0.00 0.00 0.00 0.00 0.00 0.00 0.00 0.00 0.00 0.00 0.00 0.00 0.00 0.00 0.00 0.00 0.00 0.00 0.00 0.00 0.00 0.00 0.00 0.00 0.00
0.05 0.02 0.02 0.01 0.00 0.00 0.00 0.01 0.04 0.03 0.03 0.03 0.01 0.00 0.00 0.00 0.00 0.00 0.00 0.00 0.00 0.00 0.00 0.00 0.00 0.00 0.00 0.00 0.00 0.00 0.00 0.00 0.00 0.00 0.00 0.00 0.00 0.00 0.00 0.00 0.00 0.00 0.00
0.02 0.02 0.00 0.00 0.00 0.01 0.01 0.00 0.01 0.02 0.04 0.05 0.02 0.00 0.00 0.00 0.00 0.00 0.00 0.00 0.00 0.00 0.00 0.00 0.00 0.00 0.00 0.00 0.00 0.00 0.00 0.00 0.00 0.00 0.00 0.00 0.00 0.00 0.00 0.00 0.00 0.00 0.00
0.01 0.01 0.01 0.01 0.01 0.00 0.00 0.00 0.00 0.07 0.04 0.01 0.01 0.00 0.00 0.00 0.00 0.00 0.00 0.00 0.00 0.00 0.00 0.00 0.00 0.00 0.00 0.00 0.00 0.00 0.00 0.00 0.00 0.00 0.00 0.00 0.00 0.00 0.00 0.00 0.00 0.00 0.00
0.03 0.03 0.05 0.03 0.03 0.00 0.00 0.00 0.00 0.05 0.02 0.00 0.00 0.00 0.00 0.00 0.00 0.00 0.00 0.00 0.00 0.00 0.00 0.00 0.00 0.00 0.00 0.00 0.00 0.00 0.00 0.00 0.00 0.00 0.00 0.00 0.00 0.00 0.00 0.00 0.00 0.00 0.00
0.04 0.04 0.02 0.02 0.04 0.02 0.01 0.01 0.02 0.05 0.04 0.01 0.00 0.00 0.00 0.00 0.00 0.00 0.00 0.00 0.00 0.00 0.00 0.00 0.00 0.00 0.00 0.00 0.00 0.00 0.00 0.00 0.00 0.00 0.00 0.00 0.00 0.00 0.00 0.00 0.00 0.00 0.00
0.05 0.05 0.06 0.04 0.04 0.07 0.08 0.07 0.04 0.05 0.04 0.02 0.01 0.01 0.00 0.00 0.00 0.00 0.00 0.00 0.00 0.00 0.00 0.01 0.01 0.00 0.00 0.00 0.00 0.00 0.00 0.00 0.00 0.00 0.00 0.00 0.00 0.00 0.00 0.00 0.00 0.00 0.00

GFSSE_prec_precacc24_030.txt.gz
Total_Precipitation_Accumulation
0.16 0.05 0.01 0.03 0.03 0.00 0.00 0.00 0.00 0.00 0.00 0.00 0.00 0.00 0.00 0.00 0.00 0.00 0.00 0.00 0.00 0.00 0.00 0.00 0.00 0.00 0.00 0.00 0.00 0.00 0.00 0.00 0.00 0.03 0.01 0.02 0.06 0.02 0.00 0.00 0.00 0.00 0.01
0.19 0.08 0.00 0.01 0.02 0.00 0.00 0.00 0.00 0.00 0.00 0.00 0.00 0.00 0.00 0.00 0.00 0.00 0.00 0.00 0.00 0.00 0.00 0.00 0.00 0.00 0.00 0.00 0.00 0.00 0.00 0.00 0.00 0.01 0.00 0.03 0.09 0.01 0.00 0.00 0.01 0.00 0.00
0.27 0.09 0.02 0.01 0.02 0.00 0.00 0.01 0.02 0.01 0.00 0.00 0.00 0.00 0.00 0.00 0.00 0.00 0.00 0.00 0.00 0.00 0.00 0.00 0.00 0.00 0.00 0.00 0.00 0.00 0.00 0.00 0.00 0.00 0.00 0.06 0.02 0.00 0.00 0.00 0.00 0.00 0.00
0.16 0.07 0.06 0.00 0.04 0.07 0.06 0.09 0.10 0.12 0.02 0.00 0.00 0.00 0.00 0.00 0.00 0.00 0.00 0.00 0.00 0.00 0.00 0.00 0.00 0.00 0.00 0.00 0.00 0.00 0.00 0.00 0.00 0.00 0.00 0.00 0.00 0.00 0.00 0.00 0.00 0.00 0.00
0.39 0.16 0.15 0.08 0.09 0.19 0.17 0.16 0.15 0.10 0.03 0.00 0.00 0.00 0.00 0.00 0.00 0.00 0.00 0.00 0.00 0.00 0.00 0.00 0.00 0.00 0.00 0.00 0.00 0.00 0.00 0.00 0.00 0.00 0.00 0.00 0.00 0.00 0.00 0.00 0.00 0.00 0.00
0.63 0.62 0.55 0.48 0.45 0.31 0.34 0.28 0.13 0.05 0.00 0.00 0.00 0.00 0.00 0.00 0.00 0.00 0.00 0.00 0.00 0.00 0.00 0.00 0.00 0.00 0.00 0.00 0.00 0.00 0.00 0.00 0.00 0.00 0.00 0.00 0.00 0.00 0.00 0.00 0.00 0.00 0.00
1.68 1.36 0.90 1.00 1.29 1.00 0.89 0.29 0.10 0.02 0.00 0.00 0.00 0.00 0.00 0.00 0.00 0.00 0.00 0.00 0.00 0.00 0.00 0.00 0.00 0.00 0.00 0.00 0.00 0.00 0.00 0.00 0.00 0.00 0.00 0.00 0.00 0.00 0.00 0.00 0.00 0.00 0.00
3.14 1.97 1.93 1.78 1.69 2.32 1.21 0.17 0.02 0.01 0.00 0.00 0.00 0.00 0.00 0.00 0.00 0.00 0.00 0.00 0.00 0.00 0.00 0.00 0.00 0.00 0.00 0.00 0.00 0.00 0.00 0.00 0.00 0.00 0.00 0.00 0.00 0.00 0.00 0.00 0.00 0.00 0.00
4.17 4.53 4.85 4.18 3.42 2.37 0.86 0.09 0.00 0.00 0.00 0.00 0.00 0.00 0.00 0.00 0.00 0.00 0.00 0.00 0.00 0.00 0.00 0.00 0.00 0.00 0.00 0.00 0.00 0.00 0.00 0.00 0.00 0.00 0.00 0.00 0.00 0.00 0.00 0.00 0.00 0.00 0.00
3.31 4.22 3.88 3.81 4.43 1.89 0.35 0.02 0.00 0.00 0.00 0.00 0.00 0.00 0.00 0.00 0.00 0.00 0.00 0.00 0.00 0.00 0.00 0.00 0.00 0.00 0.00 0.00 0.00 0.00 0.00 0.00 0.00 0.00 0.00 0.00 0.00 0.00 0.00 0.00 0.00 0.00 0.00
1.54 2.14 2.88 2.25 2.16 1.25 0.30 0.04 0.01 0.00 0.00 0.00 0.00 0.00 0.00 0.00 0.00 0.00 0.00 0.00 0.00 0.00 0.00 0.00 0.00 0.00 0.00 0.00 0.00 0.00 0.00 0.00 0.00 0.00 0.00 0.00 0.00 0.00 0.00 0.00 0.00 0.00 0.00
0.56 0.83 0.79 0.94 0.97 0.65 0.28 0.08 0.00 0.00 0.00 0.00 0.00 0.00 0.00 0.00 0.00 0.00 0.00 0.00 0.00 0.00 0.00 0.00 0.00 0.00 0.00 0.00 0.00 0.00 0.00 0.00 0.00 0.00 0.00 0.00 0.00 0.00 0.00 0.00 0.00 0.00 0.01
0.34 0.24 0.21 0.28 0.24 0.13 0.13 0.06 0.01 0.00 0.00 0.00 0.00 0.00 0.00 0.00 0.00 0.00 0.00 0.01 0.02 0.00 0.00 0.00 0.00 0.00 0.00 0.00 0.00 0.00 0.00 0.00 0.00 0.00 0.00 0.00 0.00 0.00 0.01 0.01 0.00 0.00 0.00
0.08 0.06 0.05 0.05 0.06 0.05 0.07 0.04 0.01 0.00 0.00 0.00 0.00 0.00 0.00 0.00 0.00 0.00 0.00 0.01 0.00 0.00 0.00 0.00 0.00 0.00 0.00 0.00 0.00 0.00 0.00 0.00 0.00 0.00 0.00 0.00 0.00 0.00 0.01 0.02 0.01 0.00 0.00
0.05 0.03 0.02 0.01 0.00 0.04 0.02 0.01 0.00 0.00 0.00 0.01 0.08 0.11 0.02 0.02 0.00 0.00 0.00 0.00 0.00 0.00 0.00 0.00 0.00 0.00 0.00 0.00 0.00 0.00 0.00 0.00 0.00 0.00 0.00 0.00 0.00 0.00 0.01 0.02 0.01 0.00 0.00
0.02 0.01 0.01 0.00 0.01 0.04 0.03 0.00 0.00 0.01 0.01 0.00 0.02 0.05 0.02 0.01 0.02 0.02 0.01 0.00 0.00 0.00 0.00 0.00 0.00 0.00 0.00 0.00 0.00 0.00 0.00 0.00 0.00 0.00 0.00 0.00 0.00 0.00 0.00 0.00 0.00 0.00 0.00
0.00 0.00 0.00 0.00 0.01 0.03 0.03 0.00 0.01 0.02 0.01 0.00 0.00 0.03 0.08 0.12 0.07 0.01 0.00 0.00 0.00 0.00 0.00 0.00 0.00 0.00 0.00 0.00 0.00 0.00 0.00 0.00 0.00 0.00 0.00 0.00 0.00 0.00 0.00 0.00 0.00 0.00 0.00
0.00 0.00 0.00 0.00 0.02 0.04 0.03 0.01 0.02 0.01 0.00 0.01 0.02 0.02 0.02 0.02 0.00 0.00 0.00 0.00 0.00 0.00 0.00 0.00 0.00 0.00 0.00 0.00 0.00 0.00 0.00 0.00 0.00 0.00 0.00 0.00 0.00 0.00 0.00 0.00 0.00 0.00 0.00
0.00 0.00 0.00 0.00 0.00 0.03 0.05 0.01 0.02 0.06 0.02 0.03 0.03 0.01 0.01 0.00 0.00 0.00 0.00 0.00 0.00 0.00 0.00 0.00 0.00 0.00 0.00 0.00 0.00 0.00 0.00 0.00 0.00 0.00 0.00 0.00 0.00 0.00 0.00 0.00 0.00 0.00 0.00
0.02 0.00 0.00 0.00 0.00 0.01 0.01 0.01 0.02 0.01 0.02 0.04 0.03 0.00 0.00 0.00 0.00 0.00 0.00 0.00 0.00 0.00 0.00 0.00 0.00 0.00 0.00 0.00 0.00 0.00 0.00 0.00 0.00 0.00 0.00 0.00 0.00 0.00 0.00 0.00 0.00 0.00 0.00
0.05 0.01 0.00 0.00 0.00 0.00 0.00 0.01 0.04 0.03 0.03 0.04 0.03 0.00 0.00 0.00 0.00 0.00 0.00 0.00 0.00 0.00 0.00 0.00 0.00 0.00 0.00 0.00 0.00 0.00 0.00 0.00 0.00 0.00 0.00 0.00 0.00 0.00 0.00 0.00 0.00 0.00 0.00
0.02 0.01 0.00 0.00 0.00 0.01 0.01 0.00 0.01 0.02 0.04 0.07 0.05 0.02 0.01 0.00 0.00 0.00 0.00 0.00 0.00 0.00 0.00 0.00 0.00 0.00 0.00 0.00 0.00 0.00 0.00 0.00 0.00 0.00 0.00 0.00 0.00 0.00 0.00 0.00 0.00 0.00 0.00
0.01 0.01 0.01 0.01 0.01 0.00 0.00 0.00 0.00 0.07 0.05 0.06 0.11 0.06 0.01 0.00 0.00 0.00 0.00 0.00 0.00 0.00 0.00 0.00 0.00 0.00 0.00 0.00 0.00 0.00 0.00 0.00 0.00 0.00 0.00 0.00 0.00 0.00 0.00 0.00 0.00 0.00 0.00
0.03 0.03 0.05 0.03 0.03 0.00 0.00 0.00 0.00 0.05 0.05 0.09 0.09 0.03 0.00 0.00 0.00 0.00 0.00 0.00 0.00 0.00 0.00 0.00 0.00 0.00 0.00 0.00 0.00 0.00 0.00 0.00 0.00 0.00 0.00 0.00 0.00 0.00 0.00 0.00 0.00 0.00 0.00
0.04 0.04 0.02 0.02 0.04 0.02 0.01 0.01 0.02 0.05 0.07 0.05 0.02 0.01 0.00 0.00 0.00 0.00 0.00 0.00 0.00 0.00 0.00 0.00 0.00 0.01 0.00 0.00 0.00 0.00 0.00 0.00 0.00 0.00 0.00 0.00 0.00 0.00 0.00 0.00 0.00 0.00 0.00
0.05 0.05 0.06 0.04 0.04 0.07 0.08 0.07 0.04 0.06 0.06 0.03 0.02 0.02 0.01 0.01 0.01 0.00 0.00 0.00 0.00 0.00 0.00 0.01 0.01 0.00 0.00 0.00 0.00 0.00 0.00 0.00 0.00 0.00 0.00 0.00 0.00 0.00 0.00 0.00 0.00 0.00 0.00

GFSSE_prec_precacc24_036.txt.gz
Total_Precipitation_Accumulation
0.10 0.04 0.03 0.04 0.04 0.00 0.00 0.00 0.00 0.00 0.00 0.00 0.00 0.00 0.00 0.00 0.00 0.00 0.00 0.00 0.00 0.00 0.00 0.00 0.00 0.00 0.00 0.00 0.00 0.00 0.00 0.00 0.00 0.03 0.01 0.02 0.06 0.02 0.00 0.00 0.00 0.00 0.01
0.15 0.08 0.02 0.03 0.02 0.01 0.00 0.00 0.00 0.00 0.00 0.00 0.00 0.00 0.00 0.00 0.00 0.00 0.00 0.00 0.00 0.00 0.00 0.00 0.00 0.00 0.00 0.00 0.00 0.00 0.00 0.00 0.00 0.01 0.00 0.02 0.06 0.01 0.00 0.00 0.01 0.00 0.00
0.35 0.13 0.03 0.02 0.01 0.01 0.00 0.01 0.00 0.00 0.00 0.00 0.00 0.00 0.00 0.00 0.00 0.00 0.00 0.00 0.00 0.00 0.00 0.00 0.00 0.00 0.00 0.00 0.00 0.00 0.00 0.00 0.00 0.00 0.00 0.02 0.00 0.00 0.00 0.00 0.00 0.00 0.00
0.20 0.15 0.10 0.02 0.01 0.03 0.03 0.02 0.01 0.00 0.00 0.00 0.00 0.00 0.00 0.00 0.00 0.00 0.00 0.00 0.00 0.00 0.00 0.00 0.00 0.00 0.00 0.00 0.00 0.00 0.00 0.00 0.00 0.00 0.00 0.00 0.00 0.00 0.00 0.00 0.00 0.00 0.00
0.23 0.21 0.21 0.08 0.02 0.05 0.06 0.03 0.01 0.00 0.00 0.00 0.00 0.00 0.00 0.00 0.00 0.00 0.00 0.00 0.00 0.00 0.00 0.00 0.00 0.00 0.00 0.00 0.00 0.00 0.00 0.00 0.00 0.00 0.00 0.00 0.00 0.00 0.00 0.00 0.00 0.00 0.00
0.61 0.51 0.46 0.41 0.32 0.22 0.19 0.08 0.00 0.00 0.00 0.00 0.00 0.00 0.00 0.00 0.00 0.00 0.00 0.00 0.00 0.00 0.00 0.00 0.00 0.00 0.00 0.00 0.00 0.00 0.00 0.00 0.00 0.00 0.00 0.00 0.00 0.00 0.00 0.00 0.00 0.01 0.01
1.67 1.02 0.78 0.68 1.06 0.87 0.61 0.08 0.00 0.00 0.00 0.00 0.00 0.00 0.00 0.00 0.00 0.00 0.00 0.00 0.00 0.00 0.00 0.00 0.00 0.00 0.00 0.00 0.00 0.00 0.00 0.00 0.00 0.00 0.00 0.00 0.00 0.00 0.00 0.00 0.00 0.00 0.00
3.60 1.99 1.86 1.62 1.56 2.04 0.97 0.06 0.00 0.00 0.00 0.00 0.00 0.00 0.00 0.00 0.00 0.00 0.00 0.00 0.00 0.00 0.00 0.00 0.00 0.00 0.00 0.00 0.00 0.00 0.00 0.00 0.00 0.00 0.00 0.00 0.00 0.00 0.00 0.00 0.00 0.00 0.00
4.52 5.08 4.44 4.19 3.28 2.24 0.79 0.07 0.00 0.00 0.00 0.00 0.00 0.00 0.00 0.00 0.00 0.00 0.00 0.00 0.00 0.00 0.00 0.00 0.00 0.00 0.00 0.00 0.00 0.00 0.00 0.00 0.00 0.00 0.00 0.00 0.00 0.00 0.00 0.00 0.00 0.00 0.00
2.54 3.74 3.65 3.58 3.95 1.82 0.32 0.03 0.01 0.00 0.00 0.00 0.00 0.00 0.00 0.00 0.00 0.00 0.00 0.00 0.00 0.00 0.00 0.00 0.00 0.00 0.00 0.00 0.00 0.00 0.00 0.00 0.00 0.00 0.00 0.00 0.00 0.00 0.00 0.00 0.00 0.00 0.00
1.18 2.02 2.74 2.21 2.18 1.21 0.25 0.10 0.06 0.05 0.02 0.00 0.00 0.00 0.00 0.00 0.00 0.00 0.00 0.00 0.00 0.00 0.00 0.00 0.00 0.00 0.00 0.00 0.00 0.00 0.00 0.00 0.00 0.00 0.00 0.00 0.00 0.00 0.00 0.00 0.00 0.00 0.00
0.72 0.92 0.93 1.24 1.31 0.81 0.40 0.20 0.14 0.08 0.03 0.00 0.00 0.00 0.00 0.00 0.00 0.00 0.00 0.00 0.00 0.00 0.00 0.00 0.00 0.00 0.00 0.00 0.00 0.00 0.00 0.00 0.00 0.00 0.00 0.00 0.00 0.01 0.01 0.00 0.00 0.00 0.00
0.55 0.46 0.44 0.39 0.42 0.36 0.32 0.27 0.23 0.13 0.07 0.01 0.00 0.00 0.00 0.00 0.00 0.00 0.00 0.01 0.02 0.00 0.00 0.00 0.00 0.00 0.00 0.00 0.00 0.00 0.00 0.00 0.00 0.00 0.00 0.00 0.00 0.00 0.01 0.01 0.00 0.00 0.00
0.22 0.20 0.19 0.18 0.16 0.13 0.12 0.13 0.13 0.12 0.11 0.04 0.00 0.00 0.00 0.00 0.00 0.00 0.00 0.01 0.00 0.00 0.00 0.00 0.00 0.00 0.00 0.00 0.00 0.00 0.00 0.00 0.00 0.00 0.00 0.00 0.00 0.00 0.03 0.02 0.01 0.00 0.00
0.11 0.15 0.07 0.06 0.07 0.10 0.07 0.06 0.05 0.08 0.07 0.02 0.00 0.01 0.01 0.02 0.00 0.00 0.00 0.00 0.00 0.00 0.00 0.00 0.00 0.00 0.00 0.00 0.00 0.00 0.00 0.00 0.00 0.00 0.00 0.00 0.00 0.00 0.03 0.04 0.01 0.00 0.00
0.11 0.17 0.16 0.16 0.09 0.12 0.12 0.03 0.03 0.04 0.02 0.01 0.00 0.02 0.02 0.01 0.02 0.01 0.00 0.00 0.00 0.00 0.00 0.00 0.00 0.00 0.00 0.00 0.00 0.00 0.00 0.00 0.00 0.00 0.00 0.00 0.00 0.00 0.00 0.01 0.00 0.00 0.00
0.05 0.02 0.04 0.12 0.13 0.10 0.08 0.04 0.04 0.04 0.01 0.00 0.00 0.04 0.04 0.03 0.02 0.00 0.00 0.00 0.00 0.00 0.00 0.00 0.00 0.00 0.00 0.00 0.00 0.00 0.00 0.00 0.00 0.00 0.00 0.00 0.00 0.00 0.00 0.00 0.00 0.00 0.00
0.00 0.00 0.00 0.01 0.04 0.06 0.04 0.01 0.02 0.01 0.00 0.01 0.02 0.04 0.01 0.00 0.00 0.00 0.00 0.00 0.00 0.00 0.00 0.00 0.00 0.00 0.00 0.00 0.00 0.00 0.00 0.00 0.00 0.00 0.00 0.00 0.00 0.00 0.00 0.00 0.00 0.00 0.00
0.00 0.00 0.00 0.02 0.05 0.08 0.07 0.01 0.02 0.06 0.02 0.03 0.06 0.08 0.06 0.01 0.00 0.00 0.00 0.00 0.00 0.00 0.00 0.00 0.00 0.00 0.00 0.00 0.00 0.00 0.00 0.00 0.00 0.00 0.00 0.00 0.00 0.00 0.00 0.00 0.00 0.00 0.00
0.02 0.00 0.00 0.01 0.02 0.05 0.09 0.03 0.02 0.01 0.02 0.07 0.10 0.03 0.03 0.00 0.00 0.00 0.00 0.00 0.00 0.00 0.00 0.00 0.00 0.00 0.00 0.00 0.00 0.00 0.00 0.00 0.00 0.00 0.00 0.00 0.00 0.00 0.00 0.00 0.00 0.00 0.00
0.05 0.01 0.00 0.00 0.00 0.03 0.04 0.01 0.04 0.03 0.03 0.08 0.17 0.05 0.20 0.07 0.02 0.00 0.00 0.00 0.00 0.00 0.00 0.00 0.00 0.00 0.00 0.00 0.00 0.00 0.00 0.00 0.00 0.00 0.00 0.00 0.00 0.00 0.00 0.00 0.00 0.00 0.00
0.02 0.01 0.00 0.00 0.00 0.01 0.01 0.00 0.01 0.02 0.04 0.10 0.14 0.09 0.16 0.11 0.00 0.00 0.00 0.00 0.00 0.00 0.00 0.00 0.00 0.00 0.00 0.00 0.00 0.00 0.00 0.00 0.00 0.00 0.00 0.00 0.00 0.00 0.00 0.00 0.00 0.00 0.00
0.00 0.00 0.00 0.00 0.01 0.00 0.00 0.00 0.00 0.07 0.05 0.07 0.12 0.09 0.06 0.05 0.01 0.00 0.00 0.00 0.00 0.00 0.00 0.00 0.00 0.00 0.00 0.00 0.00 0.00 0.00 0.00 0.00 0.00 0.00 0.00 0.00 0.00 0.00 0.00 0.00 0.00 0.00
0.01 0.03 0.04 0.03 0.03 0.00 0.00 0.00 0.00 0.05 0.05 0.09 0.10 0.04 0.00 0.01 0.01 0.03 0.00 0.00 0.00 0.00 0.00 0.00 0.00 0.00 0.00 0.00 0.00 0.00 0.00 0.00 0.00 0.00 0.00 0.00 0.00 0.00 0.00 0.00 0.00 0.00 0.00
0.03 0.04 0.02 0.02 0.04 0.02 0.01 0.01 0.02 0.05 0.07 0.05 0.02 0.01 0.00 0.00 0.00 0.03 0.00 0.00 0.00 0.00 0.00 0.00 0.01 0.01 0.00 0.00 0.00 0.01 0.01 0.00 0.00 0.00 0.00 0.00 0.00 0.00 0.00 0.00 0.00 0.00 0.00
0.05 0.05 0.06 0.04 0.04 0.07 0.08 0.07 0.04 0.06 0.06 0.03 0.03 0.04 0.01 0.01 0.03 0.05 0.03 0.01 0.01 0.03 0.08 0.10 0.07 0.01 0.01 0.02 0.02 0.02 0.03 0.02 0.00 0.00 0.00 0.00 0.00 0.00 0.00 0.00 0.00 0.00 0.00

GFSSE_prec_precacc24_039.txt.gz
Total_Precipitation_Accumulation
0.41 0.09 0.04 0.04 0.04 0.00 0.00 0.00 0.00 0.00 0.00 0.00 0.00 0.00 0.00 0.00 0.00 0.00 0.00 0.00 0.00 0.00 0.00 0.00 0.00 0.00 0.00 0.00 0.00 0.00 0.00 0.00 0.00 0.03 0.01 0.01 0.01 0.00 0.00 0.00 0.00 0.01 0.02
1.29 0.64 0.07 0.03 0.02 0.01 0.00 0.00 0.00 0.00 0.00 0.00 0.00 0.00 0.00 0.00 0.00 0.00 0.00 0.00 0.00 0.00 0.00 0.00 0.00 0.00 0.00 0.00 0.00 0.00 0.00 0.00 0.00 0.01 0.00 0.00 0.00 0.00 0.00 0.00 0.01 0.00 0.00
0.90 1.18 0.38 0.07 0.01 0.01 0.00 0.00 0.00 0.00 0.00 0.00 0.00 0.00 0.00 0.00 0.00 0.00 0.00 0.00 0.00 0.00 0.00 0.00 0.00 0.00 0.00 0.00 0.00 0.00 0.00 0.00 0.00 0.00 0.00 0.00 0.00 0.00 0.00 0.00 0.00 0.00 0.00
0.21 0.43 0.55 0.13 0.01 0.00 0.00 0.00 0.00 0.00 0.00 0.00 0.00 0.00 0.00 0.00 0.00 0.00 0.00 0.00 0.00 0.00 0.00 0.00 0.00 0.00 0.00 0.00 0.00 0.00 0.00 0.00 0.00 0.00 0.00 0.00 0.00 0.01 0.01 0.00 0.00 0.00 0.00
0.29 0.36 0.44 0.18 0.02 0.01 0.02 0.01 0.00 0.00 0.00 0.00 0.00 0.00 0.00 0.00 0.00 0.00 0.00 0.00 0.00 0.00 0.00 0.00 0.00 0.00 0.00 0.00 0.00 0.00 0.00 0.00 0.00 0.00 0.00 0.00 0.00 0.00 0.00 0.00 0.01 0.01 0.01
1.11 1.07 0.80 0.50 0.37 0.14 0.09 0.02 0.00 0.00 0.00 0.00 0.00 0.00 0.00 0.00 0.00 0.00 0.00 0.00 0.00 0.00 0.00 0.00 0.00 0.00 0.00 0.00 0.00 0.00 0.00 0.00 0.00 0.00 0.00 0.00 0.00 0.00 0.00 0.00 0.01 0.01 0.01
2.07 1.84 1.61 1.01 1.12 0.77 0.43 0.04 0.00 0.00 0.00 0.00 0.00 0.00 0.00 0.00 0.00 0.00 0.00 0.00 0.00 0.00 0.00 0.00 0.00 0.00 0.00 0.00 0.00 0.00 0.00 0.00 0.00 0.00 0.00 0.00 0.00 0.00 0.00 0.00 0.00 0.00 0.00
3.43 2.80 3.05 2.06 1.35 1.54 0.81 0.15 0.00 0.00 0.00 0.00 0.00 0.00 0.00 0.00 0.00 0.00 0.00 0.00 0.00 0.00 0.00 0.00 0.00 0.00 0.00 0.00 0.00 0.00 0.00 0.00 0.00 0.00 0.00 0.00 0.00 0.00 0.00 0.00 0.00 0.00 0.00
4.36 5.88 5.45 4.83 3.16 1.68 0.59 0.13 0.01 0.00 0.00 0.00 0.00 0.00 0.00 0.00 0.00 0.00 0.00 0.00 0.00 0.00 0.00 0.00 0.00 0.00 0.00 0.00 0.00 0.00 0.00 0.00 0.00 0.00 0.00 0.00 0.00 0.00 0.00 0.00 0.00 0.00 0.00
2.43 3.93 4.85 4.21 3.38 1.50 0.37 0.07 0.01 0.00 0.00 0.00 0.00 0.00 0.00 0.00 0.00 0.00 0.00 0.00 0.00 0.00 0.00 0.00 0.00 0.00 0.00 0.00 0.00 0.00 0.00 0.00 0.00 0.00 0.00 0.00 0.00 0.00 0.00 0.00 0.00 0.00 0.00
1.20 1.68 2.33 2.56 2.42 1.17 0.41 0.23 0.07 0.05 0.02 0.00 0.00 0.00 0.00 0.00 0.00 0.00 0.00 0.00 0.00 0.00 0.00 0.00 0.00 0.00 0.00 0.00 0.00 0.00 0.00 0.00 0.00 0.00 0.00 0.00 0.00 0.00 0.00 0.00 0.00 0.00 0.00
0.76 0.78 0.92 1.34 1.44 0.94 0.54 0.37 0.19 0.10 0.04 0.00 0.00 0.00 0.00 0.00 0.00 0.00 0.00 0.00 0.00 0.00 0.00 0.00 0.00 0.00 0.00 0.00 0.00 0.00 0.00 0.00 0.00 0.00 0.00 0.00 0.00 0.01 0.01 0.00 0.00 0.00 0.00
0.51 0.37 0.33 0.34 0.47 0.39 0.34 0.30 0.25 0.14 0.07 0.01 0.01 0.00 0.00 0.00 0.00 0.00 0.00 0.00 0.00 0.00 0.00 0.00 0.00 0.00 0.00 0.00 0.00 0.00 0.00 0.00 0.00 0.00 0.00 0.00 0.00 0.01 0.01 0.01 0.00 0.00 0.00
0.24 0.20 0.22 0.18 0.16 0.15 0.12 0.14 0.15 0.13 0.12 0.05 0.02 0.00 0.00 0.00 0.00 0.00 0.00 0.00 0.00 0.00 0.00 0.00 0.00 0.00 0.00 0.00 0.00 0.00 0.00 0.00 0.00 0.00 0.00 0.00 0.00 0.00 0.03 0.03 0.01 0.00 0.00
0.13 0.23 0.18 0.08 0.09 0.11 0.08 0.09 0.09 0.09 0.07 0.04 0.02 0.00 0.00 0.00 0.00 0.00 0.00 0.00 0.00 0.00 0.00 0.00 0.00 0.00 0.00 0.00 0.00 0.00 0.00 0.00 0.00 0.00 0.00 0.00 0.00 0.01 0.03 0.04 0.02 0.00 0.00
0.13 0.22 0.20 0.18 0.14 0.14 0.16 0.10 0.07 0.04 0.03 0.02 0.01 0.00 0.01 0.00 0.00 0.00 0.02 0.00 0.00 0.00 0.00 0.00 0.00 0.00 0.00 0.00 0.00 0.00 0.00 0.00 0.00 0.00 0.00 0.00 0.00 0.00 0.00 0.01 0.01 0.00 0.00
0.06 0.07 0.14 0.16 0.18 0.17 0.09 0.05 0.08 0.06 0.02 0.00 0.00 0.02 0.01 0.00 0.01 0.02 0.02 0.00 0.00 0.00 0.00 0.00 0.00 0.00 0.00 0.00 0.00 0.00 0.00 0.00 0.00 0.00 0.00 0.00 0.00 0.00 0.00 0.00 0.00 0.00 0.00
0.00 0.00 0.01 0.03 0.08 0.07 0.05 0.01 0.03 0.02 0.00 0.01 0.02 0.04 0.01 0.00 0.00 0.00 0.00 0.00 0.00 0.00 0.00 0.00 0.00 0.00 0.00 0.00 0.00 0.00 0.00 0.00 0.00 0.00 0.00 0.00 0.00 0.00 0.00 0.00 0.00 0.00 0.00
0.00 0.00 0.00 0.02 0.05 0.08 0.07 0.01 0.02 0.06 0.02 0.03 0.06 0.08 0.06 0.01 0.00 0.00 0.00 0.00 0.00 0.00 0.00 0.00 0.00 0.00 0.00 0.00 0.00 0.00 0.00 0.00 0.00 0.00 0.00 0.00 0.00 0.00 0.00 0.00 0.00 0.00 0.00
0.00 0.00 0.00 0.01 0.02 0.05 0.08 0.02 0.02 0.01 0.02 0.07 0.10 0.05 0.04 0.01 0.03 0.02 0.01 0.01 0.00 0.00 0.00 0.00 0.00 0.00 0.00 0.00 0.00 0.00 0.00 0.00 0.00 0.00 0.00 0.00 0.00 0.00 0.00 0.00 0.00 0.00 0.00
0.00 0.00 0.00 0.00 0.00 0.02 0.04 0.01 0.04 0.03 0.03 0.08 0.17 0.06 0.23 0.10 0.10 0.04 0.01 0.00 0.00 0.00 0.00 0.00 0.00 0.00 0.00 0.00 0.00 0.00 0.00 0.00 0.00 0.00 0.00 0.00 0.00 0.00 0.00 0.00 0.00 0.00 0.00
0.00 0.00 0.00 0.00 0.00 0.00 0.00 0.00 0.01 0.02 0.04 0.10 0.14 0.13 0.21 0.19 0.06 0.04 0.01 0.00 0.00 0.00 0.00 0.00 0.00 0.00 0.00 0.00 0.00 0.00 0.00 0.00 0.00 0.00 0.00 0.00 0.00 0.00 0.00 0.00 0.00 0.00 0.00
0.00 0.00 0.00 0.00 0.01 0.00 0.00 0.00 0.00 0.07 0.05 0.07 0.12 0.11 0.11 0.10 0.04 0.06 0.02 0.00 0.00 0.00 0.00 0.00 0.00 0.00 0.00 0.00 0.00 0.00 0.00 0.00 0.00 0.00 0.00 0.00 0.00 0.00 0.00 0.00 0.00 0.00 0.00
0.00 0.01 0.02 0.03 0.03 0.00 0.00 0.00 0.00 0.05 0.05 0.09 0.10 0.05 0.03 0.01 0.06 0.19 0.05 0.01 0.00 0.00 0.00 0.00 0.00 0.00 0.00 0.00 0.00 0.00 0.00 0.00 0.00 0.00 0.00 0.00 0.00 0.00 0.00 0.00 0.00 0.00 0.00
0.01 0.01 0.02 0.02 0.04 0.02 0.01 0.01 0.02 0.05 0.07 0.05 0.02 0.01 0.01 0.03 0.03 0.11 0.05 0.01 0.00 0.00 0.00 0.00 0.01 0.02 0.05 0.07 0.02 0.01 0.01 0.01 0.00 0.00 0.00 0.00 0.00 0.00 0.00 0.00 0.00 0.00 0.00
0.03 0.03 0.06 0.04 0.04 0.07 0.08 0.07 0.04 0.09 0.07 0.03 0.03 0.04 0.04 0.03 0.16 0.15 0.10 0.05 0.03 0.05 0.10 0.12 0.13 0.08 0.05 0.05 0.03 0.02 0.04 0.06 0.04 0.01 0.00 0.00 0.00 0.00 0.00 0.00 0.00 0.00 0.00

GFSSE_prec_precacc24_042.txt.gz
Total_Precipitation_Accumulation
0.67 0.26 0.10 0.05 0.04 0.01 0.00 0.00 0.00 0.00 0.00 0.00 0.00 0.00 0.00 0.00 0.00 0.00 0.00 0.00 0.00 0.00 0.00 0.00 0.00 0.00 0.00 0.00 0.00 0.00 0.00 0.00 0.00 0.03 0.01 0.00 0.00 0.00 0.00 0.00 0.00 0.01 0.03
1.43 1.25 0.70 0.15 0.03 0.01 0.00 0.00 0.00 0.00 0.00 0.00 0.00 0.00 0.00 0.00 0.00 0.00 0.00 0.00 0.00 0.00 0.00 0.00 0.00 0.00 0.00 0.00 0.00 0.00 0.00 0.00 0.00 0.01 0.00 0.00 0.00 0.00 0.00 0.00 0.00 0.00 0.01
0.94 2.23 1.72 0.59 0.05 0.01 0.00 0.00 0.00 0.00 0.00 0.00 0.00 0.00 0.00 0.00 0.00 0.00 0.00 0.00 0.00 0.00 0.00 0.00 0.00 0.00 0.00 0.00 0.00 0.00 0.00 0.00 0.00 0.00 0.00 0.00 0.00 0.01 0.01 0.00 0.00 0.00 0.00
0.21 0.59 1.78 1.21 0.20 0.00 0.00 0.00 0.00 0.00 0.00 0.00 0.00 0.00 0.00 0.00 0.00 0.00 0.00 0.00 0.00 0.00 0.00 0.00 0.00 0.00 0.00 0.00 0.00 0.00 0.00 0.00 0.00 0.00 0.00 0.00 0.00 0.01 0.01 0.01 0.01 0.01 0.00
0.30 0.43 0.61 0.68 0.47 0.10 0.01 0.00 0.00 0.00 0.00 0.00 0.00 0.00 0.00 0.00 0.00 0.00 0.00 0.00 0.00 0.00 0.00 0.00 0.00 0.00 0.00 0.00 0.00 0.00 0.00 0.00 0.00 0.00 0.00 0.00 0.00 0.00 0.01 0.01 0.01 0.01 0.01
1.16 1.21 1.13 0.74 0.46 0.22 0.27 0.06 0.00 0.00 0.00 0.00 0.00 0.00 0.00 0.00 0.00 0.00 0.00 0.00 0.00 0.00 0.00 0.00 0.00 0.00 0.00 0.00 0.00 0.00 0.00 0.00 0.00 0.00 0.00 0.00 0.00 0.00 0.00 0.01 0.01 0.01 0.01
2.04 1.89 2.06 2.36 1.42 0.63 0.36 0.06 0.00 0.00 0.00 0.00 0.00 0.00 0.00 0.00 0.00 0.00 0.00 0.00 0.00 0.00 0.00 0.00 0.00 0.00 0.00 0.00 0.00 0.00 0.00 0.00 0.00 0.00 0.00 0.00 0.00 0.00 0.00 0.00 0.00 0.00 0.00
2.76 2.59 2.87 3.13 2.46 1.33 0.66 0.16 0.01 0.00 0.00 0.00 0.00 0.00 0.00 0.00 0.00 0.00 0.00 0.00 0.00 0.00 0.00 0.00 0.00 0.00 0.00 0.00 0.00 0.00 0.00 0.00 0.00 0.00 0.00 0.00 0.00 0.00 0.00 0.00 0.00 0.00 0.00
3.59 5.18 4.04 4.47 3.51 2.07 0.70 0.14 0.02 0.00 0.00 0.00 0.00 0.00 0.00 0.00 0.00 0.00 0.00 0.00 0.00 0.00 0.00 0.00 0.00 0.00 0.00 0.00 0.00 0.00 0.00 0.00 0.00 0.00 0.00 0.00 0.00 0.00 0.00 0.00 0.00 0.00 0.00
2.05 3.31 4.22 5.60 5.04 1.97 0.77 0.12 0.03 0.01 0.00 0.00 0.00 0.00 0.00 0.00 0.00 0.00 0.00 0.00 0.00 0.00 0.00 0.00 0.00 0.00 0.00 0.00 0.00 0.00 0.00 0.00 0.00 0.00 0.00 0.00 0.00 0.00 0.00 0.00 0.00 0.00 0.00
1.18 1.63 2.51 4.80 3.81 1.82 0.65 0.33 0.09 0.06 0.02 0.00 0.00 0.00 0.00 0.00 0.00 0.00 0.00 0.00 0.00 0.00 0.00 0.00 0.00 0.00 0.00 0.00 0.00 0.00 0.00 0.00 0.00 0.00 0.00 0.00 0.00 0.00 0.00 0.00 0.00 0.00 0.00
0.80 0.80 0.99 1.94 2.41 1.34 0.64 0.46 0.20 0.10 0.04 0.00 0.00 0.00 0.00 0.00 0.00 0.00 0.00 0.00 0.00 0.00 0.00 0.00 0.00 0.00 0.00 0.00 0.00 0.00 0.00 0.00 0.00 0.00 0.00 0.00 0.00 0.01 0.01 0.00 0.00 0.00 0.00
0.55 0.38 0.34 0.38 0.65 0.66 0.41 0.36 0.26 0.14 0.07 0.01 0.01 0.00 0.00 0.00 0.00 0.00 0.00 0.00 0.00 0.00 0.00 0.00 0.00 0.00 0.00 0.00 0.00 0.00 0.00 0.00 0.00 0.00 0.00 0.00 0.00 0.01 0.02 0.01 0.00 0.00 0.00
0.25 0.21 0.22 0.17 0.16 0.16 0.12 0.14 0.15 0.13 0.12 0.05 0.02 0.00 0.00 0.00 0.00 0.00 0.00 0.00 0.00 0.00 0.00 0.00 0.00 0.00 0.00 0.00 0.00 0.00 0.00 0.00 0.00 0.00 0.00 0.00 0.00 0.00 0.03 0.03 0.01 0.00 0.00
0.14 0.25 0.19 0.08 0.11 0.12 0.08 0.09 0.09 0.09 0.07 0.05 0.01 0.00 0.00 0.00 0.00 0.00 0.00 0.00 0.00 0.00 0.00 0.00 0.00 0.00 0.00 0.00 0.00 0.00 0.00 0.00 0.00 0.00 0.00 0.00 0.00 0.01 0.04 0.05 0.02 0.00 0.00
0.20 0.27 0.21 0.19 0.14 0.15 0.16 0.10 0.07 0.04 0.02 0.02 0.02 0.00 0.01 0.00 0.00 0.00 0.02 0.00 0.00 0.00 0.00 0.00 0.00 0.00 0.00 0.00 0.00 0.00 0.00 0.00 0.00 0.00 0.00 0.00 0.00 0.00 0.01 0.02 0.01 0.00 0.00
0.16 0.13 0.19 0.22 0.21 0.17 0.10 0.06 0.08 0.05 0.01 0.00 0.00 0.02 0.01 0.00 0.01 0.02 0.03 0.01 0.00 0.00 0.00 0.00 0.00 0.00 0.00 0.00 0.00 0.00 0.00 0.00 0.00 0.00 0.00 0.00 0.00 0.00 0.00 0.00 0.00 0.00 0.00
0.06 0.09 0.10 0.07 0.10 0.07 0.06 0.02 0.02 0.02 0.00 0.01 0.02 0.04 0.01 0.00 0.00 0.00 0.01 0.00 0.00 0.00 0.00 0.00 0.00 0.00 0.00 0.00 0.00 0.00 0.00 0.00 0.00 0.00 0.00 0.00 0.00 0.00 0.00 0.00 0.00 0.00 0.00
0.00 0.01 0.04 0.04 0.07 0.08 0.07 0.02 0.02 0.06 0.02 0.03 0.06 0.08 0.06 0.01 0.00 0.00 0.00 0.00 0.00 0.00 0.00 0.00 0.00 0.00 0.00 0.00 0.00 0.00 0.00 0.00 0.00 0.00 0.00 0.00 0.00 0.00 0.00 0.00 0.00 0.00 0.00
0.00 0.00 0.00 0.01 0.03 0.06 0.08 0.02 0.02 0.01 0.02 0.07 0.10 0.05 0.04 0.01 0.03 0.02 0.01 0.01 0.00 0.00 0.00 0.00 0.00 0.00 0.00 0.00 0.00 0.00 0.00 0.00 0.00 0.00 0.00 0.00 0.00 0.00 0.00 0.00 0.00 0.00 0.00
0.00 0.00 0.00 0.00 0.00 0.02 0.04 0.01 0.04 0.03 0.03 0.08 0.17 0.06 0.23 0.10 0.10 0.04 0.01 0.00 0.00 0.00 0.00 0.00 0.00 0.00 0.00 0.00 0.00 0.00 0.00 0.00 0.00 0.00 0.00 0.00 0.00 0.00 0.00 0.00 0.00 0.00 0.00
0.00 0.00 0.00 0.00 0.00 0.00 0.00 0.00 0.01 0.02 0.04 0.10 0.14 0.13 0.21 0.19 0.06 0.04 0.01 0.00 0.00 0.00 0.00 0.00 0.00 0.00 0.00 0.00 0.00 0.00 0.00 0.00 0.00 0.00 0.00 0.00 0.00 0.00 0.00 0.00 0.00 0.00 0.00
0.00 0.00 0.00 0.00 0.01 0.00 0.00 0.00 0.00 0.07 0.05 0.07 0.12 0.11 0.11 0.10 0.04 0.06 0.02 0.00 0.00 0.00 0.00 0.00 0.00 0.00 0.00 0.00 0.00 0.00 0.00 0.00 0.00 0.00 0.00 0.00 0.00 0.00 0.00 0.00 0.00 0.00 0.00
0.00 0.00 0.00 0.00 0.00 0.00 0.00 0.00 0.00 0.05 0.05 0.09 0.10 0.05 0.03 0.01 0.06 0.19 0.07 0.02 0.00 0.00 0.00 0.00 0.00 0.00 0.00 0.00 0.01 0.00 0.00 0.00 0.00 0.00 0.00 0.00 0.00 0.00 0.00 0.00 0.00 0.00 0.00
0.00 0.00 0.01 0.01 0.02 0.01 0.01 0.01 0.02 0.05 0.07 0.05 0.02 0.01 0.01 0.03 0.03 0.11 0.09 0.05 0.01 0.03 0.04 0.03 0.02 0.03 0.08 0.11 0.06 0.02 0.01 0.01 0.00 0.00 0.00 0.00 0.00 0.00 0.00 0.00 0.00 0.00 0.00
0.00 0.02 0.02 0.03 0.04 0.07 0.08 0.07 0.04 0.09 0.07 0.03 0.03 0.04 0.04 0.03 0.17 0.21 0.19 0.14 0.09 0.10 0.16 0.17 0.16 0.10 0.06 0.05 0.03 0.02 0.04 0.06 0.04 0.01 0.00 0.00 0.00 0.00 0.00 0.00 0.00 0.00 0.00

GFSSE_prec_precacc24_045.txt.gz
Total_Precipitation_Accumulation
0.68 0.29 0.12 0.06 0.06 0.06 0.00 0.00 0.00 0.00 0.00 0.00 0.00 0.00 0.00 0.00 0.00 0.00 0.00 0.00 0.00 0.00 0.00 0.00 0.00 0.00 0.00 0.00 0.00 0.00 0.00 0.00 0.00 0.00 0.00 0.00 0.00 0.00 0.00 0.00 0.01 0.02 0.05
1.45 1.28 0.73 0.20 0.09 0.02 0.01 0.00 0.00 0.00 0.00 0.00 0.00 0.00 0.00 0.00 0.00 0.00 0.00 0.00 0.00 0.00 0.00 0.00 0.00 0.00 0.00 0.00 0.00 0.00 0.00 0.00 0.00 0.00 0.00 0.00 0.00 0.00 0.00 0.00 0.00 0.01 0.02
0.96 2.26 1.75 0.85 0.31 0.11 0.05 0.00 0.00 0.00 0.00 0.00 0.00 0.00 0.00 0.00 0.00 0.00 0.00 0.00 0.00 0.00 0.00 0.00 0.00 0.00 0.00 0.00 0.00 0.00 0.00 0.00 0.00 0.00 0.00 0.00 0.00 0.01 0.01 0.00 0.00 0.00 0.00
0.22 0.61 1.81 1.36 0.65 0.30 0.13 0.04 0.00 0.00 0.00 0.00 0.00 0.00 0.00 0.00 0.00 0.00 0.00 0.00 0.00 0.00 0.00 0.00 0.00 0.00 0.00 0.00 0.00 0.00 0.00 0.00 0.00 0.00 0.00 0.00 0.00 0.02 0.02 0.02 0.01 0.01 0.01
0.24 0.43 0.59 0.70 0.79 0.55 0.26 0.10 0.00 0.00 0.00 0.00 0.00 0.00 0.00 0.00 0.00 0.00 0.00 0.00 0.00 0.00 0.00 0.00 0.00 0.00 0.00 0.00 0.00 0.00 0.00 0.00 0.00 0.00 0.00 0.00 0.00 0.01 0.02 0.01 0.02 0.02 0.01
1.13 1.14 1.04 0.69 0.57 0.68 0.65 0.21 0.00 0.00 0.00 0.01 0.00 0.00 0.00 0.00 0.00 0.00 0.00 0.00 0.00 0.00 0.00 0.00 0.00 0.00 0.00 0.00 0.00 0.00 0.00 0.00 0.00 0.00 0.00 0.00 0.00 0.00 0.01 0.01 0.01 0.01 0.01
1.97 1.92 2.19 2.46 1.67 0.65 0.62 0.30 0.01 0.00 0.00 0.01 0.01 0.00 0.00 0.00 0.00 0.00 0.00 0.00 0.00 0.00 0.00 0.00 0.00 0.00 0.00 0.00 0.00 0.00 0.00 0.00 0.00 0.00 0.00 0.00 0.00 0.00 0.00 0.00 0.00 0.00 0.01
2.56 2.53 2.88 3.00 2.76 2.20 0.84 0.47 0.05 0.00 0.01 0.03 0.01 0.00 0.00 0.00 0.00 0.00 0.00 0.00 0.00 0.00 0.00 0.00 0.00 0.00 0.00 0.00 0.00 0.00 0.00 0.00 0.00 0.00 0.00 0.00 0.00 0.00 0.00 0.00 0.00 0.00 0.00
2.60 3.80 3.11 3.78 2.90 2.57 2.18 0.79 0.15 0.00 0.01 0.03 0.01 0.00 0.00 0.00 0.00 0.00 0.00 0.00 0.00 0.00 0.00 0.00 0.00 0.00 0.00 0.00 0.00 0.00 0.00 0.00 0.00 0.00 0.00 0.00 0.00 0.00 0.00 0.00 0.00 0.00 0.00
1.82 2.62 3.45 5.00 4.72 1.84 1.61 0.92 0.21 0.04 0.01 0.01 0.00 0.00 0.00 0.00 0.00 0.00 0.00 0.00 0.00 0.00 0.00 0.00 0.00 0.00 0.00 0.00 0.00 0.00 0.00 0.00 0.00 0.00 0.00 0.00 0.00 0.00 0.00 0.00 0.00 0.00 0.00
1.08 1.41 2.34 4.81 4.18 2.04 1.08 0.83 0.28 0.13 0.05 0.01 0.00 0.00 0.00 0.00 0.00 0.00 0.00 0.00 0.00 0.00 0.00 0.00 0.00 0.00 0.00 0.00 0.00 0.00 0.00 0.00 0.00 0.00 0.00 0.00 0.00 0.00 0.00 0.00 0.00 0.00 0.00
0.78 0.75 0.94 2.15 3.32 2.22 1.20 0.79 0.40 0.25 0.12 0.06 0.00 0.00 0.00 0.00 0.00 0.00 0.00 0.00 0.00 0.00 0.00 0.00 0.00 0.00 0.00 0.00 0.00 0.00 0.00 0.00 0.00 0.00 0.00 0.00 0.00 0.01 0.01 0.00 0.00 0.00 0.00
0.56 0.38 0.34 0.43 1.03 1.27 0.87 0.66 0.42 0.23 0.14 0.04 0.01 0.00 0.00 0.00 0.00 0.00 0.00 0.00 0.00 0.00 0.00 0.00 0.00 0.00 0.00 0.00 0.00 0.00 0.00 0.00 0.00 0.00 0.00 0.00 0.00 0.01 0.02 0.01 0.00 0.00 0.00
0.26 0.22 0.22 0.18 0.20 0.33 0.35 0.30 0.23 0.18 0.15 0.06 0.02 0.00 0.00 0.00 0.00 0.00 0.00 0.00 0.00 0.00 0.00 0.00 0.00 0.00 0.00 0.00 0.00 0.00 0.00 0.00 0.00 0.00 0.00 0.00 0.00 0.01 0.03 0.03 0.01 0.00 0.00
0.17 0.26 0.20 0.08 0.11 0.13 0.10 0.09 0.09 0.09 0.08 0.05 0.01 0.00 0.00 0.00 0.00 0.00 0.00 0.00 0.00 0.00 0.00 0.00 0.00 0.00 0.00 0.00 0.00 0.00 0.00 0.00 0.00 0.00 0.00 0.00 0.00 0.01 0.04 0.05 0.02 0.00 0.00
0.27 0.29 0.25 0.26 0.17 0.19 0.17 0.10 0.07 0.04 0.02 0.02 0.02 0.00 0.01 0.00 0.00 0.00 0.02 0.00 0.00 0.00 0.00 0.00 0.00 0.00 0.00 0.00 0.00 0.00 0.00 0.00 0.00 0.00 0.00 0.00 0.00 0.00 0.01 0.02 0.01 0.00 0.00
0.38 0.20 0.22 0.25 0.27 0.28 0.13 0.06 0.08 0.05 0.01 0.00 0.00 0.02 0.01 0.00 0.01 0.02 0.03 0.01 0.00 0.00 0.00 0.00 0.00 0.00 0.00 0.00 0.00 0.00 0.00 0.00 0.00 0.00 0.00 0.00 0.00 0.00 0.00 0.00 0.00 0.00 0.00
0.12 0.25 0.12 0.09 0.20 0.12 0.07 0.02 0.02 0.02 0.00 0.01 0.02 0.04 0.01 0.00 0.00 0.00 0.01 0.00 0.00 0.00 0.00 0.00 0.00 0.00 0.00 0.00 0.00 0.00 0.00 0.00 0.00 0.00 0.00 0.00 0.00 0.00 0.00 0.00 0.00 0.00 0.00
0.01 0.11 0.10 0.05 0.14 0.17 0.08 0.03 0.01 0.02 0.02 0.03 0.06 0.08 0.06 0.01 0.00 0.00 0.00 0.00 0.00 0.00 0.00 0.00 0.00 0.00 0.00 0.00 0.00 0.00 0.00 0.00 0.00 0.00 0.00 0.00 0.00 0.00 0.00 0.00 0.00 0.00 0.00
0.00 0.00 0.01 0.02 0.05 0.09 0.09 0.03 0.01 0.01 0.02 0.07 0.10 0.05 0.04 0.01 0.03 0.02 0.01 0.01 0.00 0.00 0.00 0.00 0.00 0.00 0.00 0.00 0.00 0.00 0.00 0.00 0.00 0.00 0.00 0.00 0.00 0.00 0.00 0.00 0.00 0.00 0.00
0.00 0.00 0.00 0.00 0.01 0.04 0.04 0.01 0.05 0.03 0.03 0.08 0.17 0.06 0.23 0.10 0.10 0.04 0.01 0.00 0.00 0.00 0.00 0.00 0.00 0.00 0.00 0.00 0.00 0.00 0.00 0.00 0.00 0.00 0.00 0.00 0.00 0.00 0.00 0.00 0.00 0.00 0.00
0.00 0.00 0.00 0.00 0.00 0.00 0.00 0.00 0.01 0.02 0.04 0.10 0.14 0.13 0.21 0.19 0.06 0.04 0.01 0.00 0.00 0.00 0.00 0.00 0.00 0.00 0.00 0.00 0.00 0.00 0.00 0.00 0.00 0.00 0.00 0.00 0.00 0.00 0.00 0.00 0.00 0.00 0.00
0.00 0.00 0.00 0.00 0.00 0.00 0.00 0.00 0.00 0.07 0.05 0.07 0.12 0.11 0.11 0.10 0.04 0.06 0.02 0.00 0.00 0.00 0.00 0.00 0.00 0.00 0.00 0.00 0.00 0.00 0.00 0.00 0.00 0.00 0.00 0.00 0.00 0.00 0.00 0.00 0.00 0.00 0.00
0.00 0.00 0.00 0.00 0.00 0.00 0.00 0.00 0.00 0.02 0.04 0.09 0.10 0.05 0.03 0.01 0.06 0.19 0.07 0.02 0.00 0.00 0.00 0.00 0.00 0.01 0.01 0.00 0.01 0.01 0.00 0.00 0.00 0.00 0.00 0.00 0.00 0.00 0.00 0.00 0.00 0.00 0.00
0.00 0.00 0.01 0.00 0.00 0.00 0.01 0.01 0.00 0.02 0.06 0.05 0.02 0.01 0.01 0.03 0.03 0.11 0.09 0.06 0.02 0.05 0.07 0.08 0.07 0.08 0.10 0.12 0.06 0.02 0.01 0.01 0.00 0.00 0.00 0.00 0.00 0.00 0.00 0.00 0.00 0.00 0.00
0.00 0.00 0.01 0.01 0.00 0.05 0.07 0.07 0.03 0.06 0.05 0.03 0.03 0.04 0.04 0.03 0.17 0.21 0.19 0.16 0.13 0.13 0.22 0.25 0.22 0.14 0.10 0.06 0.04 0.02 0.04 0.06 0.04 0.01 0.00 0.00 0.00 0.00 0.00 0.00 0.00 0.00 0.00

GFSSE_prec_precacc24_048.txt.gz
Total_Precipitation_Accumulation
0.69 0.32 0.12 0.06 0.07 0.06 0.00 0.01 0.00 0.00 0.00 0.00 0.00 0.00 0.00 0.00 0.00 0.00 0.00 0.00 0.00 0.00 0.00 0.00 0.00 0.00 0.00 0.00 0.00 0.00 0.00 0.00 0.00 0.00 0.01 0.01 0.01 0.01 0.01 0.01 0.01 0.03 0.06
1.46 1.28 0.73 0.20 0.10 0.02 0.01 0.00 0.00 0.00 0.00 0.00 0.00 0.00 0.00 0.00 0.00 0.00 0.00 0.00 0.00 0.00 0.00 0.00 0.00 0.00 0.00 0.00 0.00 0.00 0.00 0.00 0.00 0.00 0.00 0.00 0.00 0.01 0.00 0.00 0.01 0.01 0.02
0.97 2.27 1.75 0.86 0.33 0.11 0.06 0.00 0.00 0.00 0.00 0.00 0.00 0.00 0.00 0.00 0.00 0.00 0.00 0.00 0.00 0.00 0.00 0.00 0.00 0.00 0.00 0.00 0.00 0.00 0.00 0.00 0.00 0.00 0.00 0.00 0.00 0.01 0.01 0.00 0.00 0.00 0.00
0.23 0.69 1.82 1.37 0.66 0.30 0.13 0.05 0.02 0.00 0.00 0.00 0.00 0.00 0.00 0.00 0.00 0.00 0.00 0.00 0.00 0.00 0.00 0.00 0.00 0.00 0.00 0.00 0.00 0.00 0.00 0.00 0.00 0.00 0.00 0.01 0.01 0.03 0.03 0.02 0.02 0.01 0.01
0.28 0.50 0.57 0.69 0.79 0.55 0.26 0.12 0.05 0.01 0.00 0.00 0.00 0.00 0.00 0.00 0.00 0.00 0.00 0.00 0.00 0.00 0.00 0.00 0.00 0.00 0.00 0.00 0.00 0.00 0.00 0.00 0.00 0.00 0.00 0.00 0.00 0.01 0.02 0.02 0.02 0.02 0.02
1.11 1.05 0.90 0.60 0.51 0.68 0.65 0.29 0.11 0.04 0.00 0.01 0.01 0.00 0.00 0.00 0.00 0.00 0.00 0.00 0.00 0.00 0.00 0.00 0.00 0.00 0.00 0.00 0.00 0.00 0.00 0.00 0.00 0.00 0.00 0.00 0.00 0.00 0.01 0.01 0.01 0.01 0.01
1.83 1.68 1.99 2.33 1.48 0.56 0.58 0.46 0.20 0.10 0.02 0.03 0.01 0.00 0.00 0.00 0.00 0.00 0.00 0.00 0.00 0.00 0.00 0.00 0.00 0.00 0.00 0.00 0.00 0.00 0.00 0.00 0.00 0.00 0.00 0.00 0.00 0.00 0.00 0.00 0.01 0.01 0.01
2.51 2.48 2.56 2.82 2.64 2.10 0.78 0.62 0.24 0.13 0.06 0.05 0.01 0.00 0.00 0.00 0.00 0.00 0.00 0.00 0.00 0.00 0.00 0.00 0.00 0.00 0.00 0.00 0.00 0.00 0.00 0.00 0.00 0.00 0.00 0.00 0.00 0.00 0.00 0.00 0.00 0.00 0.00
2.47 3.39 2.61 3.02 2.45 2.39 2.15 0.98 0.36 0.17 0.09 0.05 0.01 0.00 0.00 0.00 0.00 0.00 0.00 0.00 0.00 0.00 0.00 0.00 0.00 0.00 0.00 0.00 0.00 0.00 0.00 0.00 0.00 0.00 0.00 0.00 0.00 0.00 0.00 0.00 0.00 0.00 0.00
1.80 2.59 3.16 4.14 3.98 1.67 1.59 1.09 0.35 0.22 0.12 0.04 0.01 0.00 0.00 0.00 0.00 0.00 0.00 0.00 0.00 0.00 0.00 0.00 0.00 0.00 0.00 0.00 0.00 0.00 0.00 0.00 0.00 0.00 0.00 0.00 0.00 0.00 0.00 0.00 0.00 0.00 0.00
1.15 1.31 2.23 4.53 3.99 2.06 1.05 0.86 0.34 0.26 0.24 0.08 0.00 0.00 0.00 0.00 0.00 0.00 0.00 0.00 0.00 0.00 0.00 0.00 0.00 0.00 0.00 0.00 0.00 0.00 0.00 0.00 0.00 0.00 0.00 0.00 0.00 0.00 0.00 0.00 0.00 0.00 0.00
0.79 0.74 0.90 2.09 3.38 2.29 1.18 0.80 0.45 0.41 0.35 0.18 0.03 0.00 0.00 0.00 0.00 0.00 0.00 0.00 0.00 0.00 0.00 0.00 0.00 0.00 0.00 0.00 0.00 0.00 0.00 0.00 0.00 0.00 0.00 0.00 0.00 0.01 0.01 0.00 0.00 0.00 0.00
0.47 0.38 0.36 0.40 1.11 1.69 1.22 0.81 0.55 0.41 0.35 0.23 0.09 0.00 0.00 0.00 0.00 0.00 0.00 0.00 0.00 0.00 0.00 0.00 0.00 0.00 0.00 0.00 0.00 0.00 0.00 0.00 0.00 0.00 0.00 0.00 0.00 0.01 0.02 0.01 0.00 0.00 0.00
0.30 0.24 0.23 0.18 0.21 0.39 0.66 0.64 0.38 0.29 0.28 0.15 0.08 0.01 0.00 0.00 0.00 0.00 0.00 0.00 0.00 0.00 0.00 0.00 0.00 0.00 0.00 0.00 0.00 0.00 0.00 0.00 0.00 0.00 0.00 0.00 0.00 0.01 0.04 0.02 0.01 0.00 0.00
0.18 0.28 0.21 0.10 0.11 0.15 0.17 0.21 0.24 0.17 0.15 0.11 0.04 0.00 0.00 0.00 0.00 0.00 0.00 0.00 0.00 0.00 0.00 0.00 0.00 0.00 0.00 0.00 0.00 0.00 0.00 0.00 0.00 0.00 0.00 0.00 0.00 0.01 0.05 0.04 0.01 0.00 0.00
0.29 0.30 0.26 0.26 0.17 0.21 0.19 0.11 0.10 0.06 0.05 0.06 0.03 0.00 0.00 0.00 0.00 0.00 0.02 0.00 0.00 0.00 0.00 0.00 0.00 0.00 0.00 0.00 0.00 0.00 0.00 0.00 0.00 0.00 0.00 0.00 0.00 0.00 0.02 0.02 0.01 0.00 0.00
0.40 0.22 0.23 0.30 0.35 0.34 0.20 0.08 0.08 0.05 0.03 0.02 0.02 0.02 0.01 0.00 0.01 0.02 0.03 0.01 0.00 0.00 0.00 0.00 0.00 0.00 0.00 0.00 0.00 0.00 0.00 0.00 0.00 0.00 0.00 0.00 0.00 0.00 0.00 0.00 0.00 0.00 0.00
0.23 0.46 0.15 0.16 0.36 0.30 0.27 0.07 0.02 0.02 0.01 0.01 0.03 0.04 0.01 0.00 0.00 0.00 0.01 0.00 0.00 0.00 0.00 0.00 0.00 0.00 0.00 0.00 0.00 0.00 0.00 0.00 0.00 0.00 0.00 0.00 0.00 0.00 0.00 0.00 0.00 0.00 0.00
0.01 0.29 0.29 0.09 0.21 0.33 0.15 0.08 0.01 0.00 0.01 0.04 0.06 0.08 0.06 0.01 0.00 0.00 0.00 0.00 0.00 0.00 0.00 0.00 0.00 0.00 0.00 0.00 0.00 0.00 0.00 0.00 0.00 0.00 0.00 0.00 0.00 0.00 0.00 0.00 0.00 0.00 0.00
0.00 0.01 0.08 0.04 0.13 0.23 0.15 0.04 0.02 0.01 0.02 0.07 0.10 0.05 0.04 0.01 0.04 0.03 0.01 0.01 0.00 0.00 0.00 0.00 0.00 0.00 0.00 0.00 0.00 0.00 0.00 0.00 0.00 0.00 0.00 0.00 0.00 0.00 0.00 0.00 0.00 0.00 0.00
0.00 0.00 0.01 0.05 0.04 0.14 0.15 0.04 0.01 0.02 0.02 0.08 0.17 0.07 0.23 0.11 0.12 0.06 0.02 0.02 0.01 0.00 0.00 0.00 0.00 0.00 0.00 0.00 0.00 0.00 0.00 0.00 0.00 0.00 0.00 0.00 0.00 0.00 0.00 0.00 0.00 0.00 0.00
0.00 0.00 0.00 0.01 0.02 0.05 0.06 0.06 0.01 0.02 0.04 0.10 0.15 0.13 0.22 0.20 0.07 0.07 0.04 0.01 0.01 0.01 0.00 0.00 0.00 0.00 0.00 0.00 0.00 0.00 0.00 0.00 0.00 0.00 0.00 0.00 0.00 0.00 0.00 0.00 0.00 0.00 0.00
0.00 0.00 0.00 0.00 0.00 0.01 0.01 0.01 0.00 0.07 0.05 0.07 0.12 0.11 0.11 0.10 0.04 0.06 0.03 0.00 0.00 0.00 0.00 0.00 0.00 0.00 0.00 0.00 0.00 0.00 0.00 0.00 0.00 0.00 0.00 0.00 0.00 0.00 0.00 0.00 0.00 0.00 0.00
0.00 0.00 0.00 0.00 0.00 0.00 0.00 0.00 0.00 0.02 0.04 0.09 0.10 0.05 0.03 0.01 0.06 0.19 0.07 0.02 0.00 0.00 0.00 0.01 0.00 0.01 0.01 0.00 0.01 0.01 0.00 0.00 0.00 0.00 0.00 0.00 0.00 0.00 0.00 0.00 0.00 0.00 0.00
0.00 0.00 0.00 0.00 0.00 0.00 0.00 0.00 0.00 0.01 0.05 0.05 0.02 0.01 0.01 0.03 0.03 0.11 0.09 0.06 0.02 0.05 0.08 0.09 0.08 0.10 0.12 0.14 0.09 0.03 0.01 0.01 0.00 0.00 0.00 0.00 0.00 0.00 0.00 0.00 0.00 0.00 0.00
0.00 0.00 0.00 0.00 0.00 0.00 0.01 0.03 0.01 0.04 0.04 0.02 0.02 0.04 0.04 0.03 0.17 0.21 0.19 0.16 0.13 0.14 0.23 0.27 0.26 0.19 0.15 0.09 0.07 0.05 0.05 0.06 0.04 0.01 0.00 0.00 0.00 0.00 0.00 0.00 0.00 0.00 0.00

GFSSE_prec_precacc24_051.txt.gz
Total_Precipitation_Accumulation
0.69 0.32 0.12 0.06 0.07 0.06 0.01 0.01 0.00 0.00 0.00 0.00 0.00 0.00 0.00 0.00 0.00 0.00 0.00 0.00 0.00 0.01 0.00 0.00 0.00 0.00 0.00 0.00 0.00 0.00 0.00 0.00 0.00 0.01 0.02 0.03 0.02 0.02 0.02 0.01 0.02 0.04 0.07
1.45 1.28 0.73 0.20 0.10 0.02 0.01 0.00 0.00 0.00 0.00 0.00 0.00 0.00 0.00 0.00 0.00 0.00 0.00 0.00 0.00 0.00 0.00 0.00 0.00 0.00 0.00 0.00 0.00 0.00 0.00 0.00 0.00 0.00 0.00 0.01 0.01 0.01 0.01 0.01 0.01 0.02 0.03
0.97 2.27 1.75 0.86 0.33 0.11 0.06 0.00 0.00 0.00 0.00 0.00 0.00 0.00 0.00 0.00 0.00 0.00 0.00 0.00 0.00 0.00 0.00 0.00 0.00 0.00 0.00 0.00 0.00 0.00 0.00 0.00 0.00 0.00 0.00 0.00 0.00 0.01 0.01 0.00 0.00 0.00 0.00
0.23 0.70 1.83 1.36 0.66 0.30 0.13 0.05 0.02 0.00 0.00 0.00 0.00 0.00 0.00 0.00 0.00 0.00 0.00 0.00 0.00 0.00 0.00 0.00 0.00 0.00 0.00 0.00 0.00 0.00 0.00 0.00 0.00 0.00 0.00 0.01 0.02 0.04 0.03 0.03 0.02 0.02 0.01
0.45 0.56 0.53 0.66 0.79 0.56 0.26 0.12 0.06 0.01 0.00 0.01 0.00 0.00 0.00 0.00 0.00 0.00 0.00 0.00 0.00 0.00 0.00 0.00 0.00 0.00 0.00 0.00 0.00 0.00 0.00 0.00 0.00 0.00 0.00 0.00 0.00 0.02 0.02 0.02 0.02 0.02 0.02
1.30 0.99 0.81 0.47 0.39 0.68 0.65 0.29 0.12 0.05 0.01 0.01 0.01 0.00 0.00 0.00 0.00 0.00 0.00 0.00 0.00 0.00 0.00 0.00 0.00 0.00 0.00 0.00 0.00 0.00 0.00 0.00 0.00 0.00 0.00 0.00 0.00 0.00 0.01 0.01 0.01 0.01 0.01
1.89 1.56 1.81 2.24 1.30 0.41 0.53 0.46 0.21 0.17 0.06 0.03 0.01 0.00 0.00 0.00 0.01 0.01 0.00 0.00 0.00 0.00 0.00 0.00 0.00 0.00 0.00 0.00 0.00 0.00 0.00 0.00 0.00 0.00 0.00 0.00 0.00 0.00 0.01 0.01 0.01 0.01 0.01
2.48 2.38 2.42 2.57 2.32 1.83 0.67 0.62 0.25 0.17 0.12 0.06 0.01 0.00 0.00 0.00 0.01 0.00 0.00 0.00 0.00 0.00 0.00 0.00 0.00 0.00 0.00 0.00 0.00 0.00 0.00 0.00 0.00 0.00 0.00 0.00 0.00 0.00 0.00 0.00 0.00 0.00 0.00
2.52 3.62 3.08 2.98 1.96 2.17 2.07 0.98 0.38 0.23 0.18 0.11 0.01 0.00 0.00 0.00 0.00 0.00 0.00 0.00 0.00 0.00 0.00 0.00 0.00 0.00 0.00 0.00 0.00 0.00 0.00 0.00 0.00 0.00 0.00 0.00 0.00 0.00 0.00 0.00 0.00 0.00 0.00
1.58 2.45 3.40 4.54 3.63 1.48 1.61 1.11 0.37 0.29 0.29 0.18 0.02 0.00 0.00 0.00 0.00 0.00 0.00 0.00 0.00 0.00 0.00 0.00 0.00 0.00 0.00 0.00 0.00 0.00 0.00 0.00 0.00 0.00 0.00 0.00 0.00 0.00 0.00 0.00 0.00 0.00 0.00
1.15 1.33 1.92 4.50 3.85 2.03 1.12 0.91 0.35 0.32 0.38 0.26 0.04 0.00 0.00 0.00 0.00 0.00 0.00 0.00 0.00 0.00 0.00 0.00 0.00 0.00 0.00 0.00 0.00 0.00 0.00 0.00 0.00 0.00 0.00 0.00 0.00 0.00 0.00 0.00 0.00 0.00 0.00
0.82 0.82 1.03 2.25 3.38 2.30 1.22 0.84 0.46 0.43 0.47 0.42 0.07 0.00 0.00 0.00 0.00 0.00 0.00 0.00 0.00 0.00 0.00 0.00 0.00 0.00 0.00 0.00 0.00 0.00 0.00 0.00 0.00 0.00 0.00 0.00 0.00 0.01 0.01 0.00 0.00 0.00 0.00
0.44 0.51 0.55 0.75 1.07 1.68 1.25 0.82 0.55 0.42 0.45 0.51 0.12 0.00 0.00 0.00 0.00 0.00 0.00 0.00 0.00 0.00 0.00 0.00 0.00 0.00 0.00 0.00 0.00 0.00 0.00 0.00 0.00 0.00 0.00 0.00 0.00 0.01 0.02 0.01 0.00 0.00 0.00
0.32 0.27 0.30 0.24 0.26 0.49 0.90 0.86 0.45 0.32 0.39 0.30 0.11 0.01 0.00 0.00 0.00 0.00 0.00 0.00 0.00 0.00 0.00 0.00 0.00 0.00 0.00 0.00 0.00 0.00 0.00 0.00 0.00 0.00 0.00 0.00 0.00 0.01 0.03 0.01 0.00 0.00 0.00
0.19 0.30 0.21 0.11 0.14 0.29 0.49 0.55 0.48 0.28 0.20 0.15 0.07 0.00 0.00 0.00 0.00 0.00 0.00 0.00 0.00 0.00 0.00 0.00 0.00 0.00 0.00 0.00 0.00 0.00 0.00 0.00 0.00 0.00 0.00 0.00 0.00 0.01 0.05 0.04 0.01 0.00 0.00
0.30 0.31 0.27 0.27 0.18 0.28 0.41 0.35 0.31 0.24 0.14 0.09 0.05 0.00 0.00 0.00 0.00 0.00 0.02 0.00 0.00 0.00 0.00 0.00 0.00 0.00 0.00 0.00 0.00 0.00 0.00 0.00 0.00 0.00 0.00 0.00 0.00 0.00 0.02 0.02 0.01 0.00 0.00
0.40 0.23 0.27 0.31 0.38 0.37 0.30 0.18 0.18 0.15 0.13 0.08 0.03 0.01 0.00 0.00 0.01 0.02 0.03 0.01 0.00 0.00 0.00 0.00 0.00 0.00 0.00 0.00 0.00 0.00 0.00 0.00 0.00 0.00 0.00 0.00 0.00 0.00 0.00 0.00 0.00 0.00 0.00
0.29 0.49 0.17 0.20 0.61 0.43 0.33 0.15 0.06 0.07 0.09 0.07 0.04 0.04 0.01 0.00 0.00 0.00 0.01 0.00 0.00 0.00 0.00 0.00 0.00 0.00 0.00 0.00 0.00 0.00 0.00 0.00 0.00 0.00 0.00 0.00 0.00 0.00 0.00 0.00 0.00 0.00 0.00
0.04 0.41 0.47 0.25 0.35 0.47 0.40 0.19 0.10 0.03 0.06 0.07 0.06 0.09 0.06 0.01 0.00 0.00 0.00 0.00 0.00 0.00 0.00 0.00 0.00 0.00 0.00 0.00 0.00 0.00 0.00 0.00 0.00 0.00 0.00 0.00 0.00 0.00 0.00 0.00 0.00 0.00 0.00
0.00 0.02 0.27 0.31 0.30 0.32 0.32 0.10 0.06 0.02 0.03 0.06 0.08 0.05 0.04 0.01 0.04 0.03 0.01 0.01 0.00 0.00 0.00 0.00 0.00 0.00 0.00 0.00 0.00 0.00 0.00 0.00 0.00 0.00 0.00 0.00 0.00 0.00 0.00 0.00 0.00 0.00 0.00
0.00 0.00 0.03 0.10 0.11 0.29 0.27 0.09 0.03 0.02 0.01 0.05 0.16 0.07 0.23 0.11 0.12 0.06 0.02 0.02 0.01 0.01 0.00 0.00 0.00 0.00 0.00 0.00 0.00 0.00 0.00 0.00 0.00 0.00 0.00 0.00 0.00 0.00 0.00 0.00 0.00 0.00 0.00
0.00 0.00 0.00 0.02 0.04 0.10 0.15 0.17 0.04 0.01 0.00 0.05 0.13 0.15 0.22 0.20 0.07 0.07 0.05 0.04 0.03 0.02 0.00 0.00 0.00 0.00 0.00 0.00 0.00 0.00 0.00 0.00 0.00 0.00 0.00 0.00 0.00 0.00 0.00 0.00 0.00 0.00 0.00
0.00 0.00 0.00 0.00 0.01 0.03 0.05 0.16 0.04 0.01 0.01 0.05 0.12 0.12 0.11 0.11 0.05 0.06 0.04 0.03 0.04 0.03 0.01 0.00 0.00 0.00 0.00 0.00 0.00 0.00 0.00 0.00 0.00 0.00 0.00 0.00 0.00 0.00 0.00 0.00 0.00 0.00 0.00
0.00 0.00 0.00 0.00 0.00 0.00 0.01 0.03 0.01 0.00 0.02 0.09 0.10 0.05 0.03 0.01 0.07 0.19 0.07 0.02 0.01 0.01 0.01 0.03 0.01 0.01 0.01 0.00 0.01 0.01 0.00 0.00 0.00 0.00 0.00 0.00 0.00 0.00 0.00 0.00 0.00 0.00 0.00
0.00 0.00 0.00 0.00 0.00 0.00 0.00 0.00 0.00 0.01 0.03 0.04 0.01 0.01 0.01 0.03 0.03 0.11 0.09 0.06 0.02 0.05 0.08 0.11 0.10 0.12 0.13 0.15 0.09 0.04 0.02 0.01 0.01 0.01 0.01 0.00 0.00 0.00 0.00 0.00 0.00 0.00 0.00
0.00 0.00 0.00 0.00 0.00 0.00 0.00 0.00 0.00 0.03 0.03 0.02 0.02 0.03 0.04 0.03 0.17 0.21 0.19 0.16 0.13 0.14 0.22 0.26 0.29 0.21 0.17 0.12 0.09 0.06 0.06 0.08 0.04 0.02 0.01 0.01 0.00 0.00 0.00 0.00 0.00 0.00 0.00

GFSSE_prec_precacc24_057.txt.gz
Total_Precipitation_Accumulation
0.68 0.29 0.11 0.05 0.06 0.06 0.01 0.01 0.00 0.00 0.00 0.00 0.00 0.00 0.00 0.00 0.00 0.00 0.00 0.00 0.01 0.03 0.01 0.01 0.01 0.02 0.01 0.01 0.00 0.00 0.00 0.01 0.01 0.02 0.04 0.05 0.04 0.04 0.03 0.03 0.04 0.06 0.09
1.44 1.22 0.72 0.19 0.09 0.02 0.01 0.00 0.00 0.00 0.00 0.00 0.00 0.00 0.00 0.00 0.00 0.00 0.00 0.00 0.01 0.01 0.01 0.00 0.00 0.00 0.01 0.00 0.00 0.00 0.00 0.00 0.00 0.00 0.02 0.02 0.03 0.03 0.02 0.01 0.03 0.03 0.04
0.92 2.20 1.73 0.85 0.36 0.14 0.06 0.00 0.00 0.00 0.00 0.00 0.00 0.00 0.01 0.01 0.01 0.00 0.00 0.00 0.00 0.00 0.00 0.00 0.00 0.00 0.00 0.00 0.00 0.00 0.00 0.00 0.00 0.00 0.00 0.00 0.01 0.01 0.01 0.00 0.00 0.00 0.00
0.13 0.60 1.74 1.35 0.71 0.41 0.16 0.06 0.02 0.01 0.01 0.01 0.01 0.00 0.01 0.03 0.02 0.00 0.00 0.00 0.00 0.00 0.00 0.00 0.01 0.01 0.00 0.00 0.00 0.00 0.00 0.00 0.00 0.00 0.00 0.01 0.02 0.04 0.03 0.03 0.02 0.02 0.01
0.37 0.41 0.47 0.66 0.81 0.77 0.28 0.12 0.07 0.02 0.02 0.03 0.04 0.01 0.00 0.01 0.01 0.00 0.00 0.00 0.00 0.00 0.00 0.01 0.01 0.01 0.00 0.00 0.00 0.00 0.00 0.00 0.00 0.00 0.00 0.00 0.00 0.02 0.02 0.02 0.02 0.02 0.02
1.20 0.91 0.80 0.46 0.40 0.98 0.86 0.31 0.13 0.07 0.03 0.04 0.07 0.02 0.01 0.01 0.00 0.00 0.00 0.00 0.01 0.01 0.01 0.00 0.01 0.00 0.00 0.00 0.00 0.00 0.00 0.00 0.00 0.00 0.00 0.00 0.00 0.00 0.00 0.01 0.01 0.01 0.01
1.81 1.44 1.78 2.16 1.29 0.71 1.22 1.05 0.48 0.32 0.17 0.06 0.01 0.00 0.01 0.01 0.01 0.01 0.00 0.01 0.02 0.02 0.00 0.00 0.00 0.00 0.00 0.00 0.00 0.00 0.00 0.00 0.00 0.00 0.00 0.00 0.00 0.01 0.01 0.01 0.01 0.01 0.01
2.13 2.24 2.55 2.56 2.33 2.00 0.92 1.86 1.13 0.31 0.29 0.16 0.02 0.03 0.01 0.01 0.02 0.01 0.01 0.01 0.02 0.01 0.00 0.00 0.00 0.00 0.00 0.00 0.00 0.00 0.00 0.00 0.00 0.00 0.00 0.00 0.00 0.00 0.00 0.00 0.00 0.00 0.00
1.89 3.25 3.25 3.16 1.91 2.29 2.33 1.81 1.90 0.83 0.36 0.24 0.06 0.02 0.01 0.00 0.02 0.02 0.01 0.00 0.01 0.00 0.00 0.00 0.00 0.00 0.00 0.00 0.00 0.00 0.00 0.00 0.00 0.00 0.00 0.00 0.00 0.00 0.00 0.00 0.00 0.00 0.00
1.11 2.23 3.49 4.82 3.64 1.53 1.77 1.62 1.98 1.44 0.78 0.44 0.12 0.07 0.01 0.00 0.00 0.02 0.01 0.01 0.01 0.00 0.00 0.00 0.00 0.00 0.00 0.00 0.00 0.00 0.00 0.00 0.00 0.00 0.00 0.00 0.00 0.00 0.00 0.00 0.00 0.00 0.00
0.80 0.96 1.83 5.06 3.77 1.98 1.22 1.09 1.09 1.71 0.93 0.62 0.28 0.20 0.10 0.01 0.00 0.02 0.02 0.02 0.01 0.00 0.00 0.00 0.00 0.00 0.00 0.00 0.00 0.00 0.00 0.00 0.00 0.00 0.00 0.00 0.00 0.00 0.00 0.00 0.00 0.00 0.00
0.64 0.70 0.99 2.34 2.83 1.98 1.15 0.97 0.80 1.18 0.85 0.68 0.41 0.20 0.16 0.09 0.03 0.01 0.02 0.01 0.00 0.00 0.00 0.00 0.00 0.00 0.00 0.00 0.00 0.00 0.00 0.00 0.00 0.00 0.00 0.00 0.01 0.00 0.00 0.00 0.00 0.00 0.00
0.43 0.42 0.55 1.09 1.35 1.84 1.41 1.09 0.95 0.87 0.75 0.86 0.49 0.18 0.17 0.12 0.03 0.03 0.01 0.01 0.00 0.00 0.00 0.00 0.00 0.00 0.00 0.00 0.00 0.00 0.00 0.00 0.00 0.00 0.00 0.00 0.01 0.01 0.01 0.00 0.00 0.00 0.00
0.26 0.28 0.45 0.45 0.54 0.83 1.17 1.11 0.77 0.78 0.88 0.69 0.42 0.16 0.18 0.08 0.01 0.02 0.00 0.00 0.00 0.00 0.00 0.00 0.00 0.00 0.00 0.00 0.00 0.00 0.00 0.00 0.00 0.00 0.00 0.00 0.00 0.01 0.02 0.01 0.00 0.00 0.00
0.12 0.22 0.28 0.31 0.24 0.38 0.61 0.86 0.86 0.55 0.51 0.44 0.33 0.10 0.09 0.02 0.01 0.01 0.01 0.00 0.00 0.00 0.00 0.00 0.00 0.00 0.00 0.00 0.00 0.00 0.00 0.00 0.00 0.00 0.00 0.00 0.00 0.01 0.03 0.02 0.01 0.00 0.00
0.25 0.24 0.18 0.27 0.24 0.31 0.64 0.76 0.88 0.71 0.42 0.38 0.24 0.06 0.03 0.01 0.02 0.01 0.03 0.01 0.00 0.00 0.00 0.00 0.00 0.00 0.00 0.00 0.00 0.00 0.00 0.00 0.00 0.00 0.00 0.00 0.00 0.01 0.02 0.02 0.01 0.00 0.00
0.40 0.23 0.26 0.30 0.38 0.37 0.41 0.51 0.75 0.77 0.61 0.42 0.16 0.03 0.01 0.00 0.01 0.02 0.03 0.01 0.00 0.00 0.00 0.00 0.00 0.00 0.00 0.00 0.00 0.00 0.00 0.00 0.00 0.00 0.00 0.00 0.00 0.00 0.01 0.01 0.00 0.00 0.00
0.30 0.51 0.19 0.20 0.58 0.44 0.37 0.37 0.41 0.63 0.63 0.45 0.14 0.02 0.00 0.00 0.00 0.00 0.01 0.00 0.00 0.00 0.00 0.00 0.00 0.00 0.00 0.00 0.00 0.00 0.00 0.00 0.00 0.00 0.00 0.00 0.00 0.00 0.00 0.01 0.00 0.00 0.00
0.04 0.48 0.50 0.25 0.31 0.48 0.46 0.36 0.36 0.41 0.44 0.35 0.10 0.03 0.04 0.01 0.00 0.00 0.00 0.00 0.00 0.00 0.00 0.00 0.00 0.00 0.00 0.00 0.00 0.00 0.00 0.00 0.00 0.00 0.00 0.00 0.00 0.00 0.00 0.00 0.00 0.00 0.00
0.00 0.05 0.31 0.36 0.32 0.29 0.33 0.28 0.30 0.30 0.29 0.19 0.06 0.03 0.03 0.01 0.04 0.03 0.01 0.01 0.00 0.00 0.00 0.00 0.00 0.00 0.00 0.00 0.00 0.00 0.00 0.00 0.00 0.00 0.00 0.00 0.00 0.00 0.00 0.00 0.00 0.00 0.00
0.00 0.01 0.05 0.21 0.19 0.32 0.30 0.17 0.15 0.15 0.10 0.05 0.07 0.06 0.23 0.11 0.12 0.06 0.02 0.02 0.01 0.01 0.01 0.01 0.00 0.00 0.00 0.00 0.00 0.00 0.00 0.00 0.00 0.00 0.00 0.00 0.00 0.00 0.00 0.00 0.01 0.00 0.00
0.00 0.01 0.01 0.03 0.08 0.16 0.22 0.23 0.08 0.04 0.04 0.01 0.02 0.10 0.21 0.21 0.07 0.07 0.05 0.04 0.03 0.02 0.00 0.01 0.00 0.00 0.00 0.00 0.00 0.00 0.00 0.00 0.00 0.00 0.00 0.00 0.00 0.00 0.00 0.00 0.00 0.00 0.00
0.00 0.00 0.01 0.00 0.02 0.04 0.13 0.23 0.15 0.11 0.06 0.04 0.02 0.05 0.08 0.13 0.04 0.06 0.04 0.03 0.04 0.03 0.01 0.00 0.00 0.00 0.00 0.00 0.00 0.00 0.00 0.00 0.00 0.00 0.00 0.00 0.00 0.00 0.00 0.00 0.00 0.00 0.00
0.00 0.00 0.01 0.00 0.00 0.01 0.02 0.05 0.05 0.07 0.04 0.01 0.00 0.01 0.03 0.03 0.09 0.19 0.07 0.02 0.01 0.01 0.01 0.03 0.02 0.02 0.01 0.01 0.01 0.01 0.00 0.00 0.01 0.03 0.01 0.00 0.00 0.00 0.00 0.00 0.00 0.00 0.00
0.00 0.00 0.00 0.01 0.00 0.00 0.00 0.01 0.01 0.01 0.01 0.01 0.01 0.01 0.01 0.04 0.07 0.12 0.09 0.06 0.04 0.06 0.09 0.11 0.10 0.12 0.13 0.19 0.12 0.04 0.02 0.01 0.01 0.03 0.06 0.04 0.01 0.00 0.00 0.00 0.00 0.00 0.00
0.00 0.00 0.00 0.01 0.01 0.00 0.00 0.00 0.00 0.03 0.01 0.00 0.01 0.02 0.03 0.03 0.18 0.22 0.18 0.16 0.17 0.20 0.29 0.32 0.38 0.26 0.18 0.17 0.21 0.12 0.13 0.12 0.07 0.05 0.03 0.04 0.07 0.04 0.02 0.03 0.04 0.03 0.02

GFSSE_prec_precacc24_060.txt.gz
Total_Precipitation_Accumulation
0.68 0.29 0.10 0.04 0.06 0.06 0.01 0.01 0.00 0.00 0.00 0.00 0.00 0.00 0.00 0.00 0.00 0.00 0.00 0.00 0.01 0.03 0.02 0.02 0.02 0.02 0.01 0.01 0.00 0.00 0.00 0.01 0.01 0.02 0.04 0.06 0.05 0.04 0.03 0.03 0.05 0.06 0.09
1.43 1.22 0.71 0.18 0.10 0.02 0.01 0.00 0.00 0.00 0.00 0.00 0.00 0.00 0.00 0.00 0.00 0.00 0.00 0.00 0.01 0.01 0.01 0.01 0.01 0.01 0.01 0.00 0.00 0.00 0.00 0.00 0.00 0.01 0.02 0.03 0.04 0.03 0.02 0.01 0.03 0.03 0.04
0.85 2.20 1.72 0.84 0.36 0.15 0.07 0.01 0.01 0.00 0.00 0.00 0.00 0.01 0.01 0.01 0.01 0.00 0.00 0.00 0.00 0.00 0.00 0.00 0.00 0.01 0.01 0.00 0.00 0.00 0.00 0.00 0.00 0.00 0.00 0.00 0.01 0.01 0.01 0.00 0.00 0.00 0.01
0.11 0.59 1.73 1.35 0.71 0.42 0.16 0.06 0.03 0.05 0.04 0.01 0.01 0.00 0.01 0.03 0.03 0.02 0.01 0.00 0.00 0.00 0.00 0.01 0.01 0.01 0.00 0.00 0.00 0.00 0.00 0.00 0.00 0.00 0.00 0.01 0.02 0.04 0.03 0.03 0.02 0.02 0.01
0.35 0.36 0.42 0.66 0.82 0.77 0.30 0.13 0.09 0.08 0.07 0.05 0.05 0.01 0.00 0.03 0.02 0.03 0.01 0.00 0.00 0.00 0.00 0.01 0.01 0.01 0.00 0.00 0.00 0.00 0.00 0.00 0.00 0.00 0.00 0.00 0.01 0.02 0.02 0.02 0.02 0.02 0.02
0.91 0.80 0.77 0.45 0.42 1.00 0.97 0.40 0.22 0.12 0.06 0.09 0.09 0.03 0.02 0.03 0.02 0.01 0.01 0.00 0.01 0.01 0.01 0.01 0.01 0.00 0.00 0.00 0.00 0.00 0.00 0.00 0.00 0.00 0.00 0.00 0.00 0.01 0.00 0.01 0.01 0.01 0.01
0.93 1.34 1.75 2.15 1.29 0.76 1.37 1.36 0.79 0.61 0.28 0.15 0.06 0.02 0.01 0.02 0.02 0.01 0.00 0.01 0.02 0.02 0.01 0.00 0.00 0.00 0.00 0.00 0.00 0.00 0.00 0.00 0.00 0.00 0.00 0.00 0.00 0.01 0.01 0.01 0.01 0.01 0.01
0.42 1.76 2.41 2.49 2.32 2.04 1.04 2.33 2.34 1.71 0.90 0.26 0.05 0.04 0.01 0.01 0.02 0.02 0.01 0.01 0.02 0.01 0.00 0.00 0.00 0.00 0.00 0.00 0.00 0.00 0.00 0.00 0.00 0.00 0.00 0.00 0.00 0.00 0.01 0.00 0.00 0.00 0.00
0.53 2.19 3.06 3.04 1.92 2.39 2.42 2.01 2.44 2.42 1.81 0.83 0.10 0.04 0.01 0.00 0.02 0.03 0.02 0.01 0.01 0.00 0.00 0.00 0.00 0.00 0.00 0.00 0.00 0.00 0.00 0.00 0.00 0.00 0.00 0.00 0.00 0.00 0.00 0.00 0.00 0.00 0.00
0.37 1.54 3.30 4.73 3.64 1.69 1.90 1.77 2.44 3.21 2.32 1.66 0.26 0.09 0.02 0.00 0.01 0.02 0.03 0.01 0.01 0.00 0.00 0.00 0.00 0.00 0.00 0.00 0.00 0.00 0.00 0.00 0.00 0.00 0.00 0.00 0.01 0.00 0.00 0.00 0.00 0.00 0.00
0.48 0.66 1.63 4.97 3.68 2.03 1.38 1.18 1.37 2.86 2.97 1.86 0.56 0.35 0.11 0.01 0.03 0.02 0.06 0.04 0.01 0.00 0.00 0.00 0.00 0.00 0.00 0.00 0.00 0.00 0.00 0.00 0.00 0.00 0.00 0.00 0.00 0.00 0.00 0.00 0.00 0.00 0.00
0.37 0.49 0.84 2.26 2.80 2.02 1.27 1.08 0.85 1.48 2.30 2.00 0.73 0.41 0.22 0.10 0.05 0.03 0.08 0.06 0.00 0.00 0.00 0.00 0.00 0.00 0.00 0.00 0.00 0.00 0.00 0.00 0.00 0.00 0.00 0.01 0.00 0.00 0.01 0.00 0.00 0.00 0.00
0.34 0.34 0.52 1.07 1.35 1.83 1.42 1.13 1.07 1.07 1.08 1.83 0.67 0.24 0.23 0.21 0.10 0.10 0.06 0.05 0.00 0.00 0.00 0.00 0.00 0.00 0.00 0.00 0.00 0.00 0.00 0.00 0.00 0.00 0.00 0.01 0.01 0.01 0.01 0.00 0.00 0.00 0.00
0.17 0.17 0.39 0.40 0.48 0.80 1.16 1.09 0.77 0.87 0.93 0.79 0.47 0.18 0.19 0.13 0.08 0.05 0.03 0.02 0.00 0.00 0.00 0.00 0.00 0.00 0.00 0.00 0.00 0.00 0.00 0.00 0.00 0.00 0.00 0.00 0.00 0.00 0.01 0.00 0.00 0.00 0.00
0.10 0.18 0.24 0.29 0.21 0.35 0.60 0.85 0.84 0.51 0.59 0.57 0.40 0.14 0.13 0.07 0.09 0.10 0.02 0.01 0.00 0.00 0.00 0.00 0.00 0.00 0.00 0.00 0.00 0.00 0.00 0.00 0.00 0.00 0.00 0.00 0.00 0.01 0.02 0.01 0.00 0.00 0.00
0.19 0.15 0.12 0.16 0.17 0.24 0.56 0.74 0.88 0.70 0.43 0.45 0.28 0.11 0.06 0.05 0.07 0.08 0.04 0.02 0.00 0.00 0.00 0.00 0.00 0.00 0.00 0.00 0.00 0.00 0.00 0.00 0.00 0.00 0.00 0.00 0.00 0.01 0.02 0.02 0.00 0.00 0.00
0.36 0.22 0.23 0.19 0.28 0.30 0.37 0.48 0.72 0.78 0.63 0.45 0.19 0.05 0.03 0.03 0.04 0.04 0.03 0.01 0.00 0.00 0.00 0.00 0.00 0.00 0.00 0.00 0.00 0.00 0.00 0.00 0.00 0.00 0.00 0.00 0.00 0.00 0.01 0.01 0.00 0.00 0.00
0.30 0.52 0.19 0.19 0.57 0.43 0.37 0.36 0.43 0.73 0.76 0.53 0.19 0.05 0.03 0.01 0.02 0.03 0.02 0.01 0.00 0.00 0.00 0.00 0.00 0.00 0.00 0.00 0.00 0.00 0.00 0.00 0.00 0.00 0.00 0.00 0.00 0.00 0.00 0.01 0.00 0.00 0.00
0.04 0.48 0.50 0.25 0.32 0.48 0.45 0.37 0.40 0.53 0.64 0.51 0.20 0.06 0.03 0.01 0.01 0.03 0.08 0.05 0.01 0.01 0.00 0.00 0.00 0.00 0.00 0.00 0.00 0.00 0.00 0.00 0.00 0.00 0.00 0.00 0.00 0.00 0.00 0.00 0.00 0.00 0.00
0.00 0.05 0.31 0.36 0.32 0.29 0.32 0.28 0.36 0.48 0.53 0.37 0.16 0.06 0.03 0.01 0.04 0.04 0.01 0.02 0.01 0.00 0.00 0.00 0.00 0.00 0.00 0.00 0.00 0.00 0.00 0.00 0.00 0.00 0.00 0.00 0.00 0.00 0.00 0.00 0.00 0.00 0.00
0.00 0.02 0.05 0.21 0.19 0.32 0.28 0.18 0.20 0.26 0.39 0.20 0.08 0.04 0.03 0.03 0.10 0.06 0.02 0.02 0.01 0.01 0.01 0.01 0.00 0.00 0.00 0.00 0.00 0.00 0.00 0.00 0.00 0.00 0.00 0.00 0.00 0.00 0.00 0.00 0.01 0.00 0.00
0.00 0.01 0.01 0.03 0.08 0.16 0.22 0.23 0.09 0.09 0.11 0.08 0.03 0.07 0.06 0.10 0.07 0.07 0.05 0.04 0.03 0.02 0.00 0.01 0.00 0.00 0.00 0.00 0.00 0.00 0.00 0.00 0.00 0.00 0.00 0.00 0.00 0.00 0.00 0.00 0.00 0.00 0.00
0.00 0.01 0.01 0.00 0.02 0.05 0.13 0.23 0.16 0.11 0.08 0.07 0.03 0.04 0.05 0.08 0.04 0.06 0.04 0.03 0.04 0.03 0.01 0.00 0.00 0.00 0.00 0.00 0.00 0.00 0.00 0.00 0.00 0.00 0.00 0.00 0.00 0.00 0.00 0.00 0.00 0.00 0.00
0.00 0.00 0.01 0.01 0.00 0.01 0.03 0.06 0.05 0.07 0.05 0.01 0.00 0.02 0.03 0.04 0.08 0.17 0.07 0.02 0.01 0.01 0.02 0.04 0.02 0.02 0.01 0.01 0.01 0.01 0.00 0.03 0.09 0.08 0.01 0.00 0.00 0.00 0.00 0.00 0.00 0.00 0.00
0.00 0.00 0.01 0.01 0.00 0.00 0.01 0.01 0.01 0.01 0.01 0.01 0.01 0.01 0.01 0.05 0.07 0.09 0.09 0.06 0.04 0.06 0.09 0.15 0.12 0.12 0.13 0.21 0.13 0.03 0.01 0.00 0.01 0.10 0.10 0.05 0.01 0.00 0.00 0.00 0.00 0.00 0.00
0.00 0.00 0.00 0.01 0.01 0.00 0.00 0.00 0.00 0.02 0.01 0.00 0.00 0.00 0.03 0.03 0.17 0.20 0.17 0.16 0.17 0.19 0.22 0.26 0.33 0.25 0.18 0.17 0.26 0.14 0.13 0.13 0.08 0.06 0.05 0.06 0.10 0.05 0.02 0.03 0.04 0.03 0.02

GFSSE_prec_precacc24_063.txt.gz
Total_Precipitation_Accumulation
0.29 0.24 0.09 0.04 0.06 0.06 0.01 0.01 0.00 0.00 0.00 0.00 0.00 0.00 0.00 0.00 0.00 0.00 0.00 0.00 0.01 0.03 0.02 0.02 0.02 0.02 0.01 0.01 0.00 0.00 0.00 0.01 0.01 0.02 0.05 0.08 0.06 0.05 0.03 0.03 0.05 0.06 0.09
0.17 0.64 0.66 0.18 0.10 0.02 0.01 0.00 0.00 0.00 0.00 0.00 0.00 0.00 0.00 0.00 0.00 0.00 0.00 0.00 0.01 0.01 0.01 0.01 0.01 0.01 0.01 0.00 0.00 0.00 0.00 0.00 0.00 0.01 0.03 0.05 0.05 0.04 0.02 0.02 0.03 0.03 0.04
0.09 1.11 1.38 0.80 0.36 0.15 0.07 0.01 0.01 0.00 0.00 0.00 0.00 0.01 0.01 0.01 0.01 0.00 0.00 0.00 0.00 0.01 0.01 0.01 0.01 0.01 0.01 0.00 0.00 0.00 0.00 0.00 0.00 0.00 0.01 0.01 0.01 0.02 0.01 0.00 0.00 0.00 0.01
0.06 0.29 1.28 1.24 0.71 0.42 0.16 0.06 0.03 0.07 0.04 0.01 0.02 0.00 0.01 0.03 0.03 0.02 0.01 0.00 0.00 0.01 0.01 0.01 0.02 0.01 0.00 0.00 0.00 0.00 0.00 0.00 0.00 0.00 0.00 0.01 0.03 0.05 0.03 0.03 0.02 0.02 0.01
0.26 0.21 0.19 0.56 0.81 0.78 0.30 0.13 0.10 0.09 0.07 0.05 0.06 0.01 0.00 0.03 0.02 0.04 0.02 0.00 0.00 0.00 0.01 0.02 0.01 0.01 0.00 0.00 0.00 0.00 0.00 0.00 0.00 0.00 0.00 0.00 0.01 0.02 0.02 0.02 0.01 0.01 0.01
0.38 0.23 0.41 0.35 0.35 1.03 0.97 0.41 0.23 0.14 0.15 0.11 0.10 0.04 0.02 0.03 0.02 0.02 0.01 0.00 0.01 0.02 0.02 0.01 0.01 0.00 0.00 0.00 0.00 0.00 0.00 0.00 0.00 0.00 0.00 0.00 0.00 0.01 0.01 0.01 0.00 0.01 0.01
0.30 0.40 0.88 1.79 1.06 0.81 1.43 1.37 0.88 0.69 0.50 0.35 0.08 0.02 0.02 0.03 0.02 0.01 0.00 0.01 0.02 0.03 0.01 0.00 0.00 0.00 0.00 0.00 0.00 0.00 0.00 0.00 0.00 0.00 0.00 0.00 0.00 0.01 0.01 0.01 0.01 0.01 0.01
0.30 0.69 1.07 1.79 2.24 2.06 1.03 2.45 2.60 2.22 1.54 0.65 0.21 0.07 0.02 0.09 0.03 0.02 0.01 0.01 0.02 0.01 0.00 0.00 0.00 0.00 0.00 0.00 0.00 0.00 0.00 0.00 0.00 0.00 0.00 0.00 0.01 0.01 0.01 0.00 0.00 0.00 0.00
0.45 0.94 1.57 1.98 1.67 2.32 2.44 2.08 2.70 3.33 3.86 3.34 0.94 0.23 0.06 0.04 0.02 0.03 0.02 0.01 0.01 0.00 0.00 0.00 0.00 0.00 0.00 0.00 0.00 0.00 0.00 0.00 0.00 0.00 0.00 0.00 0.00 0.00 0.00 0.00 0.00 0.00 0.00
0.22 0.72 1.51 3.63 3.37 1.68 2.02 1.78 2.57 3.52 2.73 3.28 2.83 1.15 0.14 0.08 0.01 0.02 0.03 0.01 0.01 0.00 0.00 0.00 0.00 0.00 0.00 0.00 0.00 0.00 0.00 0.00 0.00 0.00 0.00 0.00 0.01 0.00 0.00 0.00 0.00 0.00 0.00
0.31 0.51 1.18 4.48 3.26 1.89 1.35 1.14 1.49 3.10 3.21 2.58 2.10 1.82 0.39 0.04 0.03 0.02 0.06 0.04 0.01 0.00 0.00 0.00 0.00 0.00 0.00 0.00 0.00 0.00 0.00 0.00 0.00 0.00 0.00 0.01 0.00 0.00 0.00 0.00 0.00 0.00 0.00
0.25 0.38 0.69 2.13 2.63 1.91 1.17 0.98 0.87 1.54 2.42 2.83 1.55 1.24 0.45 0.12 0.05 0.03 0.09 0.06 0.00 0.00 0.00 0.00 0.00 0.00 0.00 0.00 0.00 0.00 0.00 0.00 0.00 0.00 0.00 0.01 0.00 0.00 0.00 0.00 0.00 0.00 0.00
0.32 0.32 0.50 1.04 1.29 1.84 1.45 1.13 1.07 1.08 1.15 2.71 1.72 0.72 0.43 0.26 0.12 0.11 0.06 0.05 0.00 0.00 0.00 0.00 0.00 0.00 0.00 0.00 0.00 0.00 0.00 0.00 0.00 0.00 0.00 0.01 0.01 0.00 0.01 0.00 0.00 0.00 0.00
0.13 0.14 0.33 0.39 0.48 0.79 1.16 1.10 0.76 0.87 0.94 1.25 1.49 0.51 0.28 0.16 0.11 0.08 0.03 0.02 0.00 0.00 0.00 0.00 0.00 0.00 0.00 0.00 0.00 0.00 0.00 0.00 0.00 0.00 0.00 0.00 0.00 0.00 0.01 0.00 0.00 0.00 0.00
0.07 0.10 0.14 0.27 0.20 0.33 0.59 0.84 0.81 0.50 0.58 0.61 0.77 0.34 0.16 0.07 0.10 0.16 0.02 0.01 0.00 0.00 0.00 0.00 0.00 0.00 0.00 0.00 0.00 0.00 0.00 0.00 0.00 0.00 0.00 0.00 0.00 0.01 0.01 0.01 0.00 0.00 0.00
0.17 0.10 0.07 0.15 0.14 0.24 0.52 0.68 0.85 0.70 0.43 0.43 0.28 0.13 0.06 0.06 0.06 0.10 0.02 0.01 0.00 0.00 0.00 0.00 0.00 0.00 0.00 0.00 0.00 0.00 0.00 0.00 0.00 0.00 0.00 0.00 0.00 0.01 0.02 0.01 0.00 0.00 0.00
0.35 0.17 0.14 0.16 0.25 0.24 0.35 0.47 0.68 0.76 0.63 0.45 0.19 0.05 0.03 0.03 0.03 0.05 0.02 0.00 0.00 0.00 0.00 0.00 0.00 0.00 0.00 0.00 0.00 0.00 0.00 0.00 0.00 0.00 0.00 0.00 0.00 0.00 0.01 0.01 0.00 0.00 0.00
0.30 0.51 0.18 0.18 0.56 0.43 0.36 0.36 0.42 0.72 0.77 0.54 0.19 0.05 0.03 0.01 0.02 0.04 0.03 0.02 0.00 0.00 0.00 0.00 0.00 0.00 0.00 0.00 0.00 0.00 0.00 0.00 0.00 0.00 0.00 0.00 0.00 0.00 0.00 0.01 0.00 0.00 0.00
0.04 0.48 0.50 0.25 0.33 0.48 0.46 0.37 0.40 0.54 0.68 0.52 0.20 0.06 0.03 0.01 0.01 0.05 0.11 0.08 0.02 0.02 0.00 0.00 0.00 0.00 0.00 0.00 0.00 0.00 0.00 0.00 0.00 0.00 0.00 0.00 0.00 0.00 0.00 0.00 0.00 0.00 0.00
0.00 0.05 0.31 0.36 0.32 0.30 0.32 0.28 0.36 0.50 0.66 0.40 0.18 0.05 0.03 0.00 0.01 0.02 0.01 0.04 0.03 0.03 0.00 0.00 0.00 0.00 0.00 0.00 0.00 0.00 0.00 0.00 0.00 0.00 0.00 0.00 0.00 0.00 0.00 0.00 0.00 0.00 0.00
0.00 0.02 0.05 0.21 0.20 0.32 0.28 0.18 0.21 0.29 0.46 0.25 0.18 0.06 0.01 0.00 0.02 0.03 0.01 0.03 0.02 0.04 0.01 0.01 0.00 0.00 0.00 0.00 0.00 0.00 0.00 0.00 0.00 0.00 0.00 0.00 0.00 0.00 0.00 0.00 0.01 0.00 0.00
0.00 0.01 0.02 0.03 0.08 0.17 0.22 0.23 0.09 0.09 0.14 0.13 0.09 0.09 0.02 0.02 0.01 0.03 0.04 0.04 0.04 0.04 0.02 0.01 0.00 0.00 0.00 0.00 0.00 0.00 0.00 0.00 0.00 0.00 0.00 0.00 0.00 0.00 0.00 0.00 0.00 0.00 0.00
0.00 0.01 0.01 0.00 0.02 0.05 0.13 0.24 0.16 0.12 0.10 0.11 0.05 0.03 0.00 0.04 0.00 0.00 0.02 0.03 0.04 0.03 0.01 0.00 0.00 0.00 0.00 0.00 0.00 0.00 0.00 0.00 0.00 0.00 0.00 0.00 0.00 0.00 0.00 0.00 0.00 0.00 0.00
0.00 0.00 0.01 0.01 0.00 0.01 0.03 0.06 0.05 0.07 0.06 0.02 0.00 0.01 0.01 0.03 0.03 0.00 0.02 0.01 0.01 0.01 0.02 0.04 0.02 0.02 0.01 0.01 0.01 0.01 0.00 0.03 0.10 0.09 0.01 0.00 0.00 0.00 0.00 0.00 0.00 0.00 0.00
0.00 0.00 0.01 0.01 0.01 0.00 0.01 0.01 0.01 0.01 0.01 0.01 0.01 0.00 0.01 0.03 0.05 0.01 0.04 0.04 0.04 0.06 0.09 0.15 0.11 0.10 0.09 0.14 0.11 0.03 0.01 0.00 0.01 0.13 0.11 0.05 0.01 0.00 0.00 0.00 0.00 0.00 0.00
0.00 0.00 0.00 0.01 0.01 0.00 0.00 0.00 0.00 0.00 0.00 0.00 0.00 0.00 0.00 0.01 0.06 0.10 0.10 0.11 0.15 0.17 0.20 0.24 0.30 0.19 0.14 0.15 0.25 0.14 0.13 0.09 0.05 0.05 0.05 0.06 0.10 0.05 0.02 0.03 0.04 0.03 0.02

GFSSE_prec_precacc24_066.txt.gz
Total_Precipitation_Accumulation
0.03 0.07 0.03 0.01 0.03 0.05 0.01 0.01 0.00 0.00 0.00 0.00 0.00 0.00 0.00 0.00 0.00 0.00 0.00 0.00 0.01 0.03 0.02 0.02 0.02 0.03 0.03 0.01 0.01 0.00 0.00 0.01 0.01 0.04 0.06 0.10 0.08 0.06 0.04 0.04 0.05 0.06 0.09
0.04 0.04 0.03 0.06 0.08 0.02 0.01 0.00 0.00 0.00 0.00 0.00 0.00 0.00 0.00 0.00 0.00 0.00 0.00 0.00 0.01 0.01 0.01 0.01 0.02 0.02 0.02 0.01 0.00 0.00 0.00 0.00 0.01 0.01 0.04 0.06 0.06 0.04 0.03 0.02 0.04 0.04 0.04
0.05 0.05 0.03 0.28 0.32 0.15 0.07 0.01 0.01 0.00 0.00 0.00 0.00 0.01 0.01 0.01 0.01 0.00 0.00 0.00 0.00 0.01 0.01 0.01 0.02 0.03 0.01 0.00 0.00 0.00 0.00 0.00 0.00 0.00 0.01 0.01 0.02 0.03 0.01 0.01 0.01 0.01 0.01
0.06 0.13 0.04 0.16 0.51 0.42 0.16 0.06 0.03 0.07 0.04 0.01 0.02 0.00 0.01 0.03 0.03 0.02 0.01 0.00 0.00 0.01 0.01 0.02 0.03 0.02 0.01 0.00 0.00 0.00 0.00 0.00 0.00 0.00 0.00 0.02 0.03 0.05 0.03 0.02 0.01 0.01 0.01
0.25 0.15 0.02 0.05 0.36 0.67 0.28 0.13 0.10 0.09 0.07 0.05 0.06 0.01 0.00 0.03 0.02 0.04 0.02 0.00 0.01 0.01 0.02 0.03 0.02 0.01 0.00 0.00 0.00 0.00 0.00 0.00 0.00 0.00 0.00 0.00 0.01 0.03 0.02 0.01 0.01 0.01 0.01
0.32 0.08 0.06 0.09 0.21 0.85 0.72 0.35 0.23 0.14 0.16 0.12 0.11 0.04 0.02 0.03 0.02 0.02 0.01 0.00 0.03 0.03 0.03 0.02 0.01 0.00 0.00 0.01 0.00 0.00 0.00 0.00 0.00 0.00 0.00 0.00 0.00 0.01 0.01 0.01 0.01 0.01 0.01
0.27 0.32 0.38 0.38 0.59 0.78 1.41 1.33 0.88 0.70 0.53 0.38 0.11 0.02 0.02 0.03 0.02 0.01 0.00 0.01 0.04 0.04 0.02 0.01 0.00 0.00 0.00 0.00 0.00 0.00 0.00 0.00 0.00 0.00 0.00 0.00 0.00 0.02 0.02 0.01 0.01 0.01 0.01
0.29 0.65 0.95 0.49 0.82 1.60 1.13 2.74 2.77 2.33 1.72 0.80 0.38 0.14 0.03 0.09 0.03 0.02 0.01 0.01 0.02 0.01 0.01 0.00 0.00 0.00 0.00 0.00 0.00 0.00 0.00 0.00 0.00 0.00 0.00 0.00 0.01 0.01 0.01 0.01 0.00 0.00 0.00
0.43 0.92 1.49 1.08 0.66 1.45 2.18 2.24 3.36 4.23 4.38 3.92 1.92 1.16 0.30 0.11 0.03 0.03 0.02 0.01 0.02 0.01 0.00 0.00 0.00 0.00 0.00 0.00 0.00 0.00 0.00 0.00 0.00 0.00 0.00 0.00 0.00 0.00 0.01 0.00 0.00 0.00 0.00
0.22 0.71 1.29 1.71 1.22 0.91 1.54 1.73 2.67 4.00 3.35 3.92 4.01 2.97 1.13 0.61 0.14 0.04 0.03 0.01 0.01 0.00 0.00 0.00 0.00 0.00 0.00 0.00 0.00 0.00 0.00 0.00 0.00 0.00 0.00 0.00 0.01 0.01 0.00 0.00 0.00 0.00 0.00
0.30 0.49 0.84 1.98 1.60 1.08 1.11 1.04 1.54 3.24 3.34 2.72 2.48 2.86 1.60 0.98 0.29 0.06 0.06 0.04 0.01 0.00 0.00 0.00 0.00 0.00 0.00 0.00 0.00 0.00 0.00 0.00 0.00 0.00 0.00 0.01 0.01 0.01 0.01 0.00 0.00 0.00 0.00
0.21 0.36 0.61 1.50 1.57 1.49 1.08 0.92 0.89 1.60 2.49 2.89 1.62 1.65 1.37 0.74 0.30 0.04 0.09 0.06 0.00 0.00 0.00 0.00 0.00 0.00 0.00 0.00 0.00 0.00 0.00 0.00 0.00 0.00 0.00 0.01 0.01 0.00 0.01 0.00 0.00 0.00 0.00
0.29 0.32 0.49 1.00 1.12 1.57 1.40 1.10 1.06 1.08 1.15 2.73 1.75 0.83 0.88 0.87 0.28 0.12 0.07 0.05 0.00 0.00 0.00 0.00 0.00 0.00 0.00 0.00 0.00 0.00 0.00 0.00 0.00 0.00 0.00 0.01 0.01 0.00 0.00 0.00 0.00 0.00 0.00
0.13 0.13 0.32 0.39 0.48 0.79 1.16 1.10 0.76 0.87 0.94 1.25 1.61 0.70 0.48 0.59 0.16 0.08 0.03 0.02 0.00 0.00 0.00 0.00 0.00 0.00 0.00 0.00 0.00 0.00 0.00 0.00 0.00 0.00 0.00 0.00 0.01 0.00 0.01 0.00 0.00 0.00 0.00
0.06 0.08 0.12 0.27 0.18 0.33 0.59 0.84 0.81 0.51 0.58 0.62 0.90 0.59 0.25 0.13 0.11 0.16 0.02 0.01 0.00 0.00 0.00 0.00 0.00 0.00 0.00 0.00 0.00 0.00 0.00 0.00 0.00 0.00 0.00 0.00 0.00 0.01 0.01 0.00 0.00 0.00 0.00
0.10 0.05 0.06 0.14 0.14 0.23 0.52 0.68 0.85 0.71 0.43 0.45 0.36 0.25 0.09 0.06 0.06 0.10 0.02 0.01 0.00 0.00 0.00 0.00 0.00 0.00 0.00 0.00 0.00 0.00 0.00 0.00 0.00 0.00 0.00 0.00 0.00 0.01 0.02 0.01 0.00 0.00 0.00
0.25 0.12 0.08 0.11 0.22 0.25 0.35 0.47 0.68 0.76 0.63 0.45 0.23 0.10 0.04 0.03 0.03 0.05 0.01 0.00 0.00 0.00 0.00 0.00 0.00 0.00 0.00 0.00 0.00 0.00 0.00 0.00 0.00 0.00 0.00 0.00 0.00 0.00 0.01 0.01 0.00 0.00 0.00
0.24 0.43 0.10 0.16 0.54 0.43 0.36 0.36 0.43 0.72 0.77 0.54 0.20 0.07 0.04 0.01 0.02 0.04 0.02 0.02 0.00 0.00 0.00 0.00 0.00 0.00 0.00 0.00 0.00 0.00 0.00 0.00 0.00 0.00 0.00 0.00 0.00 0.00 0.00 0.01 0.00 0.00 0.00
0.04 0.47 0.47 0.24 0.32 0.48 0.46 0.37 0.40 0.54 0.68 0.54 0.22 0.07 0.03 0.01 0.01 0.05 0.11 0.08 0.02 0.02 0.00 0.00 0.00 0.00 0.00 0.00 0.00 0.00 0.00 0.00 0.00 0.00 0.00 0.00 0.00 0.00 0.00 0.00 0.00 0.00 0.00
0.00 0.05 0.31 0.37 0.33 0.30 0.32 0.28 0.37 0.50 0.66 0.41 0.19 0.05 0.03 0.00 0.01 0.02 0.02 0.04 0.03 0.03 0.00 0.00 0.00 0.00 0.00 0.00 0.00 0.00 0.00 0.00 0.00 0.00 0.00 0.00 0.00 0.00 0.00 0.00 0.00 0.00 0.00
0.00 0.02 0.05 0.22 0.21 0.33 0.28 0.19 0.21 0.30 0.48 0.27 0.21 0.08 0.02 0.01 0.02 0.03 0.02 0.03 0.02 0.05 0.01 0.01 0.00 0.00 0.00 0.00 0.00 0.00 0.00 0.00 0.00 0.00 0.00 0.00 0.00 0.00 0.00 0.00 0.01 0.00 0.00
0.00 0.01 0.02 0.03 0.09 0.17 0.22 0.23 0.10 0.09 0.15 0.16 0.16 0.18 0.08 0.03 0.01 0.03 0.04 0.05 0.04 0.05 0.02 0.01 0.00 0.00 0.00 0.00 0.00 0.00 0.00 0.00 0.00 0.00 0.00 0.00 0.00 0.00 0.00 0.00 0.00 0.00 0.00
0.00 0.01 0.01 0.01 0.03 0.05 0.14 0.24 0.16 0.12 0.11 0.14 0.16 0.25 0.16 0.06 0.00 0.00 0.02 0.04 0.04 0.04 0.02 0.01 0.00 0.00 0.00 0.00 0.00 0.00 0.00 0.00 0.00 0.00 0.00 0.00 0.00 0.00 0.00 0.00 0.00 0.00 0.00
0.00 0.00 0.01 0.01 0.00 0.02 0.03 0.06 0.06 0.07 0.06 0.02 0.02 0.09 0.15 0.07 0.04 0.00 0.00 0.01 0.01 0.01 0.04 0.04 0.02 0.02 0.01 0.00 0.00 0.01 0.00 0.03 0.10 0.09 0.01 0.00 0.00 0.00 0.00 0.00 0.00 0.00 0.00
0.00 0.00 0.01 0.01 0.01 0.01 0.01 0.02 0.02 0.01 0.01 0.01 0.01 0.02 0.07 0.08 0.06 0.01 0.00 0.02 0.03 0.03 0.05 0.14 0.11 0.09 0.05 0.10 0.07 0.02 0.01 0.00 0.01 0.13 0.11 0.05 0.01 0.00 0.00 0.00 0.00 0.00 0.00
0.00 0.00 0.00 0.01 0.01 0.01 0.00 0.01 0.00 0.00 0.00 0.00 0.00 0.00 0.03 0.02 0.04 0.04 0.01 0.03 0.10 0.12 0.14 0.20 0.28 0.17 0.13 0.14 0.25 0.14 0.13 0.09 0.05 0.05 0.05 0.06 0.10 0.05 0.02 0.03 0.04 0.03 0.02

GFSSE_prec_precacc24_069.txt.gz
Total_Precipitation_Accumulation
0.01 0.03 0.00 0.01 0.01 0.00 0.00 0.00 0.00 0.00 0.00 0.00 0.00 0.00 0.00 0.00 0.00 0.00 0.00 0.00 0.01 0.03 0.02 0.02 0.02 0.03 0.04 0.02 0.01 0.03 0.02 0.01 0.01 0.05 0.09 0.12 0.11 0.07 0.05 0.04 0.04 0.06 0.10
0.01 0.00 0.00 0.00 0.02 0.00 0.01 0.00 0.00 0.00 0.00 0.00 0.00 0.00 0.00 0.00 0.00 0.00 0.00 0.00 0.01 0.01 0.01 0.01 0.02 0.03 0.03 0.01 0.00 0.00 0.00 0.00 0.01 0.02 0.05 0.08 0.09 0.07 0.04 0.02 0.04 0.03 0.04
0.03 0.02 0.00 0.01 0.06 0.04 0.02 0.01 0.01 0.00 0.00 0.00 0.00 0.00 0.01 0.01 0.01 0.00 0.00 0.00 0.00 0.01 0.01 0.01 0.02 0.04 0.03 0.00 0.00 0.00 0.00 0.00 0.00 0.00 0.01 0.01 0.03 0.03 0.02 0.02 0.01 0.01 0.02
0.03 0.11 0.02 0.01 0.07 0.13 0.03 0.02 0.03 0.07 0.04 0.01 0.01 0.00 0.01 0.03 0.03 0.02 0.01 0.00 0.00 0.01 0.01 0.03 0.05 0.04 0.02 0.00 0.00 0.00 0.00 0.00 0.00 0.00 0.00 0.02 0.04 0.05 0.02 0.02 0.02 0.01 0.01
0.24 0.14 0.01 0.01 0.04 0.23 0.04 0.03 0.10 0.09 0.07 0.04 0.06 0.01 0.00 0.03 0.02 0.04 0.02 0.00 0.01 0.01 0.03 0.04 0.04 0.03 0.01 0.00 0.00 0.00 0.00 0.00 0.00 0.00 0.00 0.01 0.01 0.03 0.02 0.01 0.00 0.00 0.01
0.32 0.07 0.04 0.05 0.09 0.37 0.33 0.20 0.22 0.14 0.15 0.11 0.10 0.04 0.02 0.03 0.02 0.02 0.01 0.00 0.03 0.03 0.04 0.04 0.04 0.02 0.01 0.01 0.00 0.00 0.00 0.00 0.00 0.00 0.00 0.00 0.00 0.02 0.00 0.01 0.01 0.01 0.01
0.23 0.12 0.12 0.15 0.17 0.59 1.07 1.09 0.87 0.69 0.52 0.36 0.10 0.02 0.02 0.03 0.02 0.01 0.00 0.01 0.05 0.05 0.04 0.02 0.02 0.02 0.01 0.00 0.00 0.00 0.00 0.00 0.00 0.00 0.00 0.00 0.00 0.02 0.02 0.01 0.01 0.01 0.01
0.26 0.50 0.64 0.32 0.29 0.51 0.83 2.55 2.98 2.49 1.75 0.82 0.39 0.18 0.06 0.09 0.03 0.02 0.01 0.01 0.04 0.02 0.02 0.01 0.00 0.00 0.00 0.00 0.00 0.00 0.00 0.00 0.00 0.00 0.00 0.00 0.01 0.01 0.01 0.01 0.00 0.00 0.01
0.37 0.83 1.26 0.80 0.58 0.57 0.69 1.71 3.55 4.97 5.37 4.38 2.22 1.60 0.78 0.38 0.13 0.06 0.02 0.01 0.02 0.01 0.00 0.00 0.00 0.00 0.00 0.00 0.00 0.00 0.00 0.00 0.00 0.00 0.00 0.00 0.01 0.01 0.01 0.00 0.00 0.00 0.00
0.18 0.60 1.19 1.51 1.01 0.86 0.72 0.97 2.54 4.29 5.80 5.78 4.61 3.50 1.95 1.22 0.76 0.21 0.08 0.02 0.01 0.00 0.00 0.00 0.00 0.00 0.00 0.00 0.00 0.00 0.00 0.00 0.00 0.00 0.00 0.00 0.01 0.01 0.01 0.00 0.00 0.00 0.00
0.29 0.46 0.82 1.74 0.95 0.71 0.66 0.55 1.38 3.29 3.43 3.01 2.90 3.37 2.00 1.66 1.05 0.40 0.16 0.07 0.01 0.00 0.00 0.00 0.00 0.00 0.00 0.00 0.00 0.00 0.00 0.00 0.00 0.00 0.00 0.01 0.01 0.01 0.01 0.00 0.00 0.00 0.00
0.20 0.35 0.60 1.27 0.61 0.57 0.52 0.60 0.69 1.49 2.48 2.96 1.74 1.82 1.52 1.43 1.04 0.39 0.22 0.07 0.00 0.00 0.00 0.00 0.00 0.00 0.00 0.00 0.00 0.00 0.00 0.00 0.00 0.00 0.00 0.01 0.01 0.00 0.01 0.01 0.00 0.00 0.00
0.26 0.31 0.49 0.95 0.73 0.96 0.93 0.80 0.91 1.01 1.14 2.81 1.83 0.86 0.91 1.05 0.81 0.48 0.19 0.06 0.00 0.00 0.00 0.00 0.00 0.00 0.00 0.00 0.00 0.00 0.00 0.00 0.00 0.00 0.00 0.01 0.01 0.01 0.00 0.00 0.00 0.00 0.00
0.11 0.11 0.32 0.38 0.45 0.61 0.94 0.94 0.69 0.83 0.93 1.27 1.67 0.71 0.48 0.73 0.34 0.31 0.10 0.02 0.00 0.00 0.00 0.00 0.00 0.00 0.00 0.00 0.00 0.00 0.00 0.00 0.00 0.00 0.00 0.00 0.01 0.00 0.01 0.00 0.00 0.00 0.00
0.03 0.06 0.11 0.26 0.18 0.32 0.57 0.83 0.81 0.51 0.58 0.63 0.94 0.61 0.26 0.30 0.18 0.21 0.04 0.01 0.00 0.00 0.00 0.00 0.00 0.00 0.00 0.00 0.00 0.00 0.00 0.00 0.00 0.00 0.00 0.00 0.00 0.01 0.01 0.00 0.00 0.00 0.00
0.03 0.03 0.03 0.07 0.11 0.19 0.51 0.68 0.85 0.71 0.44 0.45 0.37 0.26 0.12 0.12 0.10 0.10 0.02 0.01 0.00 0.00 0.00 0.00 0.00 0.00 0.00 0.00 0.00 0.00 0.00 0.00 0.00 0.00 0.00 0.00 0.00 0.01 0.02 0.00 0.00 0.00 0.00
0.03 0.04 0.06 0.07 0.16 0.15 0.31 0.47 0.68 0.76 0.63 0.45 0.27 0.14 0.09 0.07 0.05 0.05 0.01 0.00 0.00 0.00 0.00 0.00 0.00 0.00 0.00 0.00 0.00 0.00 0.00 0.00 0.00 0.00 0.00 0.00 0.00 0.00 0.01 0.01 0.00 0.00 0.00
0.19 0.27 0.08 0.13 0.44 0.38 0.36 0.36 0.43 0.72 0.77 0.55 0.27 0.22 0.16 0.07 0.03 0.04 0.02 0.02 0.00 0.00 0.00 0.00 0.00 0.00 0.00 0.00 0.00 0.00 0.00 0.00 0.00 0.00 0.00 0.00 0.00 0.00 0.00 0.01 0.00 0.00 0.00
0.04 0.38 0.41 0.22 0.25 0.40 0.46 0.36 0.41 0.54 0.69 0.55 0.30 0.34 0.24 0.06 0.01 0.04 0.11 0.08 0.02 0.02 0.00 0.00 0.00 0.00 0.00 0.00 0.00 0.00 0.00 0.00 0.00 0.00 0.00 0.00 0.00 0.00 0.00 0.00 0.00 0.00 0.00
0.00 0.05 0.31 0.36 0.30 0.27 0.32 0.28 0.37 0.50 0.66 0.42 0.20 0.11 0.14 0.05 0.01 0.02 0.02 0.04 0.03 0.03 0.00 0.00 0.00 0.00 0.00 0.00 0.00 0.00 0.00 0.00 0.00 0.00 0.00 0.00 0.00 0.00 0.00 0.00 0.00 0.00 0.00
0.00 0.02 0.05 0.22 0.20 0.31 0.28 0.19 0.22 0.30 0.48 0.27 0.21 0.08 0.03 0.04 0.04 0.03 0.02 0.03 0.02 0.05 0.01 0.01 0.00 0.00 0.00 0.00 0.00 0.00 0.00 0.00 0.00 0.00 0.00 0.00 0.00 0.00 0.00 0.00 0.01 0.00 0.00
0.00 0.01 0.02 0.03 0.09 0.17 0.23 0.23 0.10 0.10 0.15 0.17 0.18 0.22 0.09 0.05 0.03 0.05 0.05 0.05 0.04 0.05 0.02 0.01 0.00 0.00 0.00 0.00 0.00 0.00 0.00 0.00 0.00 0.00 0.00 0.00 0.00 0.00 0.00 0.00 0.00 0.00 0.00
0.00 0.01 0.01 0.01 0.03 0.06 0.14 0.24 0.16 0.13 0.12 0.15 0.23 0.44 0.20 0.08 0.05 0.03 0.03 0.04 0.04 0.04 0.02 0.01 0.00 0.00 0.00 0.00 0.00 0.00 0.00 0.01 0.00 0.00 0.00 0.00 0.00 0.00 0.00 0.00 0.00 0.00 0.00
0.00 0.00 0.01 0.01 0.00 0.02 0.03 0.07 0.06 0.07 0.07 0.03 0.03 0.20 0.32 0.14 0.07 0.05 0.03 0.02 0.01 0.01 0.04 0.04 0.02 0.00 0.01 0.00 0.00 0.00 0.00 0.03 0.10 0.09 0.01 0.00 0.00 0.00 0.00 0.00 0.00 0.00 0.00
0.00 0.00 0.01 0.01 0.01 0.01 0.01 0.02 0.02 0.01 0.01 0.01 0.01 0.04 0.22 0.22 0.12 0.05 0.01 0.04 0.04 0.03 0.04 0.10 0.06 0.04 0.03 0.09 0.07 0.02 0.01 0.00 0.01 0.13 0.11 0.05 0.01 0.00 0.00 0.00 0.00 0.00 0.00
0.00 0.00 0.00 0.01 0.01 0.01 0.00 0.01 0.00 0.00 0.00 0.00 0.00 0.00 0.04 0.12 0.12 0.10 0.04 0.03 0.08 0.10 0.10 0.17 0.24 0.14 0.09 0.13 0.25 0.14 0.13 0.09 0.05 0.05 0.05 0.06 0.10 0.05 0.02 0.03 0.04 0.03 0.02

GFSSE_prec_precacc24_075.txt.gz
Total_Precipitation_Accumulation
0.00 0.00 0.00 0.01 0.01 0.00 0.00 0.00 0.00 0.00 0.00 0.00 0.00 0.00 0.00 0.00 0.00 0.00 0.00 0.00 0.01 0.03 0.02 0.02 0.02 0.02 0.04 0.03 0.03 0.05 0.03 0.02 0.02 0.06 0.10 0.15 0.10 0.06 0.04 0.04 0.04 0.04 0.09
0.00 0.00 0.00 0.00 0.02 0.00 0.00 0.00 0.00 0.00 0.00 0.00 0.00 0.00 0.00 0.00 0.00 0.00 0.00 0.00 0.01 0.02 0.02 0.01 0.02 0.03 0.04 0.02 0.02 0.00 0.00 0.00 0.01 0.03 0.13 0.12 0.09 0.07 0.04 0.02 0.03 0.04 0.05
0.01 0.00 0.00 0.01 0.05 0.04 0.01 0.01 0.01 0.01 0.00 0.00 0.00 0.00 0.01 0.01 0.01 0.00 0.00 0.01 0.00 0.02 0.02 0.01 0.03 0.05 0.05 0.02 0.00 0.00 0.00 0.00 0.00 0.02 0.04 0.02 0.05 0.05 0.04 0.04 0.05 0.04 0.04
0.01 0.00 0.00 0.00 0.06 0.13 0.03 0.01 0.02 0.07 0.04 0.01 0.01 0.00 0.01 0.04 0.04 0.02 0.01 0.00 0.01 0.02 0.04 0.04 0.06 0.05 0.05 0.01 0.00 0.00 0.00 0.00 0.00 0.00 0.00 0.02 0.04 0.06 0.03 0.03 0.03 0.02 0.02
0.00 0.00 0.00 0.00 0.04 0.22 0.04 0.01 0.05 0.09 0.09 0.05 0.06 0.01 0.00 0.03 0.02 0.04 0.02 0.01 0.01 0.03 0.07 0.08 0.07 0.06 0.03 0.00 0.00 0.00 0.00 0.00 0.00 0.00 0.00 0.01 0.02 0.03 0.04 0.02 0.01 0.01 0.01
0.01 0.01 0.01 0.02 0.09 0.38 0.32 0.12 0.11 0.09 0.18 0.13 0.10 0.04 0.02 0.03 0.01 0.02 0.01 0.01 0.04 0.05 0.09 0.09 0.07 0.05 0.02 0.01 0.00 0.00 0.00 0.00 0.00 0.00 0.00 0.00 0.00 0.01 0.00 0.00 0.01 0.01 0.01
0.05 0.06 0.05 0.03 0.12 0.57 1.06 0.93 0.67 0.53 0.49 0.37 0.11 0.02 0.02 0.03 0.03 0.08 0.03 0.05 0.08 0.06 0.06 0.05 0.03 0.03 0.01 0.00 0.00 0.00 0.00 0.00 0.00 0.00 0.00 0.00 0.00 0.01 0.01 0.01 0.00 0.00 0.00
0.05 0.22 0.39 0.12 0.20 0.46 0.84 2.48 3.01 2.58 1.79 0.85 0.48 0.27 0.33 0.51 0.29 0.27 0.18 0.15 0.12 0.06 0.03 0.02 0.01 0.00 0.00 0.00 0.00 0.00 0.00 0.00 0.00 0.00 0.00 0.00 0.02 0.02 0.02 0.01 0.00 0.01 0.01
0.05 0.19 0.51 0.47 0.40 0.52 0.80 1.74 3.57 5.14 5.77 5.27 3.32 2.71 1.93 1.21 0.72 0.37 0.25 0.16 0.12 0.06 0.01 0.01 0.00 0.00 0.00 0.00 0.00 0.00 0.00 0.00 0.00 0.00 0.00 0.00 0.01 0.02 0.01 0.01 0.01 0.01 0.01
0.10 0.29 0.53 0.71 0.48 0.56 0.88 1.13 2.59 4.09 5.64 6.58 5.81 4.66 3.03 1.94 1.38 0.70 0.53 0.34 0.13 0.08 0.03 0.01 0.00 0.00 0.00 0.00 0.00 0.00 0.00 0.00 0.00 0.00 0.00 0.00 0.02 0.02 0.01 0.01 0.01 0.01 0.01
0.13 0.24 0.53 1.47 0.58 0.27 0.54 0.57 1.47 3.24 3.16 2.86 3.12 4.02 3.01 2.15 1.63 0.99 0.75 0.61 0.34 0.16 0.05 0.00 0.00 0.00 0.00 0.00 0.00 0.00 0.00 0.00 0.00 0.00 0.00 0.01 0.02 0.01 0.02 0.01 0.01 0.01 0.01
0.14 0.24 0.30 0.85 0.30 0.22 0.37 0.54 0.65 1.33 2.20 2.67 1.71 1.91 1.84 1.83 1.59 0.84 0.78 0.83 0.63 0.31 0.07 0.01 0.00 0.00 0.00 0.00 0.00 0.00 0.00 0.00 0.00 0.00 0.00 0.02 0.01 0.01 0.01 0.01 0.01 0.01 0.01
0.18 0.12 0.26 0.52 0.54 0.45 0.43 0.61 0.79 0.84 0.83 2.37 1.76 0.90 0.95 1.12 1.04 0.78 0.46 0.57 0.54 0.39 0.04 0.01 0.00 0.00 0.00 0.00 0.00 0.00 0.00 0.00 0.00 0.00 0.00 0.01 0.02 0.01 0.01 0.00 0.01 0.01 0.01
0.02 0.06 0.24 0.31 0.35 0.42 0.33 0.37 0.47 0.71 0.71 1.05 1.61 0.76 0.52 0.76 0.41 0.46 0.24 0.23 0.22 0.17 0.02 0.00 0.00 0.00 0.00 0.00 0.00 0.00 0.00 0.00 0.00 0.00 0.00 0.01 0.01 0.01 0.00 0.01 0.01 0.01 0.01
0.00 0.02 0.10 0.24 0.16 0.15 0.16 0.38 0.43 0.34 0.47 0.58 0.94 0.66 0.30 0.33 0.23 0.29 0.14 0.11 0.09 0.07 0.01 0.00 0.00 0.00 0.00 0.00 0.00 0.00 0.00 0.00 0.00 0.00 0.00 0.00 0.01 0.01 0.00 0.01 0.01 0.00 0.00
0.00 0.01 0.01 0.07 0.10 0.10 0.27 0.44 0.62 0.52 0.34 0.42 0.38 0.31 0.14 0.14 0.13 0.15 0.06 0.10 0.05 0.03 0.01 0.00 0.00 0.00 0.00 0.00 0.00 0.00 0.00 0.00 0.00 0.00 0.00 0.00 0.00 0.01 0.01 0.00 0.00 0.00 0.00
0.01 0.01 0.01 0.02 0.06 0.06 0.16 0.35 0.59 0.67 0.54 0.44 0.30 0.19 0.13 0.10 0.08 0.09 0.02 0.06 0.07 0.02 0.00 0.00 0.00 0.00 0.00 0.00 0.00 0.00 0.00 0.00 0.00 0.00 0.00 0.00 0.00 0.00 0.01 0.01 0.00 0.00 0.00
0.01 0.02 0.03 0.03 0.04 0.08 0.10 0.24 0.39 0.67 0.71 0.52 0.32 0.34 0.28 0.13 0.09 0.09 0.06 0.07 0.07 0.02 0.00 0.00 0.00 0.00 0.00 0.00 0.00 0.00 0.00 0.00 0.00 0.00 0.00 0.00 0.00 0.00 0.00 0.01 0.01 0.00 0.00
0.01 0.08 0.05 0.04 0.05 0.10 0.14 0.21 0.31 0.51 0.65 0.51 0.35 0.55 0.55 0.42 0.11 0.12 0.16 0.13 0.10 0.04 0.00 0.00 0.00 0.00 0.00 0.00 0.00 0.00 0.00 0.00 0.00 0.00 0.00 0.00 0.00 0.00 0.00 0.00 0.00 0.00 0.00
0.00 0.02 0.05 0.08 0.06 0.04 0.10 0.22 0.32 0.49 0.66 0.41 0.27 0.68 0.62 0.66 0.31 0.13 0.07 0.06 0.09 0.05 0.00 0.00 0.00 0.00 0.00 0.00 0.00 0.00 0.00 0.00 0.00 0.00 0.00 0.00 0.00 0.00 0.00 0.00 0.00 0.00 0.00
0.00 0.01 0.02 0.13 0.11 0.07 0.06 0.11 0.20 0.28 0.48 0.28 0.23 0.36 0.65 0.69 0.56 0.17 0.11 0.04 0.03 0.04 0.01 0.00 0.00 0.00 0.00 0.00 0.00 0.00 0.00 0.00 0.00 0.00 0.00 0.00 0.00 0.00 0.00 0.00 0.01 0.00 0.00
0.00 0.01 0.01 0.01 0.05 0.08 0.08 0.07 0.07 0.09 0.16 0.17 0.18 0.28 0.32 0.50 0.62 0.28 0.17 0.07 0.02 0.02 0.02 0.00 0.00 0.00 0.00 0.00 0.00 0.00 0.00 0.00 0.00 0.00 0.00 0.00 0.00 0.00 0.00 0.00 0.00 0.00 0.00
0.00 0.01 0.01 0.01 0.02 0.03 0.09 0.09 0.13 0.12 0.12 0.15 0.25 0.47 0.31 0.26 0.48 0.37 0.19 0.08 0.01 0.01 0.01 0.00 0.00 0.00 0.00 0.00 0.00 0.00 0.00 0.01 0.00 0.00 0.00 0.00 0.00 0.00 0.00 0.00 0.00 0.00 0.00
0.00 0.00 0.01 0.01 0.01 0.02 0.03 0.04 0.06 0.08 0.07 0.04 0.03 0.22 0.43 0.20 0.19 0.27 0.21 0.09 0.01 0.01 0.03 0.02 0.01 0.00 0.00 0.00 0.00 0.00 0.00 0.03 0.10 0.10 0.02 0.00 0.00 0.00 0.00 0.00 0.00 0.00 0.00
0.00 0.00 0.01 0.01 0.01 0.01 0.02 0.02 0.02 0.01 0.02 0.01 0.02 0.04 0.27 0.41 0.23 0.13 0.20 0.15 0.07 0.02 0.03 0.07 0.03 0.01 0.00 0.06 0.04 0.00 0.00 0.00 0.01 0.12 0.10 0.05 0.01 0.00 0.00 0.00 0.00 0.00 0.00
0.00 0.00 0.00 0.01 0.02 0.01 0.01 0.01 0.01 0.01 0.00 0.00 0.01 0.01 0.06 0.25 0.42 0.26 0.19 0.22 0.15 0.10 0.09 0.15 0.16 0.06 0.02 0.07 0.20 0.10 0.11 0.07 0.04 0.04 0.04 0.05 0.10 0.05 0.02 0.03 0.04 0.03 0.02

GFSSE_prec_precacc24_081.txt.gz
Total_Precipitation_Accumulation
0.00 0.00 0.00 0.00 0.01 0.00 0.00 0.00 0.00 0.00 0.00 0.00 0.00 0.00 0.00 0.00 0.00 0.00 0.00 0.00 0.01 0.03 0.04 0.03 0.01 0.01 0.03 0.02 0.02 0.04 0.02 0.01 0.02 0.06 0.11 0.17 0.10 0.04 0.03 0.08 0.10 0.03 0.11
0.00 0.00 0.00 0.00 0.01 0.00 0.00 0.00 0.00 0.00 0.00 0.00 0.00 0.00 0.00 0.00 0.00 0.00 0.00 0.00 0.01 0.02 0.02 0.02 0.01 0.03 0.04 0.02 0.02 0.00 0.00 0.00 0.01 0.06 0.17 0.14 0.09 0.06 0.04 0.10 0.07 0.05 0.08
0.00 0.00 0.00 0.00 0.01 0.01 0.01 0.01 0.00 0.00 0.00 0.00 0.00 0.00 0.00 0.00 0.00 0.00 0.00 0.01 0.00 0.03 0.04 0.02 0.05 0.06 0.05 0.02 0.00 0.00 0.00 0.00 0.01 0.03 0.15 0.06 0.07 0.07 0.05 0.05 0.07 0.08 0.07
0.00 0.00 0.00 0.00 0.01 0.01 0.00 0.01 0.01 0.06 0.04 0.01 0.02 0.02 0.03 0.02 0.02 0.07 0.03 0.00 0.01 0.03 0.08 0.05 0.07 0.07 0.05 0.01 0.00 0.00 0.00 0.00 0.00 0.01 0.02 0.04 0.06 0.08 0.03 0.04 0.06 0.04 0.04
0.00 0.00 0.00 0.00 0.01 0.01 0.01 0.01 0.04 0.07 0.07 0.02 0.02 0.01 0.00 0.01 0.04 0.16 0.09 0.01 0.02 0.05 0.15 0.19 0.16 0.11 0.04 0.00 0.00 0.00 0.00 0.00 0.02 0.08 0.03 0.05 0.05 0.11 0.08 0.07 0.07 0.07 0.10
0.00 0.00 0.00 0.00 0.05 0.08 0.12 0.10 0.09 0.08 0.19 0.11 0.04 0.03 0.02 0.03 0.06 0.20 0.09 0.03 0.07 0.10 0.19 0.26 0.20 0.05 0.02 0.01 0.00 0.00 0.00 0.01 0.05 0.07 0.03 0.05 0.05 0.09 0.04 0.02 0.03 0.01 0.02
0.00 0.01 0.00 0.00 0.03 0.23 0.37 0.34 0.41 0.39 0.42 0.36 0.13 0.08 0.04 0.09 0.09 0.30 0.20 0.15 0.26 0.28 0.24 0.21 0.05 0.03 0.01 0.00 0.00 0.00 0.00 0.01 0.09 0.05 0.06 0.08 0.06 0.04 0.02 0.01 0.01 0.01 0.01
0.00 0.01 0.04 0.01 0.06 0.19 0.52 1.24 2.13 2.48 1.70 0.83 0.71 0.67 0.83 1.35 1.03 0.85 0.60 0.57 0.48 0.50 0.36 0.16 0.01 0.00 0.00 0.00 0.00 0.00 0.00 0.00 0.03 0.01 0.02 0.06 0.02 0.02 0.02 0.01 0.00 0.01 0.01
0.00 0.00 0.04 0.07 0.26 0.30 0.46 0.90 2.06 4.58 5.73 5.37 3.81 3.36 3.30 2.54 2.18 1.56 0.95 0.67 0.61 0.42 0.24 0.15 0.01 0.01 0.00 0.00 0.00 0.00 0.00 0.01 0.01 0.01 0.00 0.00 0.02 0.02 0.01 0.01 0.01 0.01 0.01
0.00 0.02 0.04 0.10 0.20 0.38 0.68 0.61 1.00 2.95 5.15 6.37 5.79 4.68 3.27 2.17 2.27 2.92 2.44 1.06 0.66 0.59 0.47 0.20 0.11 0.04 0.01 0.00 0.01 0.00 0.00 0.00 0.00 0.00 0.00 0.00 0.02 0.01 0.01 0.02 0.01 0.01 0.01
0.04 0.05 0.01 0.05 0.05 0.15 0.38 0.32 0.70 1.84 2.60 2.51 2.88 3.83 2.99 2.17 1.70 1.31 1.64 1.53 0.75 0.60 0.56 0.38 0.23 0.09 0.03 0.01 0.01 0.00 0.00 0.00 0.00 0.00 0.00 0.01 0.01 0.01 0.02 0.02 0.01 0.01 0.01
0.02 0.02 0.01 0.06 0.05 0.11 0.21 0.26 0.24 0.56 1.86 2.47 1.39 1.72 1.72 1.78 1.59 0.93 0.78 0.93 0.84 0.58 0.51 0.51 0.28 0.17 0.10 0.02 0.01 0.00 0.00 0.00 0.00 0.00 0.00 0.01 0.01 0.02 0.02 0.02 0.01 0.01 0.01
0.02 0.01 0.01 0.02 0.04 0.09 0.11 0.14 0.24 0.31 0.54 2.09 1.48 0.77 0.85 1.08 1.03 0.83 0.47 0.62 0.84 0.82 0.38 0.28 0.18 0.13 0.12 0.04 0.00 0.00 0.00 0.00 0.00 0.00 0.00 0.01 0.02 0.02 0.01 0.01 0.01 0.01 0.01
0.00 0.00 0.01 0.02 0.04 0.04 0.01 0.04 0.10 0.20 0.21 0.70 1.35 0.65 0.38 0.72 0.41 0.46 0.25 0.27 0.40 0.44 0.35 0.26 0.15 0.18 0.10 0.05 0.00 0.00 0.00 0.00 0.00 0.00 0.00 0.01 0.03 0.02 0.01 0.01 0.01 0.01 0.01
0.00 0.01 0.00 0.01 0.03 0.04 0.02 0.05 0.05 0.07 0.18 0.31 0.72 0.59 0.25 0.32 0.22 0.29 0.14 0.14 0.15 0.22 0.43 0.41 0.28 0.14 0.09 0.04 0.00 0.00 0.00 0.00 0.00 0.00 0.00 0.01 0.02 0.02 0.01 0.01 0.01 0.01 0.01
0.00 0.00 0.01 0.02 0.03 0.03 0.02 0.03 0.05 0.05 0.08 0.14 0.21 0.27 0.15 0.17 0.14 0.15 0.09 0.14 0.10 0.17 0.36 0.43 0.34 0.13 0.06 0.00 0.00 0.00 0.00 0.00 0.00 0.00 0.00 0.00 0.01 0.02 0.02 0.02 0.01 0.01 0.01
0.00 0.00 0.01 0.02 0.04 0.03 0.02 0.01 0.03 0.06 0.07 0.11 0.18 0.20 0.18 0.16 0.14 0.13 0.05 0.10 0.14 0.14 0.31 0.39 0.38 0.17 0.04 0.00 0.00 0.00 0.00 0.00 0.00 0.00 0.00 0.00 0.00 0.01 0.01 0.02 0.02 0.01 0.01
0.00 0.00 0.00 0.02 0.03 0.03 0.02 0.01 0.04 0.13 0.19 0.15 0.23 0.35 0.32 0.18 0.18 0.15 0.08 0.09 0.14 0.20 0.31 0.27 0.25 0.12 0.05 0.00 0.00 0.00 0.00 0.00 0.00 0.00 0.00 0.00 0.00 0.00 0.01 0.01 0.01 0.01 0.02
0.00 0.00 0.01 0.02 0.03 0.02 0.02 0.03 0.05 0.14 0.28 0.23 0.29 0.58 0.63 0.58 0.24 0.20 0.22 0.16 0.16 0.27 0.35 0.22 0.15 0.08 0.03 0.00 0.00 0.00 0.00 0.00 0.00 0.00 0.00 0.00 0.00 0.00 0.00 0.00 0.00 0.00 0.01
0.00 0.00 0.00 0.02 0.02 0.02 0.02 0.04 0.09 0.22 0.39 0.25 0.24 0.69 0.72 1.12 0.93 0.31 0.18 0.12 0.16 0.21 0.35 0.23 0.12 0.06 0.01 0.00 0.00 0.00 0.00 0.00 0.00 0.00 0.00 0.00 0.00 0.00 0.00 0.00 0.00 0.00 0.00
0.00 0.00 0.00 0.02 0.02 0.02 0.02 0.04 0.10 0.17 0.40 0.23 0.22 0.36 0.68 0.86 1.56 0.84 0.42 0.14 0.13 0.16 0.18 0.14 0.12 0.05 0.03 0.01 0.00 0.01 0.01 0.00 0.00 0.00 0.00 0.00 0.00 0.00 0.00 0.00 0.00 0.00 0.00
0.00 0.00 0.01 0.01 0.02 0.02 0.01 0.01 0.04 0.06 0.14 0.17 0.20 0.29 0.36 0.53 0.93 1.22 0.66 0.42 0.17 0.16 0.18 0.12 0.10 0.07 0.04 0.01 0.00 0.01 0.02 0.02 0.01 0.00 0.00 0.00 0.00 0.00 0.00 0.00 0.00 0.00 0.00
0.00 0.00 0.00 0.00 0.01 0.02 0.02 0.02 0.03 0.03 0.07 0.14 0.27 0.49 0.33 0.33 0.69 0.90 0.76 0.54 0.32 0.19 0.12 0.04 0.05 0.05 0.01 0.01 0.00 0.00 0.01 0.02 0.01 0.00 0.00 0.00 0.00 0.00 0.00 0.00 0.00 0.00 0.00
0.00 0.00 0.00 0.00 0.01 0.01 0.02 0.02 0.02 0.02 0.04 0.03 0.04 0.23 0.44 0.23 0.37 0.67 0.71 0.62 0.40 0.23 0.19 0.06 0.04 0.06 0.03 0.01 0.00 0.00 0.00 0.03 0.09 0.07 0.01 0.01 0.00 0.00 0.00 0.00 0.00 0.00 0.00
0.00 0.00 0.00 0.00 0.00 0.01 0.02 0.01 0.02 0.01 0.01 0.02 0.02 0.06 0.30 0.42 0.23 0.48 0.62 0.68 0.42 0.28 0.18 0.14 0.06 0.04 0.03 0.03 0.01 0.01 0.00 0.01 0.01 0.10 0.06 0.01 0.00 0.00 0.00 0.00 0.00 0.00 0.00
0.00 0.00 0.00 0.00 0.01 0.01 0.01 0.01 0.01 0.01 0.01 0.02 0.02 0.03 0.08 0.27 0.50 0.55 0.64 0.54 0.51 0.31 0.17 0.14 0.11 0.05 0.02 0.02 0.08 0.05 0.04 0.04 0.02 0.01 0.02 0.03 0.04 0.01 0.00 0.00 0.00 0.00 0.00

GFSSE_prec_precacc24_084.txt.gz
Total_Precipitation_Accumulation
0.00 0.00 0.00 0.00 0.01 0.00 0.00 0.00 0.00 0.00 0.00 0.00 0.00 0.00 0.00 0.00 0.00 0.00 0.00 0.00 0.01 0.02 0.04 0.02 0.01 0.01 0.03 0.02 0.03 0.05 0.03 0.02 0.02 0.06 0.10 0.16 0.10 0.04 0.05 0.12 0.15 0.04 0.13
0.00 0.00 0.00 0.00 0.01 0.00 0.00 0.00 0.00 0.00 0.00 0.00 0.00 0.00 0.00 0.00 0.00 0.00 0.00 0.00 0.01 0.02 0.02 0.01 0.01 0.02 0.04 0.03 0.02 0.00 0.00 0.00 0.01 0.06 0.17 0.13 0.10 0.09 0.06 0.16 0.08 0.06 0.10
0.00 0.00 0.00 0.00 0.01 0.00 0.00 0.00 0.00 0.00 0.00 0.00 0.00 0.00 0.00 0.00 0.00 0.00 0.00 0.00 0.00 0.05 0.07 0.02 0.05 0.06 0.05 0.02 0.00 0.00 0.00 0.00 0.01 0.04 0.20 0.08 0.08 0.10 0.08 0.10 0.08 0.10 0.08
0.00 0.00 0.00 0.00 0.00 0.00 0.00 0.00 0.01 0.02 0.01 0.00 0.02 0.02 0.04 0.02 0.06 0.13 0.06 0.01 0.02 0.08 0.14 0.07 0.10 0.07 0.05 0.01 0.00 0.00 0.00 0.00 0.02 0.04 0.03 0.09 0.08 0.11 0.05 0.04 0.07 0.05 0.05
0.00 0.00 0.00 0.00 0.00 0.01 0.00 0.00 0.02 0.02 0.02 0.01 0.01 0.01 0.01 0.02 0.09 0.16 0.17 0.03 0.06 0.09 0.20 0.23 0.26 0.12 0.04 0.00 0.00 0.00 0.00 0.03 0.08 0.18 0.06 0.12 0.07 0.18 0.10 0.10 0.09 0.10 0.14
0.00 0.00 0.00 0.00 0.03 0.05 0.01 0.01 0.00 0.02 0.16 0.06 0.02 0.02 0.01 0.02 0.12 0.27 0.19 0.11 0.12 0.16 0.25 0.32 0.26 0.05 0.02 0.01 0.00 0.00 0.01 0.02 0.07 0.16 0.05 0.16 0.08 0.13 0.06 0.03 0.03 0.02 0.02
0.00 0.00 0.00 0.00 0.02 0.19 0.21 0.03 0.09 0.10 0.31 0.28 0.09 0.08 0.05 0.11 0.13 0.35 0.25 0.29 0.43 0.53 0.34 0.33 0.07 0.03 0.01 0.00 0.00 0.01 0.02 0.01 0.10 0.10 0.09 0.15 0.10 0.09 0.02 0.01 0.01 0.01 0.01
0.00 0.00 0.00 0.00 0.03 0.13 0.38 0.77 0.92 1.08 1.09 0.74 0.68 0.68 0.87 1.50 1.30 1.13 0.81 0.89 0.84 0.73 0.69 0.42 0.14 0.00 0.00 0.00 0.00 0.01 0.03 0.03 0.08 0.08 0.03 0.09 0.09 0.07 0.02 0.01 0.00 0.01 0.01
0.00 0.00 0.01 0.03 0.16 0.19 0.35 0.70 1.53 3.00 4.28 4.78 3.80 3.38 3.38 2.73 2.34 2.09 1.79 1.50 1.40 0.91 0.52 0.48 0.05 0.01 0.00 0.00 0.00 0.02 0.04 0.01 0.06 0.10 0.02 0.01 0.04 0.05 0.02 0.01 0.01 0.01 0.01
0.00 0.01 0.03 0.04 0.08 0.21 0.54 0.46 0.53 1.18 3.61 5.15 5.65 4.66 3.27 2.18 2.32 2.99 2.87 2.21 1.70 1.21 0.78 0.54 0.43 0.17 0.06 0.04 0.02 0.01 0.00 0.00 0.00 0.03 0.01 0.00 0.02 0.01 0.02 0.02 0.02 0.01 0.01
0.01 0.03 0.00 0.01 0.03 0.06 0.18 0.22 0.39 0.67 0.56 1.27 2.61 3.69 2.98 2.17 1.68 1.30 1.63 1.63 1.38 1.26 0.93 0.70 0.46 0.24 0.18 0.16 0.11 0.05 0.00 0.00 0.00 0.00 0.00 0.01 0.01 0.01 0.02 0.02 0.02 0.01 0.01
0.00 0.01 0.00 0.00 0.01 0.05 0.06 0.13 0.14 0.25 0.42 1.16 1.07 1.52 1.68 1.78 1.58 1.01 0.80 0.90 1.17 0.93 0.75 0.69 0.32 0.26 0.24 0.09 0.05 0.05 0.01 0.00 0.00 0.00 0.00 0.01 0.01 0.02 0.02 0.02 0.01 0.01 0.01
0.00 0.00 0.00 0.01 0.01 0.06 0.07 0.09 0.06 0.08 0.19 1.11 1.29 0.73 0.84 1.04 0.96 0.78 0.44 0.59 0.85 0.86 0.45 0.31 0.19 0.18 0.21 0.07 0.01 0.03 0.00 0.00 0.00 0.00 0.00 0.01 0.02 0.02 0.01 0.01 0.01 0.01 0.01
0.00 0.00 0.00 0.01 0.02 0.01 0.01 0.03 0.03 0.05 0.08 0.56 1.30 0.67 0.42 0.72 0.35 0.43 0.23 0.26 0.40 0.45 0.37 0.26 0.15 0.21 0.20 0.15 0.01 0.00 0.00 0.00 0.00 0.00 0.00 0.01 0.03 0.02 0.01 0.01 0.01 0.01 0.01
0.00 0.00 0.00 0.01 0.02 0.02 0.01 0.01 0.02 0.04 0.04 0.17 0.67 0.59 0.24 0.31 0.16 0.20 0.14 0.15 0.16 0.22 0.43 0.43 0.31 0.26 0.23 0.13 0.01 0.00 0.00 0.00 0.00 0.00 0.00 0.01 0.02 0.02 0.01 0.02 0.02 0.01 0.01
0.00 0.00 0.00 0.02 0.02 0.03 0.01 0.01 0.02 0.03 0.05 0.07 0.20 0.25 0.14 0.16 0.12 0.08 0.09 0.14 0.10 0.18 0.38 0.49 0.46 0.38 0.27 0.10 0.04 0.00 0.00 0.00 0.00 0.00 0.00 0.00 0.01 0.02 0.02 0.02 0.02 0.02 0.02
0.00 0.00 0.01 0.02 0.03 0.03 0.01 0.01 0.02 0.03 0.05 0.08 0.16 0.20 0.18 0.16 0.14 0.13 0.07 0.11 0.14 0.15 0.32 0.45 0.56 0.62 0.38 0.16 0.02 0.00 0.00 0.00 0.00 0.00 0.00 0.00 0.00 0.01 0.02 0.03 0.02 0.01 0.02
0.00 0.00 0.00 0.02 0.03 0.03 0.02 0.01 0.02 0.03 0.06 0.07 0.18 0.33 0.31 0.23 0.24 0.16 0.10 0.10 0.14 0.20 0.36 0.41 0.43 0.64 0.39 0.13 0.01 0.00 0.00 0.00 0.00 0.00 0.00 0.00 0.00 0.00 0.01 0.02 0.02 0.02 0.03
0.00 0.00 0.00 0.01 0.03 0.02 0.02 0.02 0.01 0.03 0.08 0.08 0.19 0.53 0.62 0.62 0.29 0.23 0.18 0.12 0.16 0.26 0.41 0.44 0.39 0.47 0.27 0.11 0.00 0.00 0.00 0.00 0.00 0.00 0.00 0.00 0.00 0.00 0.00 0.00 0.01 0.01 0.02
0.00 0.00 0.00 0.01 0.03 0.02 0.02 0.02 0.03 0.04 0.15 0.07 0.13 0.66 0.71 1.17 0.97 0.35 0.22 0.13 0.16 0.22 0.39 0.49 0.43 0.31 0.16 0.04 0.00 0.00 0.00 0.00 0.00 0.00 0.00 0.00 0.00 0.00 0.00 0.00 0.00 0.00 0.00
0.00 0.00 0.00 0.02 0.04 0.02 0.02 0.03 0.04 0.05 0.11 0.09 0.17 0.36 0.68 0.88 1.60 0.91 0.47 0.17 0.14 0.16 0.21 0.31 0.40 0.24 0.22 0.04 0.00 0.01 0.01 0.00 0.00 0.00 0.00 0.00 0.00 0.00 0.00 0.00 0.00 0.00 0.00
0.00 0.00 0.00 0.01 0.02 0.01 0.01 0.01 0.02 0.02 0.07 0.11 0.19 0.29 0.36 0.53 0.94 1.26 0.70 0.45 0.21 0.21 0.19 0.31 0.31 0.18 0.16 0.04 0.00 0.01 0.03 0.03 0.01 0.00 0.00 0.00 0.00 0.00 0.00 0.00 0.00 0.00 0.00
0.00 0.00 0.00 0.01 0.01 0.02 0.01 0.02 0.02 0.03 0.06 0.11 0.27 0.50 0.33 0.35 0.71 0.94 0.88 0.68 0.41 0.31 0.18 0.13 0.22 0.13 0.07 0.05 0.00 0.00 0.02 0.02 0.01 0.01 0.00 0.00 0.00 0.00 0.00 0.00 0.00 0.00 0.00
0.00 0.00 0.00 0.00 0.01 0.01 0.01 0.02 0.02 0.02 0.03 0.03 0.04 0.24 0.44 0.24 0.41 0.72 0.72 0.65 0.47 0.32 0.31 0.13 0.16 0.15 0.08 0.03 0.02 0.00 0.00 0.00 0.01 0.03 0.02 0.01 0.00 0.00 0.00 0.00 0.00 0.00 0.00
0.00 0.00 0.00 0.00 0.01 0.01 0.02 0.01 0.01 0.01 0.01 0.02 0.03 0.06 0.30 0.41 0.23 0.50 0.63 0.72 0.53 0.40 0.32 0.21 0.14 0.14 0.09 0.04 0.00 0.02 0.01 0.01 0.01 0.03 0.01 0.00 0.00 0.00 0.00 0.00 0.00 0.00 0.00
0.00 0.00 0.00 0.01 0.02 0.01 0.01 0.01 0.00 0.01 0.01 0.02 0.03 0.04 0.09 0.27 0.50 0.55 0.66 0.59 0.62 0.41 0.31 0.31 0.18 0.13 0.09 0.04 0.04 0.02 0.01 0.01 0.00 0.01 0.01 0.01 0.00 0.00 0.00 0.00 0.00 0.00 0.00

GFSSE_prec_precacc24_087.txt.gz
Total_Precipitation_Accumulation
0.00 0.00 0.00 0.00 0.01 0.00 0.00 0.00 0.00 0.00 0.00 0.00 0.00 0.00 0.00 0.00 0.00 0.00 0.00 0.00 0.01 0.04 0.04 0.02 0.00 0.01 0.03 0.06 0.09 0.09 0.06 0.05 0.05 0.11 0.18 0.21 0.11 0.04 0.05 0.12 0.15 0.03 0.14
0.00 0.00 0.00 0.00 0.01 0.00 0.00 0.00 0.00 0.00 0.00 0.00 0.00 0.00 0.00 0.00 0.00 0.00 0.00 0.00 0.01 0.02 0.02 0.01 0.00 0.02 0.08 0.04 0.02 0.00 0.00 0.01 0.03 0.08 0.19 0.13 0.09 0.08 0.06 0.18 0.08 0.07 0.11
0.00 0.00 0.00 0.00 0.01 0.00 0.00 0.00 0.00 0.00 0.00 0.00 0.00 0.00 0.00 0.00 0.00 0.00 0.00 0.00 0.00 0.04 0.07 0.02 0.04 0.05 0.06 0.02 0.00 0.00 0.00 0.00 0.01 0.04 0.20 0.07 0.07 0.09 0.09 0.14 0.08 0.11 0.08
0.00 0.00 0.00 0.00 0.00 0.00 0.00 0.00 0.00 0.00 0.00 0.00 0.01 0.02 0.04 0.02 0.06 0.13 0.06 0.01 0.02 0.08 0.14 0.07 0.09 0.07 0.05 0.01 0.00 0.00 0.00 0.01 0.05 0.07 0.03 0.09 0.08 0.15 0.08 0.07 0.09 0.07 0.05
0.00 0.00 0.00 0.00 0.00 0.00 0.00 0.00 0.00 0.00 0.02 0.01 0.00 0.01 0.01 0.05 0.11 0.17 0.18 0.03 0.06 0.11 0.23 0.24 0.27 0.13 0.04 0.00 0.00 0.00 0.01 0.04 0.10 0.24 0.10 0.12 0.07 0.25 0.14 0.13 0.12 0.12 0.15
0.00 0.00 0.00 0.00 0.00 0.01 0.00 0.00 0.00 0.01 0.07 0.04 0.01 0.02 0.02 0.05 0.15 0.30 0.20 0.14 0.12 0.17 0.37 0.38 0.29 0.05 0.02 0.01 0.00 0.01 0.01 0.01 0.07 0.19 0.08 0.22 0.08 0.19 0.08 0.04 0.04 0.02 0.02
0.00 0.00 0.00 0.00 0.01 0.08 0.10 0.01 0.01 0.02 0.08 0.07 0.06 0.08 0.04 0.12 0.16 0.38 0.29 0.39 0.53 0.74 0.57 0.42 0.08 0.03 0.01 0.00 0.00 0.01 0.02 0.01 0.10 0.11 0.09 0.21 0.12 0.16 0.03 0.02 0.01 0.01 0.01
0.00 0.00 0.00 0.00 0.03 0.08 0.22 0.54 0.65 0.57 0.45 0.35 0.52 0.65 0.86 1.44 1.35 1.21 0.90 1.09 1.25 1.18 1.11 0.83 0.34 0.00 0.00 0.00 0.01 0.01 0.04 0.04 0.10 0.11 0.03 0.09 0.15 0.18 0.06 0.02 0.01 0.01 0.01
0.00 0.00 0.00 0.03 0.16 0.17 0.27 0.54 1.25 2.08 2.23 2.27 2.97 3.19 3.33 2.74 2.37 2.10 1.81 1.56 1.96 2.28 1.46 0.99 0.31 0.03 0.00 0.02 0.01 0.03 0.05 0.02 0.06 0.11 0.02 0.01 0.12 0.15 0.06 0.02 0.01 0.01 0.01
0.00 0.00 0.02 0.02 0.04 0.11 0.33 0.41 0.40 0.87 3.20 3.52 3.07 3.60 3.15 2.11 2.32 2.99 2.90 2.34 1.92 2.00 1.85 1.42 0.85 0.44 0.22 0.19 0.08 0.03 0.01 0.05 0.02 0.06 0.05 0.00 0.02 0.01 0.02 0.03 0.02 0.01 0.01
0.00 0.00 0.00 0.01 0.01 0.01 0.05 0.13 0.27 0.43 0.32 0.56 1.06 2.21 2.70 2.14 1.68 1.30 1.75 1.69 1.39 1.35 1.60 1.64 0.87 0.49 0.37 0.24 0.18 0.14 0.08 0.05 0.06 0.02 0.04 0.01 0.01 0.01 0.02 0.04 0.03 0.02 0.01
0.00 0.00 0.00 0.00 0.00 0.00 0.02 0.06 0.07 0.16 0.29 0.32 0.25 0.69 1.45 1.76 1.58 1.01 0.90 0.91 1.17 0.94 1.01 1.51 0.86 0.38 0.35 0.13 0.09 0.09 0.04 0.01 0.02 0.00 0.00 0.01 0.01 0.02 0.02 0.02 0.02 0.02 0.01
0.00 0.00 0.00 0.00 0.00 0.01 0.03 0.05 0.04 0.06 0.12 0.24 0.24 0.25 0.65 0.98 0.94 0.77 0.47 0.59 0.85 0.86 0.48 0.54 0.46 0.21 0.23 0.08 0.03 0.05 0.02 0.00 0.01 0.00 0.00 0.01 0.02 0.02 0.01 0.01 0.02 0.02 0.01
0.00 0.00 0.00 0.00 0.01 0.01 0.00 0.01 0.03 0.04 0.07 0.10 0.26 0.35 0.32 0.69 0.32 0.41 0.23 0.26 0.40 0.45 0.37 0.28 0.20 0.22 0.20 0.15 0.02 0.02 0.01 0.00 0.00 0.00 0.00 0.01 0.03 0.02 0.01 0.02 0.02 0.01 0.02
0.00 0.00 0.00 0.01 0.02 0.02 0.00 0.01 0.02 0.03 0.04 0.11 0.29 0.38 0.21 0.31 0.15 0.13 0.14 0.15 0.16 0.22 0.43 0.43 0.32 0.30 0.27 0.13 0.01 0.02 0.01 0.00 0.00 0.00 0.00 0.01 0.02 0.02 0.01 0.02 0.02 0.02 0.02
0.00 0.00 0.01 0.01 0.02 0.02 0.01 0.01 0.02 0.03 0.05 0.07 0.18 0.22 0.13 0.15 0.12 0.07 0.08 0.14 0.10 0.18 0.38 0.49 0.47 0.40 0.38 0.21 0.13 0.04 0.02 0.00 0.00 0.00 0.00 0.00 0.01 0.02 0.02 0.02 0.02 0.02 0.02
0.00 0.00 0.01 0.01 0.02 0.02 0.01 0.01 0.02 0.03 0.05 0.08 0.16 0.20 0.18 0.16 0.14 0.11 0.07 0.11 0.14 0.15 0.32 0.45 0.57 0.67 0.50 0.30 0.18 0.05 0.00 0.00 0.00 0.00 0.00 0.00 0.00 0.01 0.02 0.03 0.03 0.02 0.02
0.00 0.00 0.00 0.01 0.02 0.02 0.02 0.01 0.01 0.02 0.06 0.06 0.17 0.33 0.31 0.24 0.24 0.15 0.09 0.10 0.16 0.24 0.42 0.41 0.43 0.66 0.54 0.29 0.15 0.03 0.00 0.00 0.00 0.00 0.00 0.00 0.00 0.00 0.01 0.02 0.02 0.03 0.04
0.00 0.00 0.00 0.01 0.02 0.04 0.03 0.01 0.01 0.01 0.04 0.07 0.19 0.53 0.62 0.62 0.29 0.22 0.16 0.11 0.19 0.34 0.45 0.44 0.39 0.54 0.62 0.34 0.10 0.02 0.00 0.00 0.00 0.00 0.00 0.00 0.00 0.00 0.00 0.01 0.01 0.01 0.03
0.00 0.00 0.00 0.01 0.05 0.08 0.02 0.02 0.02 0.02 0.02 0.04 0.11 0.66 0.71 1.18 0.98 0.37 0.25 0.16 0.22 0.22 0.40 0.49 0.47 0.47 0.58 0.32 0.07 0.02 0.00 0.00 0.00 0.00 0.00 0.00 0.00 0.00 0.00 0.00 0.00 0.00 0.00
0.00 0.00 0.00 0.02 0.05 0.03 0.02 0.02 0.03 0.03 0.05 0.04 0.07 0.32 0.68 0.88 1.63 0.94 0.49 0.19 0.16 0.15 0.21 0.33 0.50 0.46 0.57 0.35 0.10 0.03 0.01 0.00 0.00 0.00 0.00 0.00 0.00 0.00 0.00 0.00 0.00 0.00 0.00
0.00 0.00 0.00 0.01 0.04 0.02 0.00 0.01 0.02 0.01 0.04 0.07 0.13 0.23 0.36 0.54 0.96 1.28 0.71 0.47 0.24 0.20 0.18 0.32 0.40 0.41 0.43 0.20 0.04 0.01 0.03 0.03 0.01 0.00 0.00 0.00 0.00 0.00 0.00 0.00 0.00 0.00 0.00
0.00 0.00 0.00 0.02 0.03 0.02 0.01 0.01 0.02 0.02 0.04 0.07 0.24 0.49 0.33 0.35 0.72 0.94 0.88 0.69 0.41 0.32 0.21 0.16 0.25 0.21 0.23 0.17 0.01 0.00 0.02 0.02 0.01 0.01 0.00 0.00 0.00 0.00 0.00 0.00 0.00 0.00 0.00
0.00 0.00 0.00 0.01 0.03 0.01 0.01 0.01 0.01 0.01 0.02 0.03 0.04 0.24 0.45 0.24 0.42 0.72 0.72 0.65 0.48 0.34 0.38 0.24 0.22 0.22 0.17 0.17 0.04 0.00 0.00 0.00 0.00 0.02 0.02 0.01 0.00 0.00 0.00 0.00 0.00 0.00 0.00
0.00 0.00 0.00 0.05 0.04 0.01 0.02 0.01 0.01 0.01 0.01 0.02 0.03 0.06 0.31 0.42 0.24 0.50 0.63 0.72 0.54 0.41 0.35 0.31 0.26 0.24 0.15 0.13 0.04 0.02 0.01 0.01 0.00 0.00 0.00 0.00 0.00 0.00 0.00 0.00 0.00 0.00 0.00
0.00 0.00 0.00 0.03 0.03 0.01 0.01 0.01 0.00 0.01 0.01 0.02 0.03 0.04 0.09 0.28 0.50 0.55 0.66 0.59 0.62 0.43 0.34 0.38 0.28 0.21 0.15 0.11 0.07 0.02 0.01 0.01 0.01 0.00 0.01 0.01 0.00 0.00 0.00 0.00 0.00 0.00 0.00

GFSSE_prec_precacc24_090.txt.gz
Total_Precipitation_Accumulation
0.00 0.00 0.00 0.00 0.01 0.00 0.00 0.00 0.00 0.00 0.00 0.00 0.00 0.00 0.00 0.00 0.00 0.00 0.00 0.00 0.02 0.07 0.05 0.02 0.00 0.00 0.02 0.07 0.11 0.09 0.07 0.06 0.06 0.14 0.18 0.21 0.09 0.03 0.04 0.12 0.15 0.03 0.13
0.00 0.00 0.00 0.00 0.01 0.00 0.00 0.00 0.00 0.00 0.00 0.00 0.00 0.00 0.00 0.00 0.00 0.00 0.00 0.00 0.01 0.04 0.02 0.01 0.00 0.01 0.08 0.05 0.05 0.01 0.00 0.01 0.03 0.08 0.19 0.15 0.11 0.08 0.05 0.18 0.08 0.06 0.12
0.00 0.00 0.00 0.00 0.01 0.00 0.00 0.00 0.00 0.00 0.00 0.00 0.00 0.00 0.00 0.00 0.00 0.00 0.00 0.00 0.01 0.04 0.07 0.01 0.03 0.04 0.06 0.02 0.01 0.00 0.00 0.00 0.01 0.04 0.20 0.11 0.07 0.09 0.08 0.14 0.08 0.12 0.08
0.00 0.00 0.00 0.00 0.00 0.00 0.00 0.00 0.00 0.00 0.00 0.00 0.01 0.02 0.04 0.02 0.06 0.13 0.06 0.01 0.02 0.07 0.14 0.06 0.08 0.06 0.05 0.01 0.00 0.00 0.01 0.01 0.05 0.07 0.04 0.15 0.08 0.15 0.08 0.07 0.10 0.08 0.06
0.00 0.00 0.00 0.00 0.00 0.00 0.00 0.00 0.00 0.00 0.02 0.01 0.00 0.01 0.01 0.05 0.11 0.17 0.18 0.08 0.07 0.12 0.25 0.23 0.27 0.13 0.04 0.00 0.00 0.00 0.01 0.04 0.10 0.24 0.14 0.16 0.08 0.28 0.16 0.15 0.16 0.14 0.17
0.00 0.00 0.00 0.00 0.00 0.01 0.00 0.00 0.00 0.01 0.06 0.04 0.00 0.02 0.02 0.05 0.15 0.30 0.21 0.18 0.12 0.17 0.43 0.48 0.34 0.09 0.01 0.00 0.00 0.01 0.01 0.01 0.07 0.19 0.09 0.22 0.08 0.26 0.11 0.04 0.04 0.03 0.02
0.00 0.00 0.00 0.00 0.00 0.01 0.02 0.01 0.01 0.01 0.06 0.04 0.03 0.07 0.04 0.12 0.16 0.39 0.31 0.42 0.62 0.93 0.82 0.73 0.43 0.15 0.01 0.00 0.00 0.01 0.02 0.01 0.10 0.11 0.09 0.21 0.12 0.19 0.04 0.03 0.02 0.01 0.01
0.00 0.00 0.00 0.00 0.01 0.02 0.02 0.21 0.48 0.46 0.27 0.19 0.35 0.59 0.86 1.44 1.35 1.23 0.94 1.16 1.37 1.36 1.26 1.11 0.77 0.25 0.09 0.01 0.01 0.01 0.04 0.04 0.10 0.11 0.03 0.09 0.17 0.28 0.13 0.03 0.01 0.01 0.01
0.00 0.00 0.00 0.03 0.13 0.16 0.23 0.35 0.58 1.18 1.72 1.69 1.98 2.27 3.10 2.68 2.37 2.11 1.82 1.56 1.98 2.31 1.52 1.26 0.68 0.40 0.25 0.10 0.01 0.04 0.06 0.02 0.07 0.12 0.02 0.01 0.19 0.20 0.10 0.02 0.01 0.01 0.01
0.00 0.00 0.00 0.01 0.04 0.10 0.33 0.40 0.28 0.39 2.59 2.88 1.90 1.78 2.17 1.58 2.19 2.97 2.90 2.34 1.98 2.04 1.87 1.65 1.41 1.14 0.64 0.38 0.10 0.05 0.03 0.11 0.12 0.09 0.06 0.01 0.03 0.02 0.02 0.03 0.02 0.01 0.01
0.00 0.00 0.00 0.00 0.00 0.01 0.04 0.12 0.20 0.29 0.18 0.41 0.68 1.17 1.49 1.19 1.42 1.26 1.76 1.73 1.47 1.41 1.60 1.70 1.52 1.43 0.92 0.54 0.35 0.20 0.15 0.13 0.14 0.04 0.07 0.06 0.03 0.01 0.02 0.03 0.03 0.02 0.01
0.00 0.00 0.00 0.00 0.00 0.00 0.01 0.03 0.04 0.10 0.22 0.26 0.18 0.27 0.53 1.14 1.34 1.01 0.95 0.95 1.23 0.96 1.01 1.52 1.33 1.10 0.71 0.37 0.32 0.16 0.09 0.05 0.06 0.01 0.02 0.13 0.04 0.02 0.01 0.02 0.02 0.02 0.02
0.00 0.00 0.00 0.00 0.00 0.00 0.00 0.02 0.04 0.05 0.12 0.22 0.21 0.14 0.19 0.38 0.79 0.77 0.47 0.59 0.85 0.87 0.48 0.56 0.98 0.61 0.39 0.23 0.18 0.09 0.04 0.00 0.02 0.02 0.03 0.12 0.03 0.03 0.01 0.01 0.02 0.02 0.02
0.00 0.00 0.00 0.00 0.00 0.00 0.00 0.01 0.03 0.04 0.07 0.10 0.14 0.16 0.13 0.26 0.27 0.41 0.23 0.26 0.40 0.45 0.37 0.28 0.31 0.46 0.33 0.29 0.12 0.06 0.01 0.00 0.00 0.01 0.01 0.04 0.04 0.02 0.02 0.02 0.03 0.02 0.02
0.00 0.00 0.00 0.00 0.01 0.01 0.00 0.01 0.02 0.03 0.04 0.10 0.16 0.13 0.12 0.25 0.15 0.13 0.14 0.15 0.16 0.22 0.43 0.43 0.33 0.33 0.38 0.25 0.10 0.05 0.02 0.00 0.00 0.00 0.01 0.01 0.02 0.02 0.01 0.02 0.02 0.02 0.02
0.00 0.00 0.01 0.01 0.01 0.01 0.01 0.01 0.01 0.02 0.05 0.06 0.10 0.10 0.11 0.15 0.12 0.07 0.08 0.14 0.10 0.18 0.38 0.49 0.47 0.40 0.46 0.30 0.27 0.09 0.02 0.00 0.00 0.00 0.00 0.00 0.01 0.02 0.02 0.03 0.02 0.02 0.02
0.00 0.00 0.00 0.01 0.03 0.04 0.01 0.01 0.01 0.03 0.04 0.07 0.12 0.15 0.17 0.16 0.14 0.11 0.07 0.11 0.14 0.15 0.33 0.45 0.58 0.69 0.62 0.41 0.36 0.18 0.03 0.00 0.00 0.00 0.00 0.00 0.00 0.01 0.02 0.03 0.03 0.03 0.03
0.00 0.00 0.00 0.00 0.02 0.05 0.02 0.01 0.01 0.02 0.05 0.06 0.16 0.31 0.31 0.23 0.24 0.16 0.09 0.10 0.16 0.26 0.43 0.46 0.44 0.68 0.56 0.32 0.24 0.21 0.04 0.01 0.00 0.00 0.00 0.00 0.00 0.00 0.01 0.02 0.03 0.04 0.05
0.00 0.00 0.00 0.00 0.01 0.04 0.06 0.01 0.01 0.01 0.04 0.05 0.17 0.52 0.62 0.61 0.29 0.22 0.16 0.11 0.19 0.36 0.47 0.49 0.44 0.54 0.62 0.37 0.17 0.22 0.05 0.00 0.00 0.00 0.00 0.00 0.00 0.00 0.00 0.01 0.01 0.01 0.03
0.00 0.00 0.00 0.01 0.05 0.13 0.11 0.14 0.11 0.01 0.02 0.03 0.10 0.65 0.71 1.18 0.98 0.37 0.25 0.16 0.24 0.28 0.43 0.50 0.49 0.49 0.60 0.40 0.22 0.24 0.07 0.00 0.00 0.00 0.00 0.00 0.00 0.00 0.00 0.00 0.00 0.00 0.00
0.00 0.00 0.00 0.02 0.06 0.07 0.05 0.06 0.06 0.02 0.03 0.02 0.04 0.30 0.67 0.88 1.63 0.94 0.49 0.20 0.16 0.18 0.28 0.37 0.52 0.47 0.59 0.55 0.46 0.35 0.08 0.00 0.00 0.00 0.00 0.00 0.00 0.00 0.00 0.00 0.00 0.00 0.00
0.00 0.00 0.00 0.01 0.03 0.02 0.02 0.04 0.02 0.02 0.03 0.03 0.06 0.13 0.30 0.53 0.96 1.28 0.72 0.48 0.27 0.23 0.20 0.34 0.40 0.41 0.50 0.42 0.37 0.21 0.12 0.05 0.02 0.00 0.00 0.00 0.00 0.00 0.00 0.00 0.00 0.00 0.00
0.00 0.00 0.00 0.01 0.02 0.02 0.02 0.04 0.03 0.03 0.03 0.05 0.13 0.27 0.18 0.33 0.72 0.94 0.89 0.70 0.44 0.37 0.25 0.17 0.26 0.22 0.30 0.32 0.14 0.13 0.05 0.04 0.02 0.01 0.00 0.00 0.00 0.00 0.00 0.00 0.00 0.00 0.00
0.00 0.00 0.00 0.01 0.02 0.02 0.03 0.03 0.01 0.01 0.02 0.03 0.03 0.16 0.30 0.21 0.41 0.72 0.72 0.65 0.48 0.35 0.39 0.24 0.23 0.23 0.20 0.26 0.14 0.08 0.01 0.01 0.01 0.02 0.02 0.01 0.00 0.00 0.00 0.00 0.00 0.00 0.00
0.00 0.00 0.00 0.05 0.04 0.01 0.04 0.02 0.01 0.01 0.01 0.02 0.02 0.04 0.25 0.38 0.23 0.51 0.63 0.72 0.53 0.41 0.36 0.31 0.31 0.31 0.20 0.18 0.09 0.05 0.02 0.02 0.01 0.00 0.00 0.00 0.00 0.00 0.00 0.00 0.00 0.00 0.00
0.08 0.04 0.00 0.03 0.04 0.05 0.03 0.02 0.01 0.01 0.01 0.02 0.03 0.03 0.07 0.27 0.50 0.56 0.67 0.59 0.62 0.43 0.35 0.38 0.32 0.32 0.25 0.19 0.14 0.06 0.02 0.02 0.01 0.01 0.01 0.01 0.00 0.00 0.00 0.00 0.00 0.00 0.00

GFSSE_prec_precacc24_093.txt.gz
Total_Precipitation_Accumulation
0.00 0.00 0.00 0.00 0.01 0.00 0.00 0.00 0.00 0.00 0.00 0.00 0.00 0.00 0.00 0.00 0.00 0.00 0.00 0.00 0.03 0.10 0.06 0.02 0.00 0.00 0.01 0.07 0.12 0.07 0.05 0.06 0.06 0.17 0.20 0.20 0.08 0.02 0.03 0.12 0.15 0.03 0.13
0.00 0.00 0.00 0.00 0.01 0.00 0.00 0.00 0.00 0.00 0.00 0.00 0.00 0.00 0.00 0.00 0.00 0.00 0.00 0.00 0.02 0.05 0.02 0.01 0.00 0.01 0.06 0.04 0.05 0.01 0.00 0.01 0.03 0.09 0.18 0.14 0.12 0.06 0.05 0.17 0.08 0.06 0.11
0.00 0.00 0.00 0.00 0.01 0.00 0.00 0.00 0.00 0.00 0.00 0.00 0.00 0.00 0.00 0.00 0.00 0.00 0.00 0.00 0.01 0.05 0.07 0.01 0.04 0.03 0.04 0.02 0.01 0.00 0.00 0.02 0.02 0.04 0.20 0.11 0.07 0.10 0.07 0.13 0.07 0.11 0.08
0.00 0.00 0.00 0.00 0.00 0.00 0.00 0.00 0.00 0.00 0.00 0.00 0.01 0.02 0.04 0.02 0.06 0.13 0.06 0.02 0.03 0.07 0.13 0.05 0.07 0.07 0.07 0.04 0.02 0.00 0.01 0.01 0.05 0.07 0.04 0.17 0.09 0.17 0.08 0.07 0.09 0.08 0.06
0.00 0.00 0.00 0.00 0.00 0.00 0.00 0.00 0.00 0.00 0.02 0.01 0.00 0.01 0.01 0.05 0.11 0.17 0.18 0.11 0.08 0.13 0.26 0.23 0.26 0.17 0.09 0.04 0.01 0.01 0.01 0.04 0.10 0.24 0.14 0.22 0.15 0.29 0.17 0.16 0.18 0.15 0.17
0.00 0.00 0.00 0.00 0.00 0.01 0.00 0.00 0.00 0.01 0.06 0.04 0.00 0.02 0.02 0.05 0.15 0.30 0.22 0.21 0.12 0.18 0.47 0.53 0.41 0.20 0.07 0.04 0.00 0.01 0.01 0.01 0.07 0.19 0.09 0.25 0.14 0.26 0.11 0.05 0.05 0.04 0.02
0.00 0.00 0.00 0.00 0.00 0.01 0.01 0.00 0.00 0.01 0.06 0.04 0.03 0.07 0.04 0.12 0.16 0.39 0.32 0.46 0.68 1.06 0.97 0.94 0.68 0.24 0.07 0.01 0.00 0.01 0.02 0.01 0.10 0.11 0.12 0.27 0.16 0.21 0.05 0.03 0.02 0.02 0.02
0.00 0.00 0.00 0.00 0.00 0.01 0.02 0.08 0.22 0.30 0.22 0.14 0.33 0.55 0.83 1.44 1.35 1.23 0.94 1.19 1.41 1.41 1.29 1.15 0.79 0.27 0.18 0.10 0.04 0.04 0.05 0.04 0.10 0.16 0.07 0.13 0.21 0.34 0.15 0.03 0.01 0.01 0.01
0.00 0.00 0.00 0.00 0.01 0.07 0.15 0.22 0.27 0.45 0.71 1.20 1.68 1.82 2.62 2.40 2.26 2.08 1.81 1.56 1.98 2.31 1.52 1.26 0.68 0.41 0.31 0.28 0.13 0.22 0.09 0.02 0.07 0.15 0.09 0.02 0.21 0.22 0.10 0.02 0.01 0.00 0.01
0.00 0.00 0.00 0.00 0.01 0.05 0.28 0.36 0.22 0.07 0.13 1.01 1.29 1.25 1.34 0.97 1.57 2.80 2.85 2.34 1.98 2.04 1.87 1.65 1.42 1.23 0.72 0.56 0.37 0.30 0.15 0.12 0.14 0.12 0.08 0.00 0.03 0.05 0.04 0.03 0.02 0.01 0.01
0.00 0.00 0.00 0.00 0.00 0.00 0.04 0.11 0.17 0.16 0.08 0.11 0.26 0.67 1.09 0.51 0.66 0.93 1.66 1.71 1.48 1.42 1.61 1.71 1.52 1.53 1.43 0.82 0.79 0.58 0.37 0.21 0.20 0.16 0.08 0.11 0.04 0.02 0.02 0.03 0.03 0.02 0.01
0.00 0.00 0.00 0.00 0.00 0.00 0.01 0.03 0.04 0.06 0.15 0.13 0.06 0.10 0.37 0.46 0.60 0.65 0.82 0.94 1.26 1.01 1.03 1.59 1.38 1.10 0.97 0.66 0.78 0.59 0.32 0.19 0.11 0.07 0.04 0.26 0.10 0.04 0.02 0.02 0.02 0.02 0.03
0.00 0.00 0.00 0.00 0.00 0.00 0.00 0.02 0.03 0.03 0.07 0.11 0.13 0.11 0.16 0.20 0.26 0.40 0.34 0.58 0.85 0.91 0.49 0.56 0.98 0.62 0.47 0.39 0.52 0.48 0.22 0.10 0.06 0.07 0.06 0.25 0.19 0.10 0.03 0.01 0.03 0.03 0.04
0.01 0.00 0.00 0.00 0.00 0.00 0.00 0.01 0.01 0.03 0.04 0.07 0.09 0.14 0.13 0.11 0.10 0.18 0.16 0.26 0.40 0.45 0.38 0.28 0.31 0.46 0.36 0.39 0.39 0.43 0.20 0.07 0.02 0.03 0.03 0.11 0.23 0.07 0.09 0.03 0.04 0.03 0.03
0.01 0.00 0.00 0.00 0.01 0.01 0.00 0.01 0.01 0.03 0.03 0.09 0.12 0.11 0.10 0.08 0.07 0.08 0.12 0.15 0.16 0.22 0.43 0.43 0.33 0.33 0.42 0.37 0.35 0.34 0.20 0.07 0.04 0.02 0.02 0.02 0.13 0.06 0.03 0.05 0.04 0.03 0.02
0.00 0.00 0.01 0.01 0.01 0.01 0.01 0.01 0.01 0.02 0.04 0.05 0.09 0.09 0.08 0.09 0.08 0.07 0.08 0.14 0.10 0.18 0.38 0.49 0.47 0.40 0.47 0.43 0.54 0.31 0.15 0.07 0.03 0.04 0.01 0.00 0.02 0.05 0.03 0.05 0.04 0.03 0.03
0.00 0.00 0.01 0.01 0.03 0.04 0.01 0.01 0.02 0.03 0.04 0.07 0.08 0.12 0.13 0.13 0.12 0.11 0.07 0.11 0.14 0.15 0.33 0.45 0.58 0.69 0.62 0.45 0.59 0.36 0.12 0.05 0.04 0.06 0.03 0.00 0.00 0.01 0.02 0.04 0.05 0.04 0.04
0.00 0.00 0.00 0.01 0.02 0.07 0.03 0.01 0.01 0.02 0.05 0.05 0.09 0.16 0.18 0.17 0.23 0.16 0.09 0.10 0.16 0.26 0.43 0.46 0.44 0.68 0.57 0.35 0.31 0.34 0.12 0.06 0.03 0.06 0.03 0.00 0.00 0.00 0.01 0.02 0.03 0.04 0.06
0.00 0.00 0.00 0.00 0.01 0.05 0.08 0.02 0.02 0.02 0.03 0.04 0.09 0.26 0.41 0.56 0.28 0.22 0.16 0.11 0.20 0.36 0.48 0.49 0.44 0.54 0.62 0.38 0.19 0.26 0.10 0.05 0.04 0.03 0.02 0.00 0.00 0.00 0.00 0.01 0.01 0.02 0.04
0.00 0.00 0.00 0.01 0.05 0.14 0.15 0.19 0.19 0.04 0.02 0.02 0.09 0.60 0.61 1.13 0.98 0.37 0.25 0.16 0.24 0.28 0.44 0.50 0.50 0.50 0.61 0.44 0.27 0.28 0.16 0.04 0.05 0.04 0.01 0.00 0.00 0.00 0.00 0.00 0.00 0.01 0.01
0.00 0.00 0.00 0.02 0.06 0.07 0.06 0.07 0.08 0.02 0.04 0.04 0.04 0.30 0.65 0.85 1.62 0.94 0.49 0.20 0.16 0.18 0.29 0.38 0.54 0.49 0.61 0.59 0.52 0.46 0.33 0.15 0.06 0.04 0.01 0.00 0.00 0.00 0.00 0.00 0.00 0.00 0.00
0.00 0.00 0.00 0.01 0.03 0.02 0.02 0.06 0.08 0.11 0.13 0.11 0.06 0.10 0.30 0.51 0.94 1.27 0.72 0.48 0.27 0.24 0.20 0.36 0.43 0.43 0.51 0.44 0.39 0.34 0.39 0.36 0.22 0.05 0.01 0.00 0.00 0.00 0.00 0.00 0.00 0.00 0.00
0.00 0.00 0.00 0.01 0.02 0.02 0.02 0.04 0.07 0.11 0.10 0.15 0.08 0.08 0.14 0.31 0.67 0.91 0.89 0.70 0.45 0.38 0.26 0.19 0.29 0.23 0.31 0.33 0.15 0.23 0.20 0.19 0.11 0.05 0.01 0.00 0.00 0.00 0.00 0.00 0.00 0.00 0.00
0.00 0.00 0.00 0.01 0.02 0.02 0.03 0.03 0.03 0.02 0.01 0.02 0.02 0.05 0.13 0.13 0.38 0.68 0.70 0.65 0.50 0.36 0.42 0.28 0.28 0.29 0.23 0.26 0.16 0.17 0.06 0.05 0.05 0.12 0.08 0.02 0.00 0.00 0.00 0.00 0.00 0.00 0.00
0.00 0.00 0.00 0.05 0.04 0.01 0.04 0.02 0.04 0.03 0.05 0.08 0.06 0.03 0.10 0.24 0.17 0.48 0.63 0.70 0.53 0.41 0.35 0.32 0.33 0.33 0.22 0.19 0.09 0.13 0.13 0.09 0.13 0.14 0.13 0.05 0.00 0.00 0.00 0.00 0.00 0.00 0.00
0.08 0.04 0.00 0.03 0.04 0.05 0.04 0.05 0.04 0.03 0.06 0.06 0.04 0.04 0.05 0.18 0.42 0.50 0.64 0.57 0.61 0.43 0.34 0.35 0.33 0.33 0.27 0.22 0.19 0.08 0.08 0.11 0.11 0.11 0.06 0.02 0.00 0.00 0.00 0.00 0.00 0.00 0.00

GFSSE_prec_precacc24_096.txt.gz
Total_Precipitation_Accumulation
0.00 0.00 0.00 0.00 0.00 0.00 0.00 0.00 0.00 0.00 0.00 0.00 0.00 0.00 0.00 0.00 0.00 0.00 0.00 0.00 0.03 0.11 0.07 0.02 0.00 0.00 0.01 0.07 0.11 0.05 0.05 0.06 0.06 0.18 0.26 0.20 0.07 0.01 0.03 0.12 0.15 0.03 0.15
0.00 0.00 0.00 0.00 0.00 0.00 0.00 0.00 0.00 0.00 0.00 0.00 0.00 0.00 0.00 0.00 0.00 0.00 0.00 0.00 0.02 0.07 0.03 0.01 0.00 0.01 0.05 0.04 0.05 0.01 0.00 0.01 0.03 0.18 0.25 0.11 0.11 0.05 0.04 0.17 0.07 0.06 0.14
0.00 0.00 0.00 0.00 0.00 0.00 0.00 0.00 0.00 0.00 0.00 0.00 0.00 0.00 0.00 0.00 0.00 0.00 0.00 0.00 0.01 0.05 0.06 0.01 0.04 0.02 0.03 0.02 0.03 0.01 0.00 0.02 0.03 0.05 0.21 0.10 0.07 0.09 0.06 0.11 0.06 0.11 0.08
0.00 0.00 0.00 0.00 0.00 0.00 0.00 0.00 0.00 0.00 0.00 0.00 0.01 0.02 0.04 0.01 0.05 0.13 0.06 0.02 0.03 0.07 0.13 0.05 0.07 0.08 0.07 0.04 0.03 0.00 0.01 0.01 0.05 0.07 0.04 0.17 0.08 0.18 0.07 0.05 0.09 0.08 0.06
0.00 0.00 0.00 0.00 0.00 0.00 0.00 0.00 0.00 0.00 0.01 0.01 0.00 0.01 0.01 0.05 0.11 0.17 0.18 0.11 0.08 0.12 0.25 0.22 0.25 0.18 0.09 0.03 0.01 0.01 0.01 0.04 0.10 0.24 0.14 0.22 0.15 0.31 0.17 0.17 0.20 0.18 0.19
0.00 0.00 0.00 0.00 0.00 0.01 0.00 0.00 0.00 0.00 0.06 0.04 0.00 0.02 0.02 0.05 0.15 0.30 0.22 0.21 0.12 0.17 0.46 0.51 0.42 0.22 0.06 0.04 0.00 0.01 0.01 0.01 0.07 0.19 0.09 0.26 0.16 0.29 0.14 0.06 0.06 0.06 0.05
0.00 0.00 0.00 0.00 0.00 0.01 0.00 0.00 0.00 0.01 0.06 0.04 0.03 0.07 0.04 0.12 0.16 0.39 0.32 0.46 0.69 1.09 1.02 1.01 0.77 0.24 0.07 0.01 0.00 0.01 0.02 0.01 0.10 0.11 0.12 0.29 0.21 0.29 0.07 0.04 0.03 0.03 0.03
0.00 0.00 0.00 0.00 0.00 0.01 0.01 0.01 0.06 0.14 0.18 0.14 0.32 0.52 0.77 1.39 1.30 1.20 0.93 1.19 1.41 1.41 1.29 1.15 0.79 0.27 0.18 0.12 0.04 0.05 0.05 0.04 0.10 0.16 0.10 0.22 0.34 0.43 0.16 0.03 0.02 0.01 0.01
0.00 0.00 0.00 0.00 0.00 0.01 0.03 0.06 0.08 0.19 0.33 0.50 0.99 1.41 2.23 2.03 2.05 1.93 1.70 1.52 1.95 2.30 1.52 1.26 0.68 0.41 0.33 0.34 0.24 0.31 0.16 0.06 0.09 0.16 0.15 0.15 0.34 0.25 0.13 0.02 0.01 0.00 0.01
0.00 0.00 0.00 0.00 0.00 0.01 0.06 0.12 0.09 0.03 0.04 0.12 0.22 0.33 0.87 0.60 1.20 2.48 2.56 2.19 1.95 2.04 1.87 1.65 1.42 1.25 0.84 0.68 0.51 0.38 0.25 0.28 0.29 0.24 0.17 0.12 0.12 0.10 0.06 0.03 0.02 0.01 0.01
0.00 0.00 0.00 0.00 0.00 0.00 0.02 0.01 0.05 0.13 0.04 0.03 0.06 0.04 0.14 0.16 0.28 0.54 1.33 1.44 1.39 1.42 1.61 1.71 1.52 1.53 1.44 0.85 0.86 0.62 0.50 0.41 0.37 0.31 0.16 0.23 0.11 0.11 0.05 0.04 0.03 0.02 0.02
0.00 0.00 0.00 0.00 0.00 0.00 0.01 0.02 0.02 0.04 0.12 0.09 0.03 0.04 0.08 0.14 0.26 0.44 0.58 0.63 1.10 1.00 1.03 1.64 1.41 1.11 0.98 0.66 0.79 0.62 0.44 0.39 0.34 0.20 0.18 0.48 0.16 0.11 0.06 0.03 0.02 0.03 0.03
0.00 0.00 0.00 0.00 0.00 0.01 0.00 0.01 0.02 0.02 0.06 0.09 0.09 0.07 0.13 0.13 0.09 0.22 0.17 0.31 0.73 0.89 0.49 0.57 0.99 0.62 0.47 0.39 0.53 0.52 0.33 0.25 0.28 0.26 0.21 0.42 0.34 0.20 0.07 0.03 0.03 0.03 0.05
0.01 0.00 0.00 0.00 0.00 0.00 0.00 0.01 0.01 0.02 0.03 0.06 0.07 0.10 0.10 0.09 0.05 0.08 0.04 0.12 0.33 0.45 0.38 0.28 0.31 0.46 0.36 0.39 0.40 0.47 0.32 0.23 0.20 0.26 0.20 0.21 0.51 0.21 0.14 0.04 0.04 0.07 0.05
0.02 0.00 0.00 0.00 0.00 0.00 0.00 0.01 0.01 0.01 0.02 0.07 0.08 0.07 0.08 0.06 0.06 0.06 0.03 0.07 0.13 0.22 0.43 0.43 0.33 0.33 0.42 0.38 0.38 0.46 0.41 0.27 0.23 0.18 0.15 0.17 0.30 0.37 0.10 0.07 0.07 0.06 0.04
0.00 0.00 0.01 0.01 0.02 0.02 0.00 0.01 0.01 0.01 0.03 0.04 0.06 0.07 0.07 0.09 0.08 0.06 0.06 0.11 0.09 0.18 0.38 0.49 0.47 0.40 0.47 0.43 0.60 0.55 0.50 0.34 0.23 0.23 0.05 0.03 0.05 0.25 0.19 0.09 0.07 0.04 0.04
0.00 0.00 0.01 0.00 0.06 0.06 0.03 0.02 0.03 0.03 0.04 0.05 0.03 0.08 0.11 0.12 0.12 0.10 0.07 0.09 0.14 0.15 0.33 0.45 0.58 0.69 0.62 0.45 0.62 0.59 0.52 0.37 0.22 0.24 0.11 0.00 0.01 0.03 0.10 0.07 0.07 0.07 0.05
0.00 0.00 0.00 0.01 0.03 0.09 0.04 0.03 0.04 0.04 0.05 0.05 0.07 0.13 0.15 0.15 0.20 0.14 0.07 0.08 0.16 0.26 0.44 0.46 0.44 0.68 0.57 0.36 0.31 0.46 0.43 0.35 0.21 0.21 0.17 0.06 0.03 0.00 0.01 0.03 0.03 0.06 0.07
0.00 0.00 0.00 0.00 0.01 0.05 0.10 0.05 0.06 0.05 0.07 0.07 0.06 0.12 0.33 0.45 0.23 0.18 0.13 0.08 0.20 0.37 0.48 0.49 0.44 0.54 0.62 0.38 0.19 0.29 0.29 0.33 0.27 0.16 0.15 0.13 0.05 0.01 0.00 0.01 0.01 0.02 0.04
0.00 0.00 0.00 0.01 0.05 0.15 0.19 0.24 0.21 0.08 0.07 0.05 0.05 0.05 0.22 0.93 0.85 0.31 0.22 0.16 0.24 0.29 0.45 0.51 0.51 0.50 0.61 0.44 0.27 0.29 0.19 0.16 0.22 0.17 0.09 0.09 0.04 0.00 0.00 0.00 0.00 0.01 0.01
0.00 0.00 0.00 0.01 0.06 0.08 0.08 0.08 0.09 0.02 0.03 0.06 0.05 0.12 0.21 0.56 1.43 0.90 0.48 0.20 0.17 0.18 0.29 0.38 0.54 0.49 0.61 0.59 0.53 0.47 0.34 0.17 0.11 0.14 0.11 0.04 0.02 0.00 0.00 0.00 0.00 0.00 0.00
0.00 0.00 0.00 0.00 0.03 0.01 0.02 0.06 0.08 0.11 0.13 0.17 0.18 0.23 0.27 0.36 0.78 1.20 0.69 0.49 0.27 0.25 0.20 0.36 0.44 0.44 0.52 0.44 0.40 0.34 0.41 0.42 0.36 0.19 0.10 0.07 0.01 0.00 0.00 0.00 0.00 0.00 0.00
0.00 0.00 0.00 0.01 0.02 0.01 0.02 0.04 0.08 0.15 0.18 0.31 0.34 0.31 0.26 0.33 0.62 0.84 0.83 0.69 0.45 0.38 0.27 0.20 0.31 0.27 0.33 0.36 0.16 0.24 0.21 0.22 0.17 0.26 0.19 0.08 0.02 0.00 0.00 0.00 0.00 0.00 0.00
0.00 0.00 0.00 0.01 0.02 0.01 0.02 0.03 0.03 0.02 0.01 0.02 0.05 0.19 0.25 0.22 0.40 0.64 0.64 0.62 0.50 0.36 0.42 0.30 0.31 0.34 0.31 0.31 0.19 0.17 0.07 0.05 0.07 0.18 0.23 0.19 0.05 0.01 0.00 0.00 0.00 0.00 0.00
0.00 0.00 0.00 0.05 0.04 0.01 0.03 0.02 0.04 0.03 0.04 0.07 0.06 0.06 0.12 0.15 0.17 0.46 0.53 0.66 0.53 0.42 0.36 0.35 0.36 0.37 0.27 0.25 0.12 0.14 0.13 0.10 0.16 0.17 0.25 0.21 0.11 0.03 0.01 0.00 0.00 0.00 0.00
0.08 0.04 0.00 0.03 0.04 0.05 0.03 0.04 0.04 0.03 0.06 0.06 0.04 0.04 0.04 0.12 0.34 0.49 0.56 0.48 0.59 0.44 0.35 0.36 0.35 0.36 0.30 0.26 0.24 0.10 0.08 0.12 0.14 0.19 0.22 0.19 0.14 0.09 0.02 0.00 0.00 0.00 0.00

GFSSE_prec_precacc24_099.txt.gz
Total_Precipitation_Accumulation
0.00 0.00 0.00 0.00 0.00 0.00 0.00 0.00 0.00 0.00 0.00 0.00 0.00 0.00 0.00 0.00 0.00 0.00 0.00 0.00 0.03 0.10 0.07 0.02 0.00 0.00 0.00 0.07 0.11 0.05 0.05 0.06 0.05 0.18 0.28 0.21 0.06 0.01 0.03 0.12 0.14 0.03 0.15
0.00 0.00 0.00 0.00 0.00 0.00 0.00 0.00 0.00 0.00 0.00 0.00 0.00 0.00 0.00 0.00 0.00 0.00 0.00 0.00 0.02 0.07 0.03 0.00 0.00 0.00 0.05 0.05 0.05 0.01 0.00 0.01 0.03 0.18 0.22 0.09 0.11 0.05 0.04 0.17 0.07 0.05 0.14
0.00 0.00 0.00 0.00 0.00 0.00 0.00 0.00 0.00 0.00 0.00 0.00 0.00 0.00 0.00 0.00 0.00 0.00 0.00 0.00 0.01 0.04 0.06 0.01 0.03 0.02 0.04 0.02 0.03 0.01 0.00 0.02 0.03 0.09 0.21 0.10 0.06 0.09 0.06 0.12 0.05 0.10 0.09
0.00 0.00 0.00 0.00 0.00 0.00 0.00 0.00 0.00 0.00 0.00 0.00 0.01 0.02 0.04 0.01 0.05 0.13 0.06 0.02 0.03 0.06 0.11 0.04 0.06 0.09 0.07 0.03 0.03 0.00 0.01 0.01 0.06 0.08 0.04 0.16 0.07 0.17 0.06 0.05 0.08 0.08 0.08
0.00 0.00 0.00 0.00 0.00 0.00 0.00 0.00 0.00 0.00 0.00 0.00 0.00 0.01 0.01 0.05 0.11 0.17 0.18 0.11 0.08 0.11 0.22 0.18 0.23 0.18 0.08 0.03 0.01 0.01 0.01 0.04 0.10 0.24 0.14 0.22 0.15 0.31 0.16 0.18 0.21 0.19 0.20
0.00 0.00 0.00 0.00 0.00 0.00 0.00 0.00 0.00 0.00 0.02 0.01 0.00 0.02 0.02 0.05 0.15 0.29 0.21 0.22 0.11 0.16 0.44 0.48 0.39 0.21 0.06 0.04 0.00 0.01 0.01 0.01 0.07 0.19 0.09 0.26 0.16 0.32 0.18 0.07 0.06 0.06 0.05
0.00 0.00 0.00 0.00 0.00 0.00 0.00 0.00 0.00 0.00 0.03 0.02 0.03 0.07 0.04 0.12 0.15 0.32 0.30 0.44 0.66 1.09 1.03 1.01 0.77 0.24 0.07 0.01 0.00 0.01 0.02 0.01 0.10 0.11 0.12 0.29 0.22 0.34 0.09 0.04 0.04 0.03 0.03
0.00 0.00 0.00 0.00 0.00 0.00 0.00 0.00 0.00 0.04 0.08 0.09 0.24 0.45 0.56 1.01 1.09 0.97 0.78 1.10 1.36 1.41 1.31 1.15 0.79 0.27 0.18 0.12 0.06 0.07 0.05 0.04 0.10 0.16 0.10 0.22 0.36 0.47 0.20 0.04 0.04 0.02 0.02
0.00 0.00 0.00 0.00 0.00 0.00 0.00 0.00 0.02 0.05 0.14 0.23 0.57 0.71 1.47 1.57 1.67 1.77 1.59 1.44 1.89 2.26 1.51 1.25 0.68 0.41 0.33 0.34 0.28 0.36 0.17 0.07 0.09 0.17 0.17 0.19 0.47 0.34 0.19 0.03 0.02 0.01 0.01
0.00 0.00 0.00 0.00 0.00 0.00 0.01 0.00 0.01 0.01 0.01 0.04 0.08 0.09 0.26 0.24 0.95 2.31 2.39 2.03 1.90 1.98 1.84 1.65 1.43 1.25 0.84 0.68 0.51 0.39 0.28 0.32 0.34 0.26 0.20 0.14 0.28 0.35 0.15 0.03 0.05 0.03 0.02
0.00 0.00 0.00 0.00 0.00 0.00 0.02 0.01 0.01 0.03 0.01 0.01 0.00 0.01 0.08 0.03 0.08 0.33 1.07 1.17 1.19 1.27 1.56 1.76 1.53 1.53 1.45 0.89 0.87 0.63 0.53 0.47 0.47 0.35 0.22 0.31 0.29 0.37 0.15 0.07 0.06 0.06 0.03
0.00 0.00 0.00 0.00 0.00 0.00 0.01 0.01 0.02 0.04 0.08 0.06 0.02 0.01 0.05 0.05 0.04 0.20 0.26 0.19 0.64 0.71 0.96 1.71 1.44 1.12 1.02 0.67 0.79 0.62 0.44 0.39 0.35 0.25 0.28 0.63 0.37 0.32 0.19 0.08 0.05 0.04 0.04
0.01 0.00 0.00 0.00 0.00 0.01 0.00 0.01 0.01 0.02 0.05 0.08 0.08 0.07 0.12 0.12 0.03 0.10 0.08 0.08 0.32 0.52 0.46 0.58 1.03 0.64 0.49 0.39 0.53 0.52 0.33 0.25 0.30 0.29 0.33 0.54 0.63 0.36 0.20 0.12 0.06 0.03 0.04
0.01 0.00 0.01 0.00 0.00 0.00 0.00 0.00 0.00 0.01 0.02 0.04 0.06 0.09 0.09 0.09 0.02 0.03 0.02 0.05 0.18 0.29 0.36 0.28 0.35 0.47 0.37 0.39 0.40 0.47 0.32 0.23 0.22 0.29 0.34 0.43 0.83 0.41 0.22 0.08 0.06 0.11 0.05
0.02 0.00 0.00 0.01 0.01 0.00 0.00 0.00 0.00 0.00 0.01 0.04 0.06 0.06 0.07 0.05 0.02 0.01 0.02 0.05 0.06 0.16 0.42 0.43 0.35 0.33 0.42 0.38 0.38 0.46 0.41 0.28 0.27 0.23 0.28 0.41 0.60 0.78 0.22 0.09 0.09 0.08 0.08
0.00 0.00 0.01 0.01 0.03 0.04 0.01 0.00 0.01 0.00 0.01 0.01 0.04 0.05 0.05 0.07 0.06 0.02 0.05 0.05 0.05 0.15 0.38 0.50 0.48 0.41 0.47 0.43 0.60 0.55 0.51 0.36 0.32 0.34 0.19 0.21 0.26 0.55 0.55 0.21 0.11 0.05 0.09
0.00 0.00 0.01 0.00 0.06 0.05 0.02 0.02 0.02 0.02 0.01 0.01 0.02 0.06 0.09 0.10 0.10 0.07 0.07 0.05 0.07 0.13 0.32 0.45 0.58 0.70 0.62 0.46 0.62 0.59 0.54 0.48 0.45 0.43 0.31 0.14 0.11 0.15 0.32 0.38 0.14 0.08 0.09
0.00 0.00 0.00 0.00 0.02 0.08 0.04 0.04 0.04 0.04 0.03 0.02 0.02 0.04 0.07 0.12 0.17 0.11 0.07 0.05 0.09 0.25 0.44 0.46 0.44 0.68 0.57 0.36 0.32 0.47 0.45 0.49 0.49 0.54 0.43 0.25 0.12 0.04 0.06 0.14 0.12 0.07 0.09
0.00 0.00 0.00 0.00 0.01 0.05 0.09 0.05 0.06 0.08 0.07 0.05 0.03 0.04 0.10 0.21 0.19 0.15 0.11 0.06 0.12 0.36 0.48 0.50 0.44 0.55 0.63 0.38 0.20 0.29 0.32 0.42 0.50 0.53 0.52 0.36 0.21 0.09 0.04 0.03 0.04 0.02 0.04
0.00 0.00 0.00 0.01 0.05 0.14 0.18 0.25 0.22 0.10 0.08 0.04 0.04 0.03 0.12 0.53 0.68 0.26 0.19 0.13 0.18 0.27 0.45 0.51 0.51 0.50 0.61 0.44 0.27 0.30 0.20 0.21 0.38 0.46 0.43 0.31 0.19 0.13 0.04 0.02 0.01 0.01 0.01
0.00 0.00 0.00 0.01 0.05 0.07 0.07 0.07 0.09 0.02 0.04 0.06 0.05 0.11 0.06 0.19 1.08 0.78 0.39 0.17 0.15 0.18 0.29 0.39 0.55 0.49 0.61 0.59 0.54 0.48 0.35 0.19 0.19 0.33 0.31 0.15 0.11 0.09 0.03 0.01 0.00 0.00 0.00
0.00 0.00 0.00 0.00 0.03 0.01 0.02 0.05 0.07 0.11 0.13 0.23 0.22 0.22 0.18 0.08 0.34 1.02 0.56 0.44 0.26 0.25 0.21 0.37 0.45 0.44 0.52 0.45 0.40 0.35 0.42 0.46 0.41 0.31 0.26 0.19 0.07 0.05 0.03 0.00 0.00 0.00 0.00
0.00 0.00 0.00 0.01 0.02 0.01 0.02 0.03 0.07 0.17 0.22 0.37 0.33 0.28 0.24 0.31 0.35 0.64 0.73 0.64 0.45 0.38 0.27 0.20 0.32 0.28 0.34 0.37 0.16 0.25 0.21 0.22 0.20 0.29 0.27 0.17 0.16 0.08 0.02 0.00 0.00 0.00 0.00
0.00 0.00 0.00 0.01 0.02 0.01 0.02 0.03 0.02 0.02 0.01 0.01 0.05 0.19 0.28 0.55 0.83 0.91 0.72 0.67 0.52 0.36 0.43 0.30 0.31 0.36 0.34 0.33 0.22 0.19 0.07 0.06 0.08 0.19 0.25 0.26 0.16 0.10 0.04 0.00 0.00 0.00 0.00
0.00 0.00 0.00 0.05 0.04 0.01 0.03 0.02 0.04 0.03 0.04 0.07 0.05 0.07 0.12 0.24 0.29 0.83 0.86 0.78 0.57 0.43 0.36 0.35 0.37 0.38 0.29 0.29 0.16 0.16 0.14 0.10 0.16 0.18 0.25 0.24 0.22 0.12 0.05 0.02 0.00 0.00 0.00
0.08 0.04 0.00 0.03 0.04 0.05 0.04 0.05 0.04 0.03 0.06 0.06 0.03 0.04 0.05 0.06 0.16 0.39 0.54 0.43 0.58 0.44 0.35 0.37 0.36 0.37 0.32 0.29 0.28 0.17 0.12 0.14 0.14 0.19 0.23 0.21 0.22 0.20 0.14 0.08 0.02 0.00 0.00

GFSSE_prec_precacc24_102.txt.gz
Total_Precipitation_Accumulation
0.00 0.00 0.00 0.00 0.00 0.00 0.00 0.00 0.00 0.00 0.00 0.00 0.00 0.00 0.00 0.00 0.00 0.00 0.00 0.00 0.02 0.08 0.05 0.01 0.00 0.00 0.00 0.07 0.11 0.05 0.04 0.05 0.06 0.19 0.29 0.22 0.05 0.01 0.03 0.10 0.13 0.04 0.14
0.00 0.00 0.00 0.00 0.00 0.00 0.00 0.00 0.00 0.00 0.00 0.00 0.00 0.00 0.00 0.00 0.00 0.00 0.00 0.00 0.02 0.06 0.02 0.00 0.00 0.00 0.05 0.05 0.05 0.01 0.00 0.01 0.03 0.17 0.20 0.07 0.10 0.05 0.04 0.15 0.07 0.05 0.14
0.00 0.00 0.00 0.00 0.00 0.00 0.00 0.00 0.00 0.00 0.00 0.00 0.00 0.00 0.00 0.00 0.00 0.00 0.00 0.00 0.01 0.04 0.04 0.00 0.01 0.01 0.03 0.02 0.03 0.01 0.00 0.02 0.03 0.09 0.19 0.09 0.05 0.08 0.06 0.11 0.04 0.10 0.09
0.00 0.00 0.00 0.00 0.00 0.00 0.00 0.00 0.00 0.00 0.00 0.00 0.01 0.02 0.04 0.01 0.05 0.13 0.06 0.02 0.03 0.06 0.09 0.04 0.05 0.09 0.06 0.03 0.03 0.00 0.01 0.01 0.06 0.09 0.04 0.16 0.06 0.16 0.06 0.05 0.07 0.07 0.10
0.00 0.00 0.00 0.00 0.00 0.00 0.00 0.00 0.00 0.00 0.00 0.00 0.00 0.01 0.01 0.05 0.11 0.17 0.18 0.11 0.08 0.11 0.21 0.16 0.20 0.16 0.07 0.03 0.01 0.01 0.01 0.04 0.10 0.23 0.14 0.21 0.14 0.27 0.14 0.18 0.20 0.20 0.21
0.00 0.00 0.00 0.00 0.00 0.00 0.00 0.00 0.00 0.00 0.00 0.00 0.00 0.02 0.02 0.05 0.15 0.28 0.21 0.22 0.11 0.15 0.41 0.42 0.33 0.21 0.06 0.04 0.00 0.01 0.01 0.01 0.06 0.19 0.09 0.25 0.15 0.31 0.17 0.10 0.07 0.07 0.11
0.00 0.00 0.00 0.00 0.00 0.00 0.00 0.00 0.00 0.00 0.00 0.01 0.02 0.04 0.03 0.10 0.14 0.27 0.24 0.43 0.63 1.02 0.96 0.96 0.76 0.24 0.07 0.01 0.00 0.01 0.02 0.01 0.10 0.11 0.12 0.28 0.23 0.35 0.09 0.07 0.08 0.07 0.06
0.00 0.00 0.00 0.00 0.00 0.00 0.00 0.00 0.00 0.00 0.00 0.03 0.12 0.27 0.36 0.68 0.83 0.71 0.56 0.95 1.23 1.26 1.22 1.14 0.79 0.27 0.18 0.12 0.06 0.07 0.05 0.04 0.11 0.16 0.11 0.23 0.37 0.49 0.23 0.07 0.09 0.05 0.02
0.00 0.00 0.00 0.00 0.00 0.00 0.00 0.00 0.00 0.01 0.03 0.06 0.21 0.17 0.53 0.90 0.79 1.24 1.32 1.26 1.79 2.16 1.45 1.26 0.72 0.42 0.33 0.34 0.28 0.36 0.17 0.07 0.10 0.19 0.18 0.20 0.48 0.37 0.28 0.07 0.05 0.03 0.02
0.00 0.00 0.00 0.00 0.00 0.00 0.00 0.00 0.00 0.00 0.01 0.00 0.00 0.01 0.02 0.05 0.41 1.10 2.03 1.86 1.73 1.85 1.77 1.69 1.47 1.26 0.84 0.68 0.51 0.39 0.29 0.33 0.35 0.29 0.22 0.16 0.30 0.45 0.27 0.08 0.08 0.05 0.02
0.00 0.00 0.00 0.00 0.00 0.00 0.00 0.00 0.00 0.00 0.00 0.00 0.00 0.00 0.00 0.00 0.03 0.20 0.94 1.09 1.02 1.03 1.36 1.70 1.54 1.55 1.45 0.94 0.96 0.68 0.55 0.48 0.47 0.39 0.27 0.42 0.37 0.56 0.44 0.18 0.10 0.08 0.04
0.00 0.00 0.00 0.00 0.00 0.00 0.00 0.01 0.01 0.01 0.01 0.00 0.00 0.01 0.05 0.05 0.04 0.19 0.26 0.17 0.52 0.49 0.66 1.43 1.38 1.14 1.12 0.73 0.83 0.67 0.45 0.42 0.40 0.27 0.29 0.70 0.48 0.57 0.67 0.36 0.15 0.08 0.06
0.01 0.00 0.00 0.00 0.00 0.01 0.00 0.01 0.01 0.01 0.01 0.04 0.06 0.06 0.12 0.13 0.03 0.10 0.08 0.02 0.06 0.16 0.18 0.44 0.98 0.65 0.50 0.43 0.58 0.53 0.36 0.28 0.31 0.29 0.38 0.67 0.78 0.63 0.62 0.40 0.17 0.07 0.07
0.01 0.00 0.01 0.00 0.00 0.00 0.00 0.00 0.00 0.00 0.01 0.03 0.05 0.09 0.09 0.09 0.02 0.03 0.02 0.01 0.05 0.10 0.07 0.14 0.30 0.46 0.38 0.43 0.46 0.52 0.36 0.24 0.23 0.30 0.36 0.46 0.98 0.66 0.53 0.32 0.11 0.12 0.05
0.02 0.00 0.00 0.01 0.01 0.00 0.00 0.00 0.00 0.00 0.01 0.04 0.06 0.06 0.07 0.05 0.02 0.01 0.01 0.02 0.02 0.04 0.16 0.31 0.30 0.32 0.43 0.42 0.42 0.47 0.42 0.28 0.27 0.23 0.28 0.41 0.69 1.05 0.51 0.25 0.16 0.11 0.08
0.00 0.00 0.01 0.01 0.03 0.04 0.01 0.00 0.00 0.00 0.01 0.01 0.04 0.05 0.05 0.06 0.06 0.02 0.03 0.02 0.02 0.05 0.17 0.42 0.46 0.40 0.49 0.47 0.63 0.57 0.53 0.39 0.32 0.34 0.20 0.21 0.30 0.83 1.08 0.36 0.19 0.09 0.10
0.00 0.00 0.01 0.00 0.06 0.05 0.02 0.02 0.02 0.01 0.00 0.00 0.01 0.05 0.08 0.10 0.08 0.04 0.05 0.02 0.03 0.07 0.18 0.36 0.55 0.68 0.63 0.48 0.64 0.60 0.55 0.49 0.45 0.44 0.33 0.15 0.17 0.32 1.51 0.93 0.44 0.14 0.14
0.00 0.00 0.00 0.00 0.02 0.08 0.03 0.04 0.04 0.03 0.02 0.01 0.01 0.03 0.06 0.11 0.13 0.07 0.05 0.04 0.05 0.15 0.32 0.41 0.43 0.67 0.56 0.38 0.34 0.48 0.47 0.52 0.51 0.57 0.52 0.35 0.33 0.21 0.75 0.98 0.44 0.29 0.18
0.00 0.00 0.00 0.00 0.00 0.05 0.09 0.05 0.06 0.09 0.07 0.04 0.02 0.02 0.06 0.07 0.12 0.13 0.06 0.05 0.08 0.24 0.37 0.47 0.44 0.54 0.62 0.38 0.20 0.30 0.33 0.45 0.53 0.57 0.65 0.53 0.57 0.51 0.22 0.18 0.11 0.14 0.11
0.00 0.00 0.00 0.01 0.04 0.14 0.18 0.25 0.21 0.10 0.09 0.04 0.03 0.01 0.04 0.09 0.14 0.16 0.16 0.12 0.13 0.17 0.38 0.49 0.50 0.50 0.61 0.44 0.28 0.31 0.22 0.25 0.40 0.51 0.61 0.64 0.60 0.77 0.28 0.13 0.03 0.05 0.04
0.00 0.00 0.00 0.01 0.05 0.07 0.07 0.07 0.08 0.02 0.04 0.06 0.04 0.10 0.04 0.06 0.32 0.31 0.26 0.13 0.09 0.09 0.24 0.38 0.54 0.49 0.61 0.59 0.54 0.48 0.36 0.21 0.20 0.35 0.49 0.46 0.66 0.47 0.20 0.17 0.07 0.05 0.02
0.00 0.00 0.00 0.00 0.02 0.01 0.02 0.05 0.06 0.11 0.13 0.24 0.22 0.22 0.16 0.05 0.12 0.55 0.37 0.31 0.19 0.17 0.14 0.36 0.44 0.44 0.52 0.45 0.41 0.35 0.42 0.46 0.43 0.32 0.31 0.35 0.34 0.27 0.13 0.10 0.08 0.06 0.03
0.00 0.00 0.00 0.01 0.02 0.01 0.01 0.03 0.07 0.17 0.22 0.38 0.34 0.28 0.24 0.26 0.23 0.32 0.51 0.39 0.31 0.34 0.24 0.21 0.33 0.29 0.34 0.37 0.16 0.25 0.21 0.22 0.20 0.31 0.31 0.26 0.30 0.21 0.13 0.11 0.04 0.02 0.01
0.00 0.00 0.00 0.01 0.02 0.01 0.02 0.02 0.02 0.02 0.01 0.01 0.05 0.19 0.28 0.55 0.71 0.60 0.54 0.51 0.42 0.36 0.42 0.30 0.32 0.37 0.34 0.33 0.22 0.20 0.08 0.06 0.08 0.20 0.29 0.30 0.21 0.17 0.12 0.11 0.09 0.03 0.00
0.00 0.00 0.00 0.05 0.04 0.01 0.03 0.02 0.04 0.03 0.04 0.07 0.05 0.06 0.10 0.22 0.27 0.54 0.68 0.76 0.62 0.47 0.41 0.41 0.38 0.40 0.31 0.29 0.16 0.17 0.15 0.11 0.17 0.18 0.26 0.26 0.25 0.15 0.07 0.05 0.04 0.02 0.00
0.08 0.04 0.00 0.03 0.04 0.05 0.04 0.04 0.05 0.03 0.05 0.05 0.03 0.04 0.05 0.05 0.08 0.21 0.43 0.43 0.59 0.46 0.40 0.43 0.37 0.38 0.33 0.30 0.29 0.17 0.14 0.14 0.15 0.20 0.23 0.22 0.24 0.22 0.17 0.11 0.05 0.01 0.00

GFSSE_prec_precacc24_105.txt.gz
Total_Precipitation_Accumulation
0.00 0.00 0.00 0.00 0.00 0.00 0.00 0.00 0.00 0.00 0.00 0.00 0.00 0.00 0.00 0.00 0.00 0.00 0.00 0.00 0.02 0.08 0.04 0.00 0.00 0.00 0.00 0.07 0.11 0.05 0.04 0.05 0.06 0.19 0.29 0.19 0.05 0.01 0.03 0.05 0.10 0.06 0.14
0.00 0.00 0.00 0.00 0.00 0.00 0.00 0.00 0.00 0.00 0.00 0.00 0.00 0.00 0.00 0.00 0.00 0.00 0.00 0.00 0.02 0.06 0.02 0.00 0.00 0.00 0.05 0.05 0.05 0.01 0.00 0.01 0.03 0.15 0.18 0.06 0.09 0.05 0.03 0.10 0.22 0.06 0.14
0.00 0.00 0.00 0.00 0.00 0.00 0.00 0.00 0.00 0.00 0.00 0.00 0.00 0.00 0.00 0.00 0.00 0.00 0.00 0.00 0.01 0.04 0.04 0.00 0.01 0.00 0.03 0.02 0.03 0.01 0.00 0.02 0.03 0.07 0.13 0.06 0.03 0.08 0.05 0.12 0.08 0.12 0.10
0.00 0.00 0.00 0.00 0.00 0.00 0.00 0.00 0.00 0.00 0.00 0.00 0.00 0.00 0.01 0.01 0.05 0.07 0.04 0.02 0.03 0.06 0.07 0.03 0.04 0.08 0.06 0.03 0.03 0.00 0.01 0.01 0.06 0.08 0.03 0.15 0.05 0.16 0.06 0.05 0.10 0.09 0.11
0.00 0.00 0.00 0.00 0.00 0.00 0.00 0.00 0.00 0.00 0.00 0.00 0.00 0.01 0.01 0.04 0.09 0.06 0.11 0.11 0.08 0.09 0.14 0.08 0.16 0.14 0.08 0.03 0.01 0.01 0.01 0.04 0.07 0.16 0.14 0.21 0.12 0.24 0.12 0.14 0.17 0.19 0.20
0.00 0.00 0.00 0.00 0.00 0.00 0.00 0.00 0.00 0.00 0.00 0.00 0.00 0.02 0.02 0.04 0.11 0.11 0.14 0.20 0.09 0.12 0.34 0.33 0.27 0.22 0.06 0.04 0.00 0.01 0.01 0.01 0.01 0.12 0.08 0.22 0.12 0.26 0.15 0.09 0.06 0.10 0.14
0.00 0.00 0.00 0.00 0.00 0.00 0.00 0.00 0.00 0.00 0.00 0.00 0.00 0.01 0.01 0.04 0.09 0.10 0.12 0.34 0.49 0.89 0.86 0.86 0.76 0.25 0.07 0.01 0.00 0.01 0.02 0.00 0.01 0.06 0.08 0.21 0.29 0.39 0.09 0.10 0.09 0.11 0.17
0.00 0.00 0.00 0.00 0.00 0.00 0.00 0.00 0.00 0.00 0.00 0.00 0.01 0.03 0.04 0.16 0.34 0.39 0.36 0.69 1.03 1.00 1.00 1.02 0.79 0.27 0.18 0.12 0.06 0.07 0.05 0.03 0.08 0.16 0.09 0.17 0.38 0.58 0.23 0.08 0.14 0.12 0.06
0.00 0.00 0.00 0.00 0.00 0.00 0.00 0.00 0.00 0.00 0.00 0.01 0.04 0.04 0.09 0.23 0.20 0.55 0.87 0.94 1.45 1.95 1.32 1.15 0.73 0.41 0.33 0.34 0.27 0.36 0.17 0.06 0.08 0.18 0.19 0.20 0.49 0.42 0.32 0.09 0.09 0.11 0.06
0.00 0.00 0.00 0.00 0.00 0.00 0.00 0.00 0.00 0.00 0.00 0.00 0.00 0.00 0.01 0.01 0.06 0.08 0.48 1.30 1.38 1.49 1.41 1.53 1.39 1.23 0.83 0.68 0.51 0.40 0.31 0.37 0.35 0.29 0.22 0.17 0.34 0.48 0.32 0.12 0.13 0.13 0.06
0.00 0.00 0.00 0.00 0.00 0.00 0.00 0.00 0.00 0.00 0.00 0.00 0.00 0.00 0.00 0.00 0.01 0.00 0.16 0.23 0.79 0.86 1.09 1.44 1.40 1.48 1.42 0.93 0.97 0.71 0.64 0.50 0.48 0.41 0.32 0.51 0.46 0.64 0.51 0.35 0.18 0.18 0.07
0.00 0.00 0.00 0.00 0.00 0.00 0.00 0.00 0.00 0.00 0.00 0.00 0.00 0.00 0.01 0.01 0.01 0.11 0.24 0.08 0.44 0.44 0.53 1.24 1.22 1.01 1.06 0.73 0.85 0.68 0.47 0.43 0.51 0.39 0.38 0.82 0.65 0.68 0.94 0.77 0.39 0.13 0.15
0.01 0.00 0.00 0.00 0.00 0.00 0.00 0.00 0.00 0.00 0.00 0.01 0.01 0.03 0.05 0.06 0.01 0.03 0.06 0.01 0.02 0.10 0.13 0.32 0.88 0.56 0.42 0.40 0.62 0.54 0.36 0.33 0.39 0.31 0.42 0.78 0.87 0.73 0.87 0.78 0.56 0.37 0.31
0.01 0.00 0.01 0.00 0.00 0.01 0.00 0.00 0.00 0.00 0.00 0.01 0.01 0.04 0.05 0.05 0.01 0.01 0.01 0.01 0.01 0.02 0.03 0.04 0.21 0.33 0.31 0.39 0.48 0.58 0.42 0.31 0.23 0.30 0.39 0.51 1.05 0.72 0.67 0.54 0.36 0.39 0.24
0.02 0.00 0.00 0.01 0.01 0.00 0.01 0.00 0.00 0.00 0.00 0.02 0.03 0.03 0.03 0.04 0.02 0.00 0.01 0.01 0.01 0.01 0.01 0.04 0.09 0.22 0.38 0.42 0.47 0.52 0.45 0.31 0.30 0.24 0.29 0.42 0.70 1.09 0.62 0.78 0.40 0.27 0.18
0.00 0.00 0.01 0.01 0.03 0.04 0.02 0.00 0.00 0.00 0.00 0.01 0.03 0.03 0.02 0.03 0.04 0.01 0.01 0.01 0.01 0.01 0.03 0.08 0.16 0.31 0.48 0.51 0.68 0.60 0.56 0.42 0.36 0.35 0.20 0.21 0.30 0.84 1.18 0.71 0.90 0.26 0.13
0.00 0.00 0.01 0.00 0.06 0.05 0.02 0.02 0.01 0.01 0.00 0.00 0.01 0.02 0.03 0.04 0.04 0.02 0.03 0.02 0.01 0.01 0.03 0.08 0.22 0.57 0.64 0.51 0.66 0.63 0.56 0.51 0.48 0.46 0.35 0.16 0.18 0.34 1.57 1.35 1.30 0.42 0.20
0.00 0.00 0.00 0.00 0.02 0.08 0.03 0.04 0.04 0.03 0.01 0.00 0.00 0.01 0.03 0.07 0.08 0.05 0.04 0.03 0.03 0.08 0.14 0.20 0.20 0.57 0.54 0.40 0.36 0.51 0.50 0.54 0.53 0.60 0.55 0.37 0.33 0.26 0.83 1.72 1.79 1.54 0.41
0.00 0.00 0.00 0.00 0.00 0.05 0.09 0.05 0.05 0.09 0.06 0.03 0.01 0.00 0.03 0.05 0.07 0.07 0.05 0.04 0.07 0.13 0.14 0.28 0.30 0.47 0.61 0.40 0.23 0.32 0.36 0.47 0.54 0.58 0.66 0.54 0.58 0.53 0.39 0.92 1.09 1.03 0.57
0.00 0.00 0.00 0.01 0.04 0.14 0.18 0.24 0.21 0.10 0.08 0.03 0.03 0.01 0.02 0.06 0.06 0.08 0.08 0.08 0.12 0.12 0.11 0.29 0.39 0.45 0.61 0.44 0.29 0.31 0.23 0.27 0.42 0.52 0.62 0.64 0.61 0.85 0.56 0.68 0.41 0.47 0.24
0.00 0.00 0.00 0.01 0.05 0.07 0.06 0.07 0.07 0.01 0.03 0.05 0.04 0.10 0.03 0.03 0.09 0.12 0.08 0.07 0.06 0.06 0.12 0.26 0.43 0.45 0.59 0.59 0.55 0.48 0.37 0.23 0.24 0.38 0.50 0.46 0.68 0.66 0.79 0.89 0.43 0.23 0.09
0.00 0.00 0.00 0.00 0.02 0.01 0.02 0.05 0.06 0.11 0.12 0.22 0.21 0.21 0.14 0.03 0.05 0.08 0.07 0.08 0.12 0.12 0.05 0.26 0.35 0.38 0.49 0.45 0.41 0.35 0.41 0.45 0.43 0.33 0.32 0.36 0.40 0.51 0.55 1.08 0.88 0.31 0.11
0.00 0.00 0.00 0.01 0.02 0.01 0.01 0.03 0.07 0.16 0.21 0.36 0.32 0.27 0.23 0.24 0.19 0.14 0.17 0.19 0.14 0.21 0.17 0.19 0.28 0.24 0.33 0.36 0.17 0.25 0.20 0.22 0.20 0.31 0.31 0.27 0.32 0.33 0.29 0.51 0.82 0.43 0.18
0.00 0.00 0.00 0.01 0.02 0.01 0.02 0.02 0.02 0.01 0.00 0.01 0.04 0.19 0.28 0.54 0.70 0.56 0.29 0.26 0.24 0.19 0.30 0.27 0.29 0.32 0.32 0.33 0.22 0.21 0.09 0.08 0.09 0.20 0.28 0.31 0.22 0.21 0.24 0.22 0.27 0.26 0.15
0.00 0.00 0.00 0.05 0.04 0.01 0.03 0.02 0.04 0.03 0.04 0.06 0.05 0.06 0.10 0.23 0.27 0.48 0.50 0.43 0.46 0.34 0.34 0.38 0.36 0.37 0.28 0.29 0.16 0.16 0.16 0.12 0.20 0.20 0.26 0.27 0.27 0.16 0.09 0.11 0.14 0.14 0.11
0.08 0.04 0.00 0.03 0.04 0.05 0.04 0.04 0.05 0.03 0.05 0.05 0.03 0.04 0.07 0.08 0.09 0.10 0.23 0.21 0.30 0.42 0.46 0.58 0.54 0.42 0.32 0.30 0.29 0.18 0.15 0.15 0.16 0.23 0.25 0.23 0.24 0.23 0.20 0.14 0.06 0.04 0.05

GFSSE_prec_precacc24_108.txt.gz
Total_Precipitation_Accumulation
0.00 0.00 0.00 0.00 0.00 0.00 0.00 0.00 0.00 0.00 0.00 0.00 0.00 0.00 0.00 0.00 0.00 0.00 0.00 0.00 0.02 0.08 0.04 0.00 0.00 0.00 0.00 0.06 0.10 0.04 0.04 0.05 0.06 0.18 0.28 0.19 0.05 0.00 0.01 0.02 0.05 0.05 0.13
0.00 0.00 0.00 0.00 0.00 0.00 0.00 0.00 0.00 0.00 0.00 0.00 0.00 0.00 0.00 0.00 0.00 0.00 0.00 0.00 0.02 0.06 0.02 0.00 0.00 0.00 0.05 0.04 0.05 0.01 0.00 0.01 0.03 0.15 0.18 0.06 0.07 0.01 0.01 0.07 0.33 0.09 0.13
0.00 0.00 0.00 0.00 0.00 0.00 0.00 0.00 0.00 0.00 0.00 0.00 0.00 0.00 0.00 0.00 0.00 0.00 0.00 0.00 0.01 0.02 0.01 0.00 0.01 0.00 0.03 0.02 0.03 0.01 0.00 0.02 0.03 0.07 0.08 0.04 0.03 0.05 0.02 0.08 0.09 0.17 0.10
0.00 0.00 0.00 0.00 0.00 0.00 0.00 0.00 0.00 0.00 0.00 0.00 0.00 0.00 0.00 0.00 0.00 0.00 0.00 0.02 0.01 0.01 0.02 0.00 0.02 0.07 0.06 0.03 0.03 0.00 0.01 0.01 0.03 0.04 0.02 0.18 0.04 0.12 0.04 0.04 0.10 0.11 0.11
0.00 0.00 0.00 0.00 0.00 0.00 0.00 0.00 0.00 0.00 0.00 0.00 0.00 0.00 0.00 0.02 0.02 0.03 0.02 0.08 0.04 0.05 0.09 0.04 0.05 0.12 0.08 0.03 0.01 0.01 0.01 0.01 0.02 0.06 0.17 0.57 0.50 0.18 0.10 0.12 0.17 0.19 0.21
0.00 0.00 0.00 0.00 0.00 0.00 0.00 0.00 0.00 0.00 0.00 0.00 0.00 0.00 0.01 0.02 0.03 0.04 0.04 0.12 0.04 0.05 0.28 0.27 0.21 0.23 0.07 0.04 0.00 0.01 0.00 0.00 0.00 0.04 0.23 0.35 0.67 0.32 0.14 0.08 0.06 0.10 0.16
0.00 0.00 0.00 0.00 0.00 0.00 0.00 0.00 0.00 0.00 0.00 0.00 0.00 0.00 0.00 0.02 0.03 0.04 0.07 0.21 0.32 0.64 0.77 0.76 0.75 0.26 0.07 0.01 0.00 0.00 0.00 0.00 0.00 0.02 0.22 0.57 0.76 0.44 0.10 0.11 0.12 0.12 0.18
0.00 0.00 0.00 0.00 0.00 0.00 0.00 0.00 0.00 0.00 0.00 0.00 0.00 0.00 0.00 0.02 0.06 0.09 0.14 0.37 0.67 0.78 0.68 0.77 0.69 0.27 0.18 0.12 0.06 0.06 0.01 0.00 0.02 0.11 0.26 0.42 0.52 0.58 0.24 0.08 0.14 0.14 0.08
0.00 0.00 0.00 0.00 0.00 0.00 0.00 0.00 0.00 0.00 0.00 0.00 0.00 0.01 0.01 0.05 0.04 0.02 0.03 0.11 0.65 1.46 1.04 0.83 0.71 0.42 0.33 0.34 0.27 0.33 0.13 0.05 0.04 0.10 0.30 0.60 0.78 0.45 0.32 0.08 0.09 0.11 0.10
0.00 0.00 0.00 0.00 0.00 0.00 0.00 0.00 0.00 0.00 0.00 0.00 0.00 0.00 0.00 0.00 0.00 0.00 0.03 0.15 0.34 0.88 1.11 1.20 1.09 1.12 0.78 0.63 0.49 0.39 0.31 0.37 0.34 0.26 0.28 0.28 0.45 0.53 0.34 0.13 0.13 0.14 0.18
0.00 0.00 0.00 0.01 0.00 0.00 0.00 0.00 0.00 0.00 0.00 0.00 0.00 0.00 0.00 0.00 0.00 0.00 0.13 0.11 0.16 0.20 0.72 1.12 1.18 1.35 1.28 0.78 0.87 0.66 0.64 0.50 0.47 0.40 0.37 0.57 0.55 0.73 0.63 0.52 0.29 0.33 0.22
0.00 0.00 0.00 0.01 0.02 0.01 0.00 0.00 0.00 0.00 0.00 0.00 0.00 0.00 0.00 0.00 0.00 0.00 0.16 0.06 0.11 0.09 0.30 1.06 1.18 0.94 0.93 0.67 0.81 0.63 0.47 0.43 0.52 0.39 0.40 0.85 0.70 0.74 1.03 0.93 0.63 0.38 0.44
0.01 0.00 0.00 0.00 0.01 0.02 0.01 0.01 0.00 0.00 0.00 0.00 0.00 0.00 0.01 0.00 0.00 0.00 0.04 0.01 0.02 0.06 0.06 0.29 0.87 0.52 0.33 0.38 0.63 0.51 0.36 0.33 0.41 0.32 0.45 0.88 0.89 0.74 0.96 0.94 0.73 0.70 0.70
0.01 0.00 0.01 0.01 0.02 0.03 0.05 0.01 0.00 0.02 0.01 0.00 0.00 0.00 0.00 0.00 0.00 0.00 0.00 0.00 0.01 0.02 0.02 0.04 0.21 0.30 0.21 0.30 0.50 0.61 0.44 0.32 0.25 0.33 0.46 0.56 1.07 0.74 0.75 0.65 0.54 0.81 0.70
0.02 0.00 0.00 0.04 0.05 0.07 0.15 0.13 0.06 0.03 0.04 0.00 0.03 0.00 0.00 0.00 0.00 0.00 0.00 0.00 0.00 0.01 0.01 0.03 0.06 0.11 0.25 0.33 0.47 0.54 0.49 0.34 0.36 0.37 0.36 0.42 0.74 1.11 0.68 0.91 0.61 0.55 0.59
0.00 0.00 0.01 0.01 0.03 0.05 0.05 0.11 0.10 0.09 0.08 0.02 0.01 0.01 0.00 0.00 0.01 0.00 0.01 0.01 0.00 0.00 0.01 0.02 0.04 0.08 0.29 0.44 0.65 0.62 0.59 0.46 0.41 0.43 0.27 0.23 0.31 0.84 1.22 0.80 1.09 0.56 0.40
0.00 0.00 0.01 0.00 0.06 0.05 0.02 0.03 0.05 0.06 0.06 0.04 0.01 0.00 0.00 0.01 0.01 0.00 0.01 0.01 0.01 0.01 0.01 0.02 0.04 0.14 0.31 0.37 0.64 0.64 0.58 0.53 0.50 0.48 0.40 0.20 0.19 0.34 1.59 1.42 1.45 0.66 0.62
0.00 0.00 0.00 0.00 0.02 0.08 0.03 0.04 0.04 0.04 0.02 0.01 0.00 0.00 0.00 0.01 0.01 0.01 0.01 0.01 0.02 0.07 0.10 0.07 0.03 0.07 0.21 0.28 0.36 0.51 0.50 0.56 0.55 0.61 0.57 0.40 0.34 0.26 0.85 1.78 1.92 1.96 1.00
0.00 0.00 0.00 0.00 0.00 0.05 0.09 0.05 0.05 0.09 0.06 0.03 0.00 0.00 0.02 0.01 0.01 0.01 0.01 0.02 0.05 0.13 0.09 0.07 0.07 0.09 0.37 0.31 0.23 0.32 0.37 0.49 0.57 0.60 0.68 0.57 0.59 0.53 0.41 0.96 1.14 1.48 1.63
0.00 0.00 0.00 0.01 0.03 0.14 0.18 0.24 0.21 0.09 0.08 0.03 0.02 0.01 0.02 0.07 0.02 0.04 0.04 0.07 0.11 0.11 0.08 0.04 0.08 0.20 0.46 0.41 0.30 0.32 0.24 0.29 0.45 0.54 0.63 0.65 0.61 0.85 0.57 0.71 0.42 0.51 0.64
0.00 0.00 0.00 0.01 0.04 0.07 0.06 0.07 0.07 0.01 0.03 0.05 0.04 0.09 0.03 0.09 0.07 0.06 0.04 0.04 0.05 0.06 0.10 0.08 0.16 0.26 0.41 0.57 0.56 0.49 0.37 0.24 0.25 0.38 0.50 0.47 0.68 0.66 0.80 0.91 0.44 0.27 0.23
0.00 0.00 0.00 0.00 0.02 0.01 0.02 0.05 0.06 0.11 0.12 0.22 0.20 0.20 0.13 0.07 0.16 0.11 0.09 0.10 0.13 0.10 0.04 0.07 0.15 0.27 0.38 0.42 0.42 0.35 0.41 0.44 0.43 0.35 0.33 0.36 0.40 0.51 0.55 1.10 1.05 0.41 0.23
0.00 0.00 0.00 0.01 0.02 0.01 0.01 0.03 0.07 0.16 0.21 0.36 0.31 0.25 0.23 0.24 0.21 0.14 0.09 0.14 0.31 0.52 0.46 0.15 0.12 0.16 0.28 0.33 0.17 0.25 0.20 0.21 0.20 0.31 0.32 0.28 0.32 0.33 0.29 0.53 1.12 0.77 0.45
0.00 0.00 0.00 0.01 0.01 0.01 0.02 0.02 0.02 0.01 0.00 0.01 0.04 0.18 0.27 0.52 0.69 0.57 0.32 0.29 0.30 0.28 0.35 0.39 0.24 0.24 0.27 0.31 0.21 0.21 0.09 0.08 0.09 0.19 0.28 0.31 0.22 0.21 0.24 0.24 0.53 0.91 0.69
0.00 0.00 0.00 0.05 0.04 0.01 0.03 0.02 0.04 0.03 0.04 0.06 0.04 0.05 0.09 0.23 0.27 0.48 0.51 0.40 0.39 0.31 0.28 0.37 0.33 0.28 0.24 0.26 0.16 0.16 0.16 0.13 0.20 0.20 0.26 0.28 0.28 0.16 0.09 0.12 0.20 0.44 0.69
0.08 0.04 0.00 0.02 0.02 0.05 0.04 0.04 0.05 0.03 0.05 0.05 0.02 0.03 0.07 0.10 0.16 0.17 0.29 0.19 0.20 0.34 0.36 0.52 0.66 0.48 0.36 0.32 0.29 0.17 0.14 0.15 0.16 0.23 0.25 0.22 0.24 0.23 0.20 0.14 0.06 0.11 0.25

GFSSE_prec_precacc24_111.txt.gz
Total_Precipitation_Accumulation
0.00 0.00 0.00 0.00 0.00 0.00 0.00 0.00 0.00 0.00 0.00 0.00 0.00 0.00 0.00 0.00 0.00 0.00 0.00 0.00 0.02 0.06 0.03 0.00 0.00 0.00 0.00 0.02 0.04 0.01 0.01 0.02 0.03 0.14 0.22 0.17 0.04 0.00 0.00 0.01 0.05 0.05 0.11
0.00 0.00 0.00 0.00 0.00 0.00 0.00 0.00 0.00 0.00 0.00 0.00 0.00 0.00 0.00 0.00 0.00 0.00 0.00 0.00 0.01 0.05 0.02 0.00 0.00 0.00 0.01 0.03 0.04 0.01 0.00 0.00 0.02 0.13 0.16 0.06 0.08 0.01 0.01 0.05 0.32 0.09 0.11
0.00 0.00 0.00 0.00 0.00 0.00 0.00 0.00 0.00 0.00 0.00 0.00 0.00 0.00 0.00 0.00 0.00 0.00 0.00 0.00 0.00 0.01 0.00 0.00 0.01 0.00 0.02 0.01 0.03 0.01 0.00 0.02 0.03 0.07 0.08 0.07 0.04 0.04 0.01 0.03 0.09 0.16 0.09
0.00 0.00 0.00 0.00 0.00 0.00 0.00 0.00 0.00 0.00 0.00 0.00 0.00 0.00 0.00 0.00 0.00 0.00 0.00 0.02 0.01 0.01 0.00 0.00 0.02 0.07 0.06 0.03 0.03 0.00 0.01 0.00 0.01 0.02 0.05 0.24 0.12 0.11 0.02 0.05 0.12 0.12 0.10
0.00 0.00 0.00 0.00 0.00 0.00 0.00 0.00 0.00 0.00 0.00 0.00 0.00 0.00 0.00 0.00 0.00 0.00 0.00 0.08 0.04 0.03 0.05 0.02 0.04 0.12 0.08 0.03 0.01 0.00 0.00 0.00 0.01 0.03 0.25 0.74 0.66 0.22 0.13 0.14 0.20 0.25 0.23
0.00 0.00 0.00 0.00 0.00 0.00 0.00 0.00 0.00 0.00 0.00 0.00 0.00 0.00 0.00 0.00 0.00 0.00 0.02 0.09 0.04 0.04 0.16 0.21 0.18 0.23 0.07 0.04 0.00 0.00 0.00 0.00 0.00 0.05 0.39 0.50 1.01 0.54 0.28 0.14 0.11 0.12 0.17
0.00 0.00 0.00 0.00 0.00 0.00 0.00 0.00 0.00 0.00 0.00 0.00 0.00 0.00 0.00 0.00 0.00 0.01 0.03 0.11 0.22 0.43 0.53 0.67 0.75 0.26 0.07 0.01 0.00 0.00 0.00 0.00 0.00 0.12 0.46 0.72 1.13 0.84 0.26 0.19 0.13 0.14 0.19
0.00 0.00 0.00 0.00 0.00 0.00 0.00 0.00 0.00 0.00 0.00 0.00 0.00 0.00 0.00 0.00 0.00 0.02 0.05 0.17 0.26 0.32 0.26 0.36 0.49 0.27 0.18 0.12 0.04 0.06 0.00 0.00 0.01 0.20 0.50 0.63 0.74 0.63 0.33 0.17 0.16 0.15 0.09
0.00 0.00 0.00 0.00 0.00 0.00 0.00 0.00 0.00 0.00 0.00 0.00 0.00 0.00 0.00 0.00 0.00 0.00 0.00 0.05 0.09 0.09 0.10 0.32 0.45 0.40 0.33 0.32 0.27 0.32 0.12 0.05 0.04 0.22 0.51 0.77 1.09 0.42 0.38 0.14 0.13 0.14 0.13
0.00 0.00 0.00 0.00 0.00 0.00 0.00 0.00 0.00 0.00 0.00 0.00 0.00 0.00 0.00 0.00 0.00 0.00 0.00 0.02 0.12 0.09 0.04 0.32 0.67 0.85 0.61 0.48 0.43 0.36 0.30 0.32 0.33 0.28 0.38 0.32 0.47 0.61 0.43 0.19 0.15 0.19 0.26
0.00 0.00 0.00 0.01 0.00 0.00 0.00 0.00 0.00 0.00 0.00 0.00 0.00 0.00 0.00 0.00 0.00 0.00 0.01 0.04 0.16 0.11 0.05 0.19 0.76 1.09 1.09 0.69 0.80 0.57 0.57 0.45 0.42 0.39 0.40 0.60 0.63 0.89 0.78 0.58 0.32 0.39 0.31
0.00 0.00 0.00 0.01 0.02 0.01 0.00 0.00 0.00 0.00 0.00 0.00 0.00 0.00 0.00 0.00 0.00 0.00 0.05 0.05 0.11 0.08 0.04 0.24 0.64 0.82 0.82 0.63 0.77 0.60 0.43 0.42 0.50 0.39 0.46 0.91 0.76 0.84 1.15 1.03 0.65 0.38 0.52
0.01 0.00 0.00 0.00 0.01 0.03 0.02 0.02 0.00 0.00 0.00 0.00 0.00 0.00 0.00 0.00 0.00 0.00 0.01 0.01 0.02 0.06 0.03 0.06 0.60 0.49 0.31 0.37 0.62 0.50 0.34 0.33 0.39 0.32 0.51 0.98 0.93 0.79 1.05 1.00 0.75 0.72 0.76
0.01 0.00 0.04 0.06 0.04 0.03 0.06 0.02 0.02 0.02 0.01 0.00 0.00 0.00 0.00 0.00 0.00 0.00 0.00 0.00 0.01 0.02 0.02 0.02 0.16 0.29 0.21 0.30 0.48 0.59 0.43 0.32 0.25 0.34 0.47 0.61 1.09 0.76 0.79 0.69 0.54 0.85 0.85
0.02 0.00 0.01 0.07 0.10 0.13 0.19 0.18 0.09 0.08 0.09 0.01 0.05 0.01 0.00 0.00 0.00 0.00 0.00 0.00 0.00 0.01 0.01 0.03 0.05 0.07 0.21 0.32 0.47 0.52 0.48 0.33 0.36 0.38 0.40 0.47 0.79 1.11 0.70 0.93 0.64 0.59 0.68
0.00 0.00 0.00 0.01 0.03 0.05 0.06 0.14 0.16 0.19 0.22 0.08 0.14 0.05 0.01 0.00 0.01 0.00 0.01 0.01 0.00 0.00 0.01 0.02 0.03 0.06 0.17 0.32 0.56 0.58 0.57 0.46 0.41 0.45 0.28 0.27 0.32 0.85 1.22 0.81 1.11 0.58 0.48
0.00 0.00 0.00 0.00 0.05 0.05 0.03 0.05 0.08 0.09 0.16 0.13 0.13 0.15 0.10 0.08 0.02 0.01 0.01 0.01 0.01 0.01 0.01 0.02 0.04 0.09 0.19 0.23 0.48 0.59 0.58 0.53 0.50 0.50 0.41 0.21 0.19 0.34 1.60 1.42 1.46 0.70 0.73
0.00 0.00 0.00 0.00 0.02 0.08 0.03 0.04 0.04 0.06 0.06 0.06 0.03 0.11 0.15 0.08 0.05 0.02 0.01 0.00 0.01 0.03 0.04 0.06 0.03 0.04 0.06 0.12 0.22 0.47 0.50 0.56 0.56 0.63 0.62 0.42 0.34 0.26 0.85 1.78 1.92 1.97 1.04
0.00 0.00 0.00 0.00 0.00 0.02 0.08 0.05 0.05 0.09 0.06 0.04 0.03 0.04 0.19 0.04 0.05 0.05 0.02 0.01 0.01 0.04 0.05 0.06 0.06 0.01 0.02 0.07 0.13 0.30 0.37 0.50 0.58 0.62 0.69 0.58 0.59 0.53 0.41 0.96 1.14 1.48 1.63
0.00 0.00 0.00 0.01 0.01 0.07 0.17 0.24 0.21 0.09 0.08 0.03 0.02 0.01 0.04 0.14 0.04 0.06 0.03 0.01 0.04 0.08 0.07 0.04 0.04 0.04 0.04 0.13 0.23 0.30 0.25 0.30 0.45 0.54 0.64 0.66 0.61 0.85 0.57 0.71 0.42 0.51 0.64
0.00 0.00 0.00 0.01 0.02 0.05 0.06 0.07 0.07 0.01 0.02 0.05 0.04 0.09 0.03 0.18 0.13 0.02 0.02 0.03 0.04 0.06 0.10 0.07 0.08 0.05 0.09 0.26 0.47 0.48 0.37 0.24 0.26 0.38 0.50 0.47 0.68 0.66 0.80 0.91 0.44 0.27 0.23
0.00 0.00 0.00 0.00 0.00 0.01 0.02 0.05 0.06 0.11 0.12 0.22 0.20 0.20 0.13 0.07 0.18 0.11 0.08 0.08 0.13 0.21 0.15 0.11 0.20 0.14 0.16 0.31 0.41 0.35 0.40 0.44 0.43 0.35 0.33 0.37 0.40 0.51 0.55 1.10 1.05 0.41 0.23
0.00 0.00 0.00 0.00 0.00 0.01 0.01 0.03 0.07 0.16 0.21 0.36 0.31 0.25 0.23 0.24 0.21 0.17 0.13 0.17 0.37 0.78 0.92 0.91 0.95 0.83 0.58 0.43 0.26 0.30 0.21 0.21 0.20 0.31 0.33 0.28 0.32 0.33 0.29 0.53 1.12 0.77 0.47
0.00 0.00 0.00 0.00 0.00 0.01 0.02 0.02 0.02 0.01 0.00 0.01 0.04 0.17 0.26 0.52 0.70 0.59 0.36 0.39 0.36 0.43 0.51 0.64 0.75 0.82 0.88 0.47 0.38 0.27 0.10 0.08 0.09 0.19 0.28 0.32 0.23 0.21 0.24 0.24 0.53 0.91 0.70
0.00 0.00 0.00 0.00 0.00 0.01 0.03 0.02 0.04 0.03 0.04 0.06 0.04 0.05 0.09 0.22 0.28 0.54 0.61 0.51 0.48 0.41 0.33 0.31 0.27 0.24 0.25 0.36 0.31 0.21 0.19 0.13 0.20 0.20 0.26 0.28 0.28 0.16 0.09 0.12 0.20 0.44 0.71
0.08 0.04 0.00 0.00 0.01 0.05 0.04 0.04 0.05 0.03 0.05 0.05 0.02 0.03 0.06 0.10 0.16 0.22 0.45 0.36 0.38 0.50 0.44 0.49 0.61 0.50 0.37 0.29 0.30 0.19 0.15 0.16 0.16 0.23 0.25 0.22 0.24 0.23 0.20 0.14 0.06 0.11 0.27

GFSSE_prec_precacc24_114.txt.gz
Total_Precipitation_Accumulation
0.00 0.00 0.00 0.00 0.00 0.00 0.00 0.00 0.00 0.00 0.00 0.00 0.00 0.00 0.00 0.00 0.00 0.00 0.00 0.00 0.01 0.04 0.03 0.00 0.00 0.00 0.00 0.01 0.01 0.00 0.01 0.03 0.03 0.09 0.21 0.18 0.09 0.03 0.01 0.01 0.05 0.05 0.11
0.00 0.00 0.00 0.00 0.00 0.00 0.00 0.00 0.00 0.00 0.00 0.00 0.00 0.00 0.00 0.00 0.00 0.00 0.00 0.00 0.01 0.03 0.02 0.00 0.00 0.00 0.00 0.02 0.02 0.01 0.00 0.01 0.01 0.13 0.17 0.11 0.11 0.01 0.01 0.05 0.33 0.09 0.10
0.00 0.00 0.00 0.00 0.00 0.00 0.00 0.00 0.00 0.00 0.00 0.00 0.00 0.00 0.00 0.00 0.00 0.00 0.00 0.00 0.00 0.01 0.00 0.00 0.01 0.00 0.02 0.01 0.03 0.01 0.00 0.02 0.03 0.07 0.09 0.06 0.07 0.03 0.01 0.06 0.10 0.16 0.10
0.00 0.00 0.00 0.00 0.00 0.00 0.00 0.00 0.00 0.00 0.00 0.00 0.00 0.00 0.00 0.00 0.00 0.00 0.00 0.02 0.01 0.01 0.00 0.00 0.02 0.07 0.05 0.03 0.03 0.00 0.00 0.00 0.02 0.02 0.07 0.20 0.13 0.11 0.02 0.10 0.15 0.13 0.10
0.00 0.00 0.00 0.00 0.00 0.00 0.00 0.00 0.00 0.00 0.00 0.00 0.00 0.00 0.00 0.00 0.00 0.00 0.00 0.03 0.02 0.02 0.02 0.01 0.04 0.12 0.07 0.03 0.01 0.00 0.00 0.00 0.01 0.04 0.29 0.78 0.67 0.21 0.12 0.14 0.20 0.27 0.25
0.00 0.00 0.00 0.00 0.00 0.00 0.00 0.00 0.00 0.00 0.00 0.00 0.00 0.00 0.00 0.00 0.00 0.00 0.01 0.05 0.02 0.03 0.08 0.11 0.13 0.19 0.07 0.04 0.00 0.00 0.00 0.00 0.00 0.08 0.39 0.52 1.06 0.50 0.29 0.16 0.12 0.11 0.21
0.00 0.00 0.00 0.00 0.00 0.00 0.00 0.00 0.00 0.00 0.00 0.00 0.00 0.00 0.00 0.00 0.00 0.00 0.01 0.07 0.11 0.23 0.27 0.35 0.40 0.14 0.07 0.01 0.00 0.00 0.00 0.00 0.00 0.13 0.46 0.74 1.16 0.84 0.32 0.19 0.12 0.15 0.24
0.00 0.00 0.00 0.00 0.00 0.00 0.00 0.00 0.00 0.00 0.00 0.00 0.00 0.00 0.00 0.00 0.00 0.00 0.01 0.10 0.14 0.14 0.11 0.08 0.06 0.02 0.09 0.11 0.04 0.06 0.00 0.00 0.03 0.21 0.51 0.67 0.74 0.53 0.25 0.17 0.18 0.18 0.11
0.00 0.00 0.00 0.00 0.00 0.00 0.00 0.00 0.00 0.00 0.00 0.00 0.00 0.00 0.00 0.00 0.00 0.00 0.00 0.05 0.08 0.05 0.05 0.05 0.07 0.03 0.08 0.25 0.27 0.32 0.11 0.05 0.07 0.23 0.51 0.79 1.04 0.36 0.34 0.16 0.15 0.19 0.18
0.00 0.00 0.00 0.00 0.00 0.00 0.00 0.00 0.00 0.00 0.00 0.00 0.00 0.00 0.00 0.00 0.00 0.00 0.00 0.01 0.06 0.05 0.02 0.09 0.11 0.15 0.19 0.30 0.41 0.34 0.29 0.27 0.24 0.26 0.38 0.33 0.46 0.60 0.46 0.23 0.20 0.23 0.30
0.00 0.00 0.00 0.01 0.00 0.00 0.00 0.00 0.00 0.00 0.00 0.00 0.00 0.00 0.00 0.00 0.00 0.00 0.00 0.00 0.07 0.04 0.05 0.12 0.12 0.15 0.54 0.40 0.63 0.51 0.49 0.37 0.34 0.38 0.37 0.55 0.62 0.89 0.79 0.61 0.38 0.47 0.37
0.00 0.00 0.00 0.01 0.02 0.01 0.00 0.00 0.00 0.00 0.00 0.00 0.00 0.00 0.00 0.00 0.00 0.00 0.00 0.01 0.05 0.06 0.04 0.23 0.17 0.10 0.46 0.39 0.54 0.52 0.38 0.37 0.46 0.38 0.44 0.80 0.73 0.85 1.20 1.05 0.70 0.42 0.60
0.01 0.00 0.01 0.03 0.02 0.03 0.02 0.02 0.00 0.00 0.00 0.00 0.00 0.00 0.00 0.00 0.00 0.00 0.00 0.01 0.02 0.05 0.03 0.04 0.08 0.09 0.15 0.22 0.47 0.45 0.32 0.32 0.38 0.30 0.50 0.89 0.92 0.81 1.11 1.08 0.82 0.82 0.85
0.01 0.02 0.07 0.11 0.07 0.03 0.06 0.02 0.02 0.02 0.01 0.00 0.00 0.00 0.00 0.00 0.00 0.00 0.00 0.00 0.01 0.02 0.01 0.02 0.06 0.05 0.08 0.16 0.38 0.54 0.43 0.32 0.24 0.33 0.47 0.62 1.10 0.78 0.82 0.72 0.57 0.90 0.91
0.02 0.01 0.04 0.09 0.12 0.14 0.20 0.19 0.14 0.10 0.09 0.01 0.05 0.01 0.00 0.00 0.00 0.00 0.00 0.00 0.00 0.01 0.01 0.03 0.04 0.04 0.11 0.21 0.38 0.49 0.48 0.33 0.36 0.37 0.40 0.52 0.85 1.15 0.75 0.97 0.66 0.63 0.70
0.00 0.00 0.00 0.01 0.02 0.05 0.07 0.16 0.20 0.27 0.32 0.15 0.18 0.10 0.02 0.00 0.01 0.00 0.01 0.01 0.00 0.00 0.01 0.02 0.03 0.06 0.10 0.23 0.42 0.53 0.57 0.46 0.41 0.45 0.28 0.29 0.35 0.86 1.23 0.83 1.14 0.60 0.49
0.00 0.00 0.00 0.00 0.03 0.03 0.02 0.05 0.12 0.15 0.23 0.20 0.22 0.34 0.30 0.17 0.06 0.03 0.01 0.01 0.01 0.01 0.01 0.02 0.03 0.07 0.07 0.12 0.30 0.46 0.55 0.53 0.50 0.50 0.41 0.21 0.19 0.34 1.60 1.42 1.47 0.72 0.76
0.00 0.00 0.00 0.00 0.02 0.04 0.03 0.04 0.04 0.07 0.09 0.14 0.13 0.24 0.29 0.26 0.27 0.37 0.24 0.08 0.04 0.03 0.02 0.02 0.02 0.03 0.04 0.09 0.13 0.30 0.47 0.55 0.56 0.63 0.62 0.42 0.34 0.26 0.85 1.78 1.93 1.98 1.06
0.00 0.00 0.00 0.00 0.00 0.01 0.04 0.05 0.05 0.09 0.06 0.05 0.04 0.10 0.31 0.18 0.22 0.26 0.27 0.28 0.22 0.14 0.04 0.01 0.01 0.02 0.02 0.04 0.07 0.10 0.32 0.49 0.58 0.62 0.69 0.58 0.59 0.53 0.41 0.96 1.14 1.48 1.64
0.00 0.00 0.00 0.00 0.00 0.01 0.08 0.12 0.12 0.09 0.08 0.03 0.02 0.01 0.05 0.16 0.07 0.14 0.13 0.10 0.31 0.36 0.24 0.15 0.06 0.03 0.02 0.05 0.08 0.08 0.18 0.30 0.45 0.55 0.64 0.66 0.61 0.85 0.57 0.71 0.42 0.51 0.65
0.00 0.00 0.00 0.00 0.00 0.00 0.03 0.03 0.04 0.01 0.02 0.04 0.04 0.09 0.03 0.18 0.13 0.02 0.03 0.05 0.13 0.16 0.12 0.25 0.36 0.25 0.16 0.12 0.17 0.21 0.30 0.24 0.26 0.39 0.51 0.47 0.68 0.66 0.80 0.91 0.44 0.27 0.23
0.00 0.00 0.00 0.00 0.00 0.00 0.00 0.02 0.06 0.09 0.11 0.22 0.20 0.20 0.13 0.07 0.17 0.10 0.08 0.08 0.12 0.24 0.34 0.33 0.59 0.63 0.42 0.34 0.31 0.27 0.38 0.44 0.43 0.35 0.34 0.37 0.41 0.51 0.55 1.10 1.05 0.41 0.23
0.00 0.00 0.00 0.00 0.00 0.00 0.00 0.01 0.05 0.15 0.20 0.36 0.31 0.25 0.23 0.24 0.21 0.16 0.12 0.18 0.37 0.77 0.94 1.06 1.18 1.19 0.94 0.83 0.70 0.72 0.47 0.29 0.24 0.31 0.33 0.28 0.33 0.33 0.29 0.53 1.12 0.77 0.47
0.00 0.00 0.00 0.00 0.00 0.00 0.00 0.01 0.02 0.01 0.00 0.01 0.04 0.17 0.26 0.52 0.69 0.58 0.36 0.40 0.37 0.44 0.53 0.69 0.86 1.02 1.18 1.22 1.36 1.41 0.95 0.36 0.17 0.21 0.29 0.32 0.23 0.21 0.24 0.24 0.53 0.91 0.70
0.00 0.00 0.00 0.00 0.00 0.00 0.00 0.01 0.03 0.03 0.04 0.06 0.04 0.05 0.09 0.22 0.28 0.53 0.60 0.51 0.48 0.43 0.34 0.34 0.27 0.24 0.23 0.33 0.29 0.32 0.46 0.31 0.27 0.22 0.26 0.28 0.28 0.16 0.09 0.12 0.20 0.44 0.71
0.00 0.00 0.00 0.00 0.00 0.00 0.01 0.03 0.04 0.03 0.05 0.05 0.02 0.03 0.06 0.09 0.15 0.22 0.44 0.36 0.38 0.49 0.46 0.55 0.61 0.46 0.31 0.23 0.24 0.16 0.15 0.15 0.17 0.23 0.26 0.23 0.24 0.23 0.20 0.14 0.06 0.11 0.27

GFSSE_prec_precacc24_117.txt.gz
Total_Precipitation_Accumulation
0.00 0.00 0.00 0.00 0.00 0.00 0.00 0.00 0.00 0.00 0.00 0.00 0.00 0.00 0.00 0.00 0.00 0.00 0.00 0.00 0.00 0.01 0.01 0.00 0.00 0.00 0.00 0.00 0.00 0.00 0.01 0.03 0.02 0.04 0.17 0.17 0.08 0.02 0.00 0.01 0.04 0.05 0.10
0.00 0.00 0.00 0.00 0.00 0.00 0.00 0.00 0.00 0.00 0.00 0.00 0.00 0.00 0.00 0.00 0.00 0.00 0.00 0.00 0.00 0.02 0.01 0.00 0.00 0.00 0.00 0.02 0.02 0.01 0.00 0.01 0.01 0.11 0.17 0.11 0.09 0.01 0.01 0.05 0.33 0.09 0.10
0.00 0.00 0.00 0.00 0.00 0.00 0.00 0.00 0.00 0.00 0.00 0.00 0.00 0.00 0.00 0.00 0.00 0.00 0.00 0.00 0.00 0.01 0.00 0.00 0.00 0.00 0.02 0.01 0.03 0.01 0.00 0.00 0.01 0.07 0.09 0.06 0.06 0.04 0.01 0.05 0.10 0.16 0.10
0.00 0.00 0.00 0.00 0.00 0.00 0.00 0.00 0.00 0.00 0.00 0.00 0.00 0.00 0.00 0.00 0.00 0.00 0.00 0.00 0.00 0.01 0.00 0.00 0.01 0.05 0.02 0.00 0.01 0.00 0.00 0.00 0.02 0.02 0.07 0.17 0.13 0.14 0.04 0.10 0.16 0.13 0.11
0.00 0.00 0.00 0.00 0.00 0.00 0.00 0.00 0.00 0.00 0.00 0.00 0.00 0.00 0.00 0.00 0.00 0.00 0.00 0.00 0.01 0.01 0.01 0.01 0.02 0.05 0.01 0.00 0.00 0.00 0.00 0.00 0.01 0.04 0.29 0.72 0.62 0.32 0.30 0.22 0.22 0.26 0.27
0.00 0.00 0.00 0.00 0.00 0.00 0.00 0.00 0.00 0.00 0.00 0.00 0.00 0.00 0.00 0.00 0.00 0.00 0.00 0.02 0.01 0.01 0.03 0.04 0.04 0.06 0.01 0.00 0.00 0.00 0.00 0.00 0.00 0.08 0.39 0.49 1.01 0.55 0.38 0.24 0.18 0.12 0.24
0.00 0.00 0.00 0.00 0.00 0.00 0.00 0.00 0.00 0.00 0.00 0.00 0.00 0.00 0.00 0.00 0.00 0.00 0.00 0.03 0.04 0.09 0.10 0.13 0.13 0.03 0.01 0.00 0.00 0.00 0.00 0.00 0.00 0.13 0.43 0.69 1.12 0.86 0.43 0.27 0.14 0.16 0.26
0.00 0.00 0.00 0.00 0.00 0.00 0.00 0.00 0.00 0.00 0.00 0.00 0.00 0.00 0.00 0.00 0.00 0.00 0.00 0.07 0.08 0.08 0.07 0.03 0.03 0.00 0.00 0.02 0.02 0.03 0.00 0.00 0.03 0.16 0.47 0.63 0.70 0.47 0.24 0.26 0.24 0.19 0.11
0.00 0.00 0.00 0.00 0.00 0.00 0.00 0.00 0.00 0.00 0.00 0.00 0.00 0.00 0.00 0.00 0.00 0.00 0.00 0.05 0.08 0.05 0.05 0.05 0.07 0.02 0.02 0.06 0.14 0.13 0.09 0.05 0.07 0.20 0.44 0.78 1.01 0.34 0.33 0.19 0.22 0.21 0.18
0.00 0.00 0.00 0.00 0.00 0.00 0.00 0.00 0.00 0.00 0.00 0.00 0.00 0.00 0.00 0.00 0.00 0.00 0.00 0.01 0.06 0.05 0.02 0.09 0.10 0.07 0.11 0.12 0.15 0.10 0.17 0.25 0.22 0.23 0.35 0.33 0.46 0.57 0.45 0.23 0.21 0.23 0.31
0.00 0.00 0.00 0.01 0.00 0.00 0.00 0.00 0.00 0.00 0.00 0.00 0.00 0.00 0.00 0.00 0.00 0.00 0.00 0.00 0.06 0.04 0.04 0.12 0.11 0.06 0.03 0.12 0.19 0.13 0.28 0.29 0.29 0.25 0.37 0.51 0.61 0.87 0.78 0.61 0.38 0.47 0.38
0.00 0.00 0.00 0.01 0.02 0.01 0.00 0.00 0.00 0.00 0.00 0.00 0.00 0.00 0.00 0.00 0.00 0.00 0.00 0.00 0.02 0.01 0.02 0.16 0.12 0.09 0.20 0.10 0.08 0.10 0.15 0.23 0.41 0.33 0.42 0.67 0.66 0.83 1.20 1.08 0.71 0.43 0.59
0.01 0.00 0.01 0.03 0.02 0.03 0.02 0.02 0.00 0.00 0.00 0.00 0.00 0.00 0.00 0.00 0.00 0.00 0.00 0.01 0.01 0.01 0.02 0.04 0.07 0.08 0.07 0.06 0.13 0.06 0.14 0.23 0.35 0.26 0.46 0.75 0.76 0.75 1.11 1.09 0.82 0.81 0.84
0.01 0.02 0.07 0.11 0.08 0.05 0.06 0.02 0.02 0.02 0.01 0.00 0.00 0.00 0.00 0.01 0.00 0.00 0.00 0.00 0.01 0.01 0.01 0.02 0.06 0.05 0.05 0.06 0.12 0.18 0.24 0.25 0.22 0.31 0.45 0.56 0.91 0.74 0.78 0.76 0.61 0.92 0.93
0.00 0.01 0.05 0.09 0.13 0.16 0.22 0.20 0.16 0.10 0.09 0.01 0.05 0.01 0.00 0.00 0.00 0.00 0.00 0.00 0.00 0.01 0.01 0.03 0.04 0.04 0.06 0.08 0.13 0.20 0.30 0.27 0.32 0.35 0.38 0.50 0.74 1.10 0.75 0.98 0.69 0.69 0.74
0.00 0.00 0.00 0.01 0.02 0.05 0.07 0.16 0.22 0.30 0.36 0.18 0.21 0.12 0.03 0.00 0.00 0.00 0.01 0.00 0.00 0.00 0.01 0.02 0.03 0.06 0.09 0.11 0.15 0.31 0.44 0.38 0.38 0.41 0.28 0.29 0.34 0.84 1.23 0.84 1.15 0.63 0.51
0.00 0.00 0.00 0.00 0.03 0.02 0.02 0.04 0.12 0.18 0.28 0.27 0.31 0.44 0.40 0.21 0.07 0.04 0.01 0.01 0.03 0.03 0.04 0.03 0.03 0.07 0.07 0.07 0.08 0.28 0.47 0.48 0.47 0.44 0.39 0.21 0.19 0.34 1.60 1.42 1.47 0.74 0.78
0.00 0.00 0.00 0.00 0.01 0.03 0.02 0.03 0.04 0.07 0.11 0.20 0.23 0.39 0.47 0.40 0.35 0.50 0.37 0.20 0.15 0.26 0.22 0.10 0.06 0.04 0.03 0.05 0.06 0.17 0.38 0.51 0.53 0.57 0.59 0.42 0.34 0.26 0.85 1.78 1.93 1.99 1.09
0.00 0.00 0.00 0.00 0.00 0.00 0.02 0.04 0.04 0.08 0.07 0.05 0.06 0.15 0.41 0.35 0.44 0.43 0.44 0.54 0.50 0.44 0.34 0.22 0.15 0.09 0.04 0.04 0.04 0.06 0.27 0.45 0.54 0.59 0.67 0.58 0.59 0.53 0.41 0.96 1.14 1.48 1.65
0.00 0.00 0.00 0.00 0.00 0.00 0.04 0.07 0.04 0.07 0.07 0.03 0.02 0.01 0.05 0.17 0.10 0.17 0.21 0.33 0.61 0.68 0.61 0.55 0.31 0.20 0.16 0.15 0.12 0.07 0.14 0.29 0.43 0.51 0.63 0.66 0.61 0.85 0.57 0.71 0.42 0.51 0.66
0.00 0.00 0.00 0.00 0.00 0.00 0.01 0.01 0.02 0.01 0.01 0.02 0.03 0.09 0.03 0.18 0.13 0.02 0.03 0.09 0.23 0.26 0.23 0.41 0.63 0.56 0.51 0.45 0.36 0.32 0.26 0.25 0.35 0.45 0.56 0.52 0.70 0.66 0.80 0.91 0.44 0.27 0.22
0.00 0.00 0.00 0.00 0.00 0.00 0.00 0.00 0.00 0.00 0.01 0.14 0.18 0.20 0.13 0.07 0.17 0.10 0.07 0.07 0.11 0.24 0.35 0.34 0.64 0.71 0.54 0.58 0.74 0.56 0.40 0.31 0.42 0.54 0.55 0.51 0.46 0.53 0.56 1.10 1.05 0.41 0.23
0.00 0.00 0.00 0.00 0.00 0.00 0.00 0.00 0.01 0.06 0.14 0.24 0.29 0.25 0.23 0.24 0.21 0.16 0.11 0.16 0.36 0.76 0.93 1.04 1.16 1.25 0.97 0.88 0.83 0.89 0.77 0.69 0.73 0.80 0.83 0.61 0.42 0.36 0.31 0.54 1.12 0.77 0.47
0.00 0.00 0.00 0.00 0.00 0.00 0.00 0.00 0.00 0.00 0.00 0.01 0.04 0.17 0.26 0.52 0.69 0.58 0.35 0.38 0.35 0.43 0.50 0.65 0.82 0.99 1.21 1.23 1.36 1.38 1.17 0.98 0.71 0.55 0.65 0.72 0.37 0.24 0.24 0.25 0.53 0.91 0.70
0.01 0.00 0.00 0.00 0.00 0.00 0.00 0.00 0.00 0.00 0.00 0.00 0.01 0.05 0.09 0.22 0.28 0.53 0.59 0.50 0.47 0.42 0.33 0.32 0.24 0.22 0.23 0.34 0.30 0.27 0.38 0.33 0.27 0.23 0.22 0.28 0.31 0.17 0.09 0.12 0.20 0.44 0.71
0.01 0.00 0.00 0.00 0.00 0.00 0.00 0.00 0.01 0.01 0.00 0.01 0.00 0.03 0.06 0.09 0.15 0.22 0.44 0.36 0.37 0.49 0.45 0.53 0.59 0.45 0.30 0.22 0.20 0.16 0.12 0.09 0.07 0.14 0.20 0.22 0.25 0.23 0.20 0.14 0.06 0.11 0.27

GFSSE_prec_precacc24_120.txt.gz
Total_Precipitation_Accumulation
0.00 0.00 0.00 0.00 0.00 0.00 0.00 0.00 0.00 0.00 0.00 0.00 0.00 0.00 0.00 0.00 0.00 0.00 0.00 0.00 0.00 0.00 0.00 0.00 0.00 0.00 0.00 0.00 0.00 0.00 0.01 0.03 0.02 0.02 0.08 0.14 0.08 0.03 0.01 0.03 0.04 0.05 0.06
0.00 0.00 0.00 0.00 0.00 0.00 0.00 0.00 0.00 0.00 0.00 0.00 0.00 0.00 0.00 0.00 0.00 0.00 0.00 0.00 0.00 0.00 0.01 0.00 0.00 0.00 0.00 0.01 0.00 0.00 0.00 0.01 0.00 0.01 0.07 0.10 0.09 0.01 0.01 0.05 0.33 0.08 0.06
0.00 0.00 0.00 0.00 0.00 0.00 0.00 0.00 0.00 0.00 0.00 0.00 0.00 0.00 0.00 0.00 0.00 0.00 0.00 0.00 0.00 0.00 0.00 0.00 0.00 0.00 0.01 0.00 0.00 0.00 0.00 0.00 0.00 0.04 0.07 0.06 0.06 0.04 0.01 0.05 0.10 0.16 0.08
0.00 0.00 0.00 0.00 0.00 0.00 0.00 0.00 0.00 0.00 0.00 0.00 0.00 0.00 0.00 0.00 0.00 0.00 0.00 0.00 0.00 0.01 0.00 0.00 0.00 0.02 0.00 0.00 0.00 0.00 0.00 0.00 0.02 0.02 0.07 0.17 0.13 0.18 0.04 0.10 0.16 0.12 0.11
0.00 0.00 0.00 0.00 0.00 0.00 0.00 0.00 0.00 0.00 0.00 0.00 0.00 0.00 0.00 0.00 0.00 0.00 0.00 0.00 0.01 0.01 0.01 0.01 0.01 0.02 0.00 0.00 0.00 0.00 0.00 0.00 0.01 0.04 0.29 0.72 0.64 0.43 0.40 0.27 0.20 0.25 0.27
0.00 0.00 0.00 0.00 0.00 0.00 0.00 0.00 0.00 0.00 0.00 0.00 0.00 0.00 0.00 0.00 0.00 0.00 0.00 0.01 0.01 0.01 0.01 0.03 0.02 0.03 0.01 0.00 0.00 0.00 0.00 0.00 0.00 0.08 0.39 0.48 0.98 0.54 0.38 0.28 0.22 0.15 0.24
0.00 0.00 0.00 0.00 0.00 0.00 0.00 0.00 0.00 0.00 0.00 0.00 0.00 0.00 0.00 0.00 0.00 0.00 0.00 0.03 0.04 0.05 0.04 0.04 0.03 0.02 0.01 0.00 0.00 0.00 0.00 0.00 0.00 0.13 0.42 0.66 1.07 0.82 0.52 0.31 0.20 0.20 0.31
0.00 0.00 0.00 0.00 0.00 0.00 0.00 0.00 0.00 0.00 0.00 0.00 0.00 0.00 0.00 0.00 0.00 0.00 0.00 0.07 0.08 0.07 0.06 0.03 0.03 0.00 0.00 0.00 0.01 0.02 0.00 0.00 0.03 0.16 0.44 0.54 0.56 0.39 0.29 0.42 0.34 0.24 0.13
0.00 0.00 0.00 0.00 0.00 0.00 0.00 0.00 0.00 0.00 0.00 0.00 0.00 0.00 0.00 0.00 0.00 0.00 0.00 0.04 0.07 0.05 0.05 0.05 0.07 0.02 0.00 0.00 0.03 0.05 0.01 0.00 0.04 0.19 0.38 0.65 0.88 0.31 0.35 0.26 0.27 0.29 0.20
0.00 0.00 0.00 0.00 0.00 0.00 0.00 0.00 0.00 0.00 0.00 0.00 0.00 0.00 0.00 0.00 0.00 0.00 0.00 0.01 0.06 0.05 0.02 0.09 0.10 0.05 0.00 0.00 0.00 0.02 0.07 0.09 0.07 0.12 0.26 0.22 0.37 0.52 0.43 0.26 0.24 0.29 0.37
0.00 0.00 0.00 0.01 0.00 0.00 0.00 0.00 0.00 0.00 0.00 0.00 0.00 0.00 0.00 0.00 0.00 0.00 0.00 0.00 0.06 0.04 0.04 0.11 0.11 0.06 0.02 0.09 0.12 0.08 0.15 0.09 0.12 0.11 0.28 0.38 0.54 0.78 0.75 0.60 0.39 0.48 0.47
0.00 0.00 0.00 0.01 0.02 0.01 0.00 0.00 0.00 0.00 0.00 0.00 0.00 0.00 0.00 0.00 0.00 0.00 0.00 0.00 0.02 0.01 0.02 0.11 0.09 0.08 0.19 0.10 0.07 0.06 0.04 0.04 0.18 0.19 0.28 0.45 0.61 0.76 1.16 1.07 0.73 0.51 0.67
0.01 0.00 0.01 0.03 0.02 0.03 0.02 0.02 0.00 0.00 0.00 0.00 0.00 0.00 0.00 0.00 0.00 0.00 0.00 0.01 0.01 0.00 0.02 0.04 0.07 0.08 0.07 0.06 0.12 0.02 0.03 0.08 0.13 0.07 0.32 0.58 0.61 0.64 1.07 1.08 0.82 0.81 0.85
0.00 0.02 0.07 0.11 0.08 0.05 0.06 0.02 0.02 0.02 0.01 0.00 0.00 0.01 0.01 0.02 0.02 0.01 0.01 0.00 0.01 0.01 0.01 0.02 0.06 0.05 0.05 0.06 0.11 0.14 0.12 0.09 0.04 0.08 0.28 0.45 0.62 0.60 0.73 0.78 0.62 0.89 0.94
0.00 0.01 0.05 0.09 0.13 0.16 0.22 0.20 0.16 0.10 0.09 0.01 0.05 0.01 0.02 0.03 0.05 0.05 0.01 0.02 0.02 0.01 0.01 0.03 0.04 0.04 0.06 0.08 0.10 0.09 0.09 0.06 0.13 0.20 0.26 0.36 0.57 0.79 0.69 0.98 0.68 0.68 0.74
0.00 0.00 0.00 0.00 0.02 0.04 0.07 0.16 0.22 0.30 0.36 0.19 0.21 0.12 0.04 0.03 0.03 0.03 0.02 0.02 0.03 0.02 0.09 0.03 0.03 0.06 0.09 0.10 0.09 0.07 0.09 0.11 0.18 0.22 0.24 0.26 0.31 0.63 1.07 0.80 1.14 0.63 0.51
0.00 0.00 0.00 0.00 0.01 0.01 0.01 0.04 0.11 0.18 0.29 0.29 0.36 0.48 0.43 0.26 0.10 0.05 0.02 0.01 0.03 0.08 0.22 0.10 0.09 0.10 0.08 0.08 0.05 0.05 0.07 0.17 0.28 0.26 0.31 0.20 0.19 0.32 1.52 1.39 1.45 0.72 0.78
0.00 0.00 0.00 0.00 0.00 0.00 0.00 0.01 0.02 0.06 0.11 0.21 0.25 0.42 0.53 0.49 0.43 0.55 0.40 0.21 0.15 0.39 0.45 0.20 0.16 0.16 0.10 0.09 0.07 0.06 0.09 0.22 0.35 0.42 0.45 0.36 0.31 0.26 0.85 1.77 1.92 1.98 1.08
0.00 0.00 0.00 0.00 0.00 0.00 0.00 0.00 0.01 0.05 0.03 0.03 0.05 0.15 0.41 0.36 0.49 0.51 0.53 0.63 0.64 0.70 0.63 0.55 0.40 0.27 0.14 0.13 0.15 0.12 0.13 0.23 0.37 0.49 0.54 0.45 0.55 0.52 0.41 0.96 1.14 1.48 1.65
0.00 0.00 0.00 0.00 0.00 0.00 0.00 0.01 0.01 0.02 0.02 0.00 0.00 0.01 0.05 0.17 0.10 0.17 0.22 0.37 0.70 0.84 0.86 0.95 0.71 0.47 0.34 0.33 0.32 0.23 0.21 0.29 0.38 0.51 0.63 0.67 0.65 0.91 0.60 0.73 0.42 0.51 0.66
0.00 0.00 0.00 0.00 0.00 0.00 0.00 0.00 0.00 0.00 0.01 0.01 0.01 0.05 0.02 0.18 0.13 0.02 0.03 0.09 0.23 0.28 0.31 0.63 0.91 0.85 0.70 0.73 0.81 0.61 0.38 0.33 0.43 0.50 0.63 0.69 0.88 0.82 0.91 0.97 0.46 0.27 0.22
0.00 0.00 0.00 0.00 0.00 0.00 0.00 0.00 0.00 0.00 0.00 0.07 0.05 0.03 0.05 0.06 0.17 0.10 0.07 0.07 0.11 0.23 0.35 0.34 0.65 0.76 0.70 0.85 1.04 0.83 0.53 0.42 0.40 0.47 0.60 0.67 0.65 0.70 0.67 1.18 1.08 0.42 0.23
0.00 0.00 0.00 0.00 0.00 0.00 0.00 0.00 0.00 0.02 0.05 0.08 0.02 0.01 0.08 0.19 0.20 0.16 0.11 0.16 0.36 0.76 0.92 1.03 1.14 1.22 0.97 0.91 0.98 1.07 0.86 0.72 0.71 0.64 0.68 0.62 0.65 0.59 0.42 0.62 1.15 0.78 0.47
0.01 0.00 0.00 0.00 0.00 0.00 0.00 0.00 0.00 0.00 0.00 0.00 0.00 0.02 0.09 0.42 0.66 0.57 0.35 0.37 0.35 0.43 0.50 0.64 0.79 0.94 1.15 1.20 1.34 1.42 1.22 0.99 0.69 0.48 0.50 0.59 0.53 0.39 0.30 0.26 0.54 0.91 0.70
0.01 0.01 0.01 0.02 0.03 0.01 0.00 0.00 0.00 0.00 0.00 0.00 0.00 0.02 0.04 0.20 0.25 0.51 0.58 0.49 0.47 0.42 0.33 0.30 0.21 0.18 0.19 0.29 0.28 0.26 0.38 0.33 0.26 0.19 0.11 0.12 0.21 0.15 0.08 0.12 0.20 0.44 0.71
0.01 0.00 0.00 0.00 0.01 0.01 0.01 0.00 0.01 0.01 0.00 0.01 0.00 0.01 0.05 0.09 0.14 0.21 0.43 0.35 0.37 0.48 0.44 0.52 0.56 0.41 0.27 0.19 0.17 0.15 0.12 0.08 0.05 0.05 0.05 0.05 0.11 0.14 0.18 0.14 0.06 0.11 0.27

GFSSE_prec_precacc24_123.txt.gz
Total_Precipitation_Accumulation
0.00 0.00 0.00 0.00 0.00 0.00 0.00 0.00 0.00 0.00 0.00 0.00 0.00 0.00 0.00 0.00 0.00 0.00 0.00 0.00 0.00 0.00 0.00 0.00 0.00 0.00 0.00 0.00 0.00 0.00 0.01 0.03 0.02 0.02 0.05 0.11 0.08 0.03 0.01 0.04 0.04 0.05 0.05
0.00 0.00 0.00 0.00 0.00 0.00 0.00 0.00 0.00 0.00 0.00 0.00 0.00 0.00 0.00 0.00 0.00 0.00 0.00 0.00 0.00 0.00 0.00 0.00 0.00 0.00 0.00 0.00 0.00 0.00 0.00 0.01 0.00 0.00 0.06 0.10 0.10 0.01 0.01 0.05 0.33 0.08 0.04
0.00 0.00 0.00 0.00 0.00 0.00 0.00 0.00 0.00 0.00 0.00 0.00 0.00 0.00 0.00 0.00 0.00 0.00 0.00 0.00 0.00 0.00 0.00 0.00 0.00 0.00 0.00 0.00 0.00 0.00 0.00 0.00 0.00 0.00 0.06 0.06 0.07 0.04 0.00 0.04 0.09 0.15 0.07
0.00 0.00 0.00 0.00 0.00 0.00 0.00 0.00 0.00 0.00 0.00 0.00 0.00 0.00 0.00 0.00 0.00 0.00 0.00 0.00 0.00 0.01 0.00 0.00 0.00 0.01 0.00 0.00 0.00 0.00 0.00 0.00 0.01 0.00 0.07 0.17 0.13 0.17 0.04 0.10 0.16 0.12 0.08
0.00 0.00 0.00 0.00 0.00 0.00 0.00 0.00 0.00 0.00 0.00 0.00 0.00 0.00 0.00 0.00 0.00 0.00 0.00 0.00 0.01 0.01 0.01 0.01 0.01 0.01 0.00 0.00 0.00 0.00 0.00 0.00 0.01 0.04 0.29 0.72 0.63 0.43 0.39 0.26 0.19 0.24 0.25
0.00 0.00 0.00 0.00 0.00 0.00 0.00 0.00 0.00 0.00 0.00 0.00 0.00 0.00 0.00 0.00 0.00 0.00 0.00 0.00 0.01 0.01 0.01 0.03 0.02 0.03 0.01 0.00 0.00 0.00 0.00 0.00 0.00 0.08 0.39 0.48 0.98 0.54 0.41 0.34 0.26 0.16 0.23
0.00 0.00 0.00 0.00 0.00 0.00 0.00 0.00 0.00 0.00 0.00 0.00 0.00 0.00 0.00 0.00 0.00 0.00 0.00 0.01 0.03 0.04 0.03 0.03 0.03 0.02 0.01 0.00 0.00 0.00 0.00 0.00 0.00 0.13 0.42 0.66 1.07 0.78 0.55 0.35 0.25 0.23 0.33
0.00 0.00 0.00 0.00 0.00 0.00 0.00 0.00 0.00 0.00 0.00 0.00 0.00 0.00 0.00 0.00 0.00 0.00 0.00 0.03 0.05 0.05 0.04 0.02 0.03 0.00 0.00 0.00 0.00 0.00 0.00 0.00 0.03 0.16 0.44 0.54 0.54 0.34 0.27 0.42 0.33 0.26 0.17
0.00 0.00 0.00 0.00 0.00 0.00 0.00 0.00 0.00 0.00 0.00 0.00 0.00 0.00 0.00 0.00 0.00 0.00 0.00 0.01 0.05 0.05 0.05 0.05 0.07 0.02 0.00 0.00 0.00 0.00 0.00 0.00 0.04 0.18 0.35 0.62 0.75 0.21 0.29 0.25 0.26 0.28 0.27
0.00 0.00 0.00 0.00 0.00 0.00 0.00 0.00 0.00 0.00 0.00 0.00 0.00 0.00 0.00 0.00 0.00 0.00 0.00 0.00 0.02 0.03 0.02 0.08 0.09 0.05 0.00 0.00 0.00 0.00 0.03 0.05 0.02 0.09 0.23 0.19 0.21 0.27 0.34 0.26 0.21 0.26 0.39
0.00 0.00 0.00 0.01 0.00 0.00 0.00 0.00 0.00 0.00 0.00 0.00 0.00 0.00 0.00 0.00 0.00 0.00 0.00 0.00 0.02 0.02 0.03 0.06 0.10 0.06 0.01 0.05 0.12 0.08 0.12 0.03 0.02 0.06 0.23 0.29 0.35 0.52 0.64 0.57 0.36 0.45 0.46
0.00 0.00 0.00 0.01 0.02 0.01 0.00 0.00 0.00 0.00 0.00 0.00 0.00 0.00 0.00 0.00 0.00 0.00 0.00 0.00 0.00 0.00 0.01 0.03 0.07 0.07 0.15 0.09 0.07 0.06 0.03 0.04 0.17 0.15 0.18 0.29 0.39 0.55 1.03 1.02 0.70 0.49 0.68
0.00 0.00 0.01 0.03 0.02 0.03 0.02 0.02 0.00 0.00 0.00 0.00 0.00 0.00 0.00 0.01 0.01 0.00 0.00 0.01 0.01 0.00 0.01 0.01 0.03 0.06 0.05 0.06 0.12 0.02 0.03 0.08 0.11 0.04 0.20 0.45 0.31 0.48 0.94 0.99 0.79 0.81 0.87
0.00 0.01 0.06 0.11 0.08 0.04 0.06 0.03 0.03 0.02 0.00 0.00 0.00 0.01 0.02 0.03 0.04 0.05 0.03 0.01 0.01 0.01 0.01 0.02 0.01 0.04 0.04 0.06 0.11 0.14 0.12 0.09 0.02 0.05 0.14 0.23 0.30 0.39 0.65 0.75 0.62 0.86 0.94
0.00 0.01 0.04 0.07 0.12 0.17 0.25 0.22 0.17 0.11 0.09 0.01 0.05 0.02 0.03 0.04 0.08 0.09 0.05 0.04 0.05 0.01 0.01 0.02 0.02 0.03 0.06 0.08 0.10 0.09 0.09 0.06 0.10 0.15 0.12 0.11 0.27 0.38 0.56 0.98 0.74 0.70 0.71
0.00 0.00 0.00 0.00 0.02 0.06 0.10 0.20 0.26 0.32 0.37 0.20 0.21 0.13 0.05 0.05 0.08 0.06 0.04 0.04 0.06 0.06 0.13 0.05 0.02 0.05 0.09 0.10 0.09 0.07 0.09 0.09 0.10 0.11 0.09 0.08 0.10 0.32 0.71 0.70 1.19 0.71 0.53
0.00 0.00 0.00 0.00 0.02 0.03 0.03 0.06 0.14 0.20 0.30 0.31 0.38 0.51 0.45 0.32 0.16 0.13 0.11 0.05 0.05 0.11 0.28 0.12 0.10 0.12 0.08 0.08 0.04 0.05 0.06 0.07 0.06 0.07 0.11 0.07 0.08 0.20 1.30 1.08 1.41 0.78 0.84
0.00 0.00 0.00 0.00 0.00 0.00 0.01 0.02 0.03 0.08 0.13 0.23 0.27 0.45 0.55 0.53 0.49 0.63 0.49 0.33 0.20 0.43 0.49 0.21 0.17 0.20 0.14 0.10 0.07 0.06 0.08 0.14 0.11 0.11 0.20 0.17 0.22 0.22 0.80 1.66 1.83 1.97 1.09
0.00 0.00 0.00 0.00 0.00 0.00 0.00 0.00 0.01 0.02 0.02 0.04 0.06 0.16 0.41 0.36 0.49 0.52 0.56 0.69 0.73 0.77 0.70 0.65 0.58 0.32 0.21 0.13 0.15 0.11 0.12 0.19 0.17 0.19 0.23 0.26 0.40 0.45 0.37 0.94 1.11 1.48 1.65
0.00 0.00 0.00 0.00 0.00 0.00 0.00 0.00 0.00 0.00 0.01 0.00 0.00 0.01 0.05 0.17 0.09 0.17 0.22 0.37 0.71 0.88 0.96 1.10 1.02 0.70 0.57 0.52 0.52 0.39 0.31 0.31 0.24 0.24 0.32 0.50 0.54 0.80 0.58 0.72 0.42 0.51 0.66
0.00 0.00 0.00 0.00 0.00 0.00 0.00 0.00 0.00 0.00 0.00 0.00 0.00 0.00 0.01 0.18 0.13 0.02 0.03 0.09 0.23 0.27 0.31 0.65 0.94 0.93 0.87 1.17 1.71 1.65 1.02 0.60 0.45 0.32 0.44 0.60 0.81 0.80 0.95 0.98 0.47 0.28 0.22
0.00 0.00 0.00 0.00 0.00 0.00 0.00 0.00 0.00 0.00 0.00 0.00 0.01 0.00 0.00 0.05 0.17 0.10 0.07 0.07 0.11 0.23 0.35 0.34 0.65 0.76 0.71 0.89 1.14 1.14 0.94 0.54 0.36 0.36 0.45 0.56 0.61 0.69 0.67 1.20 1.09 0.42 0.23
0.00 0.00 0.00 0.00 0.00 0.00 0.00 0.00 0.00 0.00 0.01 0.01 0.02 0.01 0.01 0.04 0.09 0.10 0.09 0.16 0.35 0.75 0.92 1.03 1.13 1.21 0.97 0.91 0.99 1.11 0.90 0.73 0.69 0.62 0.61 0.53 0.52 0.52 0.40 0.62 1.15 0.78 0.47
0.01 0.00 0.00 0.00 0.00 0.00 0.00 0.00 0.00 0.00 0.00 0.00 0.00 0.00 0.01 0.05 0.12 0.13 0.15 0.29 0.32 0.43 0.50 0.64 0.78 0.93 1.12 1.18 1.31 1.42 1.23 1.00 0.69 0.48 0.49 0.54 0.42 0.30 0.27 0.26 0.54 0.91 0.70
0.01 0.01 0.01 0.02 0.03 0.04 0.04 0.02 0.02 0.01 0.00 0.00 0.00 0.01 0.01 0.02 0.05 0.10 0.17 0.31 0.40 0.41 0.33 0.30 0.21 0.17 0.16 0.26 0.24 0.24 0.38 0.34 0.27 0.20 0.11 0.09 0.10 0.06 0.04 0.10 0.19 0.44 0.71
0.02 0.01 0.00 0.01 0.01 0.02 0.03 0.05 0.04 0.03 0.01 0.01 0.00 0.01 0.05 0.08 0.11 0.17 0.39 0.31 0.33 0.47 0.44 0.52 0.56 0.41 0.26 0.16 0.13 0.09 0.09 0.07 0.05 0.05 0.05 0.03 0.03 0.03 0.06 0.06 0.04 0.11 0.27

GFSSE_prec_precacc24_126.txt.gz
Total_Precipitation_Accumulation
0.00 0.00 0.00 0.00 0.00 0.00 0.00 0.00 0.00 0.00 0.00 0.00 0.00 0.00 0.00 0.00 0.00 0.00 0.00 0.00 0.00 0.00 0.00 0.00 0.00 0.00 0.00 0.00 0.00 0.00 0.01 0.03 0.02 0.01 0.03 0.08 0.08 0.03 0.01 0.04 0.03 0.03 0.03
0.00 0.00 0.00 0.00 0.00 0.00 0.00 0.00 0.00 0.00 0.00 0.00 0.00 0.00 0.00 0.00 0.00 0.00 0.00 0.00 0.00 0.00 0.00 0.00 0.00 0.00 0.00 0.00 0.00 0.00 0.00 0.01 0.00 0.00 0.04 0.10 0.09 0.01 0.00 0.05 0.32 0.08 0.03
0.00 0.00 0.00 0.00 0.00 0.00 0.00 0.00 0.00 0.00 0.00 0.00 0.00 0.00 0.00 0.00 0.00 0.00 0.00 0.00 0.00 0.00 0.00 0.00 0.00 0.00 0.00 0.00 0.00 0.00 0.00 0.00 0.00 0.00 0.04 0.07 0.07 0.04 0.00 0.04 0.09 0.14 0.05
0.00 0.00 0.00 0.00 0.00 0.00 0.00 0.00 0.00 0.00 0.00 0.00 0.00 0.00 0.00 0.00 0.00 0.00 0.00 0.00 0.00 0.00 0.00 0.00 0.00 0.00 0.00 0.00 0.00 0.00 0.00 0.00 0.01 0.00 0.07 0.17 0.13 0.17 0.04 0.10 0.16 0.11 0.06
0.00 0.00 0.00 0.00 0.00 0.00 0.00 0.00 0.00 0.00 0.00 0.00 0.00 0.00 0.00 0.00 0.00 0.00 0.00 0.00 0.01 0.00 0.01 0.01 0.01 0.01 0.00 0.00 0.00 0.00 0.00 0.00 0.01 0.04 0.28 0.72 0.63 0.43 0.39 0.25 0.19 0.22 0.23
0.00 0.00 0.00 0.00 0.00 0.00 0.00 0.00 0.00 0.00 0.00 0.00 0.00 0.00 0.00 0.00 0.00 0.00 0.00 0.00 0.01 0.01 0.01 0.03 0.01 0.02 0.01 0.00 0.00 0.00 0.00 0.00 0.00 0.07 0.39 0.48 0.98 0.54 0.41 0.31 0.25 0.15 0.17
0.00 0.00 0.00 0.00 0.00 0.00 0.00 0.00 0.00 0.00 0.00 0.00 0.00 0.00 0.00 0.00 0.00 0.00 0.00 0.00 0.02 0.04 0.02 0.03 0.03 0.01 0.01 0.00 0.00 0.00 0.00 0.00 0.00 0.13 0.42 0.66 1.05 0.77 0.55 0.32 0.21 0.19 0.31
0.00 0.00 0.00 0.00 0.00 0.00 0.00 0.00 0.00 0.00 0.00 0.00 0.00 0.00 0.00 0.00 0.00 0.00 0.00 0.01 0.02 0.03 0.03 0.02 0.03 0.00 0.00 0.00 0.00 0.00 0.00 0.00 0.02 0.16 0.43 0.53 0.53 0.32 0.24 0.40 0.28 0.23 0.16
0.00 0.00 0.00 0.00 0.00 0.00 0.00 0.00 0.00 0.00 0.00 0.00 0.00 0.00 0.00 0.00 0.00 0.00 0.00 0.00 0.02 0.02 0.03 0.04 0.04 0.01 0.00 0.00 0.00 0.00 0.00 0.00 0.04 0.16 0.34 0.61 0.74 0.18 0.21 0.22 0.23 0.28 0.27
0.00 0.00 0.00 0.00 0.00 0.00 0.00 0.00 0.00 0.00 0.00 0.00 0.00 0.00 0.00 0.00 0.00 0.00 0.00 0.00 0.01 0.01 0.02 0.04 0.05 0.03 0.00 0.00 0.00 0.00 0.03 0.05 0.01 0.07 0.22 0.18 0.18 0.17 0.22 0.22 0.17 0.26 0.41
0.00 0.00 0.00 0.01 0.00 0.00 0.00 0.00 0.00 0.00 0.00 0.00 0.00 0.00 0.00 0.00 0.00 0.00 0.00 0.00 0.02 0.01 0.02 0.04 0.05 0.03 0.01 0.00 0.02 0.03 0.10 0.02 0.01 0.03 0.18 0.18 0.26 0.33 0.36 0.46 0.31 0.43 0.45
0.00 0.00 0.00 0.01 0.02 0.01 0.00 0.00 0.00 0.00 0.00 0.00 0.00 0.00 0.00 0.00 0.00 0.00 0.00 0.00 0.00 0.00 0.00 0.02 0.03 0.03 0.05 0.02 0.03 0.01 0.02 0.01 0.12 0.13 0.17 0.21 0.28 0.29 0.54 0.74 0.62 0.45 0.65
0.00 0.00 0.01 0.03 0.02 0.03 0.02 0.02 0.00 0.00 0.00 0.00 0.00 0.00 0.00 0.01 0.01 0.00 0.01 0.01 0.00 0.00 0.00 0.00 0.03 0.07 0.05 0.02 0.07 0.02 0.00 0.05 0.09 0.03 0.14 0.33 0.15 0.21 0.52 0.71 0.69 0.78 0.85
0.00 0.01 0.06 0.11 0.08 0.04 0.06 0.03 0.03 0.02 0.00 0.00 0.00 0.01 0.03 0.05 0.06 0.07 0.04 0.01 0.01 0.02 0.02 0.04 0.06 0.05 0.06 0.06 0.06 0.09 0.08 0.08 0.02 0.05 0.12 0.19 0.14 0.15 0.34 0.51 0.58 0.89 1.00
0.00 0.01 0.04 0.07 0.13 0.18 0.25 0.23 0.18 0.11 0.10 0.01 0.05 0.02 0.04 0.05 0.11 0.12 0.06 0.05 0.07 0.04 0.02 0.03 0.06 0.10 0.10 0.10 0.10 0.09 0.08 0.06 0.09 0.14 0.12 0.11 0.17 0.11 0.27 0.81 0.72 0.72 0.77
0.00 0.00 0.00 0.00 0.02 0.06 0.11 0.22 0.29 0.35 0.38 0.20 0.23 0.14 0.06 0.06 0.08 0.08 0.08 0.06 0.08 0.10 0.21 0.11 0.04 0.08 0.12 0.10 0.08 0.08 0.09 0.08 0.10 0.11 0.08 0.08 0.05 0.04 0.17 0.54 1.12 0.69 0.55
0.00 0.00 0.00 0.00 0.02 0.03 0.04 0.06 0.15 0.21 0.31 0.32 0.41 0.56 0.49 0.34 0.18 0.16 0.12 0.06 0.07 0.15 0.32 0.16 0.14 0.18 0.12 0.11 0.05 0.05 0.06 0.08 0.09 0.07 0.09 0.05 0.02 0.02 0.10 0.51 1.11 0.72 0.79
0.00 0.00 0.00 0.00 0.00 0.00 0.01 0.02 0.03 0.08 0.13 0.24 0.29 0.47 0.57 0.54 0.50 0.64 0.51 0.36 0.25 0.51 0.57 0.31 0.23 0.25 0.19 0.12 0.09 0.09 0.09 0.12 0.10 0.10 0.12 0.09 0.02 0.05 0.11 0.82 1.52 1.74 0.99
0.00 0.00 0.00 0.00 0.00 0.00 0.00 0.00 0.01 0.01 0.02 0.04 0.06 0.16 0.41 0.37 0.50 0.52 0.57 0.70 0.75 0.81 0.72 0.67 0.66 0.43 0.28 0.15 0.18 0.14 0.12 0.17 0.16 0.18 0.11 0.10 0.05 0.04 0.18 0.78 1.04 1.36 1.59
0.00 0.00 0.00 0.00 0.00 0.00 0.00 0.00 0.00 0.00 0.00 0.00 0.00 0.01 0.05 0.17 0.09 0.17 0.22 0.37 0.71 0.88 0.96 1.11 1.03 0.75 0.64 0.67 0.78 0.64 0.55 0.49 0.39 0.33 0.22 0.20 0.14 0.16 0.34 0.61 0.39 0.47 0.63
0.00 0.00 0.00 0.00 0.00 0.00 0.00 0.00 0.00 0.00 0.00 0.00 0.00 0.00 0.01 0.18 0.13 0.02 0.03 0.09 0.23 0.27 0.31 0.65 0.94 0.94 0.88 1.22 1.90 1.86 1.30 0.99 1.04 1.15 0.99 0.48 0.29 0.42 0.78 0.81 0.40 0.23 0.20
0.00 0.00 0.00 0.00 0.00 0.00 0.00 0.00 0.00 0.00 0.00 0.00 0.00 0.00 0.00 0.05 0.16 0.10 0.07 0.07 0.11 0.23 0.34 0.33 0.64 0.76 0.71 0.91 1.20 1.27 1.21 0.81 0.51 0.38 0.44 0.43 0.36 0.47 0.58 1.10 1.01 0.36 0.20
0.00 0.00 0.00 0.00 0.00 0.00 0.00 0.00 0.00 0.00 0.00 0.00 0.00 0.00 0.00 0.02 0.05 0.08 0.08 0.15 0.35 0.75 0.92 1.02 1.13 1.21 0.97 0.92 1.02 1.13 0.91 0.74 0.69 0.60 0.57 0.45 0.38 0.38 0.29 0.51 1.11 0.76 0.45
0.01 0.00 0.00 0.00 0.00 0.00 0.00 0.00 0.00 0.00 0.00 0.00 0.00 0.00 0.00 0.02 0.08 0.08 0.09 0.18 0.23 0.39 0.48 0.63 0.78 0.92 1.11 1.18 1.32 1.44 1.25 1.01 0.71 0.47 0.46 0.49 0.37 0.23 0.18 0.15 0.45 0.88 0.70
0.01 0.01 0.01 0.02 0.03 0.04 0.04 0.02 0.01 0.01 0.00 0.00 0.00 0.00 0.01 0.01 0.04 0.09 0.13 0.13 0.26 0.33 0.27 0.24 0.20 0.16 0.16 0.26 0.24 0.24 0.40 0.38 0.30 0.24 0.12 0.07 0.07 0.03 0.02 0.07 0.16 0.42 0.70
0.02 0.01 0.00 0.01 0.01 0.02 0.04 0.05 0.04 0.03 0.02 0.01 0.00 0.00 0.03 0.06 0.09 0.16 0.36 0.25 0.28 0.43 0.39 0.46 0.55 0.40 0.25 0.16 0.12 0.08 0.07 0.07 0.06 0.08 0.06 0.03 0.01 0.01 0.03 0.03 0.01 0.10 0.27

GFSSE_prec_precacc24_132.txt.gz
Total_Precipitation_Accumulation
0.00 0.00 0.00 0.00 0.00 0.00 0.00 0.00 0.00 0.00 0.00 0.00 0.00 0.00 0.00 0.00 0.00 0.00 0.00 0.00 0.00 0.00 0.00 0.00 0.00 0.00 0.00 0.00 0.00 0.00 0.01 0.03 0.02 0.01 0.03 0.08 0.08 0.03 0.01 0.03 0.01 0.00 0.01
0.00 0.00 0.00 0.00 0.00 0.00 0.00 0.00 0.00 0.00 0.00 0.00 0.00 0.00 0.00 0.00 0.00 0.00 0.00 0.00 0.00 0.00 0.00 0.00 0.00 0.00 0.00 0.00 0.00 0.00 0.00 0.01 0.00 0.00 0.03 0.10 0.09 0.01 0.00 0.00 0.02 0.01 0.01
0.00 0.00 0.00 0.00 0.00 0.00 0.00 0.00 0.00 0.00 0.00 0.00 0.00 0.00 0.00 0.00 0.00 0.00 0.00 0.00 0.00 0.00 0.00 0.00 0.00 0.00 0.00 0.00 0.00 0.00 0.00 0.00 0.00 0.00 0.03 0.07 0.07 0.03 0.00 0.02 0.02 0.02 0.02
0.00 0.00 0.00 0.00 0.00 0.00 0.00 0.00 0.00 0.00 0.00 0.00 0.00 0.00 0.00 0.00 0.00 0.00 0.00 0.00 0.00 0.00 0.00 0.00 0.00 0.00 0.00 0.00 0.00 0.00 0.00 0.00 0.01 0.00 0.10 0.30 0.20 0.17 0.04 0.10 0.11 0.05 0.03
0.00 0.00 0.00 0.00 0.00 0.00 0.00 0.00 0.00 0.00 0.00 0.00 0.00 0.00 0.00 0.00 0.00 0.00 0.00 0.00 0.00 0.00 0.00 0.00 0.00 0.00 0.00 0.00 0.00 0.00 0.00 0.00 0.01 0.04 0.25 0.33 0.29 0.40 0.39 0.23 0.16 0.15 0.12
0.00 0.00 0.00 0.00 0.00 0.00 0.00 0.00 0.00 0.00 0.00 0.00 0.00 0.00 0.00 0.00 0.00 0.00 0.00 0.00 0.00 0.00 0.00 0.00 0.00 0.00 0.00 0.00 0.00 0.00 0.00 0.00 0.00 0.07 0.33 0.24 0.43 0.47 0.40 0.30 0.23 0.11 0.12
0.00 0.00 0.00 0.00 0.00 0.00 0.00 0.00 0.00 0.00 0.00 0.00 0.00 0.00 0.00 0.00 0.00 0.00 0.00 0.00 0.00 0.00 0.00 0.00 0.01 0.00 0.00 0.00 0.00 0.00 0.00 0.00 0.00 0.16 0.30 0.27 0.47 0.64 0.54 0.29 0.17 0.15 0.19
0.00 0.00 0.00 0.00 0.00 0.00 0.00 0.00 0.00 0.00 0.00 0.00 0.00 0.00 0.00 0.00 0.00 0.00 0.00 0.00 0.00 0.00 0.00 0.00 0.00 0.00 0.00 0.00 0.00 0.00 0.00 0.00 0.02 0.14 0.26 0.26 0.31 0.19 0.22 0.39 0.24 0.15 0.11
0.00 0.00 0.00 0.00 0.00 0.00 0.00 0.00 0.00 0.00 0.00 0.00 0.00 0.00 0.00 0.00 0.00 0.00 0.00 0.00 0.00 0.00 0.01 0.00 0.00 0.00 0.00 0.00 0.00 0.00 0.00 0.00 0.04 0.16 0.22 0.20 0.40 0.06 0.16 0.23 0.21 0.21 0.20
0.00 0.00 0.00 0.00 0.00 0.00 0.00 0.00 0.00 0.00 0.00 0.00 0.00 0.00 0.00 0.00 0.00 0.00 0.00 0.00 0.00 0.02 0.05 0.04 0.02 0.00 0.00 0.00 0.00 0.00 0.00 0.00 0.01 0.07 0.15 0.06 0.03 0.09 0.16 0.17 0.12 0.18 0.27
0.00 0.00 0.00 0.00 0.00 0.00 0.00 0.00 0.00 0.00 0.00 0.00 0.00 0.00 0.00 0.00 0.00 0.00 0.00 0.00 0.01 0.05 0.06 0.04 0.05 0.04 0.00 0.00 0.00 0.00 0.00 0.00 0.01 0.01 0.08 0.04 0.08 0.16 0.16 0.11 0.13 0.18 0.28
0.00 0.00 0.00 0.00 0.00 0.00 0.00 0.00 0.01 0.00 0.00 0.00 0.00 0.00 0.00 0.00 0.01 0.00 0.02 0.00 0.02 0.02 0.05 0.06 0.06 0.04 0.01 0.00 0.00 0.00 0.00 0.00 0.00 0.00 0.06 0.07 0.06 0.12 0.17 0.16 0.15 0.15 0.28
0.00 0.00 0.01 0.03 0.01 0.01 0.01 0.01 0.01 0.01 0.01 0.01 0.01 0.01 0.04 0.06 0.09 0.09 0.18 0.14 0.05 0.02 0.01 0.02 0.04 0.07 0.04 0.00 0.00 0.00 0.00 0.00 0.00 0.00 0.07 0.12 0.04 0.09 0.17 0.16 0.13 0.16 0.22
0.00 0.01 0.06 0.10 0.06 0.02 0.00 0.02 0.03 0.01 0.01 0.03 0.16 0.24 0.16 0.14 0.16 0.19 0.16 0.18 0.22 0.32 0.21 0.26 0.17 0.13 0.10 0.06 0.02 0.00 0.01 0.00 0.01 0.01 0.02 0.09 0.05 0.06 0.11 0.18 0.16 0.20 0.35
0.00 0.01 0.04 0.04 0.08 0.11 0.10 0.11 0.17 0.16 0.18 0.18 0.26 0.26 0.20 0.19 0.26 0.30 0.23 0.23 0.32 0.35 0.31 0.33 0.29 0.23 0.18 0.17 0.11 0.04 0.02 0.03 0.04 0.01 0.04 0.10 0.12 0.04 0.10 0.15 0.26 0.27 0.26
0.00 0.00 0.00 0.00 0.02 0.06 0.08 0.12 0.21 0.33 0.38 0.29 0.31 0.21 0.12 0.14 0.18 0.19 0.22 0.22 0.22 0.31 0.54 0.49 0.44 0.47 0.33 0.21 0.09 0.09 0.09 0.07 0.06 0.03 0.02 0.09 0.07 0.02 0.02 0.09 0.21 0.21 0.25
0.00 0.00 0.00 0.00 0.02 0.03 0.04 0.05 0.12 0.17 0.27 0.30 0.43 0.59 0.53 0.38 0.21 0.18 0.19 0.17 0.21 0.34 0.57 0.53 0.71 0.74 0.62 0.48 0.31 0.24 0.19 0.18 0.12 0.14 0.06 0.03 0.04 0.03 0.03 0.01 0.08 0.20 0.29
0.00 0.00 0.00 0.00 0.00 0.00 0.01 0.02 0.04 0.08 0.14 0.25 0.30 0.47 0.57 0.55 0.51 0.65 0.52 0.38 0.27 0.52 0.59 0.38 0.43 0.67 0.66 0.55 0.49 0.63 0.55 0.60 0.51 0.35 0.27 0.09 0.07 0.06 0.10 0.06 0.03 0.06 0.16
0.00 0.00 0.00 0.00 0.00 0.00 0.00 0.00 0.01 0.01 0.02 0.04 0.06 0.16 0.40 0.37 0.50 0.53 0.57 0.70 0.76 0.81 0.72 0.67 0.68 0.51 0.45 0.42 0.52 0.69 0.94 1.18 1.26 0.89 0.46 0.38 0.31 0.31 0.27 0.20 0.11 0.07 0.06
0.00 0.00 0.00 0.00 0.00 0.00 0.00 0.00 0.00 0.00 0.00 0.00 0.00 0.01 0.04 0.12 0.09 0.17 0.22 0.37 0.71 0.88 0.95 1.11 1.03 0.75 0.68 0.75 0.93 0.85 0.88 1.00 1.03 1.14 0.86 0.99 0.94 0.72 0.51 0.32 0.19 0.12 0.09
0.00 0.00 0.00 0.00 0.00 0.00 0.00 0.00 0.00 0.00 0.00 0.00 0.00 0.00 0.00 0.10 0.10 0.01 0.02 0.08 0.22 0.27 0.30 0.64 0.94 0.93 0.88 1.24 1.95 1.92 1.48 1.45 1.80 2.03 2.47 2.47 2.61 2.24 1.54 0.76 0.26 0.10 0.06
0.00 0.00 0.00 0.00 0.00 0.00 0.00 0.00 0.00 0.00 0.00 0.00 0.00 0.00 0.00 0.00 0.03 0.02 0.01 0.02 0.05 0.19 0.33 0.32 0.64 0.75 0.69 0.90 1.22 1.30 1.27 0.89 0.62 0.51 0.55 0.54 0.40 0.32 0.21 0.12 0.06 0.03 0.06
0.00 0.00 0.00 0.00 0.00 0.00 0.00 0.00 0.00 0.00 0.00 0.00 0.00 0.00 0.00 0.00 0.00 0.03 0.05 0.06 0.09 0.32 0.57 0.96 1.12 1.20 0.96 0.90 1.02 1.15 0.96 0.76 0.70 0.63 0.59 0.45 0.38 0.28 0.15 0.09 0.04 0.02 0.05
0.01 0.00 0.00 0.00 0.00 0.00 0.00 0.00 0.00 0.00 0.00 0.00 0.00 0.00 0.00 0.00 0.01 0.02 0.04 0.11 0.08 0.20 0.28 0.43 0.69 0.90 1.11 1.18 1.31 1.43 1.25 1.02 0.74 0.51 0.49 0.52 0.37 0.20 0.08 0.02 0.01 0.00 0.01
0.01 0.01 0.01 0.02 0.03 0.04 0.04 0.02 0.01 0.01 0.00 0.00 0.00 0.00 0.00 0.00 0.02 0.06 0.10 0.11 0.10 0.15 0.11 0.10 0.12 0.14 0.14 0.25 0.24 0.24 0.39 0.36 0.28 0.25 0.15 0.07 0.10 0.07 0.05 0.03 0.01 0.01 0.03
0.02 0.01 0.00 0.01 0.01 0.02 0.04 0.05 0.04 0.03 0.02 0.01 0.00 0.00 0.00 0.00 0.00 0.06 0.16 0.17 0.19 0.18 0.14 0.11 0.13 0.18 0.14 0.10 0.10 0.09 0.07 0.07 0.05 0.07 0.08 0.04 0.03 0.02 0.04 0.06 0.08 0.03 0.04

GFSSE_prec_precacc24_135.txt.gz
Total_Precipitation_Accumulation
0.00 0.00 0.00 0.00 0.00 0.00 0.00 0.00 0.00 0.00 0.00 0.00 0.00 0.00 0.00 0.00 0.00 0.00 0.00 0.00 0.00 0.00 0.00 0.00 0.00 0.00 0.00 0.00 0.00 0.00 0.01 0.02 0.01 0.00 0.02 0.03 0.06 0.03 0.01 0.03 0.01 0.00 0.01
0.01 0.00 0.00 0.00 0.00 0.00 0.00 0.00 0.00 0.00 0.00 0.00 0.00 0.00 0.00 0.00 0.00 0.00 0.00 0.00 0.00 0.00 0.00 0.00 0.00 0.00 0.00 0.00 0.00 0.00 0.00 0.01 0.00 0.00 0.03 0.08 0.08 0.01 0.00 0.00 0.02 0.00 0.01
0.00 0.00 0.00 0.00 0.00 0.00 0.00 0.00 0.00 0.00 0.00 0.00 0.00 0.00 0.00 0.00 0.00 0.00 0.00 0.00 0.00 0.00 0.00 0.00 0.00 0.00 0.00 0.00 0.00 0.00 0.00 0.00 0.00 0.00 0.04 0.06 0.07 0.04 0.00 0.02 0.02 0.02 0.02
0.00 0.00 0.00 0.00 0.00 0.00 0.00 0.00 0.00 0.00 0.00 0.00 0.00 0.00 0.00 0.00 0.00 0.00 0.00 0.00 0.00 0.00 0.00 0.00 0.00 0.00 0.00 0.00 0.00 0.00 0.00 0.00 0.00 0.02 0.11 0.34 0.19 0.13 0.03 0.06 0.06 0.02 0.03
0.00 0.00 0.00 0.00 0.00 0.00 0.00 0.00 0.00 0.00 0.00 0.00 0.00 0.00 0.00 0.00 0.00 0.00 0.00 0.00 0.00 0.00 0.00 0.00 0.00 0.00 0.00 0.00 0.00 0.00 0.00 0.00 0.00 0.01 0.19 0.29 0.20 0.32 0.32 0.19 0.09 0.07 0.09
0.00 0.00 0.00 0.00 0.00 0.00 0.00 0.00 0.00 0.00 0.00 0.00 0.00 0.00 0.00 0.00 0.00 0.00 0.00 0.00 0.00 0.00 0.00 0.00 0.00 0.00 0.00 0.00 0.00 0.00 0.00 0.00 0.00 0.03 0.18 0.15 0.14 0.19 0.24 0.23 0.19 0.09 0.10
0.00 0.00 0.00 0.00 0.00 0.00 0.00 0.00 0.00 0.00 0.00 0.00 0.00 0.00 0.00 0.00 0.00 0.00 0.00 0.00 0.00 0.00 0.00 0.00 0.00 0.00 0.00 0.00 0.00 0.00 0.00 0.00 0.00 0.05 0.09 0.20 0.14 0.18 0.37 0.19 0.15 0.13 0.18
0.00 0.00 0.00 0.00 0.00 0.00 0.00 0.00 0.00 0.00 0.00 0.00 0.00 0.00 0.00 0.00 0.00 0.00 0.00 0.00 0.00 0.00 0.00 0.00 0.00 0.00 0.00 0.00 0.00 0.00 0.00 0.00 0.02 0.01 0.02 0.13 0.07 0.05 0.10 0.29 0.21 0.14 0.09
0.00 0.00 0.00 0.00 0.00 0.00 0.00 0.00 0.00 0.00 0.00 0.00 0.00 0.00 0.00 0.00 0.00 0.00 0.00 0.00 0.00 0.00 0.00 0.00 0.00 0.00 0.00 0.00 0.00 0.00 0.00 0.00 0.03 0.02 0.00 0.08 0.04 0.02 0.06 0.16 0.16 0.18 0.17
0.00 0.00 0.00 0.00 0.00 0.00 0.00 0.00 0.00 0.00 0.00 0.00 0.00 0.00 0.00 0.00 0.00 0.00 0.00 0.00 0.00 0.02 0.05 0.04 0.03 0.00 0.00 0.00 0.00 0.00 0.00 0.00 0.01 0.02 0.00 0.02 0.02 0.07 0.08 0.11 0.10 0.14 0.19
0.00 0.00 0.00 0.00 0.00 0.00 0.00 0.00 0.00 0.00 0.00 0.00 0.00 0.00 0.00 0.00 0.00 0.00 0.00 0.00 0.02 0.05 0.06 0.04 0.05 0.04 0.00 0.00 0.00 0.00 0.00 0.00 0.01 0.00 0.00 0.00 0.00 0.03 0.04 0.04 0.10 0.11 0.19
0.00 0.00 0.00 0.00 0.00 0.00 0.00 0.00 0.02 0.01 0.00 0.00 0.00 0.00 0.00 0.00 0.01 0.00 0.02 0.01 0.04 0.04 0.06 0.06 0.06 0.04 0.02 0.00 0.00 0.00 0.00 0.00 0.00 0.00 0.00 0.01 0.00 0.04 0.08 0.06 0.11 0.14 0.19
0.00 0.00 0.01 0.03 0.01 0.00 0.00 0.00 0.01 0.04 0.08 0.09 0.10 0.06 0.07 0.10 0.12 0.09 0.19 0.16 0.05 0.02 0.04 0.10 0.06 0.08 0.07 0.03 0.00 0.00 0.00 0.00 0.00 0.00 0.01 0.02 0.00 0.04 0.09 0.11 0.11 0.13 0.16
0.00 0.01 0.03 0.05 0.05 0.02 0.00 0.01 0.01 0.01 0.02 0.08 0.22 0.35 0.30 0.30 0.22 0.24 0.18 0.28 0.31 0.40 0.33 0.43 0.24 0.17 0.13 0.08 0.04 0.00 0.01 0.01 0.01 0.01 0.01 0.05 0.02 0.04 0.07 0.15 0.15 0.16 0.21
0.00 0.01 0.04 0.01 0.03 0.05 0.06 0.06 0.13 0.11 0.13 0.17 0.25 0.32 0.30 0.32 0.32 0.37 0.31 0.31 0.48 0.49 0.45 0.51 0.47 0.46 0.43 0.35 0.25 0.09 0.05 0.10 0.16 0.15 0.06 0.06 0.06 0.04 0.11 0.15 0.24 0.23 0.16
0.00 0.00 0.00 0.00 0.02 0.05 0.06 0.08 0.15 0.23 0.25 0.23 0.17 0.17 0.12 0.15 0.18 0.19 0.24 0.25 0.27 0.34 0.56 0.52 0.50 0.62 0.55 0.58 0.49 0.45 0.45 0.53 0.46 0.41 0.30 0.20 0.15 0.03 0.08 0.12 0.21 0.19 0.17
0.00 0.00 0.00 0.00 0.02 0.03 0.03 0.04 0.09 0.15 0.17 0.21 0.30 0.44 0.44 0.31 0.20 0.18 0.19 0.17 0.21 0.34 0.57 0.53 0.73 0.80 0.71 0.61 0.51 0.53 0.53 0.57 0.79 0.96 0.71 0.61 0.36 0.16 0.06 0.05 0.12 0.17 0.19
0.00 0.00 0.00 0.00 0.00 0.00 0.01 0.02 0.04 0.05 0.10 0.19 0.26 0.36 0.43 0.48 0.47 0.65 0.53 0.38 0.27 0.52 0.59 0.38 0.43 0.67 0.67 0.56 0.52 0.71 0.88 1.02 1.06 1.26 1.39 1.05 0.79 0.55 0.34 0.18 0.11 0.17 0.22
0.00 0.00 0.00 0.00 0.00 0.00 0.00 0.00 0.01 0.01 0.02 0.02 0.04 0.13 0.23 0.34 0.46 0.48 0.56 0.70 0.76 0.81 0.72 0.67 0.68 0.51 0.45 0.42 0.52 0.69 0.95 1.21 1.37 1.37 1.11 0.88 0.67 0.85 0.67 0.48 0.38 0.28 0.18
0.00 0.00 0.00 0.00 0.00 0.00 0.00 0.00 0.00 0.00 0.00 0.00 0.00 0.01 0.02 0.04 0.06 0.12 0.19 0.36 0.70 0.87 0.95 1.10 1.03 0.75 0.68 0.75 0.93 0.85 0.87 0.99 1.02 1.14 0.85 1.00 1.02 1.08 1.34 1.63 1.88 1.26 0.69
0.00 0.00 0.00 0.00 0.00 0.00 0.00 0.00 0.00 0.00 0.00 0.00 0.00 0.00 0.00 0.00 0.01 0.01 0.01 0.06 0.21 0.25 0.30 0.64 0.92 0.92 0.85 1.23 1.95 1.92 1.48 1.45 1.80 2.02 2.47 2.48 2.68 2.66 2.51 1.84 1.36 1.09 0.65
0.00 0.00 0.00 0.00 0.00 0.00 0.00 0.00 0.00 0.00 0.00 0.00 0.00 0.00 0.00 0.00 0.00 0.00 0.00 0.01 0.02 0.08 0.23 0.28 0.50 0.66 0.64 0.85 1.18 1.30 1.27 0.89 0.62 0.51 0.55 0.54 0.40 0.32 0.23 0.17 0.11 0.08 0.08
0.00 0.00 0.00 0.00 0.00 0.00 0.00 0.00 0.00 0.00 0.00 0.00 0.00 0.00 0.00 0.00 0.00 0.00 0.00 0.01 0.02 0.05 0.07 0.18 0.25 0.45 0.51 0.68 0.91 1.10 0.96 0.76 0.70 0.63 0.59 0.45 0.38 0.28 0.15 0.09 0.04 0.02 0.04
0.01 0.00 0.00 0.00 0.00 0.00 0.00 0.00 0.00 0.00 0.00 0.00 0.00 0.00 0.00 0.00 0.00 0.00 0.00 0.00 0.02 0.04 0.06 0.07 0.13 0.24 0.42 0.88 1.12 1.37 1.24 1.03 0.75 0.51 0.49 0.51 0.37 0.21 0.09 0.03 0.01 0.00 0.01
0.01 0.01 0.01 0.02 0.03 0.04 0.04 0.02 0.01 0.01 0.00 0.00 0.00 0.00 0.00 0.00 0.00 0.00 0.00 0.00 0.01 0.03 0.04 0.05 0.06 0.08 0.07 0.06 0.07 0.19 0.37 0.36 0.28 0.26 0.16 0.07 0.10 0.07 0.06 0.04 0.01 0.01 0.01
0.02 0.01 0.00 0.01 0.01 0.02 0.04 0.05 0.04 0.03 0.02 0.01 0.00 0.00 0.00 0.00 0.00 0.00 0.00 0.00 0.00 0.01 0.04 0.06 0.06 0.07 0.07 0.06 0.05 0.06 0.07 0.08 0.05 0.08 0.08 0.04 0.03 0.02 0.04 0.06 0.08 0.04 0.03

GFSSE_prec_precacc24_138.txt.gz
Total_Precipitation_Accumulation
0.00 0.00 0.00 0.00 0.00 0.00 0.00 0.00 0.00 0.00 0.00 0.00 0.00 0.00 0.00 0.00 0.00 0.00 0.00 0.00 0.00 0.00 0.00 0.00 0.00 0.00 0.00 0.00 0.00 0.00 0.00 0.00 0.00 0.00 0.01 0.01 0.00 0.01 0.01 0.03 0.01 0.00 0.01
0.01 0.00 0.00 0.00 0.00 0.00 0.00 0.00 0.00 0.00 0.00 0.00 0.00 0.00 0.00 0.00 0.00 0.00 0.00 0.00 0.00 0.00 0.00 0.00 0.00 0.00 0.00 0.00 0.00 0.00 0.00 0.00 0.00 0.00 0.01 0.02 0.02 0.01 0.00 0.00 0.02 0.00 0.01
0.02 0.00 0.00 0.00 0.00 0.00 0.00 0.00 0.00 0.00 0.00 0.00 0.00 0.00 0.00 0.00 0.00 0.00 0.00 0.00 0.00 0.00 0.00 0.00 0.00 0.00 0.00 0.00 0.00 0.00 0.00 0.00 0.00 0.00 0.02 0.03 0.03 0.04 0.00 0.00 0.01 0.01 0.00
0.00 0.00 0.00 0.00 0.00 0.00 0.00 0.00 0.00 0.00 0.00 0.00 0.00 0.00 0.00 0.00 0.00 0.00 0.00 0.00 0.00 0.00 0.00 0.00 0.00 0.00 0.00 0.00 0.00 0.00 0.00 0.00 0.00 0.03 0.15 0.36 0.18 0.14 0.03 0.01 0.02 0.01 0.02
0.00 0.00 0.00 0.00 0.00 0.00 0.00 0.00 0.00 0.00 0.00 0.00 0.00 0.00 0.00 0.00 0.00 0.00 0.00 0.00 0.00 0.00 0.00 0.00 0.00 0.00 0.00 0.00 0.00 0.00 0.00 0.00 0.00 0.00 0.13 0.24 0.19 0.36 0.31 0.17 0.06 0.03 0.05
0.00 0.00 0.00 0.00 0.00 0.00 0.00 0.00 0.00 0.00 0.00 0.00 0.00 0.00 0.00 0.00 0.00 0.00 0.00 0.00 0.00 0.00 0.00 0.00 0.00 0.00 0.00 0.00 0.00 0.00 0.00 0.00 0.00 0.00 0.17 0.13 0.09 0.25 0.22 0.22 0.16 0.08 0.06
0.00 0.00 0.00 0.00 0.00 0.00 0.00 0.00 0.00 0.00 0.00 0.00 0.00 0.00 0.00 0.00 0.00 0.00 0.00 0.00 0.00 0.00 0.00 0.00 0.00 0.00 0.00 0.00 0.00 0.00 0.00 0.00 0.00 0.04 0.09 0.17 0.11 0.22 0.35 0.19 0.15 0.11 0.12
0.00 0.00 0.00 0.00 0.00 0.00 0.00 0.00 0.00 0.00 0.00 0.00 0.00 0.00 0.00 0.00 0.00 0.00 0.00 0.00 0.00 0.00 0.00 0.00 0.00 0.00 0.00 0.00 0.00 0.00 0.00 0.00 0.00 0.00 0.02 0.10 0.05 0.09 0.15 0.28 0.20 0.10 0.07
0.00 0.00 0.00 0.00 0.00 0.00 0.00 0.00 0.00 0.00 0.00 0.00 0.00 0.00 0.00 0.00 0.00 0.00 0.00 0.00 0.00 0.00 0.00 0.00 0.00 0.00 0.00 0.00 0.00 0.00 0.00 0.00 0.00 0.00 0.00 0.06 0.02 0.07 0.15 0.17 0.14 0.13 0.12
0.00 0.00 0.00 0.00 0.00 0.00 0.00 0.00 0.00 0.00 0.00 0.00 0.00 0.00 0.00 0.00 0.00 0.00 0.00 0.00 0.00 0.02 0.05 0.04 0.03 0.01 0.00 0.00 0.00 0.00 0.00 0.00 0.00 0.00 0.00 0.02 0.02 0.12 0.11 0.11 0.06 0.09 0.15
0.00 0.00 0.00 0.00 0.00 0.00 0.00 0.00 0.00 0.01 0.03 0.00 0.00 0.00 0.00 0.00 0.00 0.00 0.00 0.00 0.02 0.05 0.06 0.04 0.05 0.10 0.09 0.06 0.01 0.01 0.00 0.00 0.01 0.00 0.00 0.00 0.00 0.08 0.09 0.05 0.07 0.03 0.13
0.00 0.00 0.00 0.00 0.00 0.00 0.00 0.00 0.02 0.02 0.01 0.02 0.04 0.01 0.00 0.00 0.01 0.00 0.02 0.01 0.04 0.04 0.07 0.07 0.06 0.06 0.11 0.02 0.00 0.03 0.01 0.00 0.00 0.00 0.00 0.00 0.00 0.05 0.09 0.07 0.08 0.10 0.11
0.00 0.00 0.00 0.00 0.00 0.00 0.00 0.00 0.01 0.04 0.08 0.10 0.11 0.10 0.09 0.11 0.13 0.10 0.21 0.16 0.06 0.02 0.06 0.15 0.11 0.12 0.12 0.13 0.08 0.02 0.02 0.00 0.00 0.00 0.00 0.00 0.00 0.04 0.09 0.08 0.06 0.03 0.06
0.00 0.00 0.00 0.00 0.01 0.01 0.00 0.01 0.01 0.01 0.02 0.08 0.23 0.36 0.32 0.31 0.24 0.28 0.27 0.33 0.35 0.42 0.33 0.44 0.27 0.26 0.26 0.26 0.20 0.11 0.07 0.01 0.01 0.01 0.00 0.02 0.01 0.01 0.11 0.21 0.17 0.14 0.15
0.00 0.00 0.01 0.00 0.01 0.04 0.05 0.04 0.08 0.10 0.13 0.17 0.25 0.32 0.31 0.32 0.32 0.39 0.32 0.31 0.50 0.49 0.46 0.51 0.47 0.47 0.48 0.39 0.32 0.29 0.19 0.14 0.23 0.26 0.16 0.19 0.11 0.04 0.19 0.24 0.31 0.27 0.19
0.00 0.00 0.00 0.00 0.02 0.05 0.05 0.06 0.11 0.14 0.14 0.16 0.14 0.14 0.12 0.15 0.18 0.20 0.24 0.25 0.27 0.34 0.56 0.52 0.50 0.62 0.55 0.59 0.54 0.55 0.56 0.64 0.59 0.58 0.61 0.47 0.45 0.25 0.31 0.31 0.39 0.35 0.28
0.00 0.00 0.00 0.00 0.02 0.03 0.03 0.04 0.05 0.08 0.11 0.15 0.21 0.26 0.23 0.22 0.16 0.15 0.19 0.17 0.21 0.34 0.57 0.53 0.73 0.80 0.71 0.61 0.51 0.57 0.59 0.67 0.92 1.15 1.19 1.34 1.60 1.47 1.00 0.79 0.71 0.63 0.31
0.00 0.00 0.00 0.00 0.00 0.00 0.01 0.02 0.04 0.05 0.07 0.12 0.17 0.24 0.29 0.30 0.24 0.30 0.30 0.30 0.23 0.51 0.59 0.38 0.43 0.67 0.67 0.56 0.52 0.71 0.89 1.04 1.10 1.32 1.48 1.19 1.09 0.99 0.81 0.81 0.81 1.06 0.84
0.00 0.00 0.00 0.00 0.00 0.00 0.00 0.00 0.01 0.01 0.02 0.02 0.02 0.06 0.11 0.20 0.28 0.28 0.31 0.43 0.55 0.69 0.70 0.67 0.68 0.50 0.45 0.42 0.52 0.69 0.95 1.21 1.37 1.37 1.11 0.88 0.68 0.89 0.94 0.64 0.55 0.61 0.71
0.00 0.00 0.00 0.00 0.00 0.00 0.00 0.00 0.00 0.00 0.00 0.00 0.00 0.01 0.01 0.01 0.03 0.04 0.09 0.28 0.41 0.54 0.74 0.98 0.99 0.74 0.67 0.74 0.92 0.85 0.87 0.99 1.02 1.14 0.85 1.00 1.02 1.08 1.35 1.63 1.98 1.81 1.46
0.00 0.00 0.00 0.00 0.00 0.00 0.00 0.00 0.00 0.00 0.00 0.00 0.00 0.00 0.00 0.00 0.00 0.01 0.00 0.04 0.11 0.12 0.21 0.42 0.61 0.71 0.76 1.18 1.88 1.86 1.47 1.45 1.79 2.02 2.46 2.48 2.67 2.66 2.52 1.84 1.37 1.13 0.82
0.00 0.00 0.00 0.00 0.00 0.00 0.00 0.00 0.00 0.00 0.00 0.00 0.00 0.00 0.00 0.00 0.00 0.00 0.00 0.00 0.00 0.01 0.01 0.03 0.10 0.16 0.31 0.60 0.96 1.19 1.21 0.86 0.62 0.50 0.54 0.53 0.40 0.32 0.23 0.17 0.11 0.08 0.08
0.00 0.00 0.00 0.00 0.00 0.00 0.00 0.00 0.00 0.00 0.00 0.00 0.00 0.00 0.00 0.00 0.00 0.00 0.00 0.00 0.00 0.00 0.01 0.01 0.02 0.09 0.07 0.14 0.35 0.56 0.67 0.67 0.66 0.63 0.58 0.44 0.38 0.28 0.15 0.09 0.05 0.03 0.04
0.01 0.00 0.00 0.00 0.00 0.00 0.00 0.00 0.00 0.00 0.00 0.00 0.00 0.00 0.00 0.00 0.00 0.00 0.00 0.00 0.00 0.00 0.01 0.01 0.02 0.04 0.08 0.04 0.04 0.16 0.38 0.74 0.66 0.49 0.48 0.51 0.37 0.21 0.09 0.03 0.01 0.01 0.01
0.01 0.01 0.01 0.02 0.03 0.04 0.04 0.02 0.01 0.01 0.00 0.00 0.00 0.00 0.00 0.00 0.00 0.00 0.00 0.00 0.00 0.01 0.01 0.01 0.01 0.02 0.03 0.04 0.03 0.05 0.09 0.16 0.21 0.24 0.16 0.07 0.10 0.06 0.06 0.04 0.01 0.01 0.01
0.02 0.01 0.00 0.01 0.01 0.02 0.04 0.05 0.04 0.03 0.02 0.01 0.00 0.00 0.00 0.00 0.00 0.00 0.00 0.00 0.00 0.00 0.01 0.01 0.01 0.02 0.03 0.04 0.05 0.06 0.07 0.07 0.04 0.08 0.08 0.03 0.03 0.02 0.04 0.06 0.08 0.04 0.03

GFSSE_prec_precacc24_144.txt.gz
Total_Precipitation_Accumulation
0.00 0.00 0.00 0.00 0.00 0.00 0.00 0.00 0.00 0.00 0.00 0.00 0.00 0.00 0.00 0.00 0.00 0.00 0.00 0.00 0.00 0.00 0.00 0.00 0.00 0.00 0.00 0.00 0.00 0.00 0.00 0.00 0.00 0.00 0.01 0.01 0.00 0.00 0.00 0.01 0.01 0.00 0.02
0.01 0.00 0.00 0.00 0.00 0.00 0.00 0.00 0.00 0.00 0.00 0.00 0.00 0.00 0.00 0.00 0.00 0.00 0.00 0.00 0.00 0.00 0.00 0.00 0.00 0.00 0.00 0.00 0.00 0.00 0.00 0.00 0.00 0.00 0.01 0.02 0.01 0.00 0.00 0.00 0.02 0.01 0.02
0.02 0.00 0.00 0.00 0.00 0.00 0.00 0.00 0.00 0.00 0.00 0.00 0.00 0.00 0.00 0.00 0.00 0.00 0.00 0.00 0.00 0.00 0.00 0.00 0.00 0.00 0.01 0.00 0.00 0.00 0.00 0.00 0.00 0.00 0.03 0.03 0.03 0.06 0.00 0.01 0.00 0.00 0.01
0.01 0.00 0.00 0.00 0.00 0.00 0.00 0.00 0.00 0.00 0.00 0.00 0.00 0.00 0.00 0.00 0.00 0.00 0.00 0.00 0.00 0.00 0.00 0.00 0.00 0.00 0.00 0.00 0.00 0.00 0.00 0.00 0.00 0.04 0.18 0.36 0.17 0.11 0.08 0.08 0.02 0.00 0.01
0.00 0.00 0.00 0.00 0.00 0.00 0.00 0.00 0.00 0.00 0.00 0.00 0.00 0.00 0.00 0.00 0.00 0.00 0.00 0.00 0.00 0.00 0.00 0.00 0.00 0.00 0.00 0.00 0.00 0.00 0.00 0.00 0.00 0.01 0.17 0.29 0.17 0.22 0.23 0.19 0.11 0.03 0.01
0.00 0.00 0.00 0.00 0.00 0.00 0.00 0.00 0.00 0.00 0.00 0.00 0.00 0.00 0.00 0.00 0.00 0.00 0.00 0.00 0.00 0.00 0.00 0.00 0.00 0.00 0.00 0.00 0.00 0.00 0.00 0.00 0.00 0.00 0.18 0.18 0.18 0.21 0.23 0.20 0.17 0.13 0.05
0.00 0.00 0.00 0.00 0.00 0.00 0.00 0.00 0.00 0.00 0.00 0.00 0.00 0.00 0.00 0.00 0.00 0.00 0.00 0.00 0.00 0.00 0.00 0.00 0.00 0.00 0.00 0.00 0.00 0.00 0.00 0.00 0.00 0.04 0.09 0.19 0.27 0.17 0.20 0.12 0.16 0.17 0.15
0.00 0.00 0.00 0.00 0.00 0.00 0.00 0.00 0.00 0.00 0.00 0.00 0.00 0.00 0.00 0.00 0.00 0.00 0.00 0.00 0.00 0.00 0.00 0.00 0.01 0.01 0.00 0.00 0.00 0.00 0.00 0.00 0.00 0.00 0.02 0.11 0.13 0.13 0.21 0.08 0.08 0.12 0.14
0.00 0.00 0.00 0.00 0.00 0.00 0.00 0.00 0.00 0.00 0.00 0.00 0.00 0.00 0.00 0.00 0.00 0.00 0.00 0.00 0.00 0.00 0.00 0.00 0.01 0.03 0.04 0.04 0.01 0.00 0.00 0.00 0.00 0.00 0.00 0.06 0.03 0.11 0.22 0.14 0.06 0.06 0.16
0.00 0.00 0.00 0.00 0.00 0.00 0.00 0.00 0.00 0.00 0.01 0.00 0.00 0.00 0.00 0.00 0.00 0.00 0.00 0.00 0.00 0.02 0.05 0.04 0.05 0.06 0.08 0.12 0.11 0.04 0.03 0.00 0.00 0.00 0.00 0.02 0.02 0.14 0.14 0.11 0.05 0.03 0.10
0.00 0.00 0.00 0.00 0.00 0.00 0.00 0.00 0.00 0.01 0.03 0.00 0.00 0.00 0.00 0.00 0.00 0.00 0.00 0.01 0.02 0.05 0.06 0.04 0.07 0.15 0.18 0.14 0.06 0.11 0.15 0.07 0.07 0.01 0.00 0.00 0.01 0.09 0.13 0.08 0.11 0.03 0.03
0.00 0.00 0.00 0.00 0.00 0.00 0.00 0.00 0.02 0.02 0.01 0.02 0.04 0.01 0.01 0.01 0.01 0.00 0.02 0.01 0.04 0.04 0.07 0.07 0.07 0.07 0.12 0.05 0.03 0.09 0.12 0.07 0.04 0.02 0.00 0.00 0.00 0.05 0.11 0.08 0.08 0.05 0.03
0.00 0.00 0.00 0.00 0.00 0.00 0.00 0.00 0.01 0.04 0.08 0.10 0.11 0.10 0.10 0.12 0.13 0.11 0.21 0.16 0.06 0.02 0.07 0.16 0.15 0.17 0.19 0.18 0.25 0.21 0.05 0.01 0.00 0.00 0.01 0.02 0.00 0.03 0.10 0.11 0.11 0.10 0.10
0.00 0.00 0.00 0.00 0.00 0.00 0.00 0.01 0.01 0.01 0.02 0.08 0.23 0.36 0.31 0.31 0.24 0.27 0.27 0.34 0.36 0.43 0.35 0.46 0.29 0.28 0.28 0.30 0.33 0.25 0.12 0.02 0.04 0.02 0.03 0.06 0.06 0.03 0.09 0.18 0.21 0.19 0.16
0.00 0.00 0.00 0.00 0.00 0.02 0.03 0.03 0.07 0.09 0.13 0.17 0.25 0.32 0.29 0.30 0.27 0.34 0.31 0.30 0.48 0.49 0.46 0.51 0.47 0.47 0.48 0.39 0.34 0.31 0.20 0.14 0.24 0.27 0.22 0.25 0.19 0.15 0.20 0.22 0.31 0.28 0.24
0.00 0.00 0.00 0.00 0.01 0.05 0.05 0.06 0.09 0.11 0.10 0.12 0.11 0.11 0.10 0.13 0.16 0.17 0.23 0.24 0.24 0.32 0.49 0.51 0.50 0.62 0.55 0.59 0.54 0.55 0.58 0.67 0.60 0.58 0.61 0.49 0.52 0.39 0.47 0.43 0.47 0.47 0.48
0.00 0.00 0.00 0.00 0.01 0.02 0.02 0.03 0.04 0.05 0.05 0.05 0.08 0.11 0.10 0.14 0.13 0.13 0.17 0.16 0.18 0.26 0.37 0.45 0.67 0.78 0.70 0.60 0.51 0.57 0.59 0.67 0.93 1.16 1.22 1.39 1.72 1.61 1.11 0.88 0.82 0.84 0.95
0.00 0.00 0.00 0.00 0.00 0.00 0.00 0.01 0.02 0.04 0.04 0.05 0.05 0.05 0.05 0.06 0.09 0.11 0.13 0.17 0.12 0.14 0.16 0.19 0.30 0.53 0.60 0.52 0.50 0.70 0.88 1.03 1.09 1.31 1.48 1.19 1.10 1.01 0.82 0.81 0.81 1.17 1.57
0.00 0.00 0.00 0.00 0.00 0.00 0.00 0.00 0.00 0.01 0.01 0.01 0.01 0.01 0.01 0.01 0.01 0.03 0.04 0.07 0.12 0.12 0.11 0.13 0.29 0.26 0.33 0.32 0.40 0.61 0.91 1.15 1.31 1.33 1.10 0.88 0.68 0.89 0.94 0.64 0.55 0.62 0.87
0.00 0.00 0.00 0.00 0.00 0.00 0.00 0.00 0.00 0.00 0.00 0.00 0.00 0.01 0.01 0.00 0.00 0.00 0.00 0.00 0.01 0.05 0.11 0.17 0.33 0.29 0.34 0.44 0.63 0.65 0.72 0.84 0.87 1.01 0.77 0.90 0.93 1.02 1.32 1.61 1.98 1.81 1.47
0.00 0.00 0.00 0.00 0.00 0.00 0.00 0.00 0.00 0.00 0.00 0.00 0.00 0.00 0.00 0.00 0.00 0.00 0.00 0.00 0.00 0.00 0.00 0.02 0.04 0.09 0.20 0.53 1.17 1.35 1.14 1.20 1.52 1.77 2.23 2.22 2.47 2.51 2.41 1.80 1.35 1.13 0.83
0.00 0.00 0.00 0.00 0.00 0.00 0.00 0.00 0.00 0.00 0.00 0.00 0.00 0.00 0.00 0.00 0.00 0.00 0.00 0.00 0.00 0.00 0.00 0.00 0.00 0.00 0.02 0.07 0.20 0.49 0.76 0.52 0.30 0.19 0.18 0.17 0.15 0.14 0.12 0.10 0.10 0.10 0.12
0.00 0.00 0.00 0.00 0.00 0.00 0.00 0.00 0.00 0.00 0.00 0.00 0.00 0.00 0.00 0.00 0.00 0.00 0.00 0.00 0.00 0.00 0.00 0.00 0.00 0.00 0.01 0.01 0.05 0.10 0.12 0.05 0.03 0.05 0.05 0.02 0.03 0.02 0.02 0.01 0.01 0.02 0.04
0.00 0.00 0.00 0.00 0.00 0.00 0.00 0.00 0.00 0.00 0.00 0.00 0.00 0.00 0.00 0.00 0.00 0.00 0.00 0.00 0.00 0.00 0.00 0.01 0.00 0.01 0.01 0.01 0.02 0.05 0.06 0.08 0.08 0.05 0.05 0.05 0.02 0.02 0.02 0.02 0.00 0.01 0.02
0.00 0.00 0.00 0.00 0.00 0.04 0.04 0.02 0.01 0.01 0.00 0.00 0.00 0.00 0.00 0.00 0.00 0.00 0.00 0.00 0.00 0.00 0.00 0.00 0.01 0.01 0.01 0.02 0.02 0.03 0.06 0.07 0.07 0.11 0.07 0.03 0.06 0.05 0.05 0.04 0.01 0.01 0.01
0.01 0.00 0.00 0.00 0.00 0.01 0.03 0.05 0.04 0.03 0.02 0.01 0.00 0.00 0.00 0.00 0.00 0.00 0.00 0.00 0.00 0.00 0.00 0.00 0.00 0.01 0.01 0.01 0.02 0.03 0.04 0.05 0.04 0.08 0.08 0.03 0.03 0.02 0.04 0.06 0.08 0.04 0.03

GFSSE_prec_precacc24_147.txt.gz
Total_Precipitation_Accumulation
0.00 0.00 0.00 0.00 0.00 0.00 0.00 0.00 0.00 0.00 0.00 0.00 0.00 0.00 0.00 0.00 0.00 0.00 0.00 0.00 0.00 0.00 0.00 0.00 0.00 0.00 0.00 0.00 0.00 0.00 0.00 0.00 0.00 0.00 0.01 0.01 0.00 0.00 0.00 0.00 0.00 0.00 0.02
0.01 0.00 0.00 0.00 0.00 0.00 0.00 0.00 0.00 0.00 0.00 0.00 0.00 0.00 0.00 0.00 0.00 0.00 0.00 0.00 0.00 0.00 0.00 0.00 0.00 0.00 0.00 0.00 0.00 0.00 0.00 0.00 0.00 0.00 0.01 0.02 0.00 0.00 0.00 0.00 0.02 0.01 0.01
0.02 0.00 0.00 0.00 0.00 0.00 0.00 0.00 0.00 0.00 0.00 0.00 0.00 0.00 0.00 0.00 0.00 0.00 0.00 0.00 0.00 0.00 0.00 0.00 0.00 0.00 0.01 0.00 0.00 0.00 0.00 0.00 0.00 0.00 0.03 0.03 0.03 0.07 0.01 0.01 0.00 0.00 0.01
0.01 0.00 0.00 0.00 0.00 0.00 0.00 0.00 0.00 0.00 0.00 0.00 0.00 0.00 0.00 0.00 0.00 0.00 0.00 0.00 0.00 0.00 0.00 0.00 0.00 0.00 0.00 0.00 0.00 0.00 0.00 0.00 0.00 0.04 0.18 0.36 0.17 0.11 0.10 0.11 0.05 0.01 0.01
0.00 0.00 0.00 0.00 0.00 0.00 0.00 0.00 0.00 0.00 0.00 0.00 0.00 0.00 0.00 0.00 0.00 0.00 0.00 0.00 0.00 0.00 0.00 0.00 0.00 0.00 0.00 0.00 0.00 0.00 0.00 0.00 0.00 0.01 0.17 0.29 0.17 0.21 0.23 0.19 0.13 0.05 0.01
0.01 0.00 0.00 0.00 0.00 0.00 0.00 0.00 0.00 0.00 0.00 0.00 0.00 0.00 0.00 0.00 0.00 0.00 0.00 0.00 0.00 0.00 0.00 0.00 0.00 0.00 0.00 0.00 0.00 0.00 0.00 0.00 0.00 0.00 0.18 0.18 0.18 0.19 0.16 0.14 0.13 0.13 0.05
0.01 0.01 0.00 0.00 0.00 0.00 0.00 0.00 0.00 0.00 0.00 0.00 0.00 0.00 0.00 0.00 0.00 0.00 0.00 0.00 0.00 0.00 0.00 0.00 0.00 0.00 0.00 0.00 0.00 0.00 0.00 0.00 0.00 0.04 0.09 0.19 0.27 0.16 0.14 0.08 0.10 0.14 0.12
0.00 0.01 0.00 0.00 0.00 0.00 0.00 0.00 0.00 0.00 0.00 0.00 0.00 0.00 0.00 0.00 0.00 0.00 0.00 0.00 0.00 0.00 0.00 0.00 0.02 0.03 0.01 0.00 0.00 0.00 0.00 0.00 0.00 0.00 0.02 0.11 0.13 0.13 0.19 0.07 0.09 0.09 0.09
0.00 0.00 0.00 0.00 0.00 0.00 0.00 0.00 0.00 0.00 0.00 0.00 0.00 0.00 0.00 0.00 0.00 0.00 0.00 0.00 0.00 0.00 0.00 0.00 0.01 0.05 0.07 0.08 0.03 0.00 0.00 0.00 0.00 0.00 0.00 0.06 0.03 0.11 0.22 0.18 0.11 0.06 0.09
0.00 0.00 0.00 0.00 0.00 0.00 0.00 0.00 0.00 0.00 0.01 0.00 0.00 0.00 0.00 0.00 0.00 0.00 0.00 0.00 0.00 0.03 0.05 0.04 0.05 0.06 0.08 0.12 0.11 0.04 0.06 0.02 0.00 0.00 0.00 0.02 0.02 0.14 0.14 0.11 0.08 0.04 0.07
0.00 0.00 0.00 0.00 0.00 0.00 0.00 0.00 0.00 0.01 0.03 0.00 0.00 0.00 0.00 0.00 0.00 0.00 0.00 0.01 0.02 0.05 0.06 0.04 0.07 0.15 0.18 0.14 0.06 0.12 0.16 0.10 0.08 0.01 0.00 0.00 0.01 0.09 0.13 0.08 0.11 0.06 0.03
0.00 0.00 0.00 0.00 0.00 0.00 0.00 0.00 0.02 0.02 0.01 0.02 0.04 0.01 0.01 0.01 0.02 0.01 0.03 0.01 0.04 0.04 0.07 0.07 0.07 0.08 0.13 0.05 0.04 0.09 0.13 0.08 0.04 0.02 0.00 0.00 0.00 0.05 0.11 0.08 0.08 0.06 0.03
0.00 0.00 0.00 0.00 0.00 0.00 0.00 0.00 0.01 0.04 0.08 0.10 0.11 0.10 0.10 0.12 0.13 0.11 0.21 0.16 0.06 0.02 0.07 0.16 0.14 0.16 0.19 0.18 0.25 0.21 0.05 0.01 0.00 0.00 0.01 0.02 0.00 0.03 0.10 0.11 0.11 0.09 0.08
0.00 0.00 0.00 0.00 0.00 0.00 0.00 0.00 0.00 0.01 0.02 0.08 0.23 0.36 0.31 0.29 0.22 0.23 0.25 0.34 0.36 0.43 0.35 0.46 0.29 0.28 0.27 0.30 0.33 0.25 0.12 0.02 0.04 0.02 0.04 0.10 0.11 0.06 0.09 0.17 0.22 0.19 0.17
0.00 0.00 0.00 0.00 0.00 0.00 0.00 0.01 0.05 0.09 0.13 0.17 0.25 0.32 0.28 0.29 0.25 0.31 0.28 0.28 0.45 0.49 0.46 0.51 0.47 0.47 0.48 0.39 0.34 0.31 0.20 0.14 0.24 0.27 0.23 0.26 0.21 0.16 0.20 0.20 0.25 0.34 0.40
0.00 0.00 0.00 0.00 0.00 0.00 0.01 0.02 0.05 0.09 0.10 0.11 0.10 0.11 0.09 0.11 0.11 0.14 0.21 0.21 0.21 0.29 0.44 0.48 0.50 0.62 0.55 0.59 0.54 0.55 0.57 0.67 0.60 0.58 0.61 0.49 0.52 0.39 0.47 0.42 0.40 0.47 0.65
0.00 0.00 0.00 0.00 0.00 0.00 0.00 0.01 0.01 0.02 0.03 0.04 0.06 0.09 0.08 0.07 0.06 0.05 0.08 0.12 0.16 0.23 0.30 0.43 0.66 0.75 0.70 0.60 0.51 0.57 0.58 0.65 0.93 1.16 1.22 1.39 1.72 1.61 1.12 0.89 0.79 0.77 0.91
0.00 0.00 0.00 0.00 0.00 0.00 0.00 0.00 0.00 0.01 0.01 0.02 0.03 0.02 0.02 0.02 0.02 0.03 0.03 0.05 0.07 0.10 0.12 0.18 0.28 0.50 0.56 0.50 0.50 0.69 0.86 0.97 1.06 1.29 1.47 1.19 1.10 1.01 0.83 0.81 0.82 1.17 1.55
0.00 0.00 0.00 0.00 0.00 0.00 0.00 0.00 0.00 0.00 0.00 0.00 0.00 0.01 0.00 0.01 0.01 0.01 0.01 0.01 0.03 0.05 0.04 0.03 0.11 0.20 0.25 0.31 0.40 0.60 0.88 1.10 1.28 1.26 1.05 0.85 0.66 0.88 0.94 0.65 0.55 0.62 0.87
0.00 0.00 0.00 0.00 0.00 0.00 0.00 0.00 0.00 0.00 0.00 0.00 0.00 0.01 0.01 0.00 0.00 0.00 0.00 0.00 0.00 0.00 0.00 0.02 0.02 0.06 0.12 0.24 0.43 0.48 0.62 0.76 0.85 0.98 0.74 0.85 0.90 1.01 1.30 1.61 1.98 1.83 1.48
0.00 0.00 0.00 0.00 0.00 0.00 0.00 0.00 0.00 0.00 0.00 0.00 0.00 0.00 0.00 0.00 0.00 0.00 0.00 0.00 0.00 0.00 0.00 0.00 0.00 0.01 0.02 0.08 0.27 0.30 0.48 0.91 1.42 1.75 2.22 2.21 2.43 2.44 2.34 1.78 1.34 1.14 0.86
0.00 0.00 0.00 0.00 0.00 0.00 0.00 0.00 0.00 0.00 0.00 0.00 0.00 0.00 0.00 0.00 0.00 0.00 0.00 0.00 0.00 0.00 0.00 0.00 0.00 0.00 0.00 0.03 0.09 0.17 0.34 0.36 0.28 0.19 0.18 0.16 0.13 0.10 0.08 0.09 0.10 0.10 0.12
0.00 0.00 0.00 0.00 0.00 0.00 0.00 0.00 0.00 0.00 0.00 0.00 0.00 0.00 0.00 0.00 0.00 0.00 0.00 0.00 0.00 0.00 0.00 0.00 0.00 0.00 0.00 0.01 0.03 0.05 0.07 0.04 0.02 0.04 0.04 0.02 0.03 0.02 0.02 0.01 0.01 0.02 0.04
0.00 0.00 0.00 0.00 0.00 0.00 0.00 0.00 0.00 0.00 0.00 0.00 0.00 0.00 0.00 0.00 0.00 0.00 0.00 0.00 0.00 0.00 0.00 0.00 0.00 0.01 0.01 0.01 0.01 0.03 0.04 0.07 0.07 0.05 0.04 0.04 0.02 0.02 0.02 0.02 0.00 0.01 0.02
0.00 0.00 0.00 0.00 0.00 0.00 0.00 0.00 0.00 0.00 0.00 0.00 0.00 0.00 0.00 0.00 0.00 0.00 0.00 0.00 0.00 0.00 0.00 0.00 0.00 0.01 0.01 0.02 0.02 0.02 0.04 0.05 0.06 0.10 0.06 0.03 0.06 0.05 0.05 0.04 0.01 0.01 0.01
0.00 0.00 0.00 0.00 0.00 0.00 0.00 0.00 0.00 0.00 0.02 0.01 0.00 0.00 0.00 0.00 0.00 0.00 0.00 0.00 0.00 0.00 0.00 0.00 0.00 0.00 0.01 0.01 0.01 0.02 0.03 0.05 0.04 0.08 0.08 0.03 0.03 0.02 0.04 0.06 0.08 0.04 0.03

GFSSE_prec_precacc24_153.txt.gz
Total_Precipitation_Accumulation
0.00 0.00 0.00 0.00 0.00 0.00 0.00 0.00 0.00 0.00 0.00 0.00 0.00 0.00 0.00 0.00 0.00 0.00 0.00 0.00 0.00 0.00 0.00 0.00 0.00 0.00 0.00 0.00 0.00 0.00 0.00 0.00 0.00 0.00 0.01 0.01 0.00 0.00 0.00 0.00 0.00 0.00 0.02
0.01 0.00 0.00 0.00 0.00 0.00 0.00 0.00 0.00 0.00 0.00 0.00 0.00 0.00 0.00 0.00 0.00 0.00 0.00 0.00 0.00 0.00 0.00 0.00 0.00 0.00 0.00 0.00 0.00 0.00 0.00 0.00 0.00 0.00 0.01 0.02 0.00 0.00 0.00 0.00 0.01 0.01 0.01
0.02 0.00 0.00 0.00 0.00 0.00 0.00 0.00 0.00 0.00 0.00 0.00 0.00 0.00 0.00 0.00 0.00 0.00 0.00 0.00 0.00 0.00 0.00 0.00 0.00 0.00 0.01 0.00 0.00 0.00 0.00 0.00 0.00 0.00 0.06 0.05 0.02 0.07 0.01 0.01 0.00 0.00 0.01
0.01 0.00 0.00 0.00 0.00 0.00 0.00 0.00 0.00 0.00 0.00 0.00 0.00 0.00 0.00 0.00 0.00 0.00 0.00 0.00 0.00 0.00 0.00 0.00 0.00 0.00 0.00 0.00 0.00 0.00 0.00 0.00 0.00 0.04 0.18 0.36 0.16 0.11 0.10 0.11 0.05 0.01 0.01
0.00 0.00 0.00 0.00 0.00 0.00 0.00 0.00 0.00 0.00 0.00 0.00 0.00 0.00 0.00 0.00 0.00 0.00 0.00 0.00 0.00 0.00 0.00 0.00 0.00 0.00 0.00 0.00 0.00 0.00 0.00 0.00 0.00 0.01 0.16 0.29 0.17 0.21 0.23 0.19 0.13 0.05 0.01
0.01 0.00 0.00 0.00 0.00 0.00 0.00 0.00 0.00 0.00 0.00 0.00 0.00 0.00 0.00 0.00 0.00 0.00 0.00 0.00 0.00 0.00 0.00 0.00 0.00 0.00 0.00 0.00 0.00 0.00 0.00 0.00 0.00 0.00 0.18 0.18 0.16 0.16 0.16 0.14 0.12 0.13 0.05
0.01 0.01 0.00 0.00 0.00 0.00 0.00 0.00 0.00 0.00 0.00 0.00 0.00 0.00 0.00 0.00 0.00 0.00 0.00 0.00 0.00 0.00 0.00 0.00 0.00 0.00 0.00 0.00 0.00 0.00 0.00 0.00 0.00 0.04 0.09 0.19 0.24 0.14 0.17 0.11 0.11 0.14 0.11
0.00 0.01 0.00 0.00 0.00 0.00 0.00 0.00 0.00 0.00 0.00 0.00 0.00 0.00 0.00 0.00 0.00 0.00 0.00 0.00 0.00 0.00 0.00 0.01 0.03 0.04 0.01 0.00 0.00 0.00 0.00 0.00 0.00 0.00 0.02 0.11 0.13 0.13 0.19 0.08 0.11 0.09 0.09
0.00 0.00 0.00 0.00 0.00 0.00 0.00 0.00 0.00 0.00 0.00 0.00 0.00 0.00 0.00 0.00 0.00 0.00 0.00 0.00 0.00 0.00 0.00 0.00 0.02 0.06 0.07 0.08 0.03 0.00 0.00 0.00 0.00 0.00 0.00 0.06 0.03 0.11 0.21 0.17 0.13 0.07 0.10
0.00 0.00 0.00 0.00 0.00 0.00 0.00 0.00 0.00 0.00 0.01 0.00 0.00 0.00 0.00 0.00 0.00 0.00 0.01 0.01 0.01 0.00 0.00 0.03 0.05 0.06 0.08 0.12 0.11 0.04 0.06 0.02 0.00 0.00 0.00 0.03 0.02 0.14 0.13 0.09 0.09 0.04 0.06
0.00 0.00 0.00 0.00 0.00 0.00 0.00 0.00 0.00 0.01 0.03 0.00 0.00 0.00 0.01 0.00 0.00 0.00 0.01 0.01 0.03 0.00 0.01 0.00 0.04 0.14 0.18 0.15 0.06 0.12 0.17 0.11 0.12 0.03 0.00 0.11 0.01 0.09 0.13 0.08 0.10 0.05 0.02
0.00 0.00 0.00 0.00 0.00 0.00 0.00 0.00 0.02 0.02 0.01 0.02 0.04 0.01 0.01 0.01 0.01 0.01 0.02 0.01 0.04 0.02 0.02 0.02 0.02 0.05 0.13 0.11 0.11 0.12 0.19 0.17 0.16 0.09 0.06 0.17 0.06 0.11 0.21 0.21 0.12 0.07 0.02
0.00 0.00 0.00 0.00 0.00 0.00 0.00 0.00 0.01 0.04 0.08 0.10 0.11 0.09 0.08 0.09 0.08 0.06 0.12 0.11 0.05 0.02 0.07 0.15 0.10 0.10 0.18 0.22 0.34 0.29 0.11 0.05 0.02 0.06 0.07 0.13 0.12 0.12 0.25 0.37 0.30 0.25 0.12
0.00 0.00 0.00 0.00 0.00 0.00 0.00 0.00 0.00 0.01 0.01 0.08 0.22 0.35 0.28 0.23 0.14 0.15 0.18 0.26 0.25 0.33 0.27 0.30 0.14 0.16 0.18 0.24 0.31 0.26 0.13 0.02 0.04 0.03 0.08 0.18 0.17 0.08 0.11 0.21 0.52 0.40 0.30
0.00 0.00 0.00 0.00 0.00 0.00 0.00 0.00 0.00 0.02 0.06 0.11 0.19 0.27 0.21 0.21 0.16 0.17 0.17 0.18 0.39 0.37 0.34 0.36 0.31 0.28 0.31 0.22 0.23 0.27 0.19 0.14 0.24 0.27 0.23 0.26 0.21 0.16 0.20 0.21 0.25 0.54 0.57
0.00 0.00 0.00 0.00 0.00 0.00 0.00 0.00 0.00 0.00 0.02 0.02 0.03 0.06 0.04 0.06 0.06 0.07 0.07 0.08 0.11 0.16 0.29 0.31 0.38 0.46 0.37 0.47 0.48 0.47 0.48 0.62 0.57 0.58 0.61 0.49 0.52 0.39 0.47 0.42 0.39 0.50 0.72
0.00 0.00 0.00 0.00 0.00 0.00 0.00 0.00 0.00 0.00 0.00 0.00 0.01 0.01 0.02 0.03 0.02 0.01 0.01 0.01 0.02 0.03 0.09 0.22 0.45 0.52 0.51 0.49 0.48 0.55 0.52 0.54 0.84 1.13 1.21 1.39 1.72 1.61 1.12 0.89 0.80 0.78 0.92
0.00 0.00 0.00 0.00 0.00 0.00 0.00 0.00 0.00 0.00 0.00 0.00 0.00 0.00 0.00 0.00 0.00 0.01 0.00 0.00 0.00 0.00 0.00 0.02 0.05 0.16 0.25 0.31 0.41 0.64 0.83 0.92 0.99 1.16 1.35 1.13 1.09 1.01 0.82 0.82 0.82 1.18 1.56
0.00 0.00 0.00 0.00 0.00 0.00 0.00 0.00 0.00 0.00 0.00 0.00 0.00 0.00 0.00 0.00 0.00 0.00 0.00 0.00 0.00 0.00 0.00 0.00 0.00 0.01 0.01 0.04 0.13 0.42 0.80 1.07 1.18 1.09 0.94 0.70 0.56 0.83 0.91 0.63 0.56 0.63 0.88
0.00 0.00 0.00 0.00 0.00 0.00 0.00 0.00 0.00 0.00 0.00 0.00 0.00 0.00 0.00 0.00 0.00 0.00 0.00 0.00 0.00 0.00 0.00 0.00 0.00 0.00 0.01 0.00 0.01 0.03 0.09 0.27 0.42 0.47 0.32 0.47 0.59 0.77 1.17 1.54 1.94 1.82 1.49
0.00 0.00 0.00 0.00 0.00 0.00 0.00 0.00 0.00 0.00 0.00 0.00 0.00 0.00 0.00 0.00 0.00 0.00 0.00 0.00 0.00 0.00 0.00 0.00 0.00 0.00 0.00 0.00 0.01 0.00 0.00 0.02 0.03 0.13 0.39 1.21 1.92 2.21 2.18 1.69 1.31 1.10 0.85
0.00 0.00 0.00 0.00 0.00 0.00 0.00 0.00 0.00 0.00 0.00 0.00 0.00 0.00 0.00 0.00 0.00 0.00 0.00 0.00 0.00 0.00 0.00 0.00 0.00 0.00 0.00 0.00 0.00 0.01 0.00 0.00 0.00 0.00 0.02 0.05 0.08 0.09 0.08 0.08 0.08 0.08 0.09
0.00 0.00 0.00 0.00 0.00 0.00 0.00 0.00 0.00 0.00 0.00 0.00 0.00 0.00 0.00 0.00 0.00 0.00 0.00 0.00 0.00 0.00 0.00 0.00 0.00 0.00 0.00 0.00 0.00 0.00 0.01 0.01 0.01 0.01 0.02 0.01 0.03 0.02 0.02 0.01 0.01 0.01 0.02
0.00 0.00 0.00 0.00 0.00 0.00 0.00 0.00 0.00 0.00 0.00 0.00 0.00 0.00 0.00 0.00 0.00 0.00 0.00 0.00 0.00 0.00 0.00 0.00 0.00 0.00 0.00 0.00 0.00 0.00 0.00 0.02 0.02 0.01 0.02 0.02 0.02 0.02 0.02 0.02 0.00 0.01 0.02
0.00 0.00 0.00 0.00 0.00 0.00 0.00 0.00 0.00 0.00 0.00 0.00 0.00 0.00 0.00 0.00 0.00 0.00 0.00 0.00 0.00 0.00 0.00 0.00 0.00 0.00 0.00 0.01 0.01 0.01 0.01 0.00 0.01 0.02 0.01 0.00 0.02 0.03 0.05 0.04 0.01 0.01 0.00
0.00 0.00 0.00 0.00 0.00 0.00 0.00 0.00 0.00 0.00 0.00 0.00 0.00 0.00 0.00 0.00 0.00 0.00 0.00 0.00 0.00 0.00 0.00 0.00 0.00 0.00 0.00 0.00 0.01 0.01 0.02 0.03 0.02 0.04 0.02 0.01 0.00 0.01 0.03 0.05 0.07 0.04 0.02